<?xml version="1.0" encoding="UTF-8" standalone="no" ?>
<gpx xmlns="http://www.topografix.com/GPX/1/1" xmlns:xsi="http://www.w3.org/2001/XMLSchema-instance" xsi:schemaLocation="http://www.topografix.com/GPX/1/1 http://www.topografix.com/GPX/1/1/gpx.xsd" version="1.1" creator="VisuGPX - https://www.visugpx.com">
  <metadata>
    <name>Marche transardennaise mars 2015</name>
    <desc><![CDATA[Marche organisé par les bottillons de St Hubert assez sympa tronçon transardennaise   ]]></desc>
  </metadata>
  <trk>
    <name><![CDATA[TRANS ARDENNAISE 2015]]></name>
    <cmt><![CDATA[AVG 09° MAX 22° MIN06°]]></cmt>
    <trkseg>
      <trkpt lat="50.0134" lon="5.48894">
        <ele>354</ele>
        <time>2015-03-28T08:29:02Z</time>
      </trkpt>
      <trkpt lat="50.01471" lon="5.48979">
        <ele>352</ele>
        <time>2015-03-28T08:29:07Z</time>
      </trkpt>
      <trkpt lat="50.01596" lon="5.49057">
        <ele>351</ele>
        <time>2015-03-28T08:29:13Z</time>
      </trkpt>
      <trkpt lat="50.01721" lon="5.49137">
        <ele>349</ele>
        <time>2015-03-28T08:29:19Z</time>
      </trkpt>
      <trkpt lat="50.01842" lon="5.49216">
        <ele>346</ele>
        <time>2015-03-28T08:29:25Z</time>
      </trkpt>
      <trkpt lat="50.01931" lon="5.49306">
        <ele>344</ele>
        <time>2015-03-28T08:29:30Z</time>
      </trkpt>
      <trkpt lat="50.01999" lon="5.49441">
        <ele>343</ele>
        <time>2015-03-28T08:29:35Z</time>
      </trkpt>
      <trkpt lat="50.02051" lon="5.49604">
        <ele>343</ele>
        <time>2015-03-28T08:29:40Z</time>
      </trkpt>
      <trkpt lat="50.02102" lon="5.49768">
        <ele>342</ele>
        <time>2015-03-28T08:29:45Z</time>
      </trkpt>
      <trkpt lat="50.02136" lon="5.4993">
        <ele>340</ele>
        <time>2015-03-28T08:29:50Z</time>
      </trkpt>
      <trkpt lat="50.02148" lon="5.50098">
        <ele>339</ele>
        <time>2015-03-28T08:29:55Z</time>
      </trkpt>
      <trkpt lat="50.02161" lon="5.50308">
        <ele>339</ele>
        <time>2015-03-28T08:30:01Z</time>
      </trkpt>
      <trkpt lat="50.02179" lon="5.50506">
        <ele>338</ele>
        <time>2015-03-28T08:30:07Z</time>
      </trkpt>
      <trkpt lat="50.02212" lon="5.50657">
        <ele>337</ele>
        <time>2015-03-28T08:30:12Z</time>
      </trkpt>
      <trkpt lat="50.02264" lon="5.50845">
        <ele>337</ele>
        <time>2015-03-28T08:30:18Z</time>
      </trkpt>
      <trkpt lat="50.02309" lon="5.51007">
        <ele>337</ele>
        <time>2015-03-28T08:30:23Z</time>
      </trkpt>
      <trkpt lat="50.02354" lon="5.51161">
        <ele>335</ele>
        <time>2015-03-28T08:30:28Z</time>
      </trkpt>
      <trkpt lat="50.02406" lon="5.51335">
        <ele>334</ele>
        <time>2015-03-28T08:30:34Z</time>
      </trkpt>
      <trkpt lat="50.02452" lon="5.51494">
        <ele>333</ele>
        <time>2015-03-28T08:30:40Z</time>
      </trkpt>
      <trkpt lat="50.02499" lon="5.51655">
        <ele>333</ele>
        <time>2015-03-28T08:30:46Z</time>
      </trkpt>
      <trkpt lat="50.02539" lon="5.51795">
        <ele>333</ele>
        <time>2015-03-28T08:30:51Z</time>
      </trkpt>
      <trkpt lat="50.02587" lon="5.51963">
        <ele>331</ele>
        <time>2015-03-28T08:30:57Z</time>
      </trkpt>
      <trkpt lat="50.02632" lon="5.52116">
        <ele>328</ele>
        <time>2015-03-28T08:31:03Z</time>
      </trkpt>
      <trkpt lat="50.02665" lon="5.52228">
        <ele>323</ele>
        <time>2015-03-28T08:31:08Z</time>
      </trkpt>
      <trkpt lat="50.02705" lon="5.52341">
        <ele>319</ele>
        <time>2015-03-28T08:31:14Z</time>
      </trkpt>
      <trkpt lat="50.02761" lon="5.52433">
        <ele>316</ele>
        <time>2015-03-28T08:31:20Z</time>
      </trkpt>
      <trkpt lat="50.02812" lon="5.52504">
        <ele>315</ele>
        <time>2015-03-28T08:31:25Z</time>
      </trkpt>
      <trkpt lat="50.02875" lon="5.5258">
        <ele>313</ele>
        <time>2015-03-28T08:31:30Z</time>
      </trkpt>
      <trkpt lat="50.02942" lon="5.5266">
        <ele>313</ele>
        <time>2015-03-28T08:31:35Z</time>
      </trkpt>
      <trkpt lat="50.03026" lon="5.52762">
        <ele>315</ele>
        <time>2015-03-28T08:31:41Z</time>
      </trkpt>
      <trkpt lat="50.03099" lon="5.52849">
        <ele>318</ele>
        <time>2015-03-28T08:31:46Z</time>
      </trkpt>
      <trkpt lat="50.03173" lon="5.52966">
        <ele>321</ele>
        <time>2015-03-28T08:31:52Z</time>
      </trkpt>
      <trkpt lat="50.03212" lon="5.53063">
        <ele>323</ele>
        <time>2015-03-28T08:31:58Z</time>
      </trkpt>
      <trkpt lat="50.03233" lon="5.53099">
        <ele>324</ele>
        <time>2015-03-28T08:32:04Z</time>
      </trkpt>
      <trkpt lat="50.03266" lon="5.53105">
        <ele>323</ele>
        <time>2015-03-28T08:32:10Z</time>
      </trkpt>
      <trkpt lat="50.03284" lon="5.53108">
        <ele>323</ele>
        <time>2015-03-28T08:32:16Z</time>
      </trkpt>
      <trkpt lat="50.03285" lon="5.53108">
        <ele>322</ele>
        <time>2015-03-28T08:32:22Z</time>
      </trkpt>
      <trkpt lat="50.03283" lon="5.53107">
        <ele>322</ele>
        <time>2015-03-28T08:32:27Z</time>
      </trkpt>
      <trkpt lat="50.03284" lon="5.53106">
        <ele>323</ele>
        <time>2015-03-28T08:32:32Z</time>
      </trkpt>
      <trkpt lat="50.03286" lon="5.53105">
        <ele>322</ele>
        <time>2015-03-28T08:32:38Z</time>
      </trkpt>
      <trkpt lat="50.03286" lon="5.53105">
        <ele>323</ele>
        <time>2015-03-28T08:32:43Z</time>
      </trkpt>
      <trkpt lat="50.03286" lon="5.53105">
        <ele>324</ele>
        <time>2015-03-28T08:32:50Z</time>
      </trkpt>
      <trkpt lat="50.03286" lon="5.53107">
        <ele>322</ele>
        <time>2015-03-28T08:32:56Z</time>
      </trkpt>
      <trkpt lat="50.03284" lon="5.5311">
        <ele>322</ele>
        <time>2015-03-28T08:33:02Z</time>
      </trkpt>
      <trkpt lat="50.03282" lon="5.53111">
        <ele>322</ele>
        <time>2015-03-28T08:33:07Z</time>
      </trkpt>
      <trkpt lat="50.03281" lon="5.53112">
        <ele>322</ele>
        <time>2015-03-28T08:33:12Z</time>
      </trkpt>
      <trkpt lat="50.0328" lon="5.53111">
        <ele>321</ele>
        <time>2015-03-28T08:33:18Z</time>
      </trkpt>
      <trkpt lat="50.03278" lon="5.53109">
        <ele>322</ele>
        <time>2015-03-28T08:33:24Z</time>
      </trkpt>
      <trkpt lat="50.03277" lon="5.53106">
        <ele>321</ele>
        <time>2015-03-28T08:33:29Z</time>
      </trkpt>
      <trkpt lat="50.03276" lon="5.53104">
        <ele>321</ele>
        <time>2015-03-28T08:33:35Z</time>
      </trkpt>
      <trkpt lat="50.03275" lon="5.53103">
        <ele>321</ele>
        <time>2015-03-28T08:33:40Z</time>
      </trkpt>
      <trkpt lat="50.03274" lon="5.53102">
        <ele>321</ele>
        <time>2015-03-28T08:33:46Z</time>
      </trkpt>
      <trkpt lat="50.03275" lon="5.53101">
        <ele>322</ele>
        <time>2015-03-28T08:33:51Z</time>
      </trkpt>
      <trkpt lat="50.03275" lon="5.53101">
        <ele>322</ele>
        <time>2015-03-28T08:33:57Z</time>
      </trkpt>
      <trkpt lat="50.03275" lon="5.53102">
        <ele>321</ele>
        <time>2015-03-28T08:34:03Z</time>
      </trkpt>
      <trkpt lat="50.03276" lon="5.53104">
        <ele>321</ele>
        <time>2015-03-28T08:34:09Z</time>
      </trkpt>
      <trkpt lat="50.03277" lon="5.53104">
        <ele>322</ele>
        <time>2015-03-28T08:34:15Z</time>
      </trkpt>
      <trkpt lat="50.03277" lon="5.53102">
        <ele>322</ele>
        <time>2015-03-28T08:34:21Z</time>
      </trkpt>
      <trkpt lat="50.03279" lon="5.53108">
        <ele>322</ele>
        <time>2015-03-28T08:34:26Z</time>
      </trkpt>
      <trkpt lat="50.0328" lon="5.53111">
        <ele>321</ele>
        <time>2015-03-28T08:34:32Z</time>
      </trkpt>
      <trkpt lat="50.0328" lon="5.53116">
        <ele>322</ele>
        <time>2015-03-28T08:34:38Z</time>
      </trkpt>
      <trkpt lat="50.0328" lon="5.53116">
        <ele>321</ele>
        <time>2015-03-28T08:34:44Z</time>
      </trkpt>
      <trkpt lat="50.03279" lon="5.53119">
        <ele>321</ele>
        <time>2015-03-28T08:34:50Z</time>
      </trkpt>
      <trkpt lat="50.0328" lon="5.53126">
        <ele>321</ele>
        <time>2015-03-28T08:34:55Z</time>
      </trkpt>
      <trkpt lat="50.03279" lon="5.53126">
        <ele>322</ele>
        <time>2015-03-28T08:35:01Z</time>
      </trkpt>
      <trkpt lat="50.03279" lon="5.53122">
        <ele>321</ele>
        <time>2015-03-28T08:35:06Z</time>
      </trkpt>
      <trkpt lat="50.03278" lon="5.53124">
        <ele>321</ele>
        <time>2015-03-28T08:35:11Z</time>
      </trkpt>
      <trkpt lat="50.03278" lon="5.53125">
        <ele>321</ele>
        <time>2015-03-28T08:35:17Z</time>
      </trkpt>
      <trkpt lat="50.03276" lon="5.53123">
        <ele>322</ele>
        <time>2015-03-28T08:35:22Z</time>
      </trkpt>
      <trkpt lat="50.03277" lon="5.53125">
        <ele>322</ele>
        <time>2015-03-28T08:35:28Z</time>
      </trkpt>
      <trkpt lat="50.03278" lon="5.53125">
        <ele>321</ele>
        <time>2015-03-28T08:35:33Z</time>
      </trkpt>
      <trkpt lat="50.03277" lon="5.53126">
        <ele>321</ele>
        <time>2015-03-28T08:35:38Z</time>
      </trkpt>
      <trkpt lat="50.03278" lon="5.53125">
        <ele>321</ele>
        <time>2015-03-28T08:35:43Z</time>
      </trkpt>
      <trkpt lat="50.03279" lon="5.53125">
        <ele>321</ele>
        <time>2015-03-28T08:35:49Z</time>
      </trkpt>
      <trkpt lat="50.03278" lon="5.53125">
        <ele>321</ele>
        <time>2015-03-28T08:35:55Z</time>
      </trkpt>
      <trkpt lat="50.03278" lon="5.53125">
        <ele>322</ele>
        <time>2015-03-28T08:36:01Z</time>
      </trkpt>
      <trkpt lat="50.03277" lon="5.53125">
        <ele>321</ele>
        <time>2015-03-28T08:36:07Z</time>
      </trkpt>
      <trkpt lat="50.03278" lon="5.53125">
        <ele>321</ele>
        <time>2015-03-28T08:36:12Z</time>
      </trkpt>
      <trkpt lat="50.03279" lon="5.53125">
        <ele>322</ele>
        <time>2015-03-28T08:36:18Z</time>
      </trkpt>
      <trkpt lat="50.03279" lon="5.53125">
        <ele>321</ele>
        <time>2015-03-28T08:36:23Z</time>
      </trkpt>
      <trkpt lat="50.0328" lon="5.53125">
        <ele>321</ele>
        <time>2015-03-28T08:36:29Z</time>
      </trkpt>
      <trkpt lat="50.03278" lon="5.53124">
        <ele>322</ele>
        <time>2015-03-28T08:36:35Z</time>
      </trkpt>
      <trkpt lat="50.03273" lon="5.53124">
        <ele>322</ele>
        <time>2015-03-28T08:36:40Z</time>
      </trkpt>
      <trkpt lat="50.03274" lon="5.53127">
        <ele>322</ele>
        <time>2015-03-28T08:36:46Z</time>
      </trkpt>
      <trkpt lat="50.03277" lon="5.5313">
        <ele>322</ele>
        <time>2015-03-28T08:36:52Z</time>
      </trkpt>
      <trkpt lat="50.03278" lon="5.53131">
        <ele>322</ele>
        <time>2015-03-28T08:36:58Z</time>
      </trkpt>
      <trkpt lat="50.03279" lon="5.53133">
        <ele>322</ele>
        <time>2015-03-28T08:37:03Z</time>
      </trkpt>
      <trkpt lat="50.03278" lon="5.53133">
        <ele>322</ele>
        <time>2015-03-28T08:37:09Z</time>
      </trkpt>
      <trkpt lat="50.03281" lon="5.53132">
        <ele>322</ele>
        <time>2015-03-28T08:37:15Z</time>
      </trkpt>
      <trkpt lat="50.03281" lon="5.53135">
        <ele>322</ele>
        <time>2015-03-28T08:37:20Z</time>
      </trkpt>
      <trkpt lat="50.03284" lon="5.53136">
        <ele>322</ele>
        <time>2015-03-28T08:37:26Z</time>
      </trkpt>
      <trkpt lat="50.03284" lon="5.53137">
        <ele>321</ele>
        <time>2015-03-28T08:37:32Z</time>
      </trkpt>
      <trkpt lat="50.03284" lon="5.53135">
        <ele>322</ele>
        <time>2015-03-28T08:37:38Z</time>
      </trkpt>
      <trkpt lat="50.03283" lon="5.53134">
        <ele>321</ele>
        <time>2015-03-28T08:37:43Z</time>
      </trkpt>
      <trkpt lat="50.03277" lon="5.53131">
        <ele>322</ele>
        <time>2015-03-28T08:37:49Z</time>
      </trkpt>
      <trkpt lat="50.03275" lon="5.53126">
        <ele>322</ele>
        <time>2015-03-28T08:37:55Z</time>
      </trkpt>
      <trkpt lat="50.03275" lon="5.53125">
        <ele>322</ele>
        <time>2015-03-28T08:38:00Z</time>
      </trkpt>
      <trkpt lat="50.03275" lon="5.53124">
        <ele>322</ele>
        <time>2015-03-28T08:38:06Z</time>
      </trkpt>
      <trkpt lat="50.03275" lon="5.53122">
        <ele>322</ele>
        <time>2015-03-28T08:38:11Z</time>
      </trkpt>
      <trkpt lat="50.03274" lon="5.53119">
        <ele>322</ele>
        <time>2015-03-28T08:38:17Z</time>
      </trkpt>
      <trkpt lat="50.03274" lon="5.53117">
        <ele>322</ele>
        <time>2015-03-28T08:38:23Z</time>
      </trkpt>
      <trkpt lat="50.03273" lon="5.53116">
        <ele>322</ele>
        <time>2015-03-28T08:38:28Z</time>
      </trkpt>
      <trkpt lat="50.03275" lon="5.53117">
        <ele>322</ele>
        <time>2015-03-28T08:38:33Z</time>
      </trkpt>
      <trkpt lat="50.03276" lon="5.53119">
        <ele>322</ele>
        <time>2015-03-28T08:38:39Z</time>
      </trkpt>
      <trkpt lat="50.03276" lon="5.53122">
        <ele>322</ele>
        <time>2015-03-28T08:38:44Z</time>
      </trkpt>
      <trkpt lat="50.03276" lon="5.53122">
        <ele>321</ele>
        <time>2015-03-28T08:38:50Z</time>
      </trkpt>
      <trkpt lat="50.03277" lon="5.53123">
        <ele>321</ele>
        <time>2015-03-28T08:38:56Z</time>
      </trkpt>
      <trkpt lat="50.03278" lon="5.53122">
        <ele>322</ele>
        <time>2015-03-28T08:39:02Z</time>
      </trkpt>
      <trkpt lat="50.03277" lon="5.53118">
        <ele>321</ele>
        <time>2015-03-28T08:39:07Z</time>
      </trkpt>
      <trkpt lat="50.03276" lon="5.53115">
        <ele>321</ele>
        <time>2015-03-28T08:39:13Z</time>
      </trkpt>
      <trkpt lat="50.03275" lon="5.53113">
        <ele>321</ele>
        <time>2015-03-28T08:39:18Z</time>
      </trkpt>
      <trkpt lat="50.03274" lon="5.53114">
        <ele>321</ele>
        <time>2015-03-28T08:39:23Z</time>
      </trkpt>
      <trkpt lat="50.03276" lon="5.53114">
        <ele>321</ele>
        <time>2015-03-28T08:39:28Z</time>
      </trkpt>
      <trkpt lat="50.03277" lon="5.53116">
        <ele>321</ele>
        <time>2015-03-28T08:39:34Z</time>
      </trkpt>
      <trkpt lat="50.03279" lon="5.53119">
        <ele>321</ele>
        <time>2015-03-28T08:39:39Z</time>
      </trkpt>
      <trkpt lat="50.03281" lon="5.53122">
        <ele>321</ele>
        <time>2015-03-28T08:39:45Z</time>
      </trkpt>
      <trkpt lat="50.03281" lon="5.53122">
        <ele>322</ele>
        <time>2015-03-28T08:39:50Z</time>
      </trkpt>
      <trkpt lat="50.03281" lon="5.53123">
        <ele>321</ele>
        <time>2015-03-28T08:39:55Z</time>
      </trkpt>
      <trkpt lat="50.03282" lon="5.53122">
        <ele>321</ele>
        <time>2015-03-28T08:40:01Z</time>
      </trkpt>
      <trkpt lat="50.03282" lon="5.53123">
        <ele>322</ele>
        <time>2015-03-28T08:40:07Z</time>
      </trkpt>
      <trkpt lat="50.03282" lon="5.53123">
        <ele>322</ele>
        <time>2015-03-28T08:40:13Z</time>
      </trkpt>
      <trkpt lat="50.03282" lon="5.53122">
        <ele>321</ele>
        <time>2015-03-28T08:40:18Z</time>
      </trkpt>
      <trkpt lat="50.03283" lon="5.53122">
        <ele>321</ele>
        <time>2015-03-28T08:40:24Z</time>
      </trkpt>
      <trkpt lat="50.03283" lon="5.5312">
        <ele>321</ele>
        <time>2015-03-28T08:40:30Z</time>
      </trkpt>
      <trkpt lat="50.03283" lon="5.53121">
        <ele>321</ele>
        <time>2015-03-28T08:40:37Z</time>
      </trkpt>
      <trkpt lat="50.03282" lon="5.5312">
        <ele>321</ele>
        <time>2015-03-28T08:40:42Z</time>
      </trkpt>
      <trkpt lat="50.03282" lon="5.53118">
        <ele>322</ele>
        <time>2015-03-28T08:40:48Z</time>
      </trkpt>
      <trkpt lat="50.03282" lon="5.53117">
        <ele>321</ele>
        <time>2015-03-28T08:40:53Z</time>
      </trkpt>
      <trkpt lat="50.03282" lon="5.53116">
        <ele>322</ele>
        <time>2015-03-28T08:40:58Z</time>
      </trkpt>
      <trkpt lat="50.03284" lon="5.53113">
        <ele>321</ele>
        <time>2015-03-28T08:41:04Z</time>
      </trkpt>
      <trkpt lat="50.03283" lon="5.53114">
        <ele>322</ele>
        <time>2015-03-28T08:41:09Z</time>
      </trkpt>
      <trkpt lat="50.03283" lon="5.53117">
        <ele>322</ele>
        <time>2015-03-28T08:41:14Z</time>
      </trkpt>
      <trkpt lat="50.03286" lon="5.53119">
        <ele>322</ele>
        <time>2015-03-28T08:41:20Z</time>
      </trkpt>
      <trkpt lat="50.03284" lon="5.53118">
        <ele>322</ele>
        <time>2015-03-28T08:41:25Z</time>
      </trkpt>
      <trkpt lat="50.03283" lon="5.53114">
        <ele>322</ele>
        <time>2015-03-28T08:41:30Z</time>
      </trkpt>
      <trkpt lat="50.03281" lon="5.53108">
        <ele>322</ele>
        <time>2015-03-28T08:41:35Z</time>
      </trkpt>
      <trkpt lat="50.03281" lon="5.53105">
        <ele>321</ele>
        <time>2015-03-28T08:41:40Z</time>
      </trkpt>
      <trkpt lat="50.03283" lon="5.53103">
        <ele>322</ele>
        <time>2015-03-28T08:41:46Z</time>
      </trkpt>
      <trkpt lat="50.03291" lon="5.53105">
        <ele>322</ele>
        <time>2015-03-28T08:41:52Z</time>
      </trkpt>
      <trkpt lat="50.03297" lon="5.53107">
        <ele>322</ele>
        <time>2015-03-28T08:41:57Z</time>
      </trkpt>
      <trkpt lat="50.03305" lon="5.53108">
        <ele>322</ele>
        <time>2015-03-28T08:42:03Z</time>
      </trkpt>
      <trkpt lat="50.03312" lon="5.53108">
        <ele>321</ele>
        <time>2015-03-28T08:42:08Z</time>
      </trkpt>
      <trkpt lat="50.0332" lon="5.53109">
        <ele>321</ele>
        <time>2015-03-28T08:42:14Z</time>
      </trkpt>
      <trkpt lat="50.03326" lon="5.53111">
        <ele>321</ele>
        <time>2015-03-28T08:42:19Z</time>
      </trkpt>
      <trkpt lat="50.03334" lon="5.53112">
        <ele>321</ele>
        <time>2015-03-28T08:42:25Z</time>
      </trkpt>
      <trkpt lat="50.03342" lon="5.53112">
        <ele>320</ele>
        <time>2015-03-28T08:42:31Z</time>
      </trkpt>
      <trkpt lat="50.03347" lon="5.53112">
        <ele>320</ele>
        <time>2015-03-28T08:42:36Z</time>
      </trkpt>
      <trkpt lat="50.03355" lon="5.53111">
        <ele>320</ele>
        <time>2015-03-28T08:42:42Z</time>
      </trkpt>
      <trkpt lat="50.03362" lon="5.53109">
        <ele>320</ele>
        <time>2015-03-28T08:42:48Z</time>
      </trkpt>
      <trkpt lat="50.03367" lon="5.53108">
        <ele>320</ele>
        <time>2015-03-28T08:42:53Z</time>
      </trkpt>
      <trkpt lat="50.0337" lon="5.53107">
        <ele>320</ele>
        <time>2015-03-28T08:42:59Z</time>
      </trkpt>
      <trkpt lat="50.03371" lon="5.53106">
        <ele>320</ele>
        <time>2015-03-28T08:43:04Z</time>
      </trkpt>
      <trkpt lat="50.03378" lon="5.53103">
        <ele>319</ele>
        <time>2015-03-28T08:43:10Z</time>
      </trkpt>
      <trkpt lat="50.03385" lon="5.53101">
        <ele>319</ele>
        <time>2015-03-28T08:43:15Z</time>
      </trkpt>
      <trkpt lat="50.03391" lon="5.53098">
        <ele>319</ele>
        <time>2015-03-28T08:43:20Z</time>
      </trkpt>
      <trkpt lat="50.03398" lon="5.53093">
        <ele>318</ele>
        <time>2015-03-28T08:43:26Z</time>
      </trkpt>
      <trkpt lat="50.03403" lon="5.53088">
        <ele>318</ele>
        <time>2015-03-28T08:43:31Z</time>
      </trkpt>
      <trkpt lat="50.03408" lon="5.53079">
        <ele>318</ele>
        <time>2015-03-28T08:43:37Z</time>
      </trkpt>
      <trkpt lat="50.03412" lon="5.53073">
        <ele>318</ele>
        <time>2015-03-28T08:43:42Z</time>
      </trkpt>
      <trkpt lat="50.03415" lon="5.53067">
        <ele>317</ele>
        <time>2015-03-28T08:43:48Z</time>
      </trkpt>
      <trkpt lat="50.03418" lon="5.53061">
        <ele>317</ele>
        <time>2015-03-28T08:43:53Z</time>
      </trkpt>
      <trkpt lat="50.03421" lon="5.53051">
        <ele>318</ele>
        <time>2015-03-28T08:43:59Z</time>
      </trkpt>
      <trkpt lat="50.03423" lon="5.53039">
        <ele>317</ele>
        <time>2015-03-28T08:44:05Z</time>
      </trkpt>
      <trkpt lat="50.03426" lon="5.5303">
        <ele>317</ele>
        <time>2015-03-28T08:44:10Z</time>
      </trkpt>
      <trkpt lat="50.03428" lon="5.53019">
        <ele>317</ele>
        <time>2015-03-28T08:44:16Z</time>
      </trkpt>
      <trkpt lat="50.0343" lon="5.53008">
        <ele>317</ele>
        <time>2015-03-28T08:44:22Z</time>
      </trkpt>
      <trkpt lat="50.03433" lon="5.52997">
        <ele>317</ele>
        <time>2015-03-28T08:44:28Z</time>
      </trkpt>
      <trkpt lat="50.03434" lon="5.52988">
        <ele>316</ele>
        <time>2015-03-28T08:44:33Z</time>
      </trkpt>
      <trkpt lat="50.03437" lon="5.52976">
        <ele>315</ele>
        <time>2015-03-28T08:44:39Z</time>
      </trkpt>
      <trkpt lat="50.03438" lon="5.52967">
        <ele>315</ele>
        <time>2015-03-28T08:44:44Z</time>
      </trkpt>
      <trkpt lat="50.03439" lon="5.52959">
        <ele>315</ele>
        <time>2015-03-28T08:44:49Z</time>
      </trkpt>
      <trkpt lat="50.03442" lon="5.52952">
        <ele>315</ele>
        <time>2015-03-28T08:44:55Z</time>
      </trkpt>
      <trkpt lat="50.03444" lon="5.52944">
        <ele>314</ele>
        <time>2015-03-28T08:45:00Z</time>
      </trkpt>
      <trkpt lat="50.03448" lon="5.52936">
        <ele>314</ele>
        <time>2015-03-28T08:45:05Z</time>
      </trkpt>
      <trkpt lat="50.03453" lon="5.52928">
        <ele>314</ele>
        <time>2015-03-28T08:45:10Z</time>
      </trkpt>
      <trkpt lat="50.03458" lon="5.52923">
        <ele>314</ele>
        <time>2015-03-28T08:45:15Z</time>
      </trkpt>
      <trkpt lat="50.03462" lon="5.52922">
        <ele>314</ele>
        <time>2015-03-28T08:45:21Z</time>
      </trkpt>
      <trkpt lat="50.03471" lon="5.52923">
        <ele>315</ele>
        <time>2015-03-28T08:45:27Z</time>
      </trkpt>
      <trkpt lat="50.03477" lon="5.52921">
        <ele>315</ele>
        <time>2015-03-28T08:45:32Z</time>
      </trkpt>
      <trkpt lat="50.03484" lon="5.52921">
        <ele>315</ele>
        <time>2015-03-28T08:45:37Z</time>
      </trkpt>
      <trkpt lat="50.03492" lon="5.52919">
        <ele>315</ele>
        <time>2015-03-28T08:45:43Z</time>
      </trkpt>
      <trkpt lat="50.03495" lon="5.52919">
        <ele>315</ele>
        <time>2015-03-28T08:45:49Z</time>
      </trkpt>
      <trkpt lat="50.03502" lon="5.52918">
        <ele>315</ele>
        <time>2015-03-28T08:45:55Z</time>
      </trkpt>
      <trkpt lat="50.03508" lon="5.52917">
        <ele>314</ele>
        <time>2015-03-28T08:46:00Z</time>
      </trkpt>
      <trkpt lat="50.03514" lon="5.52916">
        <ele>314</ele>
        <time>2015-03-28T08:46:05Z</time>
      </trkpt>
      <trkpt lat="50.03521" lon="5.52916">
        <ele>313</ele>
        <time>2015-03-28T08:46:11Z</time>
      </trkpt>
      <trkpt lat="50.03528" lon="5.52917">
        <ele>313</ele>
        <time>2015-03-28T08:46:16Z</time>
      </trkpt>
      <trkpt lat="50.03535" lon="5.52918">
        <ele>313</ele>
        <time>2015-03-28T08:46:22Z</time>
      </trkpt>
      <trkpt lat="50.03542" lon="5.52917">
        <ele>312</ele>
        <time>2015-03-28T08:46:27Z</time>
      </trkpt>
      <trkpt lat="50.03547" lon="5.52916">
        <ele>312</ele>
        <time>2015-03-28T08:46:32Z</time>
      </trkpt>
      <trkpt lat="50.03552" lon="5.52914">
        <ele>312</ele>
        <time>2015-03-28T08:46:38Z</time>
      </trkpt>
      <trkpt lat="50.03558" lon="5.52913">
        <ele>311</ele>
        <time>2015-03-28T08:46:44Z</time>
      </trkpt>
      <trkpt lat="50.03564" lon="5.5291">
        <ele>311</ele>
        <time>2015-03-28T08:46:50Z</time>
      </trkpt>
      <trkpt lat="50.0357" lon="5.52907">
        <ele>310</ele>
        <time>2015-03-28T08:46:55Z</time>
      </trkpt>
      <trkpt lat="50.03576" lon="5.52905">
        <ele>310</ele>
        <time>2015-03-28T08:47:00Z</time>
      </trkpt>
      <trkpt lat="50.03583" lon="5.52902">
        <ele>310</ele>
        <time>2015-03-28T08:47:06Z</time>
      </trkpt>
      <trkpt lat="50.0359" lon="5.529">
        <ele>309</ele>
        <time>2015-03-28T08:47:12Z</time>
      </trkpt>
      <trkpt lat="50.03596" lon="5.52899">
        <ele>309</ele>
        <time>2015-03-28T08:47:17Z</time>
      </trkpt>
      <trkpt lat="50.03604" lon="5.52897">
        <ele>309</ele>
        <time>2015-03-28T08:47:23Z</time>
      </trkpt>
      <trkpt lat="50.03613" lon="5.52895">
        <ele>308</ele>
        <time>2015-03-28T08:47:29Z</time>
      </trkpt>
      <trkpt lat="50.0362" lon="5.52893">
        <ele>308</ele>
        <time>2015-03-28T08:47:35Z</time>
      </trkpt>
      <trkpt lat="50.03626" lon="5.52891">
        <ele>308</ele>
        <time>2015-03-28T08:47:40Z</time>
      </trkpt>
      <trkpt lat="50.03633" lon="5.52887">
        <ele>308</ele>
        <time>2015-03-28T08:47:45Z</time>
      </trkpt>
      <trkpt lat="50.03639" lon="5.52884">
        <ele>309</ele>
        <time>2015-03-28T08:47:51Z</time>
      </trkpt>
      <trkpt lat="50.03643" lon="5.52883">
        <ele>309</ele>
        <time>2015-03-28T08:47:56Z</time>
      </trkpt>
      <trkpt lat="50.03648" lon="5.52881">
        <ele>308</ele>
        <time>2015-03-28T08:48:01Z</time>
      </trkpt>
      <trkpt lat="50.03654" lon="5.52879">
        <ele>308</ele>
        <time>2015-03-28T08:48:07Z</time>
      </trkpt>
      <trkpt lat="50.03661" lon="5.52876">
        <ele>308</ele>
        <time>2015-03-28T08:48:12Z</time>
      </trkpt>
      <trkpt lat="50.03671" lon="5.52874">
        <ele>308</ele>
        <time>2015-03-28T08:48:18Z</time>
      </trkpt>
      <trkpt lat="50.03681" lon="5.52873">
        <ele>307</ele>
        <time>2015-03-28T08:48:24Z</time>
      </trkpt>
      <trkpt lat="50.0369" lon="5.52871">
        <ele>307</ele>
        <time>2015-03-28T08:48:30Z</time>
      </trkpt>
      <trkpt lat="50.03698" lon="5.5287">
        <ele>307</ele>
        <time>2015-03-28T08:48:35Z</time>
      </trkpt>
      <trkpt lat="50.03706" lon="5.52868">
        <ele>307</ele>
        <time>2015-03-28T08:48:41Z</time>
      </trkpt>
      <trkpt lat="50.03713" lon="5.52866">
        <ele>306</ele>
        <time>2015-03-28T08:48:46Z</time>
      </trkpt>
      <trkpt lat="50.0372" lon="5.52864">
        <ele>306</ele>
        <time>2015-03-28T08:48:51Z</time>
      </trkpt>
      <trkpt lat="50.03722" lon="5.5286">
        <ele>306</ele>
        <time>2015-03-28T08:48:57Z</time>
      </trkpt>
      <trkpt lat="50.03728" lon="5.52853">
        <ele>305</ele>
        <time>2015-03-28T08:49:03Z</time>
      </trkpt>
      <trkpt lat="50.03737" lon="5.52851">
        <ele>305</ele>
        <time>2015-03-28T08:49:08Z</time>
      </trkpt>
      <trkpt lat="50.03746" lon="5.52851">
        <ele>304</ele>
        <time>2015-03-28T08:49:14Z</time>
      </trkpt>
      <trkpt lat="50.03753" lon="5.52849">
        <ele>304</ele>
        <time>2015-03-28T08:49:19Z</time>
      </trkpt>
      <trkpt lat="50.03759" lon="5.52847">
        <ele>304</ele>
        <time>2015-03-28T08:49:24Z</time>
      </trkpt>
      <trkpt lat="50.03769" lon="5.52845">
        <ele>304</ele>
        <time>2015-03-28T08:49:30Z</time>
      </trkpt>
      <trkpt lat="50.03776" lon="5.52842">
        <ele>304</ele>
        <time>2015-03-28T08:49:35Z</time>
      </trkpt>
      <trkpt lat="50.03783" lon="5.52839">
        <ele>304</ele>
        <time>2015-03-28T08:49:41Z</time>
      </trkpt>
      <trkpt lat="50.03792" lon="5.52835">
        <ele>304</ele>
        <time>2015-03-28T08:49:47Z</time>
      </trkpt>
      <trkpt lat="50.03798" lon="5.5283">
        <ele>304</ele>
        <time>2015-03-28T08:49:53Z</time>
      </trkpt>
      <trkpt lat="50.03804" lon="5.52826">
        <ele>303</ele>
        <time>2015-03-28T08:49:59Z</time>
      </trkpt>
      <trkpt lat="50.03811" lon="5.52821">
        <ele>303</ele>
        <time>2015-03-28T08:50:05Z</time>
      </trkpt>
      <trkpt lat="50.03816" lon="5.52818">
        <ele>303</ele>
        <time>2015-03-28T08:50:10Z</time>
      </trkpt>
      <trkpt lat="50.03822" lon="5.52813">
        <ele>303</ele>
        <time>2015-03-28T08:50:16Z</time>
      </trkpt>
      <trkpt lat="50.03828" lon="5.52808">
        <ele>304</ele>
        <time>2015-03-28T08:50:22Z</time>
      </trkpt>
      <trkpt lat="50.03833" lon="5.52803">
        <ele>304</ele>
        <time>2015-03-28T08:50:27Z</time>
      </trkpt>
      <trkpt lat="50.0384" lon="5.52798">
        <ele>303</ele>
        <time>2015-03-28T08:50:33Z</time>
      </trkpt>
      <trkpt lat="50.03844" lon="5.52793">
        <ele>304</ele>
        <time>2015-03-28T08:50:38Z</time>
      </trkpt>
      <trkpt lat="50.03852" lon="5.52786">
        <ele>304</ele>
        <time>2015-03-28T08:50:44Z</time>
      </trkpt>
      <trkpt lat="50.03857" lon="5.5278">
        <ele>303</ele>
        <time>2015-03-28T08:50:49Z</time>
      </trkpt>
      <trkpt lat="50.03865" lon="5.52774">
        <ele>303</ele>
        <time>2015-03-28T08:50:55Z</time>
      </trkpt>
      <trkpt lat="50.03871" lon="5.52769">
        <ele>303</ele>
        <time>2015-03-28T08:51:00Z</time>
      </trkpt>
      <trkpt lat="50.03878" lon="5.52761">
        <ele>303</ele>
        <time>2015-03-28T08:51:06Z</time>
      </trkpt>
      <trkpt lat="50.03884" lon="5.52754">
        <ele>304</ele>
        <time>2015-03-28T08:51:11Z</time>
      </trkpt>
      <trkpt lat="50.03892" lon="5.52747">
        <ele>303</ele>
        <time>2015-03-28T08:51:17Z</time>
      </trkpt>
      <trkpt lat="50.03901" lon="5.5274">
        <ele>303</ele>
        <time>2015-03-28T08:51:23Z</time>
      </trkpt>
      <trkpt lat="50.03907" lon="5.52735">
        <ele>303</ele>
        <time>2015-03-28T08:51:28Z</time>
      </trkpt>
      <trkpt lat="50.03912" lon="5.52729">
        <ele>303</ele>
        <time>2015-03-28T08:51:33Z</time>
      </trkpt>
      <trkpt lat="50.03918" lon="5.52722">
        <ele>303</ele>
        <time>2015-03-28T08:51:39Z</time>
      </trkpt>
      <trkpt lat="50.03924" lon="5.52717">
        <ele>304</ele>
        <time>2015-03-28T08:51:44Z</time>
      </trkpt>
      <trkpt lat="50.0393" lon="5.52713">
        <ele>304</ele>
        <time>2015-03-28T08:51:49Z</time>
      </trkpt>
      <trkpt lat="50.03934" lon="5.52708">
        <ele>304</ele>
        <time>2015-03-28T08:51:54Z</time>
      </trkpt>
      <trkpt lat="50.0394" lon="5.52702">
        <ele>303</ele>
        <time>2015-03-28T08:52:00Z</time>
      </trkpt>
      <trkpt lat="50.03946" lon="5.52698">
        <ele>303</ele>
        <time>2015-03-28T08:52:05Z</time>
      </trkpt>
      <trkpt lat="50.03952" lon="5.52693">
        <ele>303</ele>
        <time>2015-03-28T08:52:10Z</time>
      </trkpt>
      <trkpt lat="50.0396" lon="5.52688">
        <ele>303</ele>
        <time>2015-03-28T08:52:16Z</time>
      </trkpt>
      <trkpt lat="50.03967" lon="5.52682">
        <ele>303</ele>
        <time>2015-03-28T08:52:21Z</time>
      </trkpt>
      <trkpt lat="50.03974" lon="5.52677">
        <ele>304</ele>
        <time>2015-03-28T08:52:26Z</time>
      </trkpt>
      <trkpt lat="50.03981" lon="5.5267">
        <ele>304</ele>
        <time>2015-03-28T08:52:32Z</time>
      </trkpt>
      <trkpt lat="50.03986" lon="5.52665">
        <ele>303</ele>
        <time>2015-03-28T08:52:37Z</time>
      </trkpt>
      <trkpt lat="50.03991" lon="5.52659">
        <ele>303</ele>
        <time>2015-03-28T08:52:42Z</time>
      </trkpt>
      <trkpt lat="50.03997" lon="5.52653">
        <ele>303</ele>
        <time>2015-03-28T08:52:48Z</time>
      </trkpt>
      <trkpt lat="50.04002" lon="5.52648">
        <ele>303</ele>
        <time>2015-03-28T08:52:53Z</time>
      </trkpt>
      <trkpt lat="50.04006" lon="5.52642">
        <ele>303</ele>
        <time>2015-03-28T08:52:59Z</time>
      </trkpt>
      <trkpt lat="50.0401" lon="5.52637">
        <ele>303</ele>
        <time>2015-03-28T08:53:04Z</time>
      </trkpt>
      <trkpt lat="50.04015" lon="5.52631">
        <ele>303</ele>
        <time>2015-03-28T08:53:10Z</time>
      </trkpt>
      <trkpt lat="50.04022" lon="5.52626">
        <ele>303</ele>
        <time>2015-03-28T08:53:16Z</time>
      </trkpt>
      <trkpt lat="50.04029" lon="5.5262">
        <ele>303</ele>
        <time>2015-03-28T08:53:21Z</time>
      </trkpt>
      <trkpt lat="50.04037" lon="5.52614">
        <ele>303</ele>
        <time>2015-03-28T08:53:27Z</time>
      </trkpt>
      <trkpt lat="50.04042" lon="5.52607">
        <ele>303</ele>
        <time>2015-03-28T08:53:33Z</time>
      </trkpt>
      <trkpt lat="50.04048" lon="5.52601">
        <ele>303</ele>
        <time>2015-03-28T08:53:39Z</time>
      </trkpt>
      <trkpt lat="50.04055" lon="5.52596">
        <ele>303</ele>
        <time>2015-03-28T08:53:45Z</time>
      </trkpt>
      <trkpt lat="50.04059" lon="5.52591">
        <ele>303</ele>
        <time>2015-03-28T08:53:50Z</time>
      </trkpt>
      <trkpt lat="50.04065" lon="5.52584">
        <ele>303</ele>
        <time>2015-03-28T08:53:55Z</time>
      </trkpt>
      <trkpt lat="50.04072" lon="5.52577">
        <ele>303</ele>
        <time>2015-03-28T08:54:01Z</time>
      </trkpt>
      <trkpt lat="50.04077" lon="5.52572">
        <ele>303</ele>
        <time>2015-03-28T08:54:06Z</time>
      </trkpt>
      <trkpt lat="50.04083" lon="5.52567">
        <ele>303</ele>
        <time>2015-03-28T08:54:11Z</time>
      </trkpt>
      <trkpt lat="50.04091" lon="5.52562">
        <ele>303</ele>
        <time>2015-03-28T08:54:17Z</time>
      </trkpt>
      <trkpt lat="50.04097" lon="5.52557">
        <ele>303</ele>
        <time>2015-03-28T08:54:22Z</time>
      </trkpt>
      <trkpt lat="50.04104" lon="5.52551">
        <ele>304</ele>
        <time>2015-03-28T08:54:28Z</time>
      </trkpt>
      <trkpt lat="50.0411" lon="5.52546">
        <ele>304</ele>
        <time>2015-03-28T08:54:33Z</time>
      </trkpt>
      <trkpt lat="50.04115" lon="5.52542">
        <ele>304</ele>
        <time>2015-03-28T08:54:38Z</time>
      </trkpt>
      <trkpt lat="50.0412" lon="5.52535">
        <ele>303</ele>
        <time>2015-03-28T08:54:44Z</time>
      </trkpt>
      <trkpt lat="50.04127" lon="5.5253">
        <ele>304</ele>
        <time>2015-03-28T08:54:50Z</time>
      </trkpt>
      <trkpt lat="50.04132" lon="5.52525">
        <ele>304</ele>
        <time>2015-03-28T08:54:55Z</time>
      </trkpt>
      <trkpt lat="50.04137" lon="5.5252">
        <ele>304</ele>
        <time>2015-03-28T08:55:00Z</time>
      </trkpt>
      <trkpt lat="50.04143" lon="5.52513">
        <ele>304</ele>
        <time>2015-03-28T08:55:06Z</time>
      </trkpt>
      <trkpt lat="50.0415" lon="5.52506">
        <ele>304</ele>
        <time>2015-03-28T08:55:12Z</time>
      </trkpt>
      <trkpt lat="50.04155" lon="5.525">
        <ele>304</ele>
        <time>2015-03-28T08:55:17Z</time>
      </trkpt>
      <trkpt lat="50.0416" lon="5.52495">
        <ele>304</ele>
        <time>2015-03-28T08:55:22Z</time>
      </trkpt>
      <trkpt lat="50.04163" lon="5.52491">
        <ele>305</ele>
        <time>2015-03-28T08:55:28Z</time>
      </trkpt>
      <trkpt lat="50.04168" lon="5.52484">
        <ele>305</ele>
        <time>2015-03-28T08:55:33Z</time>
      </trkpt>
      <trkpt lat="50.04174" lon="5.52477">
        <ele>305</ele>
        <time>2015-03-28T08:55:39Z</time>
      </trkpt>
      <trkpt lat="50.0418" lon="5.52472">
        <ele>306</ele>
        <time>2015-03-28T08:55:44Z</time>
      </trkpt>
      <trkpt lat="50.04186" lon="5.52467">
        <ele>306</ele>
        <time>2015-03-28T08:55:50Z</time>
      </trkpt>
      <trkpt lat="50.0419" lon="5.52465">
        <ele>306</ele>
        <time>2015-03-28T08:55:56Z</time>
      </trkpt>
      <trkpt lat="50.04197" lon="5.52459">
        <ele>306</ele>
        <time>2015-03-28T08:56:02Z</time>
      </trkpt>
      <trkpt lat="50.04202" lon="5.52456">
        <ele>307</ele>
        <time>2015-03-28T08:56:07Z</time>
      </trkpt>
      <trkpt lat="50.04204" lon="5.52453">
        <ele>307</ele>
        <time>2015-03-28T08:56:13Z</time>
      </trkpt>
      <trkpt lat="50.04209" lon="5.52447">
        <ele>307</ele>
        <time>2015-03-28T08:56:18Z</time>
      </trkpt>
      <trkpt lat="50.04215" lon="5.52442">
        <ele>308</ele>
        <time>2015-03-28T08:56:24Z</time>
      </trkpt>
      <trkpt lat="50.04222" lon="5.52436">
        <ele>308</ele>
        <time>2015-03-28T08:56:30Z</time>
      </trkpt>
      <trkpt lat="50.04228" lon="5.52432">
        <ele>308</ele>
        <time>2015-03-28T08:56:35Z</time>
      </trkpt>
      <trkpt lat="50.04235" lon="5.52426">
        <ele>309</ele>
        <time>2015-03-28T08:56:41Z</time>
      </trkpt>
      <trkpt lat="50.04242" lon="5.52422">
        <ele>309</ele>
        <time>2015-03-28T08:56:46Z</time>
      </trkpt>
      <trkpt lat="50.04248" lon="5.52416">
        <ele>309</ele>
        <time>2015-03-28T08:56:52Z</time>
      </trkpt>
      <trkpt lat="50.04256" lon="5.5241">
        <ele>310</ele>
        <time>2015-03-28T08:56:58Z</time>
      </trkpt>
      <trkpt lat="50.04264" lon="5.52404">
        <ele>311</ele>
        <time>2015-03-28T08:57:04Z</time>
      </trkpt>
      <trkpt lat="50.04271" lon="5.52398">
        <ele>311</ele>
        <time>2015-03-28T08:57:10Z</time>
      </trkpt>
      <trkpt lat="50.04277" lon="5.52392">
        <ele>311</ele>
        <time>2015-03-28T08:57:15Z</time>
      </trkpt>
      <trkpt lat="50.04284" lon="5.52387">
        <ele>312</ele>
        <time>2015-03-28T08:57:20Z</time>
      </trkpt>
      <trkpt lat="50.04291" lon="5.5238">
        <ele>312</ele>
        <time>2015-03-28T08:57:26Z</time>
      </trkpt>
      <trkpt lat="50.04297" lon="5.52376">
        <ele>311</ele>
        <time>2015-03-28T08:57:31Z</time>
      </trkpt>
      <trkpt lat="50.04303" lon="5.52371">
        <ele>312</ele>
        <time>2015-03-28T08:57:36Z</time>
      </trkpt>
      <trkpt lat="50.04309" lon="5.52367">
        <ele>312</ele>
        <time>2015-03-28T08:57:41Z</time>
      </trkpt>
      <trkpt lat="50.04315" lon="5.52361">
        <ele>311</ele>
        <time>2015-03-28T08:57:47Z</time>
      </trkpt>
      <trkpt lat="50.0432" lon="5.52356">
        <ele>311</ele>
        <time>2015-03-28T08:57:52Z</time>
      </trkpt>
      <trkpt lat="50.04325" lon="5.52349">
        <ele>309</ele>
        <time>2015-03-28T08:57:58Z</time>
      </trkpt>
      <trkpt lat="50.0433" lon="5.52344">
        <ele>308</ele>
        <time>2015-03-28T08:58:03Z</time>
      </trkpt>
      <trkpt lat="50.04334" lon="5.52339">
        <ele>308</ele>
        <time>2015-03-28T08:58:08Z</time>
      </trkpt>
      <trkpt lat="50.0434" lon="5.52334">
        <ele>307</ele>
        <time>2015-03-28T08:58:14Z</time>
      </trkpt>
      <trkpt lat="50.04346" lon="5.52328">
        <ele>306</ele>
        <time>2015-03-28T08:58:20Z</time>
      </trkpt>
      <trkpt lat="50.04354" lon="5.5232">
        <ele>305</ele>
        <time>2015-03-28T08:58:26Z</time>
      </trkpt>
      <trkpt lat="50.04361" lon="5.52313">
        <ele>305</ele>
        <time>2015-03-28T08:58:31Z</time>
      </trkpt>
      <trkpt lat="50.04369" lon="5.52305">
        <ele>306</ele>
        <time>2015-03-28T08:58:37Z</time>
      </trkpt>
      <trkpt lat="50.04376" lon="5.52298">
        <ele>306</ele>
        <time>2015-03-28T08:58:42Z</time>
      </trkpt>
      <trkpt lat="50.04384" lon="5.52292">
        <ele>306</ele>
        <time>2015-03-28T08:58:48Z</time>
      </trkpt>
      <trkpt lat="50.04391" lon="5.52285">
        <ele>305</ele>
        <time>2015-03-28T08:58:54Z</time>
      </trkpt>
      <trkpt lat="50.04398" lon="5.5228">
        <ele>305</ele>
        <time>2015-03-28T08:58:59Z</time>
      </trkpt>
      <trkpt lat="50.04404" lon="5.52273">
        <ele>305</ele>
        <time>2015-03-28T08:59:05Z</time>
      </trkpt>
      <trkpt lat="50.04409" lon="5.52267">
        <ele>305</ele>
        <time>2015-03-28T08:59:11Z</time>
      </trkpt>
      <trkpt lat="50.04415" lon="5.52263">
        <ele>304</ele>
        <time>2015-03-28T08:59:16Z</time>
      </trkpt>
      <trkpt lat="50.04419" lon="5.52258">
        <ele>304</ele>
        <time>2015-03-28T08:59:21Z</time>
      </trkpt>
      <trkpt lat="50.04425" lon="5.5225">
        <ele>305</ele>
        <time>2015-03-28T08:59:27Z</time>
      </trkpt>
      <trkpt lat="50.04431" lon="5.52244">
        <ele>304</ele>
        <time>2015-03-28T08:59:32Z</time>
      </trkpt>
      <trkpt lat="50.04438" lon="5.52237">
        <ele>304</ele>
        <time>2015-03-28T08:59:38Z</time>
      </trkpt>
      <trkpt lat="50.04446" lon="5.52229">
        <ele>304</ele>
        <time>2015-03-28T08:59:44Z</time>
      </trkpt>
      <trkpt lat="50.04454" lon="5.52221">
        <ele>303</ele>
        <time>2015-03-28T08:59:50Z</time>
      </trkpt>
      <trkpt lat="50.04459" lon="5.52216">
        <ele>304</ele>
        <time>2015-03-28T08:59:55Z</time>
      </trkpt>
      <trkpt lat="50.04463" lon="5.52214">
        <ele>304</ele>
        <time>2015-03-28T09:00:00Z</time>
      </trkpt>
      <trkpt lat="50.0447" lon="5.52207">
        <ele>304</ele>
        <time>2015-03-28T09:00:06Z</time>
      </trkpt>
      <trkpt lat="50.04476" lon="5.52202">
        <ele>303</ele>
        <time>2015-03-28T09:00:11Z</time>
      </trkpt>
      <trkpt lat="50.04482" lon="5.52196">
        <ele>303</ele>
        <time>2015-03-28T09:00:16Z</time>
      </trkpt>
      <trkpt lat="50.04489" lon="5.5219">
        <ele>303</ele>
        <time>2015-03-28T09:00:22Z</time>
      </trkpt>
      <trkpt lat="50.04496" lon="5.52185">
        <ele>303</ele>
        <time>2015-03-28T09:00:28Z</time>
      </trkpt>
      <trkpt lat="50.04501" lon="5.52179">
        <ele>304</ele>
        <time>2015-03-28T09:00:33Z</time>
      </trkpt>
      <trkpt lat="50.04508" lon="5.52173">
        <ele>303</ele>
        <time>2015-03-28T09:00:39Z</time>
      </trkpt>
      <trkpt lat="50.04515" lon="5.52165">
        <ele>303</ele>
        <time>2015-03-28T09:00:45Z</time>
      </trkpt>
      <trkpt lat="50.04522" lon="5.5216">
        <ele>303</ele>
        <time>2015-03-28T09:00:50Z</time>
      </trkpt>
      <trkpt lat="50.0453" lon="5.52152">
        <ele>303</ele>
        <time>2015-03-28T09:00:56Z</time>
      </trkpt>
      <trkpt lat="50.04535" lon="5.52146">
        <ele>303</ele>
        <time>2015-03-28T09:01:01Z</time>
      </trkpt>
      <trkpt lat="50.04542" lon="5.5214">
        <ele>303</ele>
        <time>2015-03-28T09:01:07Z</time>
      </trkpt>
      <trkpt lat="50.04549" lon="5.52135">
        <ele>304</ele>
        <time>2015-03-28T09:01:13Z</time>
      </trkpt>
      <trkpt lat="50.04555" lon="5.52129">
        <ele>304</ele>
        <time>2015-03-28T09:01:18Z</time>
      </trkpt>
      <trkpt lat="50.04562" lon="5.52124">
        <ele>303</ele>
        <time>2015-03-28T09:01:24Z</time>
      </trkpt>
      <trkpt lat="50.04569" lon="5.52117">
        <ele>303</ele>
        <time>2015-03-28T09:01:30Z</time>
      </trkpt>
      <trkpt lat="50.04575" lon="5.5211">
        <ele>304</ele>
        <time>2015-03-28T09:01:36Z</time>
      </trkpt>
      <trkpt lat="50.04581" lon="5.52104">
        <ele>304</ele>
        <time>2015-03-28T09:01:41Z</time>
      </trkpt>
      <trkpt lat="50.04587" lon="5.52098">
        <ele>304</ele>
        <time>2015-03-28T09:01:47Z</time>
      </trkpt>
      <trkpt lat="50.04592" lon="5.52092">
        <ele>303</ele>
        <time>2015-03-28T09:01:52Z</time>
      </trkpt>
      <trkpt lat="50.04596" lon="5.52086">
        <ele>304</ele>
        <time>2015-03-28T09:01:57Z</time>
      </trkpt>
      <trkpt lat="50.04601" lon="5.5208">
        <ele>304</ele>
        <time>2015-03-28T09:02:02Z</time>
      </trkpt>
      <trkpt lat="50.04607" lon="5.52074">
        <ele>304</ele>
        <time>2015-03-28T09:02:08Z</time>
      </trkpt>
      <trkpt lat="50.04613" lon="5.52068">
        <ele>304</ele>
        <time>2015-03-28T09:02:14Z</time>
      </trkpt>
      <trkpt lat="50.04618" lon="5.52064">
        <ele>303</ele>
        <time>2015-03-28T09:02:20Z</time>
      </trkpt>
      <trkpt lat="50.04623" lon="5.52058">
        <ele>303</ele>
        <time>2015-03-28T09:02:26Z</time>
      </trkpt>
      <trkpt lat="50.0463" lon="5.52051">
        <ele>304</ele>
        <time>2015-03-28T09:02:32Z</time>
      </trkpt>
      <trkpt lat="50.04635" lon="5.52047">
        <ele>304</ele>
        <time>2015-03-28T09:02:37Z</time>
      </trkpt>
      <trkpt lat="50.04642" lon="5.52041">
        <ele>304</ele>
        <time>2015-03-28T09:02:43Z</time>
      </trkpt>
      <trkpt lat="50.04647" lon="5.52034">
        <ele>305</ele>
        <time>2015-03-28T09:02:49Z</time>
      </trkpt>
      <trkpt lat="50.04652" lon="5.52028">
        <ele>305</ele>
        <time>2015-03-28T09:02:54Z</time>
      </trkpt>
      <trkpt lat="50.04659" lon="5.52022">
        <ele>304</ele>
        <time>2015-03-28T09:03:00Z</time>
      </trkpt>
      <trkpt lat="50.04665" lon="5.52016">
        <ele>305</ele>
        <time>2015-03-28T09:03:05Z</time>
      </trkpt>
      <trkpt lat="50.04672" lon="5.5201">
        <ele>305</ele>
        <time>2015-03-28T09:03:10Z</time>
      </trkpt>
      <trkpt lat="50.04676" lon="5.52007">
        <ele>305</ele>
        <time>2015-03-28T09:03:15Z</time>
      </trkpt>
      <trkpt lat="50.04683" lon="5.52001">
        <ele>305</ele>
        <time>2015-03-28T09:03:21Z</time>
      </trkpt>
      <trkpt lat="50.04689" lon="5.51996">
        <ele>305</ele>
        <time>2015-03-28T09:03:26Z</time>
      </trkpt>
      <trkpt lat="50.04697" lon="5.51991">
        <ele>305</ele>
        <time>2015-03-28T09:03:32Z</time>
      </trkpt>
      <trkpt lat="50.04703" lon="5.51987">
        <ele>305</ele>
        <time>2015-03-28T09:03:37Z</time>
      </trkpt>
      <trkpt lat="50.04708" lon="5.51982">
        <ele>305</ele>
        <time>2015-03-28T09:03:42Z</time>
      </trkpt>
      <trkpt lat="50.04714" lon="5.51978">
        <ele>306</ele>
        <time>2015-03-28T09:03:47Z</time>
      </trkpt>
      <trkpt lat="50.0472" lon="5.51972">
        <ele>306</ele>
        <time>2015-03-28T09:03:53Z</time>
      </trkpt>
      <trkpt lat="50.04726" lon="5.51966">
        <ele>306</ele>
        <time>2015-03-28T09:03:59Z</time>
      </trkpt>
      <trkpt lat="50.04734" lon="5.51958">
        <ele>306</ele>
        <time>2015-03-28T09:04:05Z</time>
      </trkpt>
      <trkpt lat="50.0474" lon="5.51951">
        <ele>307</ele>
        <time>2015-03-28T09:04:11Z</time>
      </trkpt>
      <trkpt lat="50.04746" lon="5.51946">
        <ele>307</ele>
        <time>2015-03-28T09:04:16Z</time>
      </trkpt>
      <trkpt lat="50.04753" lon="5.5194">
        <ele>307</ele>
        <time>2015-03-28T09:04:22Z</time>
      </trkpt>
      <trkpt lat="50.0476" lon="5.51935">
        <ele>307</ele>
        <time>2015-03-28T09:04:28Z</time>
      </trkpt>
      <trkpt lat="50.04766" lon="5.51929">
        <ele>308</ele>
        <time>2015-03-28T09:04:34Z</time>
      </trkpt>
      <trkpt lat="50.04772" lon="5.51924">
        <ele>308</ele>
        <time>2015-03-28T09:04:39Z</time>
      </trkpt>
      <trkpt lat="50.04779" lon="5.51916">
        <ele>308</ele>
        <time>2015-03-28T09:04:45Z</time>
      </trkpt>
      <trkpt lat="50.04785" lon="5.51911">
        <ele>308</ele>
        <time>2015-03-28T09:04:50Z</time>
      </trkpt>
      <trkpt lat="50.0479" lon="5.51905">
        <ele>308</ele>
        <time>2015-03-28T09:04:55Z</time>
      </trkpt>
      <trkpt lat="50.04796" lon="5.51899">
        <ele>308</ele>
        <time>2015-03-28T09:05:01Z</time>
      </trkpt>
      <trkpt lat="50.04804" lon="5.51893">
        <ele>308</ele>
        <time>2015-03-28T09:05:07Z</time>
      </trkpt>
      <trkpt lat="50.04809" lon="5.51888">
        <ele>308</ele>
        <time>2015-03-28T09:05:12Z</time>
      </trkpt>
      <trkpt lat="50.04814" lon="5.51885">
        <ele>308</ele>
        <time>2015-03-28T09:05:17Z</time>
      </trkpt>
      <trkpt lat="50.0482" lon="5.5188">
        <ele>308</ele>
        <time>2015-03-28T09:05:23Z</time>
      </trkpt>
      <trkpt lat="50.04826" lon="5.51875">
        <ele>308</ele>
        <time>2015-03-28T09:05:29Z</time>
      </trkpt>
      <trkpt lat="50.04833" lon="5.5187">
        <ele>309</ele>
        <time>2015-03-28T09:05:35Z</time>
      </trkpt>
      <trkpt lat="50.04841" lon="5.51863">
        <ele>309</ele>
        <time>2015-03-28T09:05:41Z</time>
      </trkpt>
      <trkpt lat="50.04847" lon="5.51856">
        <ele>309</ele>
        <time>2015-03-28T09:05:47Z</time>
      </trkpt>
      <trkpt lat="50.04853" lon="5.5185">
        <ele>309</ele>
        <time>2015-03-28T09:05:53Z</time>
      </trkpt>
      <trkpt lat="50.04859" lon="5.51843">
        <ele>309</ele>
        <time>2015-03-28T09:05:59Z</time>
      </trkpt>
      <trkpt lat="50.04866" lon="5.51836">
        <ele>309</ele>
        <time>2015-03-28T09:06:05Z</time>
      </trkpt>
      <trkpt lat="50.04872" lon="5.51831">
        <ele>309</ele>
        <time>2015-03-28T09:06:10Z</time>
      </trkpt>
      <trkpt lat="50.04879" lon="5.51825">
        <ele>309</ele>
        <time>2015-03-28T09:06:16Z</time>
      </trkpt>
      <trkpt lat="50.04886" lon="5.51819">
        <ele>309</ele>
        <time>2015-03-28T09:06:22Z</time>
      </trkpt>
      <trkpt lat="50.04892" lon="5.51814">
        <ele>309</ele>
        <time>2015-03-28T09:06:27Z</time>
      </trkpt>
      <trkpt lat="50.04898" lon="5.51808">
        <ele>309</ele>
        <time>2015-03-28T09:06:32Z</time>
      </trkpt>
      <trkpt lat="50.04903" lon="5.51803">
        <ele>309</ele>
        <time>2015-03-28T09:06:37Z</time>
      </trkpt>
      <trkpt lat="50.0491" lon="5.51796">
        <ele>309</ele>
        <time>2015-03-28T09:06:43Z</time>
      </trkpt>
      <trkpt lat="50.04916" lon="5.51791">
        <ele>309</ele>
        <time>2015-03-28T09:06:48Z</time>
      </trkpt>
      <trkpt lat="50.04922" lon="5.51784">
        <ele>309</ele>
        <time>2015-03-28T09:06:54Z</time>
      </trkpt>
      <trkpt lat="50.04929" lon="5.51778">
        <ele>309</ele>
        <time>2015-03-28T09:07:00Z</time>
      </trkpt>
      <trkpt lat="50.04935" lon="5.51771">
        <ele>309</ele>
        <time>2015-03-28T09:07:06Z</time>
      </trkpt>
      <trkpt lat="50.04942" lon="5.51764">
        <ele>309</ele>
        <time>2015-03-28T09:07:12Z</time>
      </trkpt>
      <trkpt lat="50.04949" lon="5.51758">
        <ele>309</ele>
        <time>2015-03-28T09:07:18Z</time>
      </trkpt>
      <trkpt lat="50.04957" lon="5.51752">
        <ele>309</ele>
        <time>2015-03-28T09:07:24Z</time>
      </trkpt>
      <trkpt lat="50.0496" lon="5.51748">
        <ele>308</ele>
        <time>2015-03-28T09:07:29Z</time>
      </trkpt>
      <trkpt lat="50.04967" lon="5.51742">
        <ele>309</ele>
        <time>2015-03-28T09:07:35Z</time>
      </trkpt>
      <trkpt lat="50.04974" lon="5.51735">
        <ele>309</ele>
        <time>2015-03-28T09:07:41Z</time>
      </trkpt>
      <trkpt lat="50.04979" lon="5.51732">
        <ele>309</ele>
        <time>2015-03-28T09:07:46Z</time>
      </trkpt>
      <trkpt lat="50.04985" lon="5.51726">
        <ele>308</ele>
        <time>2015-03-28T09:07:52Z</time>
      </trkpt>
      <trkpt lat="50.04991" lon="5.51719">
        <ele>309</ele>
        <time>2015-03-28T09:07:58Z</time>
      </trkpt>
      <trkpt lat="50.04997" lon="5.51712">
        <ele>308</ele>
        <time>2015-03-28T09:08:04Z</time>
      </trkpt>
      <trkpt lat="50.05003" lon="5.51707">
        <ele>308</ele>
        <time>2015-03-28T09:08:09Z</time>
      </trkpt>
      <trkpt lat="50.05009" lon="5.51698">
        <ele>308</ele>
        <time>2015-03-28T09:08:15Z</time>
      </trkpt>
      <trkpt lat="50.05014" lon="5.51692">
        <ele>308</ele>
        <time>2015-03-28T09:08:20Z</time>
      </trkpt>
      <trkpt lat="50.05016" lon="5.5169">
        <ele>308</ele>
        <time>2015-03-28T09:08:25Z</time>
      </trkpt>
      <trkpt lat="50.05019" lon="5.51685">
        <ele>307</ele>
        <time>2015-03-28T09:08:31Z</time>
      </trkpt>
      <trkpt lat="50.05024" lon="5.51679">
        <ele>307</ele>
        <time>2015-03-28T09:08:36Z</time>
      </trkpt>
      <trkpt lat="50.0503" lon="5.51674">
        <ele>307</ele>
        <time>2015-03-28T09:08:41Z</time>
      </trkpt>
      <trkpt lat="50.05038" lon="5.51666">
        <ele>306</ele>
        <time>2015-03-28T09:08:47Z</time>
      </trkpt>
      <trkpt lat="50.05045" lon="5.5166">
        <ele>306</ele>
        <time>2015-03-28T09:08:53Z</time>
      </trkpt>
      <trkpt lat="50.05052" lon="5.51654">
        <ele>306</ele>
        <time>2015-03-28T09:08:59Z</time>
      </trkpt>
      <trkpt lat="50.05055" lon="5.51653">
        <ele>306</ele>
        <time>2015-03-28T09:09:05Z</time>
      </trkpt>
      <trkpt lat="50.05061" lon="5.51647">
        <ele>306</ele>
        <time>2015-03-28T09:09:11Z</time>
      </trkpt>
      <trkpt lat="50.05069" lon="5.51639">
        <ele>306</ele>
        <time>2015-03-28T09:09:17Z</time>
      </trkpt>
      <trkpt lat="50.05073" lon="5.51634">
        <ele>306</ele>
        <time>2015-03-28T09:09:22Z</time>
      </trkpt>
      <trkpt lat="50.05079" lon="5.51627">
        <ele>306</ele>
        <time>2015-03-28T09:09:28Z</time>
      </trkpt>
      <trkpt lat="50.05084" lon="5.51623">
        <ele>306</ele>
        <time>2015-03-28T09:09:33Z</time>
      </trkpt>
      <trkpt lat="50.0509" lon="5.51618">
        <ele>306</ele>
        <time>2015-03-28T09:09:38Z</time>
      </trkpt>
      <trkpt lat="50.05097" lon="5.51611">
        <ele>306</ele>
        <time>2015-03-28T09:09:44Z</time>
      </trkpt>
      <trkpt lat="50.05104" lon="5.51606">
        <ele>306</ele>
        <time>2015-03-28T09:09:50Z</time>
      </trkpt>
      <trkpt lat="50.05111" lon="5.51599">
        <ele>306</ele>
        <time>2015-03-28T09:09:56Z</time>
      </trkpt>
      <trkpt lat="50.05117" lon="5.51593">
        <ele>306</ele>
        <time>2015-03-28T09:10:01Z</time>
      </trkpt>
      <trkpt lat="50.05124" lon="5.51588">
        <ele>306</ele>
        <time>2015-03-28T09:10:06Z</time>
      </trkpt>
      <trkpt lat="50.05131" lon="5.51582">
        <ele>306</ele>
        <time>2015-03-28T09:10:12Z</time>
      </trkpt>
      <trkpt lat="50.05138" lon="5.51576">
        <ele>306</ele>
        <time>2015-03-28T09:10:17Z</time>
      </trkpt>
      <trkpt lat="50.05141" lon="5.51574">
        <ele>306</ele>
        <time>2015-03-28T09:10:22Z</time>
      </trkpt>
      <trkpt lat="50.05145" lon="5.5157">
        <ele>306</ele>
        <time>2015-03-28T09:10:28Z</time>
      </trkpt>
      <trkpt lat="50.05151" lon="5.51565">
        <ele>305</ele>
        <time>2015-03-28T09:10:34Z</time>
      </trkpt>
      <trkpt lat="50.05156" lon="5.51561">
        <ele>306</ele>
        <time>2015-03-28T09:10:39Z</time>
      </trkpt>
      <trkpt lat="50.0516" lon="5.51555">
        <ele>306</ele>
        <time>2015-03-28T09:10:45Z</time>
      </trkpt>
      <trkpt lat="50.05165" lon="5.51549">
        <ele>306</ele>
        <time>2015-03-28T09:10:50Z</time>
      </trkpt>
      <trkpt lat="50.05169" lon="5.51544">
        <ele>305</ele>
        <time>2015-03-28T09:10:56Z</time>
      </trkpt>
      <trkpt lat="50.05174" lon="5.51539">
        <ele>305</ele>
        <time>2015-03-28T09:11:01Z</time>
      </trkpt>
      <trkpt lat="50.05179" lon="5.51535">
        <ele>306</ele>
        <time>2015-03-28T09:11:07Z</time>
      </trkpt>
      <trkpt lat="50.05182" lon="5.51532">
        <ele>306</ele>
        <time>2015-03-28T09:11:13Z</time>
      </trkpt>
      <trkpt lat="50.05188" lon="5.51527">
        <ele>306</ele>
        <time>2015-03-28T09:11:18Z</time>
      </trkpt>
      <trkpt lat="50.05193" lon="5.51521">
        <ele>306</ele>
        <time>2015-03-28T09:11:23Z</time>
      </trkpt>
      <trkpt lat="50.05198" lon="5.51517">
        <ele>307</ele>
        <time>2015-03-28T09:11:28Z</time>
      </trkpt>
      <trkpt lat="50.05199" lon="5.51515">
        <ele>307</ele>
        <time>2015-03-28T09:11:34Z</time>
      </trkpt>
      <trkpt lat="50.05204" lon="5.51512">
        <ele>307</ele>
        <time>2015-03-28T09:11:39Z</time>
      </trkpt>
      <trkpt lat="50.0521" lon="5.51507">
        <ele>307</ele>
        <time>2015-03-28T09:11:45Z</time>
      </trkpt>
      <trkpt lat="50.05216" lon="5.51503">
        <ele>307</ele>
        <time>2015-03-28T09:11:51Z</time>
      </trkpt>
      <trkpt lat="50.05221" lon="5.51498">
        <ele>307</ele>
        <time>2015-03-28T09:11:56Z</time>
      </trkpt>
      <trkpt lat="50.05227" lon="5.51494">
        <ele>308</ele>
        <time>2015-03-28T09:12:02Z</time>
      </trkpt>
      <trkpt lat="50.05233" lon="5.51488">
        <ele>308</ele>
        <time>2015-03-28T09:12:07Z</time>
      </trkpt>
      <trkpt lat="50.05238" lon="5.51482">
        <ele>308</ele>
        <time>2015-03-28T09:12:13Z</time>
      </trkpt>
      <trkpt lat="50.05244" lon="5.51476">
        <ele>309</ele>
        <time>2015-03-28T09:12:19Z</time>
      </trkpt>
      <trkpt lat="50.0525" lon="5.51472">
        <ele>309</ele>
        <time>2015-03-28T09:12:24Z</time>
      </trkpt>
      <trkpt lat="50.05257" lon="5.51465">
        <ele>308</ele>
        <time>2015-03-28T09:12:30Z</time>
      </trkpt>
      <trkpt lat="50.05262" lon="5.51459">
        <ele>309</ele>
        <time>2015-03-28T09:12:35Z</time>
      </trkpt>
      <trkpt lat="50.05269" lon="5.51452">
        <ele>309</ele>
        <time>2015-03-28T09:12:41Z</time>
      </trkpt>
      <trkpt lat="50.05276" lon="5.51444">
        <ele>309</ele>
        <time>2015-03-28T09:12:47Z</time>
      </trkpt>
      <trkpt lat="50.05285" lon="5.51436">
        <ele>309</ele>
        <time>2015-03-28T09:12:53Z</time>
      </trkpt>
      <trkpt lat="50.05293" lon="5.51429">
        <ele>309</ele>
        <time>2015-03-28T09:12:59Z</time>
      </trkpt>
      <trkpt lat="50.05301" lon="5.51423">
        <ele>310</ele>
        <time>2015-03-28T09:13:04Z</time>
      </trkpt>
      <trkpt lat="50.05308" lon="5.51415">
        <ele>310</ele>
        <time>2015-03-28T09:13:10Z</time>
      </trkpt>
      <trkpt lat="50.05314" lon="5.51409">
        <ele>310</ele>
        <time>2015-03-28T09:13:15Z</time>
      </trkpt>
      <trkpt lat="50.0532" lon="5.51404">
        <ele>310</ele>
        <time>2015-03-28T09:13:20Z</time>
      </trkpt>
      <trkpt lat="50.05325" lon="5.51402">
        <ele>310</ele>
        <time>2015-03-28T09:13:26Z</time>
      </trkpt>
      <trkpt lat="50.05328" lon="5.51401">
        <ele>310</ele>
        <time>2015-03-28T09:13:31Z</time>
      </trkpt>
      <trkpt lat="50.05329" lon="5.514">
        <ele>310</ele>
        <time>2015-03-28T09:13:37Z</time>
      </trkpt>
      <trkpt lat="50.05331" lon="5.51398">
        <ele>311</ele>
        <time>2015-03-28T09:13:42Z</time>
      </trkpt>
      <trkpt lat="50.05336" lon="5.51396">
        <ele>311</ele>
        <time>2015-03-28T09:13:47Z</time>
      </trkpt>
      <trkpt lat="50.05339" lon="5.51403">
        <ele>311</ele>
        <time>2015-03-28T09:13:53Z</time>
      </trkpt>
      <trkpt lat="50.05342" lon="5.5141">
        <ele>311</ele>
        <time>2015-03-28T09:13:59Z</time>
      </trkpt>
      <trkpt lat="50.05345" lon="5.51417">
        <ele>310</ele>
        <time>2015-03-28T09:14:04Z</time>
      </trkpt>
      <trkpt lat="50.05349" lon="5.51428">
        <ele>310</ele>
        <time>2015-03-28T09:14:10Z</time>
      </trkpt>
      <trkpt lat="50.05354" lon="5.5144">
        <ele>310</ele>
        <time>2015-03-28T09:14:16Z</time>
      </trkpt>
      <trkpt lat="50.0536" lon="5.5145">
        <ele>309</ele>
        <time>2015-03-28T09:14:22Z</time>
      </trkpt>
      <trkpt lat="50.05365" lon="5.51459">
        <ele>308</ele>
        <time>2015-03-28T09:14:28Z</time>
      </trkpt>
      <trkpt lat="50.0537" lon="5.51471">
        <ele>308</ele>
        <time>2015-03-28T09:14:34Z</time>
      </trkpt>
      <trkpt lat="50.05373" lon="5.51482">
        <ele>308</ele>
        <time>2015-03-28T09:14:40Z</time>
      </trkpt>
      <trkpt lat="50.05376" lon="5.51495">
        <ele>307</ele>
        <time>2015-03-28T09:14:46Z</time>
      </trkpt>
      <trkpt lat="50.05376" lon="5.51506">
        <ele>307</ele>
        <time>2015-03-28T09:14:51Z</time>
      </trkpt>
      <trkpt lat="50.05373" lon="5.51509">
        <ele>306</ele>
        <time>2015-03-28T09:14:57Z</time>
      </trkpt>
      <trkpt lat="50.05375" lon="5.51508">
        <ele>306</ele>
        <time>2015-03-28T09:15:02Z</time>
      </trkpt>
      <trkpt lat="50.05375" lon="5.51501">
        <ele>306</ele>
        <time>2015-03-28T09:15:08Z</time>
      </trkpt>
      <trkpt lat="50.05373" lon="5.5149">
        <ele>307</ele>
        <time>2015-03-28T09:15:13Z</time>
      </trkpt>
      <trkpt lat="50.05371" lon="5.51479">
        <ele>308</ele>
        <time>2015-03-28T09:15:19Z</time>
      </trkpt>
      <trkpt lat="50.0537" lon="5.5147">
        <ele>308</ele>
        <time>2015-03-28T09:15:24Z</time>
      </trkpt>
      <trkpt lat="50.05368" lon="5.51457">
        <ele>308</ele>
        <time>2015-03-28T09:15:30Z</time>
      </trkpt>
      <trkpt lat="50.05366" lon="5.51448">
        <ele>309</ele>
        <time>2015-03-28T09:15:35Z</time>
      </trkpt>
      <trkpt lat="50.05361" lon="5.51438">
        <ele>309</ele>
        <time>2015-03-28T09:15:41Z</time>
      </trkpt>
      <trkpt lat="50.05357" lon="5.51429">
        <ele>309</ele>
        <time>2015-03-28T09:15:47Z</time>
      </trkpt>
      <trkpt lat="50.05354" lon="5.51421">
        <ele>309</ele>
        <time>2015-03-28T09:15:52Z</time>
      </trkpt>
      <trkpt lat="50.0535" lon="5.51412">
        <ele>310</ele>
        <time>2015-03-28T09:15:57Z</time>
      </trkpt>
      <trkpt lat="50.05347" lon="5.51403">
        <ele>310</ele>
        <time>2015-03-28T09:16:03Z</time>
      </trkpt>
      <trkpt lat="50.05344" lon="5.51392">
        <ele>310</ele>
        <time>2015-03-28T09:16:08Z</time>
      </trkpt>
      <trkpt lat="50.05339" lon="5.51379">
        <ele>311</ele>
        <time>2015-03-28T09:16:14Z</time>
      </trkpt>
      <trkpt lat="50.05337" lon="5.51369">
        <ele>311</ele>
        <time>2015-03-28T09:16:19Z</time>
      </trkpt>
      <trkpt lat="50.05333" lon="5.51357">
        <ele>311</ele>
        <time>2015-03-28T09:16:25Z</time>
      </trkpt>
      <trkpt lat="50.0533" lon="5.51348">
        <ele>312</ele>
        <time>2015-03-28T09:16:30Z</time>
      </trkpt>
      <trkpt lat="50.05328" lon="5.51339">
        <ele>311</ele>
        <time>2015-03-28T09:16:36Z</time>
      </trkpt>
      <trkpt lat="50.05326" lon="5.5133">
        <ele>312</ele>
        <time>2015-03-28T09:16:42Z</time>
      </trkpt>
      <trkpt lat="50.05325" lon="5.51323">
        <ele>311</ele>
        <time>2015-03-28T09:16:47Z</time>
      </trkpt>
      <trkpt lat="50.05325" lon="5.51316">
        <ele>312</ele>
        <time>2015-03-28T09:16:53Z</time>
      </trkpt>
      <trkpt lat="50.05323" lon="5.51311">
        <ele>312</ele>
        <time>2015-03-28T09:16:58Z</time>
      </trkpt>
      <trkpt lat="50.05324" lon="5.51302">
        <ele>313</ele>
        <time>2015-03-28T09:17:04Z</time>
      </trkpt>
      <trkpt lat="50.05324" lon="5.51294">
        <ele>313</ele>
        <time>2015-03-28T09:17:10Z</time>
      </trkpt>
      <trkpt lat="50.05323" lon="5.51286">
        <ele>313</ele>
        <time>2015-03-28T09:17:15Z</time>
      </trkpt>
      <trkpt lat="50.05322" lon="5.51277">
        <ele>312</ele>
        <time>2015-03-28T09:17:20Z</time>
      </trkpt>
      <trkpt lat="50.05318" lon="5.51262">
        <ele>312</ele>
        <time>2015-03-28T09:17:26Z</time>
      </trkpt>
      <trkpt lat="50.05317" lon="5.51257">
        <ele>312</ele>
        <time>2015-03-28T09:17:31Z</time>
      </trkpt>
      <trkpt lat="50.05316" lon="5.51249">
        <ele>312</ele>
        <time>2015-03-28T09:17:37Z</time>
      </trkpt>
      <trkpt lat="50.05316" lon="5.5124">
        <ele>312</ele>
        <time>2015-03-28T09:17:42Z</time>
      </trkpt>
      <trkpt lat="50.05316" lon="5.51232">
        <ele>312</ele>
        <time>2015-03-28T09:17:47Z</time>
      </trkpt>
      <trkpt lat="50.05318" lon="5.51224">
        <ele>312</ele>
        <time>2015-03-28T09:17:53Z</time>
      </trkpt>
      <trkpt lat="50.0532" lon="5.51219">
        <ele>313</ele>
        <time>2015-03-28T09:17:58Z</time>
      </trkpt>
      <trkpt lat="50.05318" lon="5.51208">
        <ele>314</ele>
        <time>2015-03-28T09:18:04Z</time>
      </trkpt>
      <trkpt lat="50.05317" lon="5.51199">
        <ele>314</ele>
        <time>2015-03-28T09:18:09Z</time>
      </trkpt>
      <trkpt lat="50.05319" lon="5.51193">
        <ele>315</ele>
        <time>2015-03-28T09:18:15Z</time>
      </trkpt>
      <trkpt lat="50.05318" lon="5.51182">
        <ele>315</ele>
        <time>2015-03-28T09:18:21Z</time>
      </trkpt>
      <trkpt lat="50.05318" lon="5.5117">
        <ele>315</ele>
        <time>2015-03-28T09:18:26Z</time>
      </trkpt>
      <trkpt lat="50.05315" lon="5.51164">
        <ele>316</ele>
        <time>2015-03-28T09:18:32Z</time>
      </trkpt>
      <trkpt lat="50.05317" lon="5.51159">
        <ele>316</ele>
        <time>2015-03-28T09:18:37Z</time>
      </trkpt>
      <trkpt lat="50.05317" lon="5.5115">
        <ele>316</ele>
        <time>2015-03-28T09:18:42Z</time>
      </trkpt>
      <trkpt lat="50.05317" lon="5.51138">
        <ele>316</ele>
        <time>2015-03-28T09:18:48Z</time>
      </trkpt>
      <trkpt lat="50.05315" lon="5.51127">
        <ele>316</ele>
        <time>2015-03-28T09:18:54Z</time>
      </trkpt>
      <trkpt lat="50.05313" lon="5.51122">
        <ele>317</ele>
        <time>2015-03-28T09:18:59Z</time>
      </trkpt>
      <trkpt lat="50.05313" lon="5.51117">
        <ele>317</ele>
        <time>2015-03-28T09:19:04Z</time>
      </trkpt>
      <trkpt lat="50.05315" lon="5.5111">
        <ele>317</ele>
        <time>2015-03-28T09:19:10Z</time>
      </trkpt>
      <trkpt lat="50.05314" lon="5.51102">
        <ele>317</ele>
        <time>2015-03-28T09:19:16Z</time>
      </trkpt>
      <trkpt lat="50.05312" lon="5.51097">
        <ele>318</ele>
        <time>2015-03-28T09:19:21Z</time>
      </trkpt>
      <trkpt lat="50.0531" lon="5.51092">
        <ele>318</ele>
        <time>2015-03-28T09:19:27Z</time>
      </trkpt>
      <trkpt lat="50.0531" lon="5.51089">
        <ele>318</ele>
        <time>2015-03-28T09:19:33Z</time>
      </trkpt>
      <trkpt lat="50.05306" lon="5.51081">
        <ele>318</ele>
        <time>2015-03-28T09:19:39Z</time>
      </trkpt>
      <trkpt lat="50.05304" lon="5.51072">
        <ele>319</ele>
        <time>2015-03-28T09:19:45Z</time>
      </trkpt>
      <trkpt lat="50.05302" lon="5.51064">
        <ele>318</ele>
        <time>2015-03-28T09:19:51Z</time>
      </trkpt>
      <trkpt lat="50.05299" lon="5.51056">
        <ele>318</ele>
        <time>2015-03-28T09:19:56Z</time>
      </trkpt>
      <trkpt lat="50.05296" lon="5.51047">
        <ele>319</ele>
        <time>2015-03-28T09:20:02Z</time>
      </trkpt>
      <trkpt lat="50.05291" lon="5.51039">
        <ele>318</ele>
        <time>2015-03-28T09:20:08Z</time>
      </trkpt>
      <trkpt lat="50.05285" lon="5.51038">
        <ele>319</ele>
        <time>2015-03-28T09:20:13Z</time>
      </trkpt>
      <trkpt lat="50.05277" lon="5.51034">
        <ele>319</ele>
        <time>2015-03-28T09:20:19Z</time>
      </trkpt>
      <trkpt lat="50.0527" lon="5.51026">
        <ele>319</ele>
        <time>2015-03-28T09:20:25Z</time>
      </trkpt>
      <trkpt lat="50.05265" lon="5.51019">
        <ele>318</ele>
        <time>2015-03-28T09:20:30Z</time>
      </trkpt>
      <trkpt lat="50.05258" lon="5.5101">
        <ele>319</ele>
        <time>2015-03-28T09:20:36Z</time>
      </trkpt>
      <trkpt lat="50.05255" lon="5.51005">
        <ele>319</ele>
        <time>2015-03-28T09:20:41Z</time>
      </trkpt>
      <trkpt lat="50.05254" lon="5.51003">
        <ele>320</ele>
        <time>2015-03-28T09:20:46Z</time>
      </trkpt>
      <trkpt lat="50.05247" lon="5.50996">
        <ele>319</ele>
        <time>2015-03-28T09:20:52Z</time>
      </trkpt>
      <trkpt lat="50.05239" lon="5.50993">
        <ele>319</ele>
        <time>2015-03-28T09:20:58Z</time>
      </trkpt>
      <trkpt lat="50.05235" lon="5.50992">
        <ele>319</ele>
        <time>2015-03-28T09:21:04Z</time>
      </trkpt>
      <trkpt lat="50.0523" lon="5.5099">
        <ele>319</ele>
        <time>2015-03-28T09:21:09Z</time>
      </trkpt>
      <trkpt lat="50.05226" lon="5.50984">
        <ele>320</ele>
        <time>2015-03-28T09:21:14Z</time>
      </trkpt>
      <trkpt lat="50.05219" lon="5.5098">
        <ele>320</ele>
        <time>2015-03-28T09:21:20Z</time>
      </trkpt>
      <trkpt lat="50.05212" lon="5.50977">
        <ele>320</ele>
        <time>2015-03-28T09:21:25Z</time>
      </trkpt>
      <trkpt lat="50.05204" lon="5.50973">
        <ele>319</ele>
        <time>2015-03-28T09:21:31Z</time>
      </trkpt>
      <trkpt lat="50.05197" lon="5.50971">
        <ele>319</ele>
        <time>2015-03-28T09:21:36Z</time>
      </trkpt>
      <trkpt lat="50.05191" lon="5.50967">
        <ele>319</ele>
        <time>2015-03-28T09:21:41Z</time>
      </trkpt>
      <trkpt lat="50.05187" lon="5.50961">
        <ele>320</ele>
        <time>2015-03-28T09:21:47Z</time>
      </trkpt>
      <trkpt lat="50.05185" lon="5.50957">
        <ele>319</ele>
        <time>2015-03-28T09:21:53Z</time>
      </trkpt>
      <trkpt lat="50.05185" lon="5.50955">
        <ele>319</ele>
        <time>2015-03-28T09:21:58Z</time>
      </trkpt>
      <trkpt lat="50.05183" lon="5.50956">
        <ele>320</ele>
        <time>2015-03-28T09:22:04Z</time>
      </trkpt>
      <trkpt lat="50.05182" lon="5.50957">
        <ele>320</ele>
        <time>2015-03-28T09:22:10Z</time>
      </trkpt>
      <trkpt lat="50.0518" lon="5.50958">
        <ele>320</ele>
        <time>2015-03-28T09:22:16Z</time>
      </trkpt>
      <trkpt lat="50.05178" lon="5.50954">
        <ele>320</ele>
        <time>2015-03-28T09:22:21Z</time>
      </trkpt>
      <trkpt lat="50.05179" lon="5.50954">
        <ele>321</ele>
        <time>2015-03-28T09:22:27Z</time>
      </trkpt>
      <trkpt lat="50.05181" lon="5.50959">
        <ele>320</ele>
        <time>2015-03-28T09:22:32Z</time>
      </trkpt>
      <trkpt lat="50.05181" lon="5.5096">
        <ele>320</ele>
        <time>2015-03-28T09:22:37Z</time>
      </trkpt>
      <trkpt lat="50.05177" lon="5.50954">
        <ele>320</ele>
        <time>2015-03-28T09:22:42Z</time>
      </trkpt>
      <trkpt lat="50.05172" lon="5.50952">
        <ele>321</ele>
        <time>2015-03-28T09:22:47Z</time>
      </trkpt>
      <trkpt lat="50.05165" lon="5.50949">
        <ele>321</ele>
        <time>2015-03-28T09:22:53Z</time>
      </trkpt>
      <trkpt lat="50.05157" lon="5.50947">
        <ele>320</ele>
        <time>2015-03-28T09:22:59Z</time>
      </trkpt>
      <trkpt lat="50.0515" lon="5.50947">
        <ele>320</ele>
        <time>2015-03-28T09:23:04Z</time>
      </trkpt>
      <trkpt lat="50.05142" lon="5.50947">
        <ele>320</ele>
        <time>2015-03-28T09:23:10Z</time>
      </trkpt>
      <trkpt lat="50.05134" lon="5.50947">
        <ele>320</ele>
        <time>2015-03-28T09:23:16Z</time>
      </trkpt>
      <trkpt lat="50.05127" lon="5.50947">
        <ele>319</ele>
        <time>2015-03-28T09:23:21Z</time>
      </trkpt>
      <trkpt lat="50.05119" lon="5.50947">
        <ele>320</ele>
        <time>2015-03-28T09:23:27Z</time>
      </trkpt>
      <trkpt lat="50.05112" lon="5.50947">
        <ele>319</ele>
        <time>2015-03-28T09:23:32Z</time>
      </trkpt>
      <trkpt lat="50.05106" lon="5.50946">
        <ele>319</ele>
        <time>2015-03-28T09:23:37Z</time>
      </trkpt>
      <trkpt lat="50.05098" lon="5.50945">
        <ele>319</ele>
        <time>2015-03-28T09:23:43Z</time>
      </trkpt>
      <trkpt lat="50.05091" lon="5.50944">
        <ele>318</ele>
        <time>2015-03-28T09:23:48Z</time>
      </trkpt>
      <trkpt lat="50.05086" lon="5.5094">
        <ele>319</ele>
        <time>2015-03-28T09:23:53Z</time>
      </trkpt>
      <trkpt lat="50.05079" lon="5.50937">
        <ele>319</ele>
        <time>2015-03-28T09:23:59Z</time>
      </trkpt>
      <trkpt lat="50.05072" lon="5.50933">
        <ele>319</ele>
        <time>2015-03-28T09:24:05Z</time>
      </trkpt>
      <trkpt lat="50.05065" lon="5.5093">
        <ele>319</ele>
        <time>2015-03-28T09:24:11Z</time>
      </trkpt>
      <trkpt lat="50.05057" lon="5.50928">
        <ele>319</ele>
        <time>2015-03-28T09:24:17Z</time>
      </trkpt>
      <trkpt lat="50.05049" lon="5.50925">
        <ele>319</ele>
        <time>2015-03-28T09:24:23Z</time>
      </trkpt>
      <trkpt lat="50.05044" lon="5.50922">
        <ele>319</ele>
        <time>2015-03-28T09:24:28Z</time>
      </trkpt>
      <trkpt lat="50.05037" lon="5.50919">
        <ele>319</ele>
        <time>2015-03-28T09:24:34Z</time>
      </trkpt>
      <trkpt lat="50.05032" lon="5.50913">
        <ele>319</ele>
        <time>2015-03-28T09:24:40Z</time>
      </trkpt>
      <trkpt lat="50.05027" lon="5.5091">
        <ele>319</ele>
        <time>2015-03-28T09:24:45Z</time>
      </trkpt>
      <trkpt lat="50.05019" lon="5.50908">
        <ele>318</ele>
        <time>2015-03-28T09:24:51Z</time>
      </trkpt>
      <trkpt lat="50.05012" lon="5.50905">
        <ele>318</ele>
        <time>2015-03-28T09:24:57Z</time>
      </trkpt>
      <trkpt lat="50.05006" lon="5.50903">
        <ele>319</ele>
        <time>2015-03-28T09:25:02Z</time>
      </trkpt>
      <trkpt lat="50.05" lon="5.509">
        <ele>320</ele>
        <time>2015-03-28T09:25:07Z</time>
      </trkpt>
      <trkpt lat="50.04994" lon="5.50898">
        <ele>320</ele>
        <time>2015-03-28T09:25:12Z</time>
      </trkpt>
      <trkpt lat="50.04988" lon="5.50895">
        <ele>320</ele>
        <time>2015-03-28T09:25:17Z</time>
      </trkpt>
      <trkpt lat="50.04981" lon="5.5089">
        <ele>321</ele>
        <time>2015-03-28T09:25:23Z</time>
      </trkpt>
      <trkpt lat="50.04976" lon="5.50884">
        <ele>321</ele>
        <time>2015-03-28T09:25:29Z</time>
      </trkpt>
      <trkpt lat="50.0497" lon="5.5088">
        <ele>321</ele>
        <time>2015-03-28T09:25:34Z</time>
      </trkpt>
      <trkpt lat="50.04968" lon="5.5088">
        <ele>321</ele>
        <time>2015-03-28T09:25:40Z</time>
      </trkpt>
      <trkpt lat="50.04965" lon="5.50877">
        <ele>321</ele>
        <time>2015-03-28T09:25:46Z</time>
      </trkpt>
      <trkpt lat="50.04958" lon="5.50875">
        <ele>321</ele>
        <time>2015-03-28T09:25:51Z</time>
      </trkpt>
      <trkpt lat="50.04951" lon="5.5087">
        <ele>320</ele>
        <time>2015-03-28T09:25:57Z</time>
      </trkpt>
      <trkpt lat="50.04945" lon="5.50866">
        <ele>320</ele>
        <time>2015-03-28T09:26:02Z</time>
      </trkpt>
      <trkpt lat="50.04938" lon="5.50863">
        <ele>320</ele>
        <time>2015-03-28T09:26:08Z</time>
      </trkpt>
      <trkpt lat="50.04932" lon="5.50859">
        <ele>321</ele>
        <time>2015-03-28T09:26:13Z</time>
      </trkpt>
      <trkpt lat="50.04925" lon="5.50854">
        <ele>321</ele>
        <time>2015-03-28T09:26:19Z</time>
      </trkpt>
      <trkpt lat="50.04917" lon="5.50851">
        <ele>321</ele>
        <time>2015-03-28T09:26:25Z</time>
      </trkpt>
      <trkpt lat="50.04911" lon="5.50848">
        <ele>322</ele>
        <time>2015-03-28T09:26:30Z</time>
      </trkpt>
      <trkpt lat="50.04904" lon="5.50845">
        <ele>322</ele>
        <time>2015-03-28T09:26:36Z</time>
      </trkpt>
      <trkpt lat="50.04899" lon="5.50842">
        <ele>322</ele>
        <time>2015-03-28T09:26:41Z</time>
      </trkpt>
      <trkpt lat="50.04893" lon="5.50838">
        <ele>323</ele>
        <time>2015-03-28T09:26:47Z</time>
      </trkpt>
      <trkpt lat="50.04887" lon="5.50834">
        <ele>323</ele>
        <time>2015-03-28T09:26:53Z</time>
      </trkpt>
      <trkpt lat="50.04881" lon="5.50831">
        <ele>323</ele>
        <time>2015-03-28T09:26:58Z</time>
      </trkpt>
      <trkpt lat="50.04876" lon="5.50828">
        <ele>324</ele>
        <time>2015-03-28T09:27:03Z</time>
      </trkpt>
      <trkpt lat="50.0487" lon="5.50824">
        <ele>324</ele>
        <time>2015-03-28T09:27:09Z</time>
      </trkpt>
      <trkpt lat="50.04863" lon="5.50818">
        <ele>324</ele>
        <time>2015-03-28T09:27:15Z</time>
      </trkpt>
      <trkpt lat="50.04858" lon="5.50812">
        <ele>325</ele>
        <time>2015-03-28T09:27:20Z</time>
      </trkpt>
      <trkpt lat="50.04852" lon="5.50807">
        <ele>325</ele>
        <time>2015-03-28T09:27:26Z</time>
      </trkpt>
      <trkpt lat="50.04846" lon="5.508">
        <ele>325</ele>
        <time>2015-03-28T09:27:32Z</time>
      </trkpt>
      <trkpt lat="50.0484" lon="5.50796">
        <ele>326</ele>
        <time>2015-03-28T09:27:38Z</time>
      </trkpt>
      <trkpt lat="50.04833" lon="5.5079">
        <ele>326</ele>
        <time>2015-03-28T09:27:44Z</time>
      </trkpt>
      <trkpt lat="50.04827" lon="5.50785">
        <ele>327</ele>
        <time>2015-03-28T09:27:50Z</time>
      </trkpt>
      <trkpt lat="50.0482" lon="5.5078">
        <ele>328</ele>
        <time>2015-03-28T09:27:56Z</time>
      </trkpt>
      <trkpt lat="50.04813" lon="5.50776">
        <ele>329</ele>
        <time>2015-03-28T09:28:02Z</time>
      </trkpt>
      <trkpt lat="50.04807" lon="5.50772">
        <ele>329</ele>
        <time>2015-03-28T09:28:08Z</time>
      </trkpt>
      <trkpt lat="50.048" lon="5.5077">
        <ele>329</ele>
        <time>2015-03-28T09:28:13Z</time>
      </trkpt>
      <trkpt lat="50.04794" lon="5.50765">
        <ele>330</ele>
        <time>2015-03-28T09:28:19Z</time>
      </trkpt>
      <trkpt lat="50.04786" lon="5.5076">
        <ele>331</ele>
        <time>2015-03-28T09:28:25Z</time>
      </trkpt>
      <trkpt lat="50.04779" lon="5.50755">
        <ele>331</ele>
        <time>2015-03-28T09:28:31Z</time>
      </trkpt>
      <trkpt lat="50.04774" lon="5.5075">
        <ele>332</ele>
        <time>2015-03-28T09:28:36Z</time>
      </trkpt>
      <trkpt lat="50.04768" lon="5.50747">
        <ele>332</ele>
        <time>2015-03-28T09:28:41Z</time>
      </trkpt>
      <trkpt lat="50.04765" lon="5.50744">
        <ele>332</ele>
        <time>2015-03-28T09:28:47Z</time>
      </trkpt>
      <trkpt lat="50.04761" lon="5.50741">
        <ele>333</ele>
        <time>2015-03-28T09:28:52Z</time>
      </trkpt>
      <trkpt lat="50.04755" lon="5.50736">
        <ele>333</ele>
        <time>2015-03-28T09:28:58Z</time>
      </trkpt>
      <trkpt lat="50.04749" lon="5.50733">
        <ele>333</ele>
        <time>2015-03-28T09:29:03Z</time>
      </trkpt>
      <trkpt lat="50.04743" lon="5.5073">
        <ele>335</ele>
        <time>2015-03-28T09:29:08Z</time>
      </trkpt>
      <trkpt lat="50.04737" lon="5.50725">
        <ele>336</ele>
        <time>2015-03-28T09:29:14Z</time>
      </trkpt>
      <trkpt lat="50.0473" lon="5.50722">
        <ele>337</ele>
        <time>2015-03-28T09:29:20Z</time>
      </trkpt>
      <trkpt lat="50.04725" lon="5.5072">
        <ele>337</ele>
        <time>2015-03-28T09:29:25Z</time>
      </trkpt>
      <trkpt lat="50.04718" lon="5.50718">
        <ele>337</ele>
        <time>2015-03-28T09:29:31Z</time>
      </trkpt>
      <trkpt lat="50.04713" lon="5.50716">
        <ele>338</ele>
        <time>2015-03-28T09:29:36Z</time>
      </trkpt>
      <trkpt lat="50.04709" lon="5.50714">
        <ele>339</ele>
        <time>2015-03-28T09:29:41Z</time>
      </trkpt>
      <trkpt lat="50.04703" lon="5.50712">
        <ele>340</ele>
        <time>2015-03-28T09:29:47Z</time>
      </trkpt>
      <trkpt lat="50.04696" lon="5.50713">
        <ele>341</ele>
        <time>2015-03-28T09:29:52Z</time>
      </trkpt>
      <trkpt lat="50.04689" lon="5.50715">
        <ele>341</ele>
        <time>2015-03-28T09:29:57Z</time>
      </trkpt>
      <trkpt lat="50.04681" lon="5.50716">
        <ele>341</ele>
        <time>2015-03-28T09:30:02Z</time>
      </trkpt>
      <trkpt lat="50.04673" lon="5.50718">
        <ele>340</ele>
        <time>2015-03-28T09:30:08Z</time>
      </trkpt>
      <trkpt lat="50.04665" lon="5.50721">
        <ele>341</ele>
        <time>2015-03-28T09:30:14Z</time>
      </trkpt>
      <trkpt lat="50.04657" lon="5.50725">
        <ele>341</ele>
        <time>2015-03-28T09:30:20Z</time>
      </trkpt>
      <trkpt lat="50.04649" lon="5.50728">
        <ele>342</ele>
        <time>2015-03-28T09:30:26Z</time>
      </trkpt>
      <trkpt lat="50.04643" lon="5.50729">
        <ele>343</ele>
        <time>2015-03-28T09:30:31Z</time>
      </trkpt>
      <trkpt lat="50.04636" lon="5.50732">
        <ele>344</ele>
        <time>2015-03-28T09:30:36Z</time>
      </trkpt>
      <trkpt lat="50.04629" lon="5.50735">
        <ele>345</ele>
        <time>2015-03-28T09:30:42Z</time>
      </trkpt>
      <trkpt lat="50.04623" lon="5.50738">
        <ele>345</ele>
        <time>2015-03-28T09:30:47Z</time>
      </trkpt>
      <trkpt lat="50.04615" lon="5.50741">
        <ele>345</ele>
        <time>2015-03-28T09:30:53Z</time>
      </trkpt>
      <trkpt lat="50.0461" lon="5.50744">
        <ele>347</ele>
        <time>2015-03-28T09:30:58Z</time>
      </trkpt>
      <trkpt lat="50.04602" lon="5.50747">
        <ele>347</ele>
        <time>2015-03-28T09:31:04Z</time>
      </trkpt>
      <trkpt lat="50.04595" lon="5.5075">
        <ele>347</ele>
        <time>2015-03-28T09:31:10Z</time>
      </trkpt>
      <trkpt lat="50.04588" lon="5.50754">
        <ele>347</ele>
        <time>2015-03-28T09:31:16Z</time>
      </trkpt>
      <trkpt lat="50.04581" lon="5.50757">
        <ele>349</ele>
        <time>2015-03-28T09:31:21Z</time>
      </trkpt>
      <trkpt lat="50.04576" lon="5.50761">
        <ele>349</ele>
        <time>2015-03-28T09:31:26Z</time>
      </trkpt>
      <trkpt lat="50.0457" lon="5.50763">
        <ele>349</ele>
        <time>2015-03-28T09:31:32Z</time>
      </trkpt>
      <trkpt lat="50.0457" lon="5.50765">
        <ele>350</ele>
        <time>2015-03-28T09:31:38Z</time>
      </trkpt>
      <trkpt lat="50.04566" lon="5.50766">
        <ele>350</ele>
        <time>2015-03-28T09:31:43Z</time>
      </trkpt>
      <trkpt lat="50.04561" lon="5.50768">
        <ele>350</ele>
        <time>2015-03-28T09:31:48Z</time>
      </trkpt>
      <trkpt lat="50.04554" lon="5.5077">
        <ele>351</ele>
        <time>2015-03-28T09:31:54Z</time>
      </trkpt>
      <trkpt lat="50.04546" lon="5.50773">
        <ele>351</ele>
        <time>2015-03-28T09:32:00Z</time>
      </trkpt>
      <trkpt lat="50.04539" lon="5.50775">
        <ele>351</ele>
        <time>2015-03-28T09:32:05Z</time>
      </trkpt>
      <trkpt lat="50.04532" lon="5.50778">
        <ele>351</ele>
        <time>2015-03-28T09:32:11Z</time>
      </trkpt>
      <trkpt lat="50.04525" lon="5.5078">
        <ele>352</ele>
        <time>2015-03-28T09:32:16Z</time>
      </trkpt>
      <trkpt lat="50.0452" lon="5.50781">
        <ele>353</ele>
        <time>2015-03-28T09:32:21Z</time>
      </trkpt>
      <trkpt lat="50.04514" lon="5.50782">
        <ele>354</ele>
        <time>2015-03-28T09:32:27Z</time>
      </trkpt>
      <trkpt lat="50.04508" lon="5.50784">
        <ele>355</ele>
        <time>2015-03-28T09:32:33Z</time>
      </trkpt>
      <trkpt lat="50.04501" lon="5.50787">
        <ele>354</ele>
        <time>2015-03-28T09:32:39Z</time>
      </trkpt>
      <trkpt lat="50.04493" lon="5.50791">
        <ele>354</ele>
        <time>2015-03-28T09:32:45Z</time>
      </trkpt>
      <trkpt lat="50.04485" lon="5.50795">
        <ele>355</ele>
        <time>2015-03-28T09:32:51Z</time>
      </trkpt>
      <trkpt lat="50.04478" lon="5.50798">
        <ele>355</ele>
        <time>2015-03-28T09:32:57Z</time>
      </trkpt>
      <trkpt lat="50.04473" lon="5.50801">
        <ele>356</ele>
        <time>2015-03-28T09:33:03Z</time>
      </trkpt>
      <trkpt lat="50.04467" lon="5.50807">
        <ele>357</ele>
        <time>2015-03-28T09:33:09Z</time>
      </trkpt>
      <trkpt lat="50.0446" lon="5.5081">
        <ele>357</ele>
        <time>2015-03-28T09:33:15Z</time>
      </trkpt>
      <trkpt lat="50.04452" lon="5.50815">
        <ele>357</ele>
        <time>2015-03-28T09:33:21Z</time>
      </trkpt>
      <trkpt lat="50.04447" lon="5.50818">
        <ele>358</ele>
        <time>2015-03-28T09:33:26Z</time>
      </trkpt>
      <trkpt lat="50.04444" lon="5.5082">
        <ele>357</ele>
        <time>2015-03-28T09:33:32Z</time>
      </trkpt>
      <trkpt lat="50.04437" lon="5.50825">
        <ele>357</ele>
        <time>2015-03-28T09:33:38Z</time>
      </trkpt>
      <trkpt lat="50.04432" lon="5.50828">
        <ele>358</ele>
        <time>2015-03-28T09:33:43Z</time>
      </trkpt>
      <trkpt lat="50.04425" lon="5.50832">
        <ele>359</ele>
        <time>2015-03-28T09:33:49Z</time>
      </trkpt>
      <trkpt lat="50.0442" lon="5.50834">
        <ele>359</ele>
        <time>2015-03-28T09:33:54Z</time>
      </trkpt>
      <trkpt lat="50.04415" lon="5.50839">
        <ele>359</ele>
        <time>2015-03-28T09:34:00Z</time>
      </trkpt>
      <trkpt lat="50.04413" lon="5.50841">
        <ele>359</ele>
        <time>2015-03-28T09:34:06Z</time>
      </trkpt>
      <trkpt lat="50.04408" lon="5.50844">
        <ele>360</ele>
        <time>2015-03-28T09:34:12Z</time>
      </trkpt>
      <trkpt lat="50.04401" lon="5.50848">
        <ele>360</ele>
        <time>2015-03-28T09:34:18Z</time>
      </trkpt>
      <trkpt lat="50.04395" lon="5.5085">
        <ele>359</ele>
        <time>2015-03-28T09:34:23Z</time>
      </trkpt>
      <trkpt lat="50.04388" lon="5.50852">
        <ele>359</ele>
        <time>2015-03-28T09:34:29Z</time>
      </trkpt>
      <trkpt lat="50.04387" lon="5.50852">
        <ele>359</ele>
        <time>2015-03-28T09:34:34Z</time>
      </trkpt>
      <trkpt lat="50.04381" lon="5.50854">
        <ele>359</ele>
        <time>2015-03-28T09:34:39Z</time>
      </trkpt>
      <trkpt lat="50.04375" lon="5.50855">
        <ele>358</ele>
        <time>2015-03-28T09:34:45Z</time>
      </trkpt>
      <trkpt lat="50.04369" lon="5.50856">
        <ele>358</ele>
        <time>2015-03-28T09:34:50Z</time>
      </trkpt>
      <trkpt lat="50.04364" lon="5.50858">
        <ele>358</ele>
        <time>2015-03-28T09:34:55Z</time>
      </trkpt>
      <trkpt lat="50.04356" lon="5.50861">
        <ele>359</ele>
        <time>2015-03-28T09:35:01Z</time>
      </trkpt>
      <trkpt lat="50.04349" lon="5.50862">
        <ele>359</ele>
        <time>2015-03-28T09:35:06Z</time>
      </trkpt>
      <trkpt lat="50.04344" lon="5.50864">
        <ele>359</ele>
        <time>2015-03-28T09:35:11Z</time>
      </trkpt>
      <trkpt lat="50.04336" lon="5.50865">
        <ele>358</ele>
        <time>2015-03-28T09:35:17Z</time>
      </trkpt>
      <trkpt lat="50.04328" lon="5.50867">
        <ele>358</ele>
        <time>2015-03-28T09:35:23Z</time>
      </trkpt>
      <trkpt lat="50.0432" lon="5.50867">
        <ele>358</ele>
        <time>2015-03-28T09:35:29Z</time>
      </trkpt>
      <trkpt lat="50.04313" lon="5.5087">
        <ele>358</ele>
        <time>2015-03-28T09:35:34Z</time>
      </trkpt>
      <trkpt lat="50.04306" lon="5.50872">
        <ele>358</ele>
        <time>2015-03-28T09:35:40Z</time>
      </trkpt>
      <trkpt lat="50.04303" lon="5.50873">
        <ele>358</ele>
        <time>2015-03-28T09:35:46Z</time>
      </trkpt>
      <trkpt lat="50.04302" lon="5.50875">
        <ele>358</ele>
        <time>2015-03-28T09:35:52Z</time>
      </trkpt>
      <trkpt lat="50.04302" lon="5.50876">
        <ele>358</ele>
        <time>2015-03-28T09:35:57Z</time>
      </trkpt>
      <trkpt lat="50.04301" lon="5.50878">
        <ele>358</ele>
        <time>2015-03-28T09:36:02Z</time>
      </trkpt>
      <trkpt lat="50.043" lon="5.50879">
        <ele>358</ele>
        <time>2015-03-28T09:36:08Z</time>
      </trkpt>
      <trkpt lat="50.04299" lon="5.5088">
        <ele>358</ele>
        <time>2015-03-28T09:36:13Z</time>
      </trkpt>
      <trkpt lat="50.04292" lon="5.50885">
        <ele>358</ele>
        <time>2015-03-28T09:36:19Z</time>
      </trkpt>
      <trkpt lat="50.0429" lon="5.50886">
        <ele>358</ele>
        <time>2015-03-28T09:36:24Z</time>
      </trkpt>
      <trkpt lat="50.04288" lon="5.50888">
        <ele>358</ele>
        <time>2015-03-28T09:36:30Z</time>
      </trkpt>
      <trkpt lat="50.04282" lon="5.50894">
        <ele>357</ele>
        <time>2015-03-28T09:36:36Z</time>
      </trkpt>
      <trkpt lat="50.04279" lon="5.50898">
        <ele>357</ele>
        <time>2015-03-28T09:36:41Z</time>
      </trkpt>
      <trkpt lat="50.04279" lon="5.50898">
        <ele>357</ele>
        <time>2015-03-28T09:36:46Z</time>
      </trkpt>
      <trkpt lat="50.04277" lon="5.50899">
        <ele>358</ele>
        <time>2015-03-28T09:36:52Z</time>
      </trkpt>
      <trkpt lat="50.04277" lon="5.50899">
        <ele>358</ele>
        <time>2015-03-28T09:36:57Z</time>
      </trkpt>
      <trkpt lat="50.04274" lon="5.50898">
        <ele>358</ele>
        <time>2015-03-28T09:37:02Z</time>
      </trkpt>
      <trkpt lat="50.04269" lon="5.50896">
        <ele>358</ele>
        <time>2015-03-28T09:37:08Z</time>
      </trkpt>
      <trkpt lat="50.04267" lon="5.50896">
        <ele>358</ele>
        <time>2015-03-28T09:37:14Z</time>
      </trkpt>
      <trkpt lat="50.04264" lon="5.50893">
        <ele>358</ele>
        <time>2015-03-28T09:37:20Z</time>
      </trkpt>
      <trkpt lat="50.04261" lon="5.50891">
        <ele>358</ele>
        <time>2015-03-28T09:37:25Z</time>
      </trkpt>
      <trkpt lat="50.04257" lon="5.50889">
        <ele>358</ele>
        <time>2015-03-28T09:37:30Z</time>
      </trkpt>
      <trkpt lat="50.04253" lon="5.50889">
        <ele>358</ele>
        <time>2015-03-28T09:37:36Z</time>
      </trkpt>
      <trkpt lat="50.04249" lon="5.50891">
        <ele>359</ele>
        <time>2015-03-28T09:37:42Z</time>
      </trkpt>
      <trkpt lat="50.04243" lon="5.50893">
        <ele>359</ele>
        <time>2015-03-28T09:37:48Z</time>
      </trkpt>
      <trkpt lat="50.0424" lon="5.50896">
        <ele>359</ele>
        <time>2015-03-28T09:37:53Z</time>
      </trkpt>
      <trkpt lat="50.04233" lon="5.50901">
        <ele>359</ele>
        <time>2015-03-28T09:37:59Z</time>
      </trkpt>
      <trkpt lat="50.04227" lon="5.50904">
        <ele>360</ele>
        <time>2015-03-28T09:38:04Z</time>
      </trkpt>
      <trkpt lat="50.04221" lon="5.50907">
        <ele>361</ele>
        <time>2015-03-28T09:38:10Z</time>
      </trkpt>
      <trkpt lat="50.04218" lon="5.50909">
        <ele>361</ele>
        <time>2015-03-28T09:38:15Z</time>
      </trkpt>
      <trkpt lat="50.04215" lon="5.50909">
        <ele>361</ele>
        <time>2015-03-28T09:38:20Z</time>
      </trkpt>
      <trkpt lat="50.04211" lon="5.50912">
        <ele>361</ele>
        <time>2015-03-28T09:38:26Z</time>
      </trkpt>
      <trkpt lat="50.04208" lon="5.50915">
        <ele>361</ele>
        <time>2015-03-28T09:38:32Z</time>
      </trkpt>
      <trkpt lat="50.04205" lon="5.50916">
        <ele>361</ele>
        <time>2015-03-28T09:38:38Z</time>
      </trkpt>
      <trkpt lat="50.04205" lon="5.50916">
        <ele>361</ele>
        <time>2015-03-28T09:38:45Z</time>
      </trkpt>
      <trkpt lat="50.04205" lon="5.50917">
        <ele>362</ele>
        <time>2015-03-28T09:38:51Z</time>
      </trkpt>
      <trkpt lat="50.04202" lon="5.50916">
        <ele>363</ele>
        <time>2015-03-28T09:38:57Z</time>
      </trkpt>
      <trkpt lat="50.04197" lon="5.50916">
        <ele>363</ele>
        <time>2015-03-28T09:39:03Z</time>
      </trkpt>
      <trkpt lat="50.04193" lon="5.50915">
        <ele>363</ele>
        <time>2015-03-28T09:39:08Z</time>
      </trkpt>
      <trkpt lat="50.04187" lon="5.50916">
        <ele>363</ele>
        <time>2015-03-28T09:39:14Z</time>
      </trkpt>
      <trkpt lat="50.04183" lon="5.50917">
        <ele>364</ele>
        <time>2015-03-28T09:39:19Z</time>
      </trkpt>
      <trkpt lat="50.0418" lon="5.50918">
        <ele>364</ele>
        <time>2015-03-28T09:39:24Z</time>
      </trkpt>
      <trkpt lat="50.04174" lon="5.5092">
        <ele>365</ele>
        <time>2015-03-28T09:39:30Z</time>
      </trkpt>
      <trkpt lat="50.04168" lon="5.50921">
        <ele>365</ele>
        <time>2015-03-28T09:39:35Z</time>
      </trkpt>
      <trkpt lat="50.04163" lon="5.50922">
        <ele>365</ele>
        <time>2015-03-28T09:39:40Z</time>
      </trkpt>
      <trkpt lat="50.0416" lon="5.50924">
        <ele>365</ele>
        <time>2015-03-28T09:39:46Z</time>
      </trkpt>
      <trkpt lat="50.04156" lon="5.50928">
        <ele>366</ele>
        <time>2015-03-28T09:39:52Z</time>
      </trkpt>
      <trkpt lat="50.04152" lon="5.50929">
        <ele>366</ele>
        <time>2015-03-28T09:39:58Z</time>
      </trkpt>
      <trkpt lat="50.04151" lon="5.50932">
        <ele>367</ele>
        <time>2015-03-28T09:40:03Z</time>
      </trkpt>
      <trkpt lat="50.04148" lon="5.50934">
        <ele>367</ele>
        <time>2015-03-28T09:40:08Z</time>
      </trkpt>
      <trkpt lat="50.04142" lon="5.50934">
        <ele>368</ele>
        <time>2015-03-28T09:40:13Z</time>
      </trkpt>
      <trkpt lat="50.04137" lon="5.50934">
        <ele>368</ele>
        <time>2015-03-28T09:40:19Z</time>
      </trkpt>
      <trkpt lat="50.04132" lon="5.50934">
        <ele>368</ele>
        <time>2015-03-28T09:40:24Z</time>
      </trkpt>
      <trkpt lat="50.04127" lon="5.50933">
        <ele>369</ele>
        <time>2015-03-28T09:40:30Z</time>
      </trkpt>
      <trkpt lat="50.04121" lon="5.50932">
        <ele>370</ele>
        <time>2015-03-28T09:40:36Z</time>
      </trkpt>
      <trkpt lat="50.04116" lon="5.50933">
        <ele>370</ele>
        <time>2015-03-28T09:40:42Z</time>
      </trkpt>
      <trkpt lat="50.04112" lon="5.50933">
        <ele>370</ele>
        <time>2015-03-28T09:40:48Z</time>
      </trkpt>
      <trkpt lat="50.04107" lon="5.50932">
        <ele>371</ele>
        <time>2015-03-28T09:40:53Z</time>
      </trkpt>
      <trkpt lat="50.041" lon="5.50933">
        <ele>371</ele>
        <time>2015-03-28T09:40:59Z</time>
      </trkpt>
      <trkpt lat="50.04096" lon="5.50933">
        <ele>371</ele>
        <time>2015-03-28T09:41:05Z</time>
      </trkpt>
      <trkpt lat="50.04093" lon="5.50935">
        <ele>372</ele>
        <time>2015-03-28T09:41:11Z</time>
      </trkpt>
      <trkpt lat="50.04088" lon="5.50934">
        <ele>372</ele>
        <time>2015-03-28T09:41:16Z</time>
      </trkpt>
      <trkpt lat="50.04081" lon="5.50935">
        <ele>372</ele>
        <time>2015-03-28T09:41:21Z</time>
      </trkpt>
      <trkpt lat="50.04076" lon="5.50933">
        <ele>373</ele>
        <time>2015-03-28T09:41:26Z</time>
      </trkpt>
      <trkpt lat="50.04071" lon="5.50933">
        <ele>373</ele>
        <time>2015-03-28T09:41:31Z</time>
      </trkpt>
      <trkpt lat="50.04065" lon="5.50933">
        <ele>374</ele>
        <time>2015-03-28T09:41:37Z</time>
      </trkpt>
      <trkpt lat="50.04058" lon="5.50933">
        <ele>375</ele>
        <time>2015-03-28T09:41:43Z</time>
      </trkpt>
      <trkpt lat="50.04052" lon="5.50934">
        <ele>375</ele>
        <time>2015-03-28T09:41:48Z</time>
      </trkpt>
      <trkpt lat="50.04044" lon="5.50936">
        <ele>376</ele>
        <time>2015-03-28T09:41:54Z</time>
      </trkpt>
      <trkpt lat="50.04039" lon="5.50935">
        <ele>376</ele>
        <time>2015-03-28T09:41:59Z</time>
      </trkpt>
      <trkpt lat="50.04033" lon="5.50935">
        <ele>377</ele>
        <time>2015-03-28T09:42:05Z</time>
      </trkpt>
      <trkpt lat="50.04026" lon="5.50935">
        <ele>377</ele>
        <time>2015-03-28T09:42:11Z</time>
      </trkpt>
      <trkpt lat="50.04019" lon="5.50933">
        <ele>378</ele>
        <time>2015-03-28T09:42:17Z</time>
      </trkpt>
      <trkpt lat="50.04013" lon="5.50931">
        <ele>378</ele>
        <time>2015-03-28T09:42:22Z</time>
      </trkpt>
      <trkpt lat="50.04005" lon="5.50929">
        <ele>379</ele>
        <time>2015-03-28T09:42:28Z</time>
      </trkpt>
      <trkpt lat="50.03999" lon="5.50928">
        <ele>380</ele>
        <time>2015-03-28T09:42:33Z</time>
      </trkpt>
      <trkpt lat="50.03993" lon="5.50925">
        <ele>380</ele>
        <time>2015-03-28T09:42:39Z</time>
      </trkpt>
      <trkpt lat="50.03988" lon="5.50922">
        <ele>381</ele>
        <time>2015-03-28T09:42:44Z</time>
      </trkpt>
      <trkpt lat="50.03982" lon="5.50917">
        <ele>382</ele>
        <time>2015-03-28T09:42:50Z</time>
      </trkpt>
      <trkpt lat="50.03976" lon="5.50914">
        <ele>382</ele>
        <time>2015-03-28T09:42:56Z</time>
      </trkpt>
      <trkpt lat="50.03969" lon="5.50912">
        <ele>382</ele>
        <time>2015-03-28T09:43:02Z</time>
      </trkpt>
      <trkpt lat="50.03963" lon="5.5091">
        <ele>383</ele>
        <time>2015-03-28T09:43:07Z</time>
      </trkpt>
      <trkpt lat="50.03958" lon="5.50907">
        <ele>384</ele>
        <time>2015-03-28T09:43:12Z</time>
      </trkpt>
      <trkpt lat="50.03954" lon="5.50906">
        <ele>385</ele>
        <time>2015-03-28T09:43:17Z</time>
      </trkpt>
      <trkpt lat="50.03951" lon="5.50906">
        <ele>385</ele>
        <time>2015-03-28T09:43:22Z</time>
      </trkpt>
      <trkpt lat="50.03947" lon="5.50907">
        <ele>385</ele>
        <time>2015-03-28T09:43:27Z</time>
      </trkpt>
      <trkpt lat="50.03943" lon="5.50905">
        <ele>385</ele>
        <time>2015-03-28T09:43:33Z</time>
      </trkpt>
      <trkpt lat="50.03937" lon="5.50902">
        <ele>386</ele>
        <time>2015-03-28T09:43:39Z</time>
      </trkpt>
      <trkpt lat="50.03933" lon="5.50899">
        <ele>386</ele>
        <time>2015-03-28T09:43:44Z</time>
      </trkpt>
      <trkpt lat="50.03928" lon="5.50896">
        <ele>387</ele>
        <time>2015-03-28T09:43:50Z</time>
      </trkpt>
      <trkpt lat="50.03922" lon="5.50893">
        <ele>387</ele>
        <time>2015-03-28T09:43:56Z</time>
      </trkpt>
      <trkpt lat="50.03917" lon="5.5089">
        <ele>388</ele>
        <time>2015-03-28T09:44:01Z</time>
      </trkpt>
      <trkpt lat="50.0391" lon="5.50888">
        <ele>389</ele>
        <time>2015-03-28T09:44:07Z</time>
      </trkpt>
      <trkpt lat="50.03904" lon="5.50883">
        <ele>390</ele>
        <time>2015-03-28T09:44:13Z</time>
      </trkpt>
      <trkpt lat="50.03898" lon="5.50881">
        <ele>390</ele>
        <time>2015-03-28T09:44:19Z</time>
      </trkpt>
      <trkpt lat="50.03892" lon="5.50879">
        <ele>391</ele>
        <time>2015-03-28T09:44:25Z</time>
      </trkpt>
      <trkpt lat="50.03887" lon="5.5088">
        <ele>391</ele>
        <time>2015-03-28T09:44:31Z</time>
      </trkpt>
      <trkpt lat="50.03883" lon="5.50881">
        <ele>392</ele>
        <time>2015-03-28T09:44:37Z</time>
      </trkpt>
      <trkpt lat="50.03879" lon="5.5088">
        <ele>392</ele>
        <time>2015-03-28T09:44:43Z</time>
      </trkpt>
      <trkpt lat="50.03874" lon="5.50882">
        <ele>392</ele>
        <time>2015-03-28T09:44:48Z</time>
      </trkpt>
      <trkpt lat="50.03869" lon="5.50884">
        <ele>393</ele>
        <time>2015-03-28T09:44:54Z</time>
      </trkpt>
      <trkpt lat="50.03863" lon="5.50888">
        <ele>393</ele>
        <time>2015-03-28T09:45:00Z</time>
      </trkpt>
      <trkpt lat="50.03858" lon="5.50892">
        <ele>394</ele>
        <time>2015-03-28T09:45:06Z</time>
      </trkpt>
      <trkpt lat="50.03853" lon="5.50894">
        <ele>394</ele>
        <time>2015-03-28T09:45:12Z</time>
      </trkpt>
      <trkpt lat="50.03849" lon="5.50896">
        <ele>395</ele>
        <time>2015-03-28T09:45:18Z</time>
      </trkpt>
      <trkpt lat="50.03845" lon="5.50898">
        <ele>395</ele>
        <time>2015-03-28T09:45:23Z</time>
      </trkpt>
      <trkpt lat="50.03842" lon="5.50902">
        <ele>396</ele>
        <time>2015-03-28T09:45:29Z</time>
      </trkpt>
      <trkpt lat="50.03838" lon="5.50903">
        <ele>396</ele>
        <time>2015-03-28T09:45:34Z</time>
      </trkpt>
      <trkpt lat="50.03834" lon="5.50904">
        <ele>396</ele>
        <time>2015-03-28T09:45:40Z</time>
      </trkpt>
      <trkpt lat="50.03829" lon="5.50908">
        <ele>396</ele>
        <time>2015-03-28T09:45:46Z</time>
      </trkpt>
      <trkpt lat="50.03825" lon="5.50913">
        <ele>397</ele>
        <time>2015-03-28T09:45:52Z</time>
      </trkpt>
      <trkpt lat="50.0382" lon="5.50918">
        <ele>397</ele>
        <time>2015-03-28T09:45:57Z</time>
      </trkpt>
      <trkpt lat="50.03814" lon="5.50924">
        <ele>398</ele>
        <time>2015-03-28T09:46:03Z</time>
      </trkpt>
      <trkpt lat="50.03809" lon="5.50932">
        <ele>399</ele>
        <time>2015-03-28T09:46:08Z</time>
      </trkpt>
      <trkpt lat="50.03802" lon="5.50936">
        <ele>399</ele>
        <time>2015-03-28T09:46:14Z</time>
      </trkpt>
      <trkpt lat="50.03797" lon="5.5094">
        <ele>399</ele>
        <time>2015-03-28T09:46:20Z</time>
      </trkpt>
      <trkpt lat="50.03791" lon="5.50941">
        <ele>400</ele>
        <time>2015-03-28T09:46:25Z</time>
      </trkpt>
      <trkpt lat="50.0379" lon="5.50943">
        <ele>399</ele>
        <time>2015-03-28T09:46:31Z</time>
      </trkpt>
      <trkpt lat="50.03785" lon="5.50945">
        <ele>399</ele>
        <time>2015-03-28T09:46:36Z</time>
      </trkpt>
      <trkpt lat="50.03779" lon="5.50947">
        <ele>400</ele>
        <time>2015-03-28T09:46:42Z</time>
      </trkpt>
      <trkpt lat="50.03775" lon="5.5095">
        <ele>401</ele>
        <time>2015-03-28T09:46:47Z</time>
      </trkpt>
      <trkpt lat="50.03768" lon="5.50953">
        <ele>401</ele>
        <time>2015-03-28T09:46:53Z</time>
      </trkpt>
      <trkpt lat="50.03761" lon="5.50954">
        <ele>401</ele>
        <time>2015-03-28T09:46:58Z</time>
      </trkpt>
      <trkpt lat="50.03754" lon="5.50953">
        <ele>402</ele>
        <time>2015-03-28T09:47:04Z</time>
      </trkpt>
      <trkpt lat="50.03748" lon="5.50955">
        <ele>402</ele>
        <time>2015-03-28T09:47:10Z</time>
      </trkpt>
      <trkpt lat="50.03742" lon="5.50955">
        <ele>403</ele>
        <time>2015-03-28T09:47:15Z</time>
      </trkpt>
      <trkpt lat="50.03737" lon="5.50954">
        <ele>403</ele>
        <time>2015-03-28T09:47:20Z</time>
      </trkpt>
      <trkpt lat="50.0373" lon="5.50953">
        <ele>403</ele>
        <time>2015-03-28T09:47:26Z</time>
      </trkpt>
      <trkpt lat="50.03726" lon="5.50953">
        <ele>403</ele>
        <time>2015-03-28T09:47:31Z</time>
      </trkpt>
      <trkpt lat="50.03719" lon="5.50954">
        <ele>404</ele>
        <time>2015-03-28T09:47:37Z</time>
      </trkpt>
      <trkpt lat="50.03714" lon="5.50956">
        <ele>404</ele>
        <time>2015-03-28T09:47:42Z</time>
      </trkpt>
      <trkpt lat="50.03708" lon="5.50956">
        <ele>404</ele>
        <time>2015-03-28T09:47:48Z</time>
      </trkpt>
      <trkpt lat="50.037" lon="5.50957">
        <ele>404</ele>
        <time>2015-03-28T09:47:54Z</time>
      </trkpt>
      <trkpt lat="50.03693" lon="5.50959">
        <ele>405</ele>
        <time>2015-03-28T09:47:59Z</time>
      </trkpt>
      <trkpt lat="50.03688" lon="5.50961">
        <ele>405</ele>
        <time>2015-03-28T09:48:04Z</time>
      </trkpt>
      <trkpt lat="50.03682" lon="5.50961">
        <ele>405</ele>
        <time>2015-03-28T09:48:09Z</time>
      </trkpt>
      <trkpt lat="50.03675" lon="5.50961">
        <ele>405</ele>
        <time>2015-03-28T09:48:15Z</time>
      </trkpt>
      <trkpt lat="50.03667" lon="5.50963">
        <ele>406</ele>
        <time>2015-03-28T09:48:21Z</time>
      </trkpt>
      <trkpt lat="50.03662" lon="5.50965">
        <ele>405</ele>
        <time>2015-03-28T09:48:26Z</time>
      </trkpt>
      <trkpt lat="50.03655" lon="5.50968">
        <ele>405</ele>
        <time>2015-03-28T09:48:32Z</time>
      </trkpt>
      <trkpt lat="50.03651" lon="5.50969">
        <ele>405</ele>
        <time>2015-03-28T09:48:37Z</time>
      </trkpt>
      <trkpt lat="50.03644" lon="5.5097">
        <ele>406</ele>
        <time>2015-03-28T09:48:43Z</time>
      </trkpt>
      <trkpt lat="50.03637" lon="5.50969">
        <ele>405</ele>
        <time>2015-03-28T09:48:49Z</time>
      </trkpt>
      <trkpt lat="50.03632" lon="5.50969">
        <ele>404</ele>
        <time>2015-03-28T09:48:54Z</time>
      </trkpt>
      <trkpt lat="50.03626" lon="5.50971">
        <ele>404</ele>
        <time>2015-03-28T09:48:59Z</time>
      </trkpt>
      <trkpt lat="50.03616" lon="5.50973">
        <ele>405</ele>
        <time>2015-03-28T09:49:05Z</time>
      </trkpt>
      <trkpt lat="50.03607" lon="5.50972">
        <ele>405</ele>
        <time>2015-03-28T09:49:11Z</time>
      </trkpt>
      <trkpt lat="50.03598" lon="5.50971">
        <ele>404</ele>
        <time>2015-03-28T09:49:17Z</time>
      </trkpt>
      <trkpt lat="50.03591" lon="5.5097">
        <ele>404</ele>
        <time>2015-03-28T09:49:22Z</time>
      </trkpt>
      <trkpt lat="50.03585" lon="5.50968">
        <ele>405</ele>
        <time>2015-03-28T09:49:27Z</time>
      </trkpt>
      <trkpt lat="50.03578" lon="5.50967">
        <ele>404</ele>
        <time>2015-03-28T09:49:33Z</time>
      </trkpt>
      <trkpt lat="50.0357" lon="5.50967">
        <ele>403</ele>
        <time>2015-03-28T09:49:39Z</time>
      </trkpt>
      <trkpt lat="50.03564" lon="5.50965">
        <ele>403</ele>
        <time>2015-03-28T09:49:44Z</time>
      </trkpt>
      <trkpt lat="50.03558" lon="5.50964">
        <ele>404</ele>
        <time>2015-03-28T09:49:49Z</time>
      </trkpt>
      <trkpt lat="50.03551" lon="5.50963">
        <ele>404</ele>
        <time>2015-03-28T09:49:55Z</time>
      </trkpt>
      <trkpt lat="50.03543" lon="5.50964">
        <ele>403</ele>
        <time>2015-03-28T09:50:01Z</time>
      </trkpt>
      <trkpt lat="50.03537" lon="5.50963">
        <ele>403</ele>
        <time>2015-03-28T09:50:06Z</time>
      </trkpt>
      <trkpt lat="50.03531" lon="5.50963">
        <ele>402</ele>
        <time>2015-03-28T09:50:12Z</time>
      </trkpt>
      <trkpt lat="50.03524" lon="5.50964">
        <ele>401</ele>
        <time>2015-03-28T09:50:18Z</time>
      </trkpt>
      <trkpt lat="50.03516" lon="5.50964">
        <ele>401</ele>
        <time>2015-03-28T09:50:24Z</time>
      </trkpt>
      <trkpt lat="50.0351" lon="5.50963">
        <ele>401</ele>
        <time>2015-03-28T09:50:30Z</time>
      </trkpt>
      <trkpt lat="50.03505" lon="5.50961">
        <ele>400</ele>
        <time>2015-03-28T09:50:35Z</time>
      </trkpt>
      <trkpt lat="50.03494" lon="5.50961">
        <ele>401</ele>
        <time>2015-03-28T09:50:41Z</time>
      </trkpt>
      <trkpt lat="50.03491" lon="5.50961">
        <ele>400</ele>
        <time>2015-03-28T09:50:46Z</time>
      </trkpt>
      <trkpt lat="50.03487" lon="5.5096">
        <ele>400</ele>
        <time>2015-03-28T09:50:51Z</time>
      </trkpt>
      <trkpt lat="50.03482" lon="5.50956">
        <ele>399</ele>
        <time>2015-03-28T09:50:57Z</time>
      </trkpt>
      <trkpt lat="50.03477" lon="5.50954">
        <ele>399</ele>
        <time>2015-03-28T09:51:03Z</time>
      </trkpt>
      <trkpt lat="50.03474" lon="5.50952">
        <ele>399</ele>
        <time>2015-03-28T09:51:08Z</time>
      </trkpt>
      <trkpt lat="50.03472" lon="5.50951">
        <ele>398</ele>
        <time>2015-03-28T09:51:13Z</time>
      </trkpt>
      <trkpt lat="50.03469" lon="5.5095">
        <ele>398</ele>
        <time>2015-03-28T09:51:19Z</time>
      </trkpt>
      <trkpt lat="50.03464" lon="5.50948">
        <ele>398</ele>
        <time>2015-03-28T09:51:25Z</time>
      </trkpt>
      <trkpt lat="50.03459" lon="5.50945">
        <ele>398</ele>
        <time>2015-03-28T09:51:31Z</time>
      </trkpt>
      <trkpt lat="50.03454" lon="5.50941">
        <ele>397</ele>
        <time>2015-03-28T09:51:36Z</time>
      </trkpt>
      <trkpt lat="50.03447" lon="5.50937">
        <ele>396</ele>
        <time>2015-03-28T09:51:42Z</time>
      </trkpt>
      <trkpt lat="50.0344" lon="5.50933">
        <ele>396</ele>
        <time>2015-03-28T09:51:48Z</time>
      </trkpt>
      <trkpt lat="50.03432" lon="5.5093">
        <ele>395</ele>
        <time>2015-03-28T09:51:53Z</time>
      </trkpt>
      <trkpt lat="50.03425" lon="5.50927">
        <ele>394</ele>
        <time>2015-03-28T09:51:58Z</time>
      </trkpt>
      <trkpt lat="50.03418" lon="5.50922">
        <ele>394</ele>
        <time>2015-03-28T09:52:03Z</time>
      </trkpt>
      <trkpt lat="50.03411" lon="5.50918">
        <ele>393</ele>
        <time>2015-03-28T09:52:09Z</time>
      </trkpt>
      <trkpt lat="50.03404" lon="5.50915">
        <ele>392</ele>
        <time>2015-03-28T09:52:14Z</time>
      </trkpt>
      <trkpt lat="50.03395" lon="5.50911">
        <ele>391</ele>
        <time>2015-03-28T09:52:20Z</time>
      </trkpt>
      <trkpt lat="50.03389" lon="5.50907">
        <ele>391</ele>
        <time>2015-03-28T09:52:25Z</time>
      </trkpt>
      <trkpt lat="50.03381" lon="5.50903">
        <ele>390</ele>
        <time>2015-03-28T09:52:31Z</time>
      </trkpt>
      <trkpt lat="50.03373" lon="5.50899">
        <ele>390</ele>
        <time>2015-03-28T09:52:37Z</time>
      </trkpt>
      <trkpt lat="50.03368" lon="5.50897">
        <ele>390</ele>
        <time>2015-03-28T09:52:42Z</time>
      </trkpt>
      <trkpt lat="50.03362" lon="5.50894">
        <ele>389</ele>
        <time>2015-03-28T09:52:47Z</time>
      </trkpt>
      <trkpt lat="50.03356" lon="5.50888">
        <ele>388</ele>
        <time>2015-03-28T09:52:53Z</time>
      </trkpt>
      <trkpt lat="50.03357" lon="5.50883">
        <ele>387</ele>
        <time>2015-03-28T09:52:58Z</time>
      </trkpt>
      <trkpt lat="50.03357" lon="5.50882">
        <ele>388</ele>
        <time>2015-03-28T09:53:03Z</time>
      </trkpt>
      <trkpt lat="50.03359" lon="5.50882">
        <ele>388</ele>
        <time>2015-03-28T09:53:08Z</time>
      </trkpt>
      <trkpt lat="50.0336" lon="5.50883">
        <ele>388</ele>
        <time>2015-03-28T09:53:14Z</time>
      </trkpt>
      <trkpt lat="50.03362" lon="5.50885">
        <ele>388</ele>
        <time>2015-03-28T09:53:19Z</time>
      </trkpt>
      <trkpt lat="50.03362" lon="5.50886">
        <ele>388</ele>
        <time>2015-03-28T09:53:24Z</time>
      </trkpt>
      <trkpt lat="50.03361" lon="5.50885">
        <ele>388</ele>
        <time>2015-03-28T09:53:30Z</time>
      </trkpt>
      <trkpt lat="50.03362" lon="5.50884">
        <ele>388</ele>
        <time>2015-03-28T09:53:35Z</time>
      </trkpt>
      <trkpt lat="50.03361" lon="5.50883">
        <ele>387</ele>
        <time>2015-03-28T09:53:41Z</time>
      </trkpt>
      <trkpt lat="50.03362" lon="5.50883">
        <ele>387</ele>
        <time>2015-03-28T09:53:46Z</time>
      </trkpt>
      <trkpt lat="50.03362" lon="5.50883">
        <ele>387</ele>
        <time>2015-03-28T09:53:51Z</time>
      </trkpt>
      <trkpt lat="50.03367" lon="5.50881">
        <ele>388</ele>
        <time>2015-03-28T09:53:57Z</time>
      </trkpt>
      <trkpt lat="50.03367" lon="5.50883">
        <ele>388</ele>
        <time>2015-03-28T09:54:03Z</time>
      </trkpt>
      <trkpt lat="50.03365" lon="5.50888">
        <ele>388</ele>
        <time>2015-03-28T09:54:08Z</time>
      </trkpt>
      <trkpt lat="50.03362" lon="5.50888">
        <ele>388</ele>
        <time>2015-03-28T09:54:14Z</time>
      </trkpt>
      <trkpt lat="50.03358" lon="5.50886">
        <ele>387</ele>
        <time>2015-03-28T09:54:20Z</time>
      </trkpt>
      <trkpt lat="50.03358" lon="5.50886">
        <ele>387</ele>
        <time>2015-03-28T09:54:25Z</time>
      </trkpt>
      <trkpt lat="50.03359" lon="5.50885">
        <ele>387</ele>
        <time>2015-03-28T09:54:31Z</time>
      </trkpt>
      <trkpt lat="50.03359" lon="5.50885">
        <ele>388</ele>
        <time>2015-03-28T09:54:37Z</time>
      </trkpt>
      <trkpt lat="50.03358" lon="5.50885">
        <ele>388</ele>
        <time>2015-03-28T09:54:42Z</time>
      </trkpt>
      <trkpt lat="50.03358" lon="5.50885">
        <ele>388</ele>
        <time>2015-03-28T09:54:47Z</time>
      </trkpt>
      <trkpt lat="50.03359" lon="5.50884">
        <ele>388</ele>
        <time>2015-03-28T09:54:53Z</time>
      </trkpt>
      <trkpt lat="50.0336" lon="5.50882">
        <ele>388</ele>
        <time>2015-03-28T09:54:59Z</time>
      </trkpt>
      <trkpt lat="50.03363" lon="5.5088">
        <ele>388</ele>
        <time>2015-03-28T09:55:04Z</time>
      </trkpt>
      <trkpt lat="50.03363" lon="5.50881">
        <ele>388</ele>
        <time>2015-03-28T09:55:09Z</time>
      </trkpt>
      <trkpt lat="50.03362" lon="5.50881">
        <ele>388</ele>
        <time>2015-03-28T09:55:15Z</time>
      </trkpt>
      <trkpt lat="50.03362" lon="5.50883">
        <ele>388</ele>
        <time>2015-03-28T09:55:21Z</time>
      </trkpt>
      <trkpt lat="50.03359" lon="5.50882">
        <ele>388</ele>
        <time>2015-03-28T09:55:26Z</time>
      </trkpt>
      <trkpt lat="50.03357" lon="5.50884">
        <ele>388</ele>
        <time>2015-03-28T09:55:32Z</time>
      </trkpt>
      <trkpt lat="50.03354" lon="5.50885">
        <ele>388</ele>
        <time>2015-03-28T09:55:38Z</time>
      </trkpt>
      <trkpt lat="50.03349" lon="5.50886">
        <ele>388</ele>
        <time>2015-03-28T09:55:44Z</time>
      </trkpt>
      <trkpt lat="50.03348" lon="5.50885">
        <ele>387</ele>
        <time>2015-03-28T09:55:49Z</time>
      </trkpt>
      <trkpt lat="50.0335" lon="5.50884">
        <ele>388</ele>
        <time>2015-03-28T09:55:54Z</time>
      </trkpt>
      <trkpt lat="50.0335" lon="5.50883">
        <ele>387</ele>
        <time>2015-03-28T09:56:00Z</time>
      </trkpt>
      <trkpt lat="50.03351" lon="5.5088">
        <ele>387</ele>
        <time>2015-03-28T09:56:05Z</time>
      </trkpt>
      <trkpt lat="50.03352" lon="5.50879">
        <ele>387</ele>
        <time>2015-03-28T09:56:10Z</time>
      </trkpt>
      <trkpt lat="50.03355" lon="5.50879">
        <ele>386</ele>
        <time>2015-03-28T09:56:16Z</time>
      </trkpt>
      <trkpt lat="50.03356" lon="5.5088">
        <ele>387</ele>
        <time>2015-03-28T09:56:22Z</time>
      </trkpt>
      <trkpt lat="50.03357" lon="5.50881">
        <ele>387</ele>
        <time>2015-03-28T09:56:27Z</time>
      </trkpt>
      <trkpt lat="50.03357" lon="5.50881">
        <ele>387</ele>
        <time>2015-03-28T09:56:33Z</time>
      </trkpt>
      <trkpt lat="50.03357" lon="5.50882">
        <ele>387</ele>
        <time>2015-03-28T09:56:39Z</time>
      </trkpt>
      <trkpt lat="50.03357" lon="5.50882">
        <ele>387</ele>
        <time>2015-03-28T09:56:46Z</time>
      </trkpt>
      <trkpt lat="50.03358" lon="5.50883">
        <ele>388</ele>
        <time>2015-03-28T09:56:51Z</time>
      </trkpt>
      <trkpt lat="50.03358" lon="5.50883">
        <ele>388</ele>
        <time>2015-03-28T09:56:56Z</time>
      </trkpt>
      <trkpt lat="50.03359" lon="5.50883">
        <ele>388</ele>
        <time>2015-03-28T09:57:02Z</time>
      </trkpt>
      <trkpt lat="50.0336" lon="5.50884">
        <ele>387</ele>
        <time>2015-03-28T09:57:07Z</time>
      </trkpt>
      <trkpt lat="50.0336" lon="5.50883">
        <ele>387</ele>
        <time>2015-03-28T09:57:13Z</time>
      </trkpt>
      <trkpt lat="50.0336" lon="5.50884">
        <ele>387</ele>
        <time>2015-03-28T09:57:19Z</time>
      </trkpt>
      <trkpt lat="50.0336" lon="5.50883">
        <ele>387</ele>
        <time>2015-03-28T09:57:24Z</time>
      </trkpt>
      <trkpt lat="50.03361" lon="5.50884">
        <ele>387</ele>
        <time>2015-03-28T09:57:31Z</time>
      </trkpt>
      <trkpt lat="50.03361" lon="5.50883">
        <ele>387</ele>
        <time>2015-03-28T09:57:36Z</time>
      </trkpt>
      <trkpt lat="50.03362" lon="5.50882">
        <ele>387</ele>
        <time>2015-03-28T09:57:42Z</time>
      </trkpt>
      <trkpt lat="50.03363" lon="5.50882">
        <ele>387</ele>
        <time>2015-03-28T09:57:47Z</time>
      </trkpt>
      <trkpt lat="50.03363" lon="5.50881">
        <ele>387</ele>
        <time>2015-03-28T09:57:53Z</time>
      </trkpt>
      <trkpt lat="50.03363" lon="5.50881">
        <ele>387</ele>
        <time>2015-03-28T09:57:58Z</time>
      </trkpt>
      <trkpt lat="50.03364" lon="5.50881">
        <ele>387</ele>
        <time>2015-03-28T09:58:04Z</time>
      </trkpt>
      <trkpt lat="50.03365" lon="5.50882">
        <ele>387</ele>
        <time>2015-03-28T09:58:09Z</time>
      </trkpt>
      <trkpt lat="50.03365" lon="5.50883">
        <ele>386</ele>
        <time>2015-03-28T09:58:15Z</time>
      </trkpt>
      <trkpt lat="50.03365" lon="5.50883">
        <ele>386</ele>
        <time>2015-03-28T09:58:20Z</time>
      </trkpt>
      <trkpt lat="50.03366" lon="5.50884">
        <ele>387</ele>
        <time>2015-03-28T09:58:27Z</time>
      </trkpt>
      <trkpt lat="50.03366" lon="5.50883">
        <ele>387</ele>
        <time>2015-03-28T09:58:34Z</time>
      </trkpt>
      <trkpt lat="50.03366" lon="5.50884">
        <ele>387</ele>
        <time>2015-03-28T09:58:41Z</time>
      </trkpt>
      <trkpt lat="50.03366" lon="5.50885">
        <ele>387</ele>
        <time>2015-03-28T09:58:46Z</time>
      </trkpt>
      <trkpt lat="50.03366" lon="5.50886">
        <ele>387</ele>
        <time>2015-03-28T09:58:51Z</time>
      </trkpt>
      <trkpt lat="50.03367" lon="5.50886">
        <ele>387</ele>
        <time>2015-03-28T09:58:59Z</time>
      </trkpt>
      <trkpt lat="50.03366" lon="5.50886">
        <ele>387</ele>
        <time>2015-03-28T09:59:04Z</time>
      </trkpt>
      <trkpt lat="50.03366" lon="5.50885">
        <ele>387</ele>
        <time>2015-03-28T09:59:10Z</time>
      </trkpt>
      <trkpt lat="50.03365" lon="5.50884">
        <ele>387</ele>
        <time>2015-03-28T09:59:16Z</time>
      </trkpt>
      <trkpt lat="50.03366" lon="5.50883">
        <ele>387</ele>
        <time>2015-03-28T09:59:22Z</time>
      </trkpt>
      <trkpt lat="50.03366" lon="5.50883">
        <ele>387</ele>
        <time>2015-03-28T09:59:28Z</time>
      </trkpt>
      <trkpt lat="50.03367" lon="5.50883">
        <ele>388</ele>
        <time>2015-03-28T09:59:35Z</time>
      </trkpt>
      <trkpt lat="50.03367" lon="5.50883">
        <ele>387</ele>
        <time>2015-03-28T09:59:41Z</time>
      </trkpt>
      <trkpt lat="50.03367" lon="5.50883">
        <ele>387</ele>
        <time>2015-03-28T09:59:47Z</time>
      </trkpt>
      <trkpt lat="50.03367" lon="5.50884">
        <ele>387</ele>
        <time>2015-03-28T09:59:53Z</time>
      </trkpt>
      <trkpt lat="50.03367" lon="5.50883">
        <ele>387</ele>
        <time>2015-03-28T09:59:58Z</time>
      </trkpt>
      <trkpt lat="50.03368" lon="5.50883">
        <ele>387</ele>
        <time>2015-03-28T10:00:05Z</time>
      </trkpt>
      <trkpt lat="50.03368" lon="5.50883">
        <ele>387</ele>
        <time>2015-03-28T10:00:11Z</time>
      </trkpt>
      <trkpt lat="50.03368" lon="5.50883">
        <ele>387</ele>
        <time>2015-03-28T10:00:16Z</time>
      </trkpt>
      <trkpt lat="50.03368" lon="5.50882">
        <ele>387</ele>
        <time>2015-03-28T10:00:22Z</time>
      </trkpt>
      <trkpt lat="50.03368" lon="5.50881">
        <ele>388</ele>
        <time>2015-03-28T10:00:28Z</time>
      </trkpt>
      <trkpt lat="50.03368" lon="5.5088">
        <ele>388</ele>
        <time>2015-03-28T10:00:34Z</time>
      </trkpt>
      <trkpt lat="50.03367" lon="5.5088">
        <ele>387</ele>
        <time>2015-03-28T10:00:40Z</time>
      </trkpt>
      <trkpt lat="50.03367" lon="5.5088">
        <ele>387</ele>
        <time>2015-03-28T10:00:46Z</time>
      </trkpt>
      <trkpt lat="50.03367" lon="5.50879">
        <ele>387</ele>
        <time>2015-03-28T10:00:52Z</time>
      </trkpt>
      <trkpt lat="50.03367" lon="5.5088">
        <ele>387</ele>
        <time>2015-03-28T10:00:59Z</time>
      </trkpt>
      <trkpt lat="50.03367" lon="5.50881">
        <ele>388</ele>
        <time>2015-03-28T10:01:04Z</time>
      </trkpt>
      <trkpt lat="50.03366" lon="5.50881">
        <ele>387</ele>
        <time>2015-03-28T10:01:10Z</time>
      </trkpt>
      <trkpt lat="50.03365" lon="5.50881">
        <ele>386</ele>
        <time>2015-03-28T10:01:15Z</time>
      </trkpt>
      <trkpt lat="50.03363" lon="5.50881">
        <ele>387</ele>
        <time>2015-03-28T10:01:21Z</time>
      </trkpt>
      <trkpt lat="50.03362" lon="5.50881">
        <ele>387</ele>
        <time>2015-03-28T10:01:27Z</time>
      </trkpt>
      <trkpt lat="50.0336" lon="5.50881">
        <ele>387</ele>
        <time>2015-03-28T10:01:33Z</time>
      </trkpt>
      <trkpt lat="50.03359" lon="5.5088">
        <ele>388</ele>
        <time>2015-03-28T10:01:39Z</time>
      </trkpt>
      <trkpt lat="50.03358" lon="5.5088">
        <ele>388</ele>
        <time>2015-03-28T10:01:45Z</time>
      </trkpt>
      <trkpt lat="50.03357" lon="5.5088">
        <ele>388</ele>
        <time>2015-03-28T10:01:51Z</time>
      </trkpt>
      <trkpt lat="50.03357" lon="5.50881">
        <ele>388</ele>
        <time>2015-03-28T10:01:58Z</time>
      </trkpt>
      <trkpt lat="50.03357" lon="5.50881">
        <ele>388</ele>
        <time>2015-03-28T10:02:04Z</time>
      </trkpt>
      <trkpt lat="50.03357" lon="5.50882">
        <ele>388</ele>
        <time>2015-03-28T10:02:10Z</time>
      </trkpt>
      <trkpt lat="50.03357" lon="5.50884">
        <ele>388</ele>
        <time>2015-03-28T10:02:16Z</time>
      </trkpt>
      <trkpt lat="50.03356" lon="5.50884">
        <ele>387</ele>
        <time>2015-03-28T10:02:21Z</time>
      </trkpt>
      <trkpt lat="50.03356" lon="5.50885">
        <ele>388</ele>
        <time>2015-03-28T10:02:27Z</time>
      </trkpt>
      <trkpt lat="50.03355" lon="5.50886">
        <ele>387</ele>
        <time>2015-03-28T10:02:32Z</time>
      </trkpt>
      <trkpt lat="50.03355" lon="5.50886">
        <ele>387</ele>
        <time>2015-03-28T10:02:39Z</time>
      </trkpt>
      <trkpt lat="50.03355" lon="5.50887">
        <ele>387</ele>
        <time>2015-03-28T10:02:47Z</time>
      </trkpt>
      <trkpt lat="50.03355" lon="5.50887">
        <ele>387</ele>
        <time>2015-03-28T10:02:54Z</time>
      </trkpt>
      <trkpt lat="50.03354" lon="5.50887">
        <ele>388</ele>
        <time>2015-03-28T10:03:01Z</time>
      </trkpt>
      <trkpt lat="50.03355" lon="5.50888">
        <ele>388</ele>
        <time>2015-03-28T10:03:11Z</time>
      </trkpt>
      <trkpt lat="50.03354" lon="5.50887">
        <ele>388</ele>
        <time>2015-03-28T10:03:19Z</time>
      </trkpt>
      <trkpt lat="50.03354" lon="5.50887">
        <ele>388</ele>
        <time>2015-03-28T10:03:24Z</time>
      </trkpt>
      <trkpt lat="50.03354" lon="5.50887">
        <ele>388</ele>
        <time>2015-03-28T10:03:30Z</time>
      </trkpt>
      <trkpt lat="50.03354" lon="5.50887">
        <ele>388</ele>
        <time>2015-03-28T10:03:36Z</time>
      </trkpt>
      <trkpt lat="50.03354" lon="5.50887">
        <ele>388</ele>
        <time>2015-03-28T10:03:43Z</time>
      </trkpt>
      <trkpt lat="50.03354" lon="5.50887">
        <ele>388</ele>
        <time>2015-03-28T10:03:50Z</time>
      </trkpt>
      <trkpt lat="50.03354" lon="5.50887">
        <ele>388</ele>
        <time>2015-03-28T10:03:55Z</time>
      </trkpt>
      <trkpt lat="50.03355" lon="5.50887">
        <ele>388</ele>
        <time>2015-03-28T10:04:01Z</time>
      </trkpt>
      <trkpt lat="50.03355" lon="5.50887">
        <ele>389</ele>
        <time>2015-03-28T10:04:09Z</time>
      </trkpt>
      <trkpt lat="50.03355" lon="5.50887">
        <ele>389</ele>
        <time>2015-03-28T10:04:15Z</time>
      </trkpt>
      <trkpt lat="50.03354" lon="5.50886">
        <ele>389</ele>
        <time>2015-03-28T10:04:20Z</time>
      </trkpt>
      <trkpt lat="50.03354" lon="5.50886">
        <ele>388</ele>
        <time>2015-03-28T10:04:27Z</time>
      </trkpt>
      <trkpt lat="50.03354" lon="5.50886">
        <ele>388</ele>
        <time>2015-03-28T10:04:33Z</time>
      </trkpt>
      <trkpt lat="50.03355" lon="5.50886">
        <ele>388</ele>
        <time>2015-03-28T10:04:39Z</time>
      </trkpt>
      <trkpt lat="50.03355" lon="5.50886">
        <ele>388</ele>
        <time>2015-03-28T10:04:44Z</time>
      </trkpt>
      <trkpt lat="50.03355" lon="5.50886">
        <ele>388</ele>
        <time>2015-03-28T10:04:50Z</time>
      </trkpt>
      <trkpt lat="50.03355" lon="5.50885">
        <ele>388</ele>
        <time>2015-03-28T10:04:56Z</time>
      </trkpt>
      <trkpt lat="50.03356" lon="5.50885">
        <ele>388</ele>
        <time>2015-03-28T10:05:01Z</time>
      </trkpt>
      <trkpt lat="50.03356" lon="5.50884">
        <ele>388</ele>
        <time>2015-03-28T10:05:07Z</time>
      </trkpt>
      <trkpt lat="50.03357" lon="5.50884">
        <ele>389</ele>
        <time>2015-03-28T10:05:13Z</time>
      </trkpt>
      <trkpt lat="50.03357" lon="5.50884">
        <ele>388</ele>
        <time>2015-03-28T10:05:19Z</time>
      </trkpt>
      <trkpt lat="50.03356" lon="5.50883">
        <ele>389</ele>
        <time>2015-03-28T10:05:25Z</time>
      </trkpt>
      <trkpt lat="50.03356" lon="5.50883">
        <ele>389</ele>
        <time>2015-03-28T10:05:30Z</time>
      </trkpt>
      <trkpt lat="50.03355" lon="5.50882">
        <ele>389</ele>
        <time>2015-03-28T10:05:36Z</time>
      </trkpt>
      <trkpt lat="50.03354" lon="5.50881">
        <ele>389</ele>
        <time>2015-03-28T10:05:41Z</time>
      </trkpt>
      <trkpt lat="50.03353" lon="5.50881">
        <ele>388</ele>
        <time>2015-03-28T10:05:48Z</time>
      </trkpt>
      <trkpt lat="50.03353" lon="5.50881">
        <ele>388</ele>
        <time>2015-03-28T10:05:53Z</time>
      </trkpt>
      <trkpt lat="50.03352" lon="5.50881">
        <ele>389</ele>
        <time>2015-03-28T10:05:59Z</time>
      </trkpt>
      <trkpt lat="50.03352" lon="5.50881">
        <ele>388</ele>
        <time>2015-03-28T10:06:06Z</time>
      </trkpt>
      <trkpt lat="50.03353" lon="5.50881">
        <ele>388</ele>
        <time>2015-03-28T10:06:12Z</time>
      </trkpt>
      <trkpt lat="50.03353" lon="5.50882">
        <ele>388</ele>
        <time>2015-03-28T10:06:22Z</time>
      </trkpt>
      <trkpt lat="50.03352" lon="5.50881">
        <ele>389</ele>
        <time>2015-03-28T10:06:28Z</time>
      </trkpt>
      <trkpt lat="50.03352" lon="5.50882">
        <ele>389</ele>
        <time>2015-03-28T10:06:36Z</time>
      </trkpt>
      <trkpt lat="50.03353" lon="5.50882">
        <ele>388</ele>
        <time>2015-03-28T10:06:41Z</time>
      </trkpt>
      <trkpt lat="50.03354" lon="5.50882">
        <ele>389</ele>
        <time>2015-03-28T10:06:48Z</time>
      </trkpt>
      <trkpt lat="50.03355" lon="5.50883">
        <ele>388</ele>
        <time>2015-03-28T10:06:54Z</time>
      </trkpt>
      <trkpt lat="50.03355" lon="5.50884">
        <ele>388</ele>
        <time>2015-03-28T10:06:59Z</time>
      </trkpt>
      <trkpt lat="50.03356" lon="5.50885">
        <ele>389</ele>
        <time>2015-03-28T10:07:04Z</time>
      </trkpt>
      <trkpt lat="50.03356" lon="5.50885">
        <ele>388</ele>
        <time>2015-03-28T10:07:13Z</time>
      </trkpt>
      <trkpt lat="50.03356" lon="5.50885">
        <ele>388</ele>
        <time>2015-03-28T10:07:19Z</time>
      </trkpt>
      <trkpt lat="50.03355" lon="5.50885">
        <ele>389</ele>
        <time>2015-03-28T10:07:25Z</time>
      </trkpt>
      <trkpt lat="50.03354" lon="5.50884">
        <ele>389</ele>
        <time>2015-03-28T10:07:31Z</time>
      </trkpt>
      <trkpt lat="50.03353" lon="5.50884">
        <ele>389</ele>
        <time>2015-03-28T10:07:36Z</time>
      </trkpt>
      <trkpt lat="50.03353" lon="5.50884">
        <ele>389</ele>
        <time>2015-03-28T10:07:42Z</time>
      </trkpt>
      <trkpt lat="50.03352" lon="5.50883">
        <ele>389</ele>
        <time>2015-03-28T10:07:48Z</time>
      </trkpt>
      <trkpt lat="50.03351" lon="5.50882">
        <ele>389</ele>
        <time>2015-03-28T10:07:53Z</time>
      </trkpt>
      <trkpt lat="50.03351" lon="5.50881">
        <ele>389</ele>
        <time>2015-03-28T10:07:59Z</time>
      </trkpt>
      <trkpt lat="50.03351" lon="5.50881">
        <ele>389</ele>
        <time>2015-03-28T10:08:04Z</time>
      </trkpt>
      <trkpt lat="50.0335" lon="5.50881">
        <ele>389</ele>
        <time>2015-03-28T10:08:10Z</time>
      </trkpt>
      <trkpt lat="50.03349" lon="5.50883">
        <ele>390</ele>
        <time>2015-03-28T10:08:16Z</time>
      </trkpt>
      <trkpt lat="50.03349" lon="5.50883">
        <ele>390</ele>
        <time>2015-03-28T10:08:22Z</time>
      </trkpt>
      <trkpt lat="50.03351" lon="5.50883">
        <ele>390</ele>
        <time>2015-03-28T10:08:27Z</time>
      </trkpt>
      <trkpt lat="50.03353" lon="5.50881">
        <ele>390</ele>
        <time>2015-03-28T10:08:33Z</time>
      </trkpt>
      <trkpt lat="50.03354" lon="5.50881">
        <ele>389</ele>
        <time>2015-03-28T10:08:39Z</time>
      </trkpt>
      <trkpt lat="50.03354" lon="5.50884">
        <ele>390</ele>
        <time>2015-03-28T10:08:44Z</time>
      </trkpt>
      <trkpt lat="50.0335" lon="5.50887">
        <ele>390</ele>
        <time>2015-03-28T10:08:49Z</time>
      </trkpt>
      <trkpt lat="50.03345" lon="5.50885">
        <ele>389</ele>
        <time>2015-03-28T10:08:54Z</time>
      </trkpt>
      <trkpt lat="50.03339" lon="5.50883">
        <ele>389</ele>
        <time>2015-03-28T10:09:00Z</time>
      </trkpt>
      <trkpt lat="50.03336" lon="5.50882">
        <ele>389</ele>
        <time>2015-03-28T10:09:05Z</time>
      </trkpt>
      <trkpt lat="50.03334" lon="5.50882">
        <ele>389</ele>
        <time>2015-03-28T10:09:11Z</time>
      </trkpt>
      <trkpt lat="50.03328" lon="5.5088">
        <ele>388</ele>
        <time>2015-03-28T10:09:16Z</time>
      </trkpt>
      <trkpt lat="50.03322" lon="5.50878">
        <ele>387</ele>
        <time>2015-03-28T10:09:22Z</time>
      </trkpt>
      <trkpt lat="50.03316" lon="5.50876">
        <ele>386</ele>
        <time>2015-03-28T10:09:28Z</time>
      </trkpt>
      <trkpt lat="50.03311" lon="5.50873">
        <ele>386</ele>
        <time>2015-03-28T10:09:33Z</time>
      </trkpt>
      <trkpt lat="50.03306" lon="5.50869">
        <ele>386</ele>
        <time>2015-03-28T10:09:38Z</time>
      </trkpt>
      <trkpt lat="50.03299" lon="5.50867">
        <ele>385</ele>
        <time>2015-03-28T10:09:44Z</time>
      </trkpt>
      <trkpt lat="50.03298" lon="5.50867">
        <ele>385</ele>
        <time>2015-03-28T10:09:49Z</time>
      </trkpt>
      <trkpt lat="50.03295" lon="5.50866">
        <ele>384</ele>
        <time>2015-03-28T10:09:54Z</time>
      </trkpt>
      <trkpt lat="50.0329" lon="5.50864">
        <ele>383</ele>
        <time>2015-03-28T10:10:00Z</time>
      </trkpt>
      <trkpt lat="50.03286" lon="5.50863">
        <ele>383</ele>
        <time>2015-03-28T10:10:06Z</time>
      </trkpt>
      <trkpt lat="50.03284" lon="5.50862">
        <ele>383</ele>
        <time>2015-03-28T10:10:11Z</time>
      </trkpt>
      <trkpt lat="50.03281" lon="5.50863">
        <ele>383</ele>
        <time>2015-03-28T10:10:17Z</time>
      </trkpt>
      <trkpt lat="50.0328" lon="5.50863">
        <ele>383</ele>
        <time>2015-03-28T10:10:22Z</time>
      </trkpt>
      <trkpt lat="50.03279" lon="5.5086">
        <ele>382</ele>
        <time>2015-03-28T10:10:27Z</time>
      </trkpt>
      <trkpt lat="50.03277" lon="5.50855">
        <ele>382</ele>
        <time>2015-03-28T10:10:32Z</time>
      </trkpt>
      <trkpt lat="50.03277" lon="5.50853">
        <ele>382</ele>
        <time>2015-03-28T10:10:38Z</time>
      </trkpt>
      <trkpt lat="50.03275" lon="5.50851">
        <ele>382</ele>
        <time>2015-03-28T10:10:43Z</time>
      </trkpt>
      <trkpt lat="50.0327" lon="5.50849">
        <ele>382</ele>
        <time>2015-03-28T10:10:49Z</time>
      </trkpt>
      <trkpt lat="50.03266" lon="5.50848">
        <ele>381</ele>
        <time>2015-03-28T10:10:55Z</time>
      </trkpt>
      <trkpt lat="50.03262" lon="5.50847">
        <ele>380</ele>
        <time>2015-03-28T10:11:00Z</time>
      </trkpt>
      <trkpt lat="50.03257" lon="5.50847">
        <ele>380</ele>
        <time>2015-03-28T10:11:06Z</time>
      </trkpt>
      <trkpt lat="50.03252" lon="5.50846">
        <ele>379</ele>
        <time>2015-03-28T10:11:11Z</time>
      </trkpt>
      <trkpt lat="50.03246" lon="5.50846">
        <ele>378</ele>
        <time>2015-03-28T10:11:16Z</time>
      </trkpt>
      <trkpt lat="50.03239" lon="5.50843">
        <ele>377</ele>
        <time>2015-03-28T10:11:22Z</time>
      </trkpt>
      <trkpt lat="50.03233" lon="5.50841">
        <ele>377</ele>
        <time>2015-03-28T10:11:27Z</time>
      </trkpt>
      <trkpt lat="50.03226" lon="5.50839">
        <ele>377</ele>
        <time>2015-03-28T10:11:33Z</time>
      </trkpt>
      <trkpt lat="50.0322" lon="5.50836">
        <ele>377</ele>
        <time>2015-03-28T10:11:38Z</time>
      </trkpt>
      <trkpt lat="50.03215" lon="5.50832">
        <ele>376</ele>
        <time>2015-03-28T10:11:43Z</time>
      </trkpt>
      <trkpt lat="50.03209" lon="5.50829">
        <ele>376</ele>
        <time>2015-03-28T10:11:48Z</time>
      </trkpt>
      <trkpt lat="50.03202" lon="5.50825">
        <ele>376</ele>
        <time>2015-03-28T10:11:54Z</time>
      </trkpt>
      <trkpt lat="50.03197" lon="5.50821">
        <ele>376</ele>
        <time>2015-03-28T10:11:59Z</time>
      </trkpt>
      <trkpt lat="50.03191" lon="5.50815">
        <ele>377</ele>
        <time>2015-03-28T10:12:05Z</time>
      </trkpt>
      <trkpt lat="50.03185" lon="5.50809">
        <ele>377</ele>
        <time>2015-03-28T10:12:10Z</time>
      </trkpt>
      <trkpt lat="50.03178" lon="5.50802">
        <ele>377</ele>
        <time>2015-03-28T10:12:16Z</time>
      </trkpt>
      <trkpt lat="50.03173" lon="5.50797">
        <ele>377</ele>
        <time>2015-03-28T10:12:21Z</time>
      </trkpt>
      <trkpt lat="50.03165" lon="5.50789">
        <ele>377</ele>
        <time>2015-03-28T10:12:27Z</time>
      </trkpt>
      <trkpt lat="50.03159" lon="5.50781">
        <ele>377</ele>
        <time>2015-03-28T10:12:32Z</time>
      </trkpt>
      <trkpt lat="50.03152" lon="5.50774">
        <ele>378</ele>
        <time>2015-03-28T10:12:37Z</time>
      </trkpt>
      <trkpt lat="50.03146" lon="5.50766">
        <ele>378</ele>
        <time>2015-03-28T10:12:43Z</time>
      </trkpt>
      <trkpt lat="50.03142" lon="5.50759">
        <ele>379</ele>
        <time>2015-03-28T10:12:48Z</time>
      </trkpt>
      <trkpt lat="50.03137" lon="5.5075">
        <ele>380</ele>
        <time>2015-03-28T10:12:54Z</time>
      </trkpt>
      <trkpt lat="50.03132" lon="5.50741">
        <ele>381</ele>
        <time>2015-03-28T10:13:00Z</time>
      </trkpt>
      <trkpt lat="50.03128" lon="5.50735">
        <ele>382</ele>
        <time>2015-03-28T10:13:05Z</time>
      </trkpt>
      <trkpt lat="50.03125" lon="5.50728">
        <ele>383</ele>
        <time>2015-03-28T10:13:10Z</time>
      </trkpt>
      <trkpt lat="50.03121" lon="5.50721">
        <ele>383</ele>
        <time>2015-03-28T10:13:16Z</time>
      </trkpt>
      <trkpt lat="50.03116" lon="5.50713">
        <ele>384</ele>
        <time>2015-03-28T10:13:22Z</time>
      </trkpt>
      <trkpt lat="50.03112" lon="5.50706">
        <ele>385</ele>
        <time>2015-03-28T10:13:27Z</time>
      </trkpt>
      <trkpt lat="50.03108" lon="5.50698">
        <ele>385</ele>
        <time>2015-03-28T10:13:33Z</time>
      </trkpt>
      <trkpt lat="50.03104" lon="5.50691">
        <ele>384</ele>
        <time>2015-03-28T10:13:38Z</time>
      </trkpt>
      <trkpt lat="50.031" lon="5.50684">
        <ele>384</ele>
        <time>2015-03-28T10:13:43Z</time>
      </trkpt>
      <trkpt lat="50.03095" lon="5.50678">
        <ele>384</ele>
        <time>2015-03-28T10:13:48Z</time>
      </trkpt>
      <trkpt lat="50.03091" lon="5.50671">
        <ele>385</ele>
        <time>2015-03-28T10:13:54Z</time>
      </trkpt>
      <trkpt lat="50.03086" lon="5.50664">
        <ele>385</ele>
        <time>2015-03-28T10:13:59Z</time>
      </trkpt>
      <trkpt lat="50.0308" lon="5.50655">
        <ele>385</ele>
        <time>2015-03-28T10:14:05Z</time>
      </trkpt>
      <trkpt lat="50.03075" lon="5.50646">
        <ele>384</ele>
        <time>2015-03-28T10:14:11Z</time>
      </trkpt>
      <trkpt lat="50.03071" lon="5.50638">
        <ele>385</ele>
        <time>2015-03-28T10:14:16Z</time>
      </trkpt>
      <trkpt lat="50.03067" lon="5.50628">
        <ele>386</ele>
        <time>2015-03-28T10:14:22Z</time>
      </trkpt>
      <trkpt lat="50.03062" lon="5.50617">
        <ele>388</ele>
        <time>2015-03-28T10:14:28Z</time>
      </trkpt>
      <trkpt lat="50.0306" lon="5.50609">
        <ele>389</ele>
        <time>2015-03-28T10:14:33Z</time>
      </trkpt>
      <trkpt lat="50.03056" lon="5.50601">
        <ele>387</ele>
        <time>2015-03-28T10:14:38Z</time>
      </trkpt>
      <trkpt lat="50.03053" lon="5.50593">
        <ele>388</ele>
        <time>2015-03-28T10:14:43Z</time>
      </trkpt>
      <trkpt lat="50.03049" lon="5.50586">
        <ele>389</ele>
        <time>2015-03-28T10:14:48Z</time>
      </trkpt>
      <trkpt lat="50.03045" lon="5.50579">
        <ele>390</ele>
        <time>2015-03-28T10:14:53Z</time>
      </trkpt>
      <trkpt lat="50.0304" lon="5.50571">
        <ele>389</ele>
        <time>2015-03-28T10:14:59Z</time>
      </trkpt>
      <trkpt lat="50.03036" lon="5.50565">
        <ele>388</ele>
        <time>2015-03-28T10:15:04Z</time>
      </trkpt>
      <trkpt lat="50.0303" lon="5.50559">
        <ele>386</ele>
        <time>2015-03-28T10:15:10Z</time>
      </trkpt>
      <trkpt lat="50.03024" lon="5.50552">
        <ele>385</ele>
        <time>2015-03-28T10:15:16Z</time>
      </trkpt>
      <trkpt lat="50.03018" lon="5.50546">
        <ele>385</ele>
        <time>2015-03-28T10:15:21Z</time>
      </trkpt>
      <trkpt lat="50.03014" lon="5.5054">
        <ele>384</ele>
        <time>2015-03-28T10:15:26Z</time>
      </trkpt>
      <trkpt lat="50.03008" lon="5.50535">
        <ele>383</ele>
        <time>2015-03-28T10:15:31Z</time>
      </trkpt>
      <trkpt lat="50.03" lon="5.50529">
        <ele>384</ele>
        <time>2015-03-28T10:15:37Z</time>
      </trkpt>
      <trkpt lat="50.02993" lon="5.50525">
        <ele>384</ele>
        <time>2015-03-28T10:15:43Z</time>
      </trkpt>
      <trkpt lat="50.02986" lon="5.5052">
        <ele>385</ele>
        <time>2015-03-28T10:15:49Z</time>
      </trkpt>
      <trkpt lat="50.0298" lon="5.50516">
        <ele>385</ele>
        <time>2015-03-28T10:15:54Z</time>
      </trkpt>
      <trkpt lat="50.02975" lon="5.50513">
        <ele>384</ele>
        <time>2015-03-28T10:16:00Z</time>
      </trkpt>
      <trkpt lat="50.02975" lon="5.50512">
        <ele>384</ele>
        <time>2015-03-28T10:16:05Z</time>
      </trkpt>
      <trkpt lat="50.02971" lon="5.50512">
        <ele>385</ele>
        <time>2015-03-28T10:16:11Z</time>
      </trkpt>
      <trkpt lat="50.02965" lon="5.5051">
        <ele>385</ele>
        <time>2015-03-28T10:16:16Z</time>
      </trkpt>
      <trkpt lat="50.02958" lon="5.50508">
        <ele>384</ele>
        <time>2015-03-28T10:16:22Z</time>
      </trkpt>
      <trkpt lat="50.02952" lon="5.50506">
        <ele>383</ele>
        <time>2015-03-28T10:16:27Z</time>
      </trkpt>
      <trkpt lat="50.02945" lon="5.50505">
        <ele>383</ele>
        <time>2015-03-28T10:16:33Z</time>
      </trkpt>
      <trkpt lat="50.02939" lon="5.50503">
        <ele>382</ele>
        <time>2015-03-28T10:16:38Z</time>
      </trkpt>
      <trkpt lat="50.02932" lon="5.50501">
        <ele>382</ele>
        <time>2015-03-28T10:16:44Z</time>
      </trkpt>
      <trkpt lat="50.02926" lon="5.50499">
        <ele>381</ele>
        <time>2015-03-28T10:16:49Z</time>
      </trkpt>
      <trkpt lat="50.02919" lon="5.50497">
        <ele>380</ele>
        <time>2015-03-28T10:16:55Z</time>
      </trkpt>
      <trkpt lat="50.02914" lon="5.50495">
        <ele>379</ele>
        <time>2015-03-28T10:17:00Z</time>
      </trkpt>
      <trkpt lat="50.02908" lon="5.50494">
        <ele>379</ele>
        <time>2015-03-28T10:17:05Z</time>
      </trkpt>
      <trkpt lat="50.02901" lon="5.50492">
        <ele>379</ele>
        <time>2015-03-28T10:17:11Z</time>
      </trkpt>
      <trkpt lat="50.02894" lon="5.5049">
        <ele>378</ele>
        <time>2015-03-28T10:17:17Z</time>
      </trkpt>
      <trkpt lat="50.0289" lon="5.50489">
        <ele>378</ele>
        <time>2015-03-28T10:17:22Z</time>
      </trkpt>
      <trkpt lat="50.02887" lon="5.50489">
        <ele>379</ele>
        <time>2015-03-28T10:17:27Z</time>
      </trkpt>
      <trkpt lat="50.02885" lon="5.50492">
        <ele>378</ele>
        <time>2015-03-28T10:17:33Z</time>
      </trkpt>
      <trkpt lat="50.02885" lon="5.50491">
        <ele>377</ele>
        <time>2015-03-28T10:17:38Z</time>
      </trkpt>
      <trkpt lat="50.02885" lon="5.50491">
        <ele>376</ele>
        <time>2015-03-28T10:17:46Z</time>
      </trkpt>
      <trkpt lat="50.02884" lon="5.5049">
        <ele>377</ele>
        <time>2015-03-28T10:17:51Z</time>
      </trkpt>
      <trkpt lat="50.02884" lon="5.50489">
        <ele>378</ele>
        <time>2015-03-28T10:17:57Z</time>
      </trkpt>
      <trkpt lat="50.02882" lon="5.50489">
        <ele>378</ele>
        <time>2015-03-28T10:18:02Z</time>
      </trkpt>
      <trkpt lat="50.02877" lon="5.50485">
        <ele>377</ele>
        <time>2015-03-28T10:18:08Z</time>
      </trkpt>
      <trkpt lat="50.02877" lon="5.50485">
        <ele>378</ele>
        <time>2015-03-28T10:18:14Z</time>
      </trkpt>
      <trkpt lat="50.0288" lon="5.50489">
        <ele>379</ele>
        <time>2015-03-28T10:18:20Z</time>
      </trkpt>
      <trkpt lat="50.02878" lon="5.50487">
        <ele>378</ele>
        <time>2015-03-28T10:18:25Z</time>
      </trkpt>
      <trkpt lat="50.02875" lon="5.50485">
        <ele>378</ele>
        <time>2015-03-28T10:18:30Z</time>
      </trkpt>
      <trkpt lat="50.0287" lon="5.50483">
        <ele>378</ele>
        <time>2015-03-28T10:18:35Z</time>
      </trkpt>
      <trkpt lat="50.02864" lon="5.50481">
        <ele>377</ele>
        <time>2015-03-28T10:18:41Z</time>
      </trkpt>
      <trkpt lat="50.02858" lon="5.50479">
        <ele>375</ele>
        <time>2015-03-28T10:18:46Z</time>
      </trkpt>
      <trkpt lat="50.0285" lon="5.50477">
        <ele>376</ele>
        <time>2015-03-28T10:18:52Z</time>
      </trkpt>
      <trkpt lat="50.02842" lon="5.50475">
        <ele>375</ele>
        <time>2015-03-28T10:18:58Z</time>
      </trkpt>
      <trkpt lat="50.02835" lon="5.50472">
        <ele>374</ele>
        <time>2015-03-28T10:19:03Z</time>
      </trkpt>
      <trkpt lat="50.02827" lon="5.50469">
        <ele>374</ele>
        <time>2015-03-28T10:19:09Z</time>
      </trkpt>
      <trkpt lat="50.0282" lon="5.50466">
        <ele>373</ele>
        <time>2015-03-28T10:19:14Z</time>
      </trkpt>
      <trkpt lat="50.02811" lon="5.50462">
        <ele>373</ele>
        <time>2015-03-28T10:19:20Z</time>
      </trkpt>
      <trkpt lat="50.02803" lon="5.50457">
        <ele>373</ele>
        <time>2015-03-28T10:19:26Z</time>
      </trkpt>
      <trkpt lat="50.02796" lon="5.50454">
        <ele>372</ele>
        <time>2015-03-28T10:19:31Z</time>
      </trkpt>
      <trkpt lat="50.02788" lon="5.50449">
        <ele>371</ele>
        <time>2015-03-28T10:19:37Z</time>
      </trkpt>
      <trkpt lat="50.0278" lon="5.50445">
        <ele>370</ele>
        <time>2015-03-28T10:19:43Z</time>
      </trkpt>
      <trkpt lat="50.02772" lon="5.50441">
        <ele>372</ele>
        <time>2015-03-28T10:19:49Z</time>
      </trkpt>
      <trkpt lat="50.02765" lon="5.50437">
        <ele>371</ele>
        <time>2015-03-28T10:19:55Z</time>
      </trkpt>
      <trkpt lat="50.02759" lon="5.50433">
        <ele>371</ele>
        <time>2015-03-28T10:20:01Z</time>
      </trkpt>
      <trkpt lat="50.02752" lon="5.50429">
        <ele>369</ele>
        <time>2015-03-28T10:20:07Z</time>
      </trkpt>
      <trkpt lat="50.02745" lon="5.50425">
        <ele>369</ele>
        <time>2015-03-28T10:20:12Z</time>
      </trkpt>
      <trkpt lat="50.02738" lon="5.50421">
        <ele>369</ele>
        <time>2015-03-28T10:20:18Z</time>
      </trkpt>
      <trkpt lat="50.02732" lon="5.50417">
        <ele>368</ele>
        <time>2015-03-28T10:20:23Z</time>
      </trkpt>
      <trkpt lat="50.02726" lon="5.50413">
        <ele>368</ele>
        <time>2015-03-28T10:20:28Z</time>
      </trkpt>
      <trkpt lat="50.02718" lon="5.50407">
        <ele>368</ele>
        <time>2015-03-28T10:20:34Z</time>
      </trkpt>
      <trkpt lat="50.02712" lon="5.50403">
        <ele>368</ele>
        <time>2015-03-28T10:20:39Z</time>
      </trkpt>
      <trkpt lat="50.02707" lon="5.50405">
        <ele>367</ele>
        <time>2015-03-28T10:20:45Z</time>
      </trkpt>
      <trkpt lat="50.02703" lon="5.50409">
        <ele>367</ele>
        <time>2015-03-28T10:20:50Z</time>
      </trkpt>
      <trkpt lat="50.027" lon="5.50415">
        <ele>366</ele>
        <time>2015-03-28T10:20:55Z</time>
      </trkpt>
      <trkpt lat="50.02697" lon="5.50422">
        <ele>365</ele>
        <time>2015-03-28T10:21:01Z</time>
      </trkpt>
      <trkpt lat="50.02694" lon="5.5043">
        <ele>364</ele>
        <time>2015-03-28T10:21:06Z</time>
      </trkpt>
      <trkpt lat="50.02691" lon="5.50438">
        <ele>363</ele>
        <time>2015-03-28T10:21:11Z</time>
      </trkpt>
      <trkpt lat="50.02688" lon="5.50449">
        <ele>362</ele>
        <time>2015-03-28T10:21:17Z</time>
      </trkpt>
      <trkpt lat="50.02685" lon="5.50459">
        <ele>362</ele>
        <time>2015-03-28T10:21:22Z</time>
      </trkpt>
      <trkpt lat="50.02681" lon="5.50469">
        <ele>361</ele>
        <time>2015-03-28T10:21:27Z</time>
      </trkpt>
      <trkpt lat="50.02677" lon="5.5048">
        <ele>360</ele>
        <time>2015-03-28T10:21:33Z</time>
      </trkpt>
      <trkpt lat="50.02672" lon="5.50491">
        <ele>359</ele>
        <time>2015-03-28T10:21:39Z</time>
      </trkpt>
      <trkpt lat="50.02668" lon="5.50498">
        <ele>357</ele>
        <time>2015-03-28T10:21:44Z</time>
      </trkpt>
      <trkpt lat="50.02663" lon="5.50507">
        <ele>357</ele>
        <time>2015-03-28T10:21:50Z</time>
      </trkpt>
      <trkpt lat="50.0266" lon="5.50514">
        <ele>356</ele>
        <time>2015-03-28T10:21:55Z</time>
      </trkpt>
      <trkpt lat="50.02655" lon="5.50522">
        <ele>355</ele>
        <time>2015-03-28T10:22:01Z</time>
      </trkpt>
      <trkpt lat="50.02651" lon="5.50531">
        <ele>354</ele>
        <time>2015-03-28T10:22:07Z</time>
      </trkpt>
      <trkpt lat="50.02645" lon="5.5054">
        <ele>353</ele>
        <time>2015-03-28T10:22:13Z</time>
      </trkpt>
      <trkpt lat="50.02641" lon="5.50549">
        <ele>352</ele>
        <time>2015-03-28T10:22:18Z</time>
      </trkpt>
      <trkpt lat="50.02636" lon="5.50559">
        <ele>352</ele>
        <time>2015-03-28T10:22:24Z</time>
      </trkpt>
      <trkpt lat="50.02632" lon="5.50568">
        <ele>351</ele>
        <time>2015-03-28T10:22:29Z</time>
      </trkpt>
      <trkpt lat="50.02628" lon="5.50576">
        <ele>350</ele>
        <time>2015-03-28T10:22:34Z</time>
      </trkpt>
      <trkpt lat="50.02622" lon="5.50588">
        <ele>349</ele>
        <time>2015-03-28T10:22:40Z</time>
      </trkpt>
      <trkpt lat="50.02617" lon="5.50596">
        <ele>348</ele>
        <time>2015-03-28T10:22:46Z</time>
      </trkpt>
      <trkpt lat="50.02613" lon="5.50603">
        <ele>347</ele>
        <time>2015-03-28T10:22:51Z</time>
      </trkpt>
      <trkpt lat="50.02609" lon="5.50612">
        <ele>347</ele>
        <time>2015-03-28T10:22:57Z</time>
      </trkpt>
      <trkpt lat="50.02604" lon="5.50623">
        <ele>347</ele>
        <time>2015-03-28T10:23:03Z</time>
      </trkpt>
      <trkpt lat="50.026" lon="5.50629">
        <ele>346</ele>
        <time>2015-03-28T10:23:08Z</time>
      </trkpt>
      <trkpt lat="50.02595" lon="5.50636">
        <ele>345</ele>
        <time>2015-03-28T10:23:13Z</time>
      </trkpt>
      <trkpt lat="50.0259" lon="5.50642">
        <ele>344</ele>
        <time>2015-03-28T10:23:18Z</time>
      </trkpt>
      <trkpt lat="50.02585" lon="5.50649">
        <ele>344</ele>
        <time>2015-03-28T10:23:23Z</time>
      </trkpt>
      <trkpt lat="50.02578" lon="5.50653">
        <ele>343</ele>
        <time>2015-03-28T10:23:29Z</time>
      </trkpt>
      <trkpt lat="50.02573" lon="5.50649">
        <ele>342</ele>
        <time>2015-03-28T10:23:34Z</time>
      </trkpt>
      <trkpt lat="50.02567" lon="5.50643">
        <ele>342</ele>
        <time>2015-03-28T10:23:40Z</time>
      </trkpt>
      <trkpt lat="50.0256" lon="5.50634">
        <ele>342</ele>
        <time>2015-03-28T10:23:46Z</time>
      </trkpt>
      <trkpt lat="50.02555" lon="5.50626">
        <ele>342</ele>
        <time>2015-03-28T10:23:51Z</time>
      </trkpt>
      <trkpt lat="50.02551" lon="5.50618">
        <ele>342</ele>
        <time>2015-03-28T10:23:56Z</time>
      </trkpt>
      <trkpt lat="50.02546" lon="5.50607">
        <ele>342</ele>
        <time>2015-03-28T10:24:02Z</time>
      </trkpt>
      <trkpt lat="50.02541" lon="5.50598">
        <ele>343</ele>
        <time>2015-03-28T10:24:07Z</time>
      </trkpt>
      <trkpt lat="50.02537" lon="5.50586">
        <ele>343</ele>
        <time>2015-03-28T10:24:13Z</time>
      </trkpt>
      <trkpt lat="50.02533" lon="5.50577">
        <ele>343</ele>
        <time>2015-03-28T10:24:18Z</time>
      </trkpt>
      <trkpt lat="50.02528" lon="5.50567">
        <ele>343</ele>
        <time>2015-03-28T10:24:24Z</time>
      </trkpt>
      <trkpt lat="50.02525" lon="5.50558">
        <ele>343</ele>
        <time>2015-03-28T10:24:29Z</time>
      </trkpt>
      <trkpt lat="50.02522" lon="5.50551">
        <ele>343</ele>
        <time>2015-03-28T10:24:34Z</time>
      </trkpt>
      <trkpt lat="50.02517" lon="5.5054">
        <ele>343</ele>
        <time>2015-03-28T10:24:40Z</time>
      </trkpt>
      <trkpt lat="50.02515" lon="5.50536">
        <ele>343</ele>
        <time>2015-03-28T10:24:45Z</time>
      </trkpt>
      <trkpt lat="50.02511" lon="5.50527">
        <ele>343</ele>
        <time>2015-03-28T10:24:50Z</time>
      </trkpt>
      <trkpt lat="50.02507" lon="5.50517">
        <ele>343</ele>
        <time>2015-03-28T10:24:56Z</time>
      </trkpt>
      <trkpt lat="50.02503" lon="5.50506">
        <ele>344</ele>
        <time>2015-03-28T10:25:02Z</time>
      </trkpt>
      <trkpt lat="50.025" lon="5.50496">
        <ele>344</ele>
        <time>2015-03-28T10:25:08Z</time>
      </trkpt>
      <trkpt lat="50.02497" lon="5.50486">
        <ele>344</ele>
        <time>2015-03-28T10:25:14Z</time>
      </trkpt>
      <trkpt lat="50.02493" lon="5.50475">
        <ele>344</ele>
        <time>2015-03-28T10:25:20Z</time>
      </trkpt>
      <trkpt lat="50.0249" lon="5.50465">
        <ele>344</ele>
        <time>2015-03-28T10:25:25Z</time>
      </trkpt>
      <trkpt lat="50.02488" lon="5.50455">
        <ele>345</ele>
        <time>2015-03-28T10:25:31Z</time>
      </trkpt>
      <trkpt lat="50.02485" lon="5.50445">
        <ele>344</ele>
        <time>2015-03-28T10:25:37Z</time>
      </trkpt>
      <trkpt lat="50.02482" lon="5.50436">
        <ele>345</ele>
        <time>2015-03-28T10:25:42Z</time>
      </trkpt>
      <trkpt lat="50.02481" lon="5.5043">
        <ele>345</ele>
        <time>2015-03-28T10:25:48Z</time>
      </trkpt>
      <trkpt lat="50.02477" lon="5.5042">
        <ele>345</ele>
        <time>2015-03-28T10:25:54Z</time>
      </trkpt>
      <trkpt lat="50.02475" lon="5.5041">
        <ele>346</ele>
        <time>2015-03-28T10:25:59Z</time>
      </trkpt>
      <trkpt lat="50.02473" lon="5.50399">
        <ele>347</ele>
        <time>2015-03-28T10:26:05Z</time>
      </trkpt>
      <trkpt lat="50.0247" lon="5.50389">
        <ele>346</ele>
        <time>2015-03-28T10:26:10Z</time>
      </trkpt>
      <trkpt lat="50.02467" lon="5.50379">
        <ele>346</ele>
        <time>2015-03-28T10:26:15Z</time>
      </trkpt>
      <trkpt lat="50.02465" lon="5.50367">
        <ele>347</ele>
        <time>2015-03-28T10:26:21Z</time>
      </trkpt>
      <trkpt lat="50.0246" lon="5.50356">
        <ele>348</ele>
        <time>2015-03-28T10:26:27Z</time>
      </trkpt>
      <trkpt lat="50.02457" lon="5.50347">
        <ele>348</ele>
        <time>2015-03-28T10:26:32Z</time>
      </trkpt>
      <trkpt lat="50.02452" lon="5.50337">
        <ele>347</ele>
        <time>2015-03-28T10:26:38Z</time>
      </trkpt>
      <trkpt lat="50.02449" lon="5.50329">
        <ele>348</ele>
        <time>2015-03-28T10:26:43Z</time>
      </trkpt>
      <trkpt lat="50.02444" lon="5.50322">
        <ele>348</ele>
        <time>2015-03-28T10:26:48Z</time>
      </trkpt>
      <trkpt lat="50.02438" lon="5.50314">
        <ele>348</ele>
        <time>2015-03-28T10:26:54Z</time>
      </trkpt>
      <trkpt lat="50.02431" lon="5.50306">
        <ele>347</ele>
        <time>2015-03-28T10:27:00Z</time>
      </trkpt>
      <trkpt lat="50.02425" lon="5.50299">
        <ele>346</ele>
        <time>2015-03-28T10:27:06Z</time>
      </trkpt>
      <trkpt lat="50.02417" lon="5.50291">
        <ele>347</ele>
        <time>2015-03-28T10:27:12Z</time>
      </trkpt>
      <trkpt lat="50.02412" lon="5.50285">
        <ele>347</ele>
        <time>2015-03-28T10:27:17Z</time>
      </trkpt>
      <trkpt lat="50.02406" lon="5.5028">
        <ele>347</ele>
        <time>2015-03-28T10:27:22Z</time>
      </trkpt>
      <trkpt lat="50.02402" lon="5.50275">
        <ele>346</ele>
        <time>2015-03-28T10:27:27Z</time>
      </trkpt>
      <trkpt lat="50.02397" lon="5.50269">
        <ele>346</ele>
        <time>2015-03-28T10:27:32Z</time>
      </trkpt>
      <trkpt lat="50.02392" lon="5.50263">
        <ele>345</ele>
        <time>2015-03-28T10:27:37Z</time>
      </trkpt>
      <trkpt lat="50.02387" lon="5.50257">
        <ele>344</ele>
        <time>2015-03-28T10:27:43Z</time>
      </trkpt>
      <trkpt lat="50.02381" lon="5.5025">
        <ele>344</ele>
        <time>2015-03-28T10:27:49Z</time>
      </trkpt>
      <trkpt lat="50.02376" lon="5.50246">
        <ele>344</ele>
        <time>2015-03-28T10:27:55Z</time>
      </trkpt>
      <trkpt lat="50.02371" lon="5.50241">
        <ele>343</ele>
        <time>2015-03-28T10:28:00Z</time>
      </trkpt>
      <trkpt lat="50.02366" lon="5.50235">
        <ele>343</ele>
        <time>2015-03-28T10:28:06Z</time>
      </trkpt>
      <trkpt lat="50.02359" lon="5.50227">
        <ele>342</ele>
        <time>2015-03-28T10:28:12Z</time>
      </trkpt>
      <trkpt lat="50.02355" lon="5.5022">
        <ele>341</ele>
        <time>2015-03-28T10:28:17Z</time>
      </trkpt>
      <trkpt lat="50.02351" lon="5.50212">
        <ele>341</ele>
        <time>2015-03-28T10:28:23Z</time>
      </trkpt>
      <trkpt lat="50.02349" lon="5.50205">
        <ele>341</ele>
        <time>2015-03-28T10:28:28Z</time>
      </trkpt>
      <trkpt lat="50.02345" lon="5.50196">
        <ele>341</ele>
        <time>2015-03-28T10:28:34Z</time>
      </trkpt>
      <trkpt lat="50.02343" lon="5.50188">
        <ele>341</ele>
        <time>2015-03-28T10:28:39Z</time>
      </trkpt>
      <trkpt lat="50.0234" lon="5.50181">
        <ele>341</ele>
        <time>2015-03-28T10:28:44Z</time>
      </trkpt>
      <trkpt lat="50.02336" lon="5.50176">
        <ele>340</ele>
        <time>2015-03-28T10:28:49Z</time>
      </trkpt>
      <trkpt lat="50.02332" lon="5.50168">
        <ele>341</ele>
        <time>2015-03-28T10:28:55Z</time>
      </trkpt>
      <trkpt lat="50.02329" lon="5.50162">
        <ele>341</ele>
        <time>2015-03-28T10:29:01Z</time>
      </trkpt>
      <trkpt lat="50.02325" lon="5.50152">
        <ele>341</ele>
        <time>2015-03-28T10:29:06Z</time>
      </trkpt>
      <trkpt lat="50.02322" lon="5.50143">
        <ele>340</ele>
        <time>2015-03-28T10:29:12Z</time>
      </trkpt>
      <trkpt lat="50.02319" lon="5.50136">
        <ele>339</ele>
        <time>2015-03-28T10:29:17Z</time>
      </trkpt>
      <trkpt lat="50.02316" lon="5.50129">
        <ele>339</ele>
        <time>2015-03-28T10:29:22Z</time>
      </trkpt>
      <trkpt lat="50.02312" lon="5.5012">
        <ele>338</ele>
        <time>2015-03-28T10:29:28Z</time>
      </trkpt>
      <trkpt lat="50.0231" lon="5.50113">
        <ele>338</ele>
        <time>2015-03-28T10:29:33Z</time>
      </trkpt>
      <trkpt lat="50.02304" lon="5.50105">
        <ele>337</ele>
        <time>2015-03-28T10:29:39Z</time>
      </trkpt>
      <trkpt lat="50.02299" lon="5.50097">
        <ele>336</ele>
        <time>2015-03-28T10:29:44Z</time>
      </trkpt>
      <trkpt lat="50.02296" lon="5.5009">
        <ele>336</ele>
        <time>2015-03-28T10:29:50Z</time>
      </trkpt>
      <trkpt lat="50.02296" lon="5.50086">
        <ele>335</ele>
        <time>2015-03-28T10:29:55Z</time>
      </trkpt>
      <trkpt lat="50.02294" lon="5.5008">
        <ele>336</ele>
        <time>2015-03-28T10:30:01Z</time>
      </trkpt>
      <trkpt lat="50.02291" lon="5.50073">
        <ele>335</ele>
        <time>2015-03-28T10:30:06Z</time>
      </trkpt>
      <trkpt lat="50.02287" lon="5.50063">
        <ele>334</ele>
        <time>2015-03-28T10:30:12Z</time>
      </trkpt>
      <trkpt lat="50.02284" lon="5.50056">
        <ele>334</ele>
        <time>2015-03-28T10:30:17Z</time>
      </trkpt>
      <trkpt lat="50.02281" lon="5.50046">
        <ele>335</ele>
        <time>2015-03-28T10:30:23Z</time>
      </trkpt>
      <trkpt lat="50.02277" lon="5.50038">
        <ele>335</ele>
        <time>2015-03-28T10:30:28Z</time>
      </trkpt>
      <trkpt lat="50.02274" lon="5.5003">
        <ele>334</ele>
        <time>2015-03-28T10:30:33Z</time>
      </trkpt>
      <trkpt lat="50.0227" lon="5.50023">
        <ele>334</ele>
        <time>2015-03-28T10:30:38Z</time>
      </trkpt>
      <trkpt lat="50.02266" lon="5.50014">
        <ele>334</ele>
        <time>2015-03-28T10:30:43Z</time>
      </trkpt>
      <trkpt lat="50.0226" lon="5.50002">
        <ele>334</ele>
        <time>2015-03-28T10:30:49Z</time>
      </trkpt>
      <trkpt lat="50.02256" lon="5.49992">
        <ele>334</ele>
        <time>2015-03-28T10:30:54Z</time>
      </trkpt>
      <trkpt lat="50.02252" lon="5.49979">
        <ele>334</ele>
        <time>2015-03-28T10:31:00Z</time>
      </trkpt>
      <trkpt lat="50.0225" lon="5.4997">
        <ele>334</ele>
        <time>2015-03-28T10:31:05Z</time>
      </trkpt>
      <trkpt lat="50.02246" lon="5.49959">
        <ele>335</ele>
        <time>2015-03-28T10:31:11Z</time>
      </trkpt>
      <trkpt lat="50.02244" lon="5.4995">
        <ele>334</ele>
        <time>2015-03-28T10:31:16Z</time>
      </trkpt>
      <trkpt lat="50.02239" lon="5.49938">
        <ele>335</ele>
        <time>2015-03-28T10:31:22Z</time>
      </trkpt>
      <trkpt lat="50.02236" lon="5.49927">
        <ele>335</ele>
        <time>2015-03-28T10:31:28Z</time>
      </trkpt>
      <trkpt lat="50.02233" lon="5.49918">
        <ele>335</ele>
        <time>2015-03-28T10:31:33Z</time>
      </trkpt>
      <trkpt lat="50.0223" lon="5.49908">
        <ele>334</ele>
        <time>2015-03-28T10:31:38Z</time>
      </trkpt>
      <trkpt lat="50.02228" lon="5.49899">
        <ele>335</ele>
        <time>2015-03-28T10:31:43Z</time>
      </trkpt>
      <trkpt lat="50.02225" lon="5.49888">
        <ele>335</ele>
        <time>2015-03-28T10:31:49Z</time>
      </trkpt>
      <trkpt lat="50.02223" lon="5.49882">
        <ele>335</ele>
        <time>2015-03-28T10:31:54Z</time>
      </trkpt>
      <trkpt lat="50.02219" lon="5.49876">
        <ele>335</ele>
        <time>2015-03-28T10:32:00Z</time>
      </trkpt>
      <trkpt lat="50.02214" lon="5.49866">
        <ele>335</ele>
        <time>2015-03-28T10:32:06Z</time>
      </trkpt>
      <trkpt lat="50.02212" lon="5.4986">
        <ele>336</ele>
        <time>2015-03-28T10:32:11Z</time>
      </trkpt>
      <trkpt lat="50.02212" lon="5.49854">
        <ele>336</ele>
        <time>2015-03-28T10:32:17Z</time>
      </trkpt>
      <trkpt lat="50.02211" lon="5.49852">
        <ele>336</ele>
        <time>2015-03-28T10:32:24Z</time>
      </trkpt>
      <trkpt lat="50.02213" lon="5.49851">
        <ele>337</ele>
        <time>2015-03-28T10:32:30Z</time>
      </trkpt>
      <trkpt lat="50.02214" lon="5.4985">
        <ele>336</ele>
        <time>2015-03-28T10:32:35Z</time>
      </trkpt>
      <trkpt lat="50.02214" lon="5.49851">
        <ele>336</ele>
        <time>2015-03-28T10:32:41Z</time>
      </trkpt>
      <trkpt lat="50.02213" lon="5.49851">
        <ele>336</ele>
        <time>2015-03-28T10:32:46Z</time>
      </trkpt>
      <trkpt lat="50.02211" lon="5.49851">
        <ele>336</ele>
        <time>2015-03-28T10:32:52Z</time>
      </trkpt>
      <trkpt lat="50.02209" lon="5.49851">
        <ele>336</ele>
        <time>2015-03-28T10:32:57Z</time>
      </trkpt>
      <trkpt lat="50.02208" lon="5.4985">
        <ele>336</ele>
        <time>2015-03-28T10:33:03Z</time>
      </trkpt>
      <trkpt lat="50.02208" lon="5.49849">
        <ele>336</ele>
        <time>2015-03-28T10:33:09Z</time>
      </trkpt>
      <trkpt lat="50.02208" lon="5.49848">
        <ele>336</ele>
        <time>2015-03-28T10:33:16Z</time>
      </trkpt>
      <trkpt lat="50.02208" lon="5.49848">
        <ele>336</ele>
        <time>2015-03-28T10:33:22Z</time>
      </trkpt>
      <trkpt lat="50.02209" lon="5.49848">
        <ele>336</ele>
        <time>2015-03-28T10:33:27Z</time>
      </trkpt>
      <trkpt lat="50.02208" lon="5.4985">
        <ele>336</ele>
        <time>2015-03-28T10:33:33Z</time>
      </trkpt>
      <trkpt lat="50.02208" lon="5.49851">
        <ele>336</ele>
        <time>2015-03-28T10:33:38Z</time>
      </trkpt>
      <trkpt lat="50.02208" lon="5.49852">
        <ele>336</ele>
        <time>2015-03-28T10:33:44Z</time>
      </trkpt>
      <trkpt lat="50.02209" lon="5.49852">
        <ele>336</ele>
        <time>2015-03-28T10:33:50Z</time>
      </trkpt>
      <trkpt lat="50.02208" lon="5.49853">
        <ele>336</ele>
        <time>2015-03-28T10:33:55Z</time>
      </trkpt>
      <trkpt lat="50.02208" lon="5.49854">
        <ele>336</ele>
        <time>2015-03-28T10:34:01Z</time>
      </trkpt>
      <trkpt lat="50.02207" lon="5.49855">
        <ele>336</ele>
        <time>2015-03-28T10:34:06Z</time>
      </trkpt>
      <trkpt lat="50.02208" lon="5.49855">
        <ele>336</ele>
        <time>2015-03-28T10:34:12Z</time>
      </trkpt>
      <trkpt lat="50.02209" lon="5.49854">
        <ele>336</ele>
        <time>2015-03-28T10:34:18Z</time>
      </trkpt>
      <trkpt lat="50.02211" lon="5.49854">
        <ele>336</ele>
        <time>2015-03-28T10:34:23Z</time>
      </trkpt>
      <trkpt lat="50.02211" lon="5.49855">
        <ele>337</ele>
        <time>2015-03-28T10:34:29Z</time>
      </trkpt>
      <trkpt lat="50.02212" lon="5.49855">
        <ele>336</ele>
        <time>2015-03-28T10:34:35Z</time>
      </trkpt>
      <trkpt lat="50.02212" lon="5.49855">
        <ele>336</ele>
        <time>2015-03-28T10:34:40Z</time>
      </trkpt>
      <trkpt lat="50.02212" lon="5.49855">
        <ele>336</ele>
        <time>2015-03-28T10:34:46Z</time>
      </trkpt>
      <trkpt lat="50.02211" lon="5.49854">
        <ele>336</ele>
        <time>2015-03-28T10:34:51Z</time>
      </trkpt>
      <trkpt lat="50.02211" lon="5.49852">
        <ele>336</ele>
        <time>2015-03-28T10:34:57Z</time>
      </trkpt>
      <trkpt lat="50.02209" lon="5.49851">
        <ele>336</ele>
        <time>2015-03-28T10:35:03Z</time>
      </trkpt>
      <trkpt lat="50.02209" lon="5.49851">
        <ele>335</ele>
        <time>2015-03-28T10:35:09Z</time>
      </trkpt>
      <trkpt lat="50.0221" lon="5.4985">
        <ele>336</ele>
        <time>2015-03-28T10:35:15Z</time>
      </trkpt>
      <trkpt lat="50.02211" lon="5.49849">
        <ele>337</ele>
        <time>2015-03-28T10:35:21Z</time>
      </trkpt>
      <trkpt lat="50.02211" lon="5.4985">
        <ele>336</ele>
        <time>2015-03-28T10:35:26Z</time>
      </trkpt>
      <trkpt lat="50.02211" lon="5.49851">
        <ele>336</ele>
        <time>2015-03-28T10:35:32Z</time>
      </trkpt>
      <trkpt lat="50.02211" lon="5.49853">
        <ele>336</ele>
        <time>2015-03-28T10:35:37Z</time>
      </trkpt>
      <trkpt lat="50.0221" lon="5.49854">
        <ele>337</ele>
        <time>2015-03-28T10:35:43Z</time>
      </trkpt>
      <trkpt lat="50.02208" lon="5.49855">
        <ele>336</ele>
        <time>2015-03-28T10:35:49Z</time>
      </trkpt>
      <trkpt lat="50.02207" lon="5.49854">
        <ele>337</ele>
        <time>2015-03-28T10:35:55Z</time>
      </trkpt>
      <trkpt lat="50.02207" lon="5.49854">
        <ele>336</ele>
        <time>2015-03-28T10:36:00Z</time>
      </trkpt>
      <trkpt lat="50.02207" lon="5.49854">
        <ele>337</ele>
        <time>2015-03-28T10:36:07Z</time>
      </trkpt>
      <trkpt lat="50.02206" lon="5.49854">
        <ele>337</ele>
        <time>2015-03-28T10:36:14Z</time>
      </trkpt>
      <trkpt lat="50.02206" lon="5.49853">
        <ele>337</ele>
        <time>2015-03-28T10:36:19Z</time>
      </trkpt>
      <trkpt lat="50.02205" lon="5.49852">
        <ele>336</ele>
        <time>2015-03-28T10:36:25Z</time>
      </trkpt>
      <trkpt lat="50.02205" lon="5.4985">
        <ele>336</ele>
        <time>2015-03-28T10:36:30Z</time>
      </trkpt>
      <trkpt lat="50.02205" lon="5.4985">
        <ele>336</ele>
        <time>2015-03-28T10:36:36Z</time>
      </trkpt>
      <trkpt lat="50.02204" lon="5.4985">
        <ele>336</ele>
        <time>2015-03-28T10:36:42Z</time>
      </trkpt>
      <trkpt lat="50.02206" lon="5.4985">
        <ele>336</ele>
        <time>2015-03-28T10:36:47Z</time>
      </trkpt>
      <trkpt lat="50.02206" lon="5.49846">
        <ele>337</ele>
        <time>2015-03-28T10:36:52Z</time>
      </trkpt>
      <trkpt lat="50.02206" lon="5.49842">
        <ele>336</ele>
        <time>2015-03-28T10:36:57Z</time>
      </trkpt>
      <trkpt lat="50.02207" lon="5.49836">
        <ele>336</ele>
        <time>2015-03-28T10:37:02Z</time>
      </trkpt>
      <trkpt lat="50.02208" lon="5.49826">
        <ele>336</ele>
        <time>2015-03-28T10:37:08Z</time>
      </trkpt>
      <trkpt lat="50.02209" lon="5.49816">
        <ele>337</ele>
        <time>2015-03-28T10:37:14Z</time>
      </trkpt>
      <trkpt lat="50.0221" lon="5.4981">
        <ele>337</ele>
        <time>2015-03-28T10:37:19Z</time>
      </trkpt>
      <trkpt lat="50.02211" lon="5.49804">
        <ele>338</ele>
        <time>2015-03-28T10:37:25Z</time>
      </trkpt>
      <trkpt lat="50.02212" lon="5.49795">
        <ele>338</ele>
        <time>2015-03-28T10:37:31Z</time>
      </trkpt>
      <trkpt lat="50.02212" lon="5.49792">
        <ele>337</ele>
        <time>2015-03-28T10:37:36Z</time>
      </trkpt>
      <trkpt lat="50.02213" lon="5.49784">
        <ele>338</ele>
        <time>2015-03-28T10:37:41Z</time>
      </trkpt>
      <trkpt lat="50.02213" lon="5.49775">
        <ele>338</ele>
        <time>2015-03-28T10:37:47Z</time>
      </trkpt>
      <trkpt lat="50.02212" lon="5.49766">
        <ele>339</ele>
        <time>2015-03-28T10:37:53Z</time>
      </trkpt>
      <trkpt lat="50.02212" lon="5.49759">
        <ele>340</ele>
        <time>2015-03-28T10:37:58Z</time>
      </trkpt>
      <trkpt lat="50.02211" lon="5.49751">
        <ele>341</ele>
        <time>2015-03-28T10:38:04Z</time>
      </trkpt>
      <trkpt lat="50.0221" lon="5.49744">
        <ele>341</ele>
        <time>2015-03-28T10:38:09Z</time>
      </trkpt>
      <trkpt lat="50.02211" lon="5.49736">
        <ele>342</ele>
        <time>2015-03-28T10:38:14Z</time>
      </trkpt>
      <trkpt lat="50.0221" lon="5.49727">
        <ele>344</ele>
        <time>2015-03-28T10:38:20Z</time>
      </trkpt>
      <trkpt lat="50.02211" lon="5.49717">
        <ele>344</ele>
        <time>2015-03-28T10:38:26Z</time>
      </trkpt>
      <trkpt lat="50.02211" lon="5.49711">
        <ele>345</ele>
        <time>2015-03-28T10:38:31Z</time>
      </trkpt>
      <trkpt lat="50.02211" lon="5.49701">
        <ele>345</ele>
        <time>2015-03-28T10:38:37Z</time>
      </trkpt>
      <trkpt lat="50.02212" lon="5.49693">
        <ele>346</ele>
        <time>2015-03-28T10:38:42Z</time>
      </trkpt>
      <trkpt lat="50.02212" lon="5.49684">
        <ele>347</ele>
        <time>2015-03-28T10:38:48Z</time>
      </trkpt>
      <trkpt lat="50.02211" lon="5.49673">
        <ele>347</ele>
        <time>2015-03-28T10:38:54Z</time>
      </trkpt>
      <trkpt lat="50.02209" lon="5.49662">
        <ele>348</ele>
        <time>2015-03-28T10:39:00Z</time>
      </trkpt>
      <trkpt lat="50.02206" lon="5.49653">
        <ele>348</ele>
        <time>2015-03-28T10:39:06Z</time>
      </trkpt>
      <trkpt lat="50.02203" lon="5.49643">
        <ele>348</ele>
        <time>2015-03-28T10:39:12Z</time>
      </trkpt>
      <trkpt lat="50.02203" lon="5.49635">
        <ele>348</ele>
        <time>2015-03-28T10:39:17Z</time>
      </trkpt>
      <trkpt lat="50.02202" lon="5.49626">
        <ele>349</ele>
        <time>2015-03-28T10:39:23Z</time>
      </trkpt>
      <trkpt lat="50.02201" lon="5.49617">
        <ele>349</ele>
        <time>2015-03-28T10:39:29Z</time>
      </trkpt>
      <trkpt lat="50.022" lon="5.49605">
        <ele>349</ele>
        <time>2015-03-28T10:39:35Z</time>
      </trkpt>
      <trkpt lat="50.02198" lon="5.49594">
        <ele>350</ele>
        <time>2015-03-28T10:39:41Z</time>
      </trkpt>
      <trkpt lat="50.02197" lon="5.49585">
        <ele>350</ele>
        <time>2015-03-28T10:39:47Z</time>
      </trkpt>
      <trkpt lat="50.02195" lon="5.49577">
        <ele>350</ele>
        <time>2015-03-28T10:39:52Z</time>
      </trkpt>
      <trkpt lat="50.02193" lon="5.49568">
        <ele>350</ele>
        <time>2015-03-28T10:39:57Z</time>
      </trkpt>
      <trkpt lat="50.02193" lon="5.4956">
        <ele>351</ele>
        <time>2015-03-28T10:40:02Z</time>
      </trkpt>
      <trkpt lat="50.02193" lon="5.49552">
        <ele>351</ele>
        <time>2015-03-28T10:40:07Z</time>
      </trkpt>
      <trkpt lat="50.02193" lon="5.49544">
        <ele>352</ele>
        <time>2015-03-28T10:40:12Z</time>
      </trkpt>
      <trkpt lat="50.02193" lon="5.49531">
        <ele>352</ele>
        <time>2015-03-28T10:40:18Z</time>
      </trkpt>
      <trkpt lat="50.02193" lon="5.4952">
        <ele>353</ele>
        <time>2015-03-28T10:40:24Z</time>
      </trkpt>
      <trkpt lat="50.02193" lon="5.49511">
        <ele>354</ele>
        <time>2015-03-28T10:40:29Z</time>
      </trkpt>
      <trkpt lat="50.02193" lon="5.49504">
        <ele>354</ele>
        <time>2015-03-28T10:40:34Z</time>
      </trkpt>
      <trkpt lat="50.02195" lon="5.49492">
        <ele>354</ele>
        <time>2015-03-28T10:40:40Z</time>
      </trkpt>
      <trkpt lat="50.02197" lon="5.49486">
        <ele>355</ele>
        <time>2015-03-28T10:40:45Z</time>
      </trkpt>
      <trkpt lat="50.02197" lon="5.49479">
        <ele>356</ele>
        <time>2015-03-28T10:40:50Z</time>
      </trkpt>
      <trkpt lat="50.02197" lon="5.4947">
        <ele>357</ele>
        <time>2015-03-28T10:40:56Z</time>
      </trkpt>
      <trkpt lat="50.02196" lon="5.49461">
        <ele>357</ele>
        <time>2015-03-28T10:41:02Z</time>
      </trkpt>
      <trkpt lat="50.02197" lon="5.49453">
        <ele>358</ele>
        <time>2015-03-28T10:41:07Z</time>
      </trkpt>
      <trkpt lat="50.02198" lon="5.49444">
        <ele>358</ele>
        <time>2015-03-28T10:41:13Z</time>
      </trkpt>
      <trkpt lat="50.02198" lon="5.49438">
        <ele>358</ele>
        <time>2015-03-28T10:41:19Z</time>
      </trkpt>
      <trkpt lat="50.02198" lon="5.4943">
        <ele>359</ele>
        <time>2015-03-28T10:41:25Z</time>
      </trkpt>
      <trkpt lat="50.02199" lon="5.49421">
        <ele>359</ele>
        <time>2015-03-28T10:41:30Z</time>
      </trkpt>
      <trkpt lat="50.02198" lon="5.4941">
        <ele>360</ele>
        <time>2015-03-28T10:41:36Z</time>
      </trkpt>
      <trkpt lat="50.02196" lon="5.49399">
        <ele>360</ele>
        <time>2015-03-28T10:41:42Z</time>
      </trkpt>
      <trkpt lat="50.02194" lon="5.49391">
        <ele>360</ele>
        <time>2015-03-28T10:41:47Z</time>
      </trkpt>
      <trkpt lat="50.02192" lon="5.49384">
        <ele>360</ele>
        <time>2015-03-28T10:41:52Z</time>
      </trkpt>
      <trkpt lat="50.0219" lon="5.49374">
        <ele>360</ele>
        <time>2015-03-28T10:41:58Z</time>
      </trkpt>
      <trkpt lat="50.02191" lon="5.49365">
        <ele>361</ele>
        <time>2015-03-28T10:42:04Z</time>
      </trkpt>
      <trkpt lat="50.0219" lon="5.49356">
        <ele>360</ele>
        <time>2015-03-28T10:42:09Z</time>
      </trkpt>
      <trkpt lat="50.02189" lon="5.49345">
        <ele>361</ele>
        <time>2015-03-28T10:42:15Z</time>
      </trkpt>
      <trkpt lat="50.0219" lon="5.49336">
        <ele>361</ele>
        <time>2015-03-28T10:42:20Z</time>
      </trkpt>
      <trkpt lat="50.02191" lon="5.49326">
        <ele>361</ele>
        <time>2015-03-28T10:42:26Z</time>
      </trkpt>
      <trkpt lat="50.02193" lon="5.49317">
        <ele>361</ele>
        <time>2015-03-28T10:42:32Z</time>
      </trkpt>
      <trkpt lat="50.02193" lon="5.49306">
        <ele>362</ele>
        <time>2015-03-28T10:42:38Z</time>
      </trkpt>
      <trkpt lat="50.02194" lon="5.49297">
        <ele>362</ele>
        <time>2015-03-28T10:42:44Z</time>
      </trkpt>
      <trkpt lat="50.02193" lon="5.49289">
        <ele>362</ele>
        <time>2015-03-28T10:42:50Z</time>
      </trkpt>
      <trkpt lat="50.02191" lon="5.49277">
        <ele>362</ele>
        <time>2015-03-28T10:42:56Z</time>
      </trkpt>
      <trkpt lat="50.02191" lon="5.49268">
        <ele>362</ele>
        <time>2015-03-28T10:43:01Z</time>
      </trkpt>
      <trkpt lat="50.0219" lon="5.49259">
        <ele>363</ele>
        <time>2015-03-28T10:43:06Z</time>
      </trkpt>
      <trkpt lat="50.02189" lon="5.4925">
        <ele>363</ele>
        <time>2015-03-28T10:43:12Z</time>
      </trkpt>
      <trkpt lat="50.02189" lon="5.49242">
        <ele>364</ele>
        <time>2015-03-28T10:43:17Z</time>
      </trkpt>
      <trkpt lat="50.02188" lon="5.49234">
        <ele>364</ele>
        <time>2015-03-28T10:43:22Z</time>
      </trkpt>
      <trkpt lat="50.02187" lon="5.49226">
        <ele>364</ele>
        <time>2015-03-28T10:43:28Z</time>
      </trkpt>
      <trkpt lat="50.02185" lon="5.49216">
        <ele>364</ele>
        <time>2015-03-28T10:43:34Z</time>
      </trkpt>
      <trkpt lat="50.02185" lon="5.49207">
        <ele>364</ele>
        <time>2015-03-28T10:43:39Z</time>
      </trkpt>
      <trkpt lat="50.02185" lon="5.49199">
        <ele>364</ele>
        <time>2015-03-28T10:43:45Z</time>
      </trkpt>
      <trkpt lat="50.02185" lon="5.49193">
        <ele>365</ele>
        <time>2015-03-28T10:43:50Z</time>
      </trkpt>
      <trkpt lat="50.02186" lon="5.49188">
        <ele>365</ele>
        <time>2015-03-28T10:43:55Z</time>
      </trkpt>
      <trkpt lat="50.02187" lon="5.4918">
        <ele>365</ele>
        <time>2015-03-28T10:44:01Z</time>
      </trkpt>
      <trkpt lat="50.02187" lon="5.49174">
        <ele>366</ele>
        <time>2015-03-28T10:44:06Z</time>
      </trkpt>
      <trkpt lat="50.02187" lon="5.49164">
        <ele>366</ele>
        <time>2015-03-28T10:44:12Z</time>
      </trkpt>
      <trkpt lat="50.02187" lon="5.49155">
        <ele>367</ele>
        <time>2015-03-28T10:44:18Z</time>
      </trkpt>
      <trkpt lat="50.02185" lon="5.49146">
        <ele>367</ele>
        <time>2015-03-28T10:44:24Z</time>
      </trkpt>
      <trkpt lat="50.02184" lon="5.49138">
        <ele>368</ele>
        <time>2015-03-28T10:44:29Z</time>
      </trkpt>
      <trkpt lat="50.02182" lon="5.49127">
        <ele>368</ele>
        <time>2015-03-28T10:44:35Z</time>
      </trkpt>
      <trkpt lat="50.02181" lon="5.49117">
        <ele>368</ele>
        <time>2015-03-28T10:44:41Z</time>
      </trkpt>
      <trkpt lat="50.0218" lon="5.49107">
        <ele>369</ele>
        <time>2015-03-28T10:44:47Z</time>
      </trkpt>
      <trkpt lat="50.02179" lon="5.49099">
        <ele>369</ele>
        <time>2015-03-28T10:44:52Z</time>
      </trkpt>
      <trkpt lat="50.02178" lon="5.49091">
        <ele>369</ele>
        <time>2015-03-28T10:44:57Z</time>
      </trkpt>
      <trkpt lat="50.02176" lon="5.49082">
        <ele>370</ele>
        <time>2015-03-28T10:45:03Z</time>
      </trkpt>
      <trkpt lat="50.02174" lon="5.49074">
        <ele>371</ele>
        <time>2015-03-28T10:45:08Z</time>
      </trkpt>
      <trkpt lat="50.02172" lon="5.49064">
        <ele>371</ele>
        <time>2015-03-28T10:45:14Z</time>
      </trkpt>
      <trkpt lat="50.02171" lon="5.49053">
        <ele>371</ele>
        <time>2015-03-28T10:45:20Z</time>
      </trkpt>
      <trkpt lat="50.02171" lon="5.49044">
        <ele>372</ele>
        <time>2015-03-28T10:45:26Z</time>
      </trkpt>
      <trkpt lat="50.02169" lon="5.49034">
        <ele>373</ele>
        <time>2015-03-28T10:45:32Z</time>
      </trkpt>
      <trkpt lat="50.02169" lon="5.49027">
        <ele>373</ele>
        <time>2015-03-28T10:45:37Z</time>
      </trkpt>
      <trkpt lat="50.02168" lon="5.49017">
        <ele>374</ele>
        <time>2015-03-28T10:45:43Z</time>
      </trkpt>
      <trkpt lat="50.02167" lon="5.49008">
        <ele>374</ele>
        <time>2015-03-28T10:45:48Z</time>
      </trkpt>
      <trkpt lat="50.02166" lon="5.48997">
        <ele>375</ele>
        <time>2015-03-28T10:45:54Z</time>
      </trkpt>
      <trkpt lat="50.02166" lon="5.48987">
        <ele>375</ele>
        <time>2015-03-28T10:46:00Z</time>
      </trkpt>
      <trkpt lat="50.02165" lon="5.48978">
        <ele>376</ele>
        <time>2015-03-28T10:46:06Z</time>
      </trkpt>
      <trkpt lat="50.02164" lon="5.4897">
        <ele>377</ele>
        <time>2015-03-28T10:46:11Z</time>
      </trkpt>
      <trkpt lat="50.02163" lon="5.48962">
        <ele>378</ele>
        <time>2015-03-28T10:46:17Z</time>
      </trkpt>
      <trkpt lat="50.02161" lon="5.48955">
        <ele>379</ele>
        <time>2015-03-28T10:46:22Z</time>
      </trkpt>
      <trkpt lat="50.0216" lon="5.48947">
        <ele>380</ele>
        <time>2015-03-28T10:46:27Z</time>
      </trkpt>
      <trkpt lat="50.02157" lon="5.48938">
        <ele>380</ele>
        <time>2015-03-28T10:46:33Z</time>
      </trkpt>
      <trkpt lat="50.02156" lon="5.4893">
        <ele>381</ele>
        <time>2015-03-28T10:46:39Z</time>
      </trkpt>
      <trkpt lat="50.02155" lon="5.48923">
        <ele>382</ele>
        <time>2015-03-28T10:46:45Z</time>
      </trkpt>
      <trkpt lat="50.02155" lon="5.48916">
        <ele>382</ele>
        <time>2015-03-28T10:46:50Z</time>
      </trkpt>
      <trkpt lat="50.02157" lon="5.4891">
        <ele>383</ele>
        <time>2015-03-28T10:46:56Z</time>
      </trkpt>
      <trkpt lat="50.02156" lon="5.48906">
        <ele>384</ele>
        <time>2015-03-28T10:47:02Z</time>
      </trkpt>
      <trkpt lat="50.02159" lon="5.48904">
        <ele>384</ele>
        <time>2015-03-28T10:47:07Z</time>
      </trkpt>
      <trkpt lat="50.02163" lon="5.489">
        <ele>385</ele>
        <time>2015-03-28T10:47:13Z</time>
      </trkpt>
      <trkpt lat="50.02168" lon="5.48898">
        <ele>386</ele>
        <time>2015-03-28T10:47:19Z</time>
      </trkpt>
      <trkpt lat="50.02171" lon="5.48895">
        <ele>386</ele>
        <time>2015-03-28T10:47:24Z</time>
      </trkpt>
      <trkpt lat="50.02176" lon="5.48892">
        <ele>387</ele>
        <time>2015-03-28T10:47:30Z</time>
      </trkpt>
      <trkpt lat="50.02181" lon="5.48888">
        <ele>387</ele>
        <time>2015-03-28T10:47:36Z</time>
      </trkpt>
      <trkpt lat="50.02184" lon="5.48885">
        <ele>388</ele>
        <time>2015-03-28T10:47:41Z</time>
      </trkpt>
      <trkpt lat="50.02188" lon="5.48881">
        <ele>389</ele>
        <time>2015-03-28T10:47:47Z</time>
      </trkpt>
      <trkpt lat="50.02193" lon="5.48877">
        <ele>389</ele>
        <time>2015-03-28T10:47:52Z</time>
      </trkpt>
      <trkpt lat="50.02195" lon="5.4887">
        <ele>389</ele>
        <time>2015-03-28T10:47:57Z</time>
      </trkpt>
      <trkpt lat="50.02197" lon="5.48864">
        <ele>390</ele>
        <time>2015-03-28T10:48:03Z</time>
      </trkpt>
      <trkpt lat="50.02198" lon="5.48862">
        <ele>389</ele>
        <time>2015-03-28T10:48:08Z</time>
      </trkpt>
      <trkpt lat="50.02199" lon="5.48858">
        <ele>390</ele>
        <time>2015-03-28T10:48:14Z</time>
      </trkpt>
      <trkpt lat="50.022" lon="5.48852">
        <ele>390</ele>
        <time>2015-03-28T10:48:19Z</time>
      </trkpt>
      <trkpt lat="50.02203" lon="5.48847">
        <ele>391</ele>
        <time>2015-03-28T10:48:24Z</time>
      </trkpt>
      <trkpt lat="50.02205" lon="5.4884">
        <ele>391</ele>
        <time>2015-03-28T10:48:29Z</time>
      </trkpt>
      <trkpt lat="50.02208" lon="5.48832">
        <ele>392</ele>
        <time>2015-03-28T10:48:35Z</time>
      </trkpt>
      <trkpt lat="50.02211" lon="5.48825">
        <ele>392</ele>
        <time>2015-03-28T10:48:41Z</time>
      </trkpt>
      <trkpt lat="50.02213" lon="5.48817">
        <ele>393</ele>
        <time>2015-03-28T10:48:46Z</time>
      </trkpt>
      <trkpt lat="50.02214" lon="5.4881">
        <ele>393</ele>
        <time>2015-03-28T10:48:51Z</time>
      </trkpt>
      <trkpt lat="50.02217" lon="5.48804">
        <ele>394</ele>
        <time>2015-03-28T10:48:56Z</time>
      </trkpt>
      <trkpt lat="50.02219" lon="5.48798">
        <ele>395</ele>
        <time>2015-03-28T10:49:01Z</time>
      </trkpt>
      <trkpt lat="50.02222" lon="5.4879">
        <ele>395</ele>
        <time>2015-03-28T10:49:07Z</time>
      </trkpt>
      <trkpt lat="50.02224" lon="5.48784">
        <ele>395</ele>
        <time>2015-03-28T10:49:13Z</time>
      </trkpt>
      <trkpt lat="50.02227" lon="5.48776">
        <ele>396</ele>
        <time>2015-03-28T10:49:19Z</time>
      </trkpt>
      <trkpt lat="50.02232" lon="5.48768">
        <ele>397</ele>
        <time>2015-03-28T10:49:25Z</time>
      </trkpt>
      <trkpt lat="50.02236" lon="5.4876">
        <ele>398</ele>
        <time>2015-03-28T10:49:31Z</time>
      </trkpt>
      <trkpt lat="50.02237" lon="5.48753">
        <ele>398</ele>
        <time>2015-03-28T10:49:36Z</time>
      </trkpt>
      <trkpt lat="50.02239" lon="5.48744">
        <ele>398</ele>
        <time>2015-03-28T10:49:42Z</time>
      </trkpt>
      <trkpt lat="50.0224" lon="5.48735">
        <ele>398</ele>
        <time>2015-03-28T10:49:47Z</time>
      </trkpt>
      <trkpt lat="50.02242" lon="5.48727">
        <ele>399</ele>
        <time>2015-03-28T10:49:52Z</time>
      </trkpt>
      <trkpt lat="50.02243" lon="5.48717">
        <ele>400</ele>
        <time>2015-03-28T10:49:58Z</time>
      </trkpt>
      <trkpt lat="50.02244" lon="5.48706">
        <ele>400</ele>
        <time>2015-03-28T10:50:04Z</time>
      </trkpt>
      <trkpt lat="50.02245" lon="5.48696">
        <ele>400</ele>
        <time>2015-03-28T10:50:10Z</time>
      </trkpt>
      <trkpt lat="50.02245" lon="5.48689">
        <ele>400</ele>
        <time>2015-03-28T10:50:15Z</time>
      </trkpt>
      <trkpt lat="50.02246" lon="5.4868">
        <ele>401</ele>
        <time>2015-03-28T10:50:20Z</time>
      </trkpt>
      <trkpt lat="50.02246" lon="5.4867">
        <ele>401</ele>
        <time>2015-03-28T10:50:26Z</time>
      </trkpt>
      <trkpt lat="50.02248" lon="5.48661">
        <ele>402</ele>
        <time>2015-03-28T10:50:32Z</time>
      </trkpt>
      <trkpt lat="50.02248" lon="5.48654">
        <ele>402</ele>
        <time>2015-03-28T10:50:38Z</time>
      </trkpt>
      <trkpt lat="50.0225" lon="5.48649">
        <ele>403</ele>
        <time>2015-03-28T10:50:43Z</time>
      </trkpt>
      <trkpt lat="50.02252" lon="5.48643">
        <ele>403</ele>
        <time>2015-03-28T10:50:49Z</time>
      </trkpt>
      <trkpt lat="50.02254" lon="5.48636">
        <ele>404</ele>
        <time>2015-03-28T10:50:55Z</time>
      </trkpt>
      <trkpt lat="50.02256" lon="5.48629">
        <ele>404</ele>
        <time>2015-03-28T10:51:01Z</time>
      </trkpt>
      <trkpt lat="50.02259" lon="5.48622">
        <ele>404</ele>
        <time>2015-03-28T10:51:07Z</time>
      </trkpt>
      <trkpt lat="50.02261" lon="5.48615">
        <ele>405</ele>
        <time>2015-03-28T10:51:13Z</time>
      </trkpt>
      <trkpt lat="50.02264" lon="5.48606">
        <ele>406</ele>
        <time>2015-03-28T10:51:19Z</time>
      </trkpt>
      <trkpt lat="50.02267" lon="5.48598">
        <ele>406</ele>
        <time>2015-03-28T10:51:24Z</time>
      </trkpt>
      <trkpt lat="50.02271" lon="5.4859">
        <ele>406</ele>
        <time>2015-03-28T10:51:30Z</time>
      </trkpt>
      <trkpt lat="50.02274" lon="5.48581">
        <ele>406</ele>
        <time>2015-03-28T10:51:36Z</time>
      </trkpt>
      <trkpt lat="50.02277" lon="5.48572">
        <ele>407</ele>
        <time>2015-03-28T10:51:42Z</time>
      </trkpt>
      <trkpt lat="50.02279" lon="5.48564">
        <ele>407</ele>
        <time>2015-03-28T10:51:47Z</time>
      </trkpt>
      <trkpt lat="50.02282" lon="5.48555">
        <ele>408</ele>
        <time>2015-03-28T10:51:53Z</time>
      </trkpt>
      <trkpt lat="50.02284" lon="5.48549">
        <ele>408</ele>
        <time>2015-03-28T10:51:59Z</time>
      </trkpt>
      <trkpt lat="50.02286" lon="5.48539">
        <ele>408</ele>
        <time>2015-03-28T10:52:05Z</time>
      </trkpt>
      <trkpt lat="50.02289" lon="5.48532">
        <ele>408</ele>
        <time>2015-03-28T10:52:10Z</time>
      </trkpt>
      <trkpt lat="50.0229" lon="5.48521">
        <ele>409</ele>
        <time>2015-03-28T10:52:16Z</time>
      </trkpt>
      <trkpt lat="50.02294" lon="5.48511">
        <ele>410</ele>
        <time>2015-03-28T10:52:22Z</time>
      </trkpt>
      <trkpt lat="50.02297" lon="5.48502">
        <ele>410</ele>
        <time>2015-03-28T10:52:28Z</time>
      </trkpt>
      <trkpt lat="50.023" lon="5.48495">
        <ele>410</ele>
        <time>2015-03-28T10:52:34Z</time>
      </trkpt>
      <trkpt lat="50.02304" lon="5.48488">
        <ele>410</ele>
        <time>2015-03-28T10:52:39Z</time>
      </trkpt>
      <trkpt lat="50.02306" lon="5.48482">
        <ele>411</ele>
        <time>2015-03-28T10:52:44Z</time>
      </trkpt>
      <trkpt lat="50.0231" lon="5.48472">
        <ele>412</ele>
        <time>2015-03-28T10:52:50Z</time>
      </trkpt>
      <trkpt lat="50.02313" lon="5.48463">
        <ele>412</ele>
        <time>2015-03-28T10:52:56Z</time>
      </trkpt>
      <trkpt lat="50.02317" lon="5.48455">
        <ele>413</ele>
        <time>2015-03-28T10:53:01Z</time>
      </trkpt>
      <trkpt lat="50.0232" lon="5.48446">
        <ele>413</ele>
        <time>2015-03-28T10:53:07Z</time>
      </trkpt>
      <trkpt lat="50.02323" lon="5.48439">
        <ele>414</ele>
        <time>2015-03-28T10:53:12Z</time>
      </trkpt>
      <trkpt lat="50.02326" lon="5.48432">
        <ele>414</ele>
        <time>2015-03-28T10:53:17Z</time>
      </trkpt>
      <trkpt lat="50.0233" lon="5.48423">
        <ele>414</ele>
        <time>2015-03-28T10:53:23Z</time>
      </trkpt>
      <trkpt lat="50.02331" lon="5.48416">
        <ele>415</ele>
        <time>2015-03-28T10:53:28Z</time>
      </trkpt>
      <trkpt lat="50.02335" lon="5.48408">
        <ele>415</ele>
        <time>2015-03-28T10:53:33Z</time>
      </trkpt>
      <trkpt lat="50.02338" lon="5.48399">
        <ele>415</ele>
        <time>2015-03-28T10:53:39Z</time>
      </trkpt>
      <trkpt lat="50.02338" lon="5.48388">
        <ele>415</ele>
        <time>2015-03-28T10:53:45Z</time>
      </trkpt>
      <trkpt lat="50.0234" lon="5.4838">
        <ele>416</ele>
        <time>2015-03-28T10:53:50Z</time>
      </trkpt>
      <trkpt lat="50.02341" lon="5.48368">
        <ele>416</ele>
        <time>2015-03-28T10:53:56Z</time>
      </trkpt>
      <trkpt lat="50.02342" lon="5.48361">
        <ele>417</ele>
        <time>2015-03-28T10:54:01Z</time>
      </trkpt>
      <trkpt lat="50.02345" lon="5.48353">
        <ele>417</ele>
        <time>2015-03-28T10:54:07Z</time>
      </trkpt>
      <trkpt lat="50.02345" lon="5.48346">
        <ele>417</ele>
        <time>2015-03-28T10:54:12Z</time>
      </trkpt>
      <trkpt lat="50.02347" lon="5.48336">
        <ele>417</ele>
        <time>2015-03-28T10:54:18Z</time>
      </trkpt>
      <trkpt lat="50.02348" lon="5.48328">
        <ele>417</ele>
        <time>2015-03-28T10:54:23Z</time>
      </trkpt>
      <trkpt lat="50.02348" lon="5.4832">
        <ele>416</ele>
        <time>2015-03-28T10:54:28Z</time>
      </trkpt>
      <trkpt lat="50.02348" lon="5.4831">
        <ele>416</ele>
        <time>2015-03-28T10:54:34Z</time>
      </trkpt>
      <trkpt lat="50.02347" lon="5.48299">
        <ele>417</ele>
        <time>2015-03-28T10:54:39Z</time>
      </trkpt>
      <trkpt lat="50.02347" lon="5.48288">
        <ele>417</ele>
        <time>2015-03-28T10:54:45Z</time>
      </trkpt>
      <trkpt lat="50.02348" lon="5.48278">
        <ele>417</ele>
        <time>2015-03-28T10:54:51Z</time>
      </trkpt>
      <trkpt lat="50.02349" lon="5.48266">
        <ele>417</ele>
        <time>2015-03-28T10:54:57Z</time>
      </trkpt>
      <trkpt lat="50.02351" lon="5.48257">
        <ele>417</ele>
        <time>2015-03-28T10:55:03Z</time>
      </trkpt>
      <trkpt lat="50.02353" lon="5.48249">
        <ele>418</ele>
        <time>2015-03-28T10:55:08Z</time>
      </trkpt>
      <trkpt lat="50.02353" lon="5.48239">
        <ele>418</ele>
        <time>2015-03-28T10:55:14Z</time>
      </trkpt>
      <trkpt lat="50.02354" lon="5.48232">
        <ele>418</ele>
        <time>2015-03-28T10:55:19Z</time>
      </trkpt>
      <trkpt lat="50.02357" lon="5.48221">
        <ele>418</ele>
        <time>2015-03-28T10:55:25Z</time>
      </trkpt>
      <trkpt lat="50.02359" lon="5.48213">
        <ele>418</ele>
        <time>2015-03-28T10:55:30Z</time>
      </trkpt>
      <trkpt lat="50.0236" lon="5.48205">
        <ele>419</ele>
        <time>2015-03-28T10:55:36Z</time>
      </trkpt>
      <trkpt lat="50.02362" lon="5.48198">
        <ele>419</ele>
        <time>2015-03-28T10:55:41Z</time>
      </trkpt>
      <trkpt lat="50.02362" lon="5.4819">
        <ele>420</ele>
        <time>2015-03-28T10:55:46Z</time>
      </trkpt>
      <trkpt lat="50.02363" lon="5.48179">
        <ele>420</ele>
        <time>2015-03-28T10:55:52Z</time>
      </trkpt>
      <trkpt lat="50.02363" lon="5.48169">
        <ele>419</ele>
        <time>2015-03-28T10:55:57Z</time>
      </trkpt>
      <trkpt lat="50.02362" lon="5.48156">
        <ele>419</ele>
        <time>2015-03-28T10:56:03Z</time>
      </trkpt>
      <trkpt lat="50.02362" lon="5.48148">
        <ele>419</ele>
        <time>2015-03-28T10:56:09Z</time>
      </trkpt>
      <trkpt lat="50.02365" lon="5.48143">
        <ele>420</ele>
        <time>2015-03-28T10:56:15Z</time>
      </trkpt>
      <trkpt lat="50.02368" lon="5.48142">
        <ele>421</ele>
        <time>2015-03-28T10:56:20Z</time>
      </trkpt>
      <trkpt lat="50.0237" lon="5.48143">
        <ele>421</ele>
        <time>2015-03-28T10:56:26Z</time>
      </trkpt>
      <trkpt lat="50.02374" lon="5.48145">
        <ele>421</ele>
        <time>2015-03-28T10:56:31Z</time>
      </trkpt>
      <trkpt lat="50.02377" lon="5.48145">
        <ele>422</ele>
        <time>2015-03-28T10:56:36Z</time>
      </trkpt>
      <trkpt lat="50.02382" lon="5.48142">
        <ele>422</ele>
        <time>2015-03-28T10:56:41Z</time>
      </trkpt>
      <trkpt lat="50.0239" lon="5.48141">
        <ele>421</ele>
        <time>2015-03-28T10:56:47Z</time>
      </trkpt>
      <trkpt lat="50.02394" lon="5.4814">
        <ele>422</ele>
        <time>2015-03-28T10:56:53Z</time>
      </trkpt>
      <trkpt lat="50.02398" lon="5.48141">
        <ele>422</ele>
        <time>2015-03-28T10:56:59Z</time>
      </trkpt>
      <trkpt lat="50.02398" lon="5.48143">
        <ele>422</ele>
        <time>2015-03-28T10:57:04Z</time>
      </trkpt>
      <trkpt lat="50.02399" lon="5.48143">
        <ele>422</ele>
        <time>2015-03-28T10:57:10Z</time>
      </trkpt>
      <trkpt lat="50.02401" lon="5.48142">
        <ele>422</ele>
        <time>2015-03-28T10:57:16Z</time>
      </trkpt>
      <trkpt lat="50.02401" lon="5.48138">
        <ele>423</ele>
        <time>2015-03-28T10:57:21Z</time>
      </trkpt>
      <trkpt lat="50.02397" lon="5.48142">
        <ele>422</ele>
        <time>2015-03-28T10:57:27Z</time>
      </trkpt>
      <trkpt lat="50.02391" lon="5.48141">
        <ele>422</ele>
        <time>2015-03-28T10:57:32Z</time>
      </trkpt>
      <trkpt lat="50.02383" lon="5.48139">
        <ele>420</ele>
        <time>2015-03-28T10:57:38Z</time>
      </trkpt>
      <trkpt lat="50.02377" lon="5.48133">
        <ele>420</ele>
        <time>2015-03-28T10:57:44Z</time>
      </trkpt>
      <trkpt lat="50.02375" lon="5.48126">
        <ele>420</ele>
        <time>2015-03-28T10:57:49Z</time>
      </trkpt>
      <trkpt lat="50.02371" lon="5.48122">
        <ele>420</ele>
        <time>2015-03-28T10:57:55Z</time>
      </trkpt>
      <trkpt lat="50.02366" lon="5.48119">
        <ele>420</ele>
        <time>2015-03-28T10:58:01Z</time>
      </trkpt>
      <trkpt lat="50.02363" lon="5.48118">
        <ele>421</ele>
        <time>2015-03-28T10:58:06Z</time>
      </trkpt>
      <trkpt lat="50.0236" lon="5.48116">
        <ele>421</ele>
        <time>2015-03-28T10:58:11Z</time>
      </trkpt>
      <trkpt lat="50.02358" lon="5.48115">
        <ele>420</ele>
        <time>2015-03-28T10:58:16Z</time>
      </trkpt>
      <trkpt lat="50.02357" lon="5.48114">
        <ele>420</ele>
        <time>2015-03-28T10:58:21Z</time>
      </trkpt>
      <trkpt lat="50.0236" lon="5.48117">
        <ele>421</ele>
        <time>2015-03-28T10:58:26Z</time>
      </trkpt>
      <trkpt lat="50.02362" lon="5.48122">
        <ele>420</ele>
        <time>2015-03-28T10:58:32Z</time>
      </trkpt>
      <trkpt lat="50.02365" lon="5.48124">
        <ele>421</ele>
        <time>2015-03-28T10:58:37Z</time>
      </trkpt>
      <trkpt lat="50.02365" lon="5.48123">
        <ele>421</ele>
        <time>2015-03-28T10:58:43Z</time>
      </trkpt>
      <trkpt lat="50.02365" lon="5.48121">
        <ele>421</ele>
        <time>2015-03-28T10:58:49Z</time>
      </trkpt>
      <trkpt lat="50.02366" lon="5.48119">
        <ele>421</ele>
        <time>2015-03-28T10:58:54Z</time>
      </trkpt>
      <trkpt lat="50.02368" lon="5.48115">
        <ele>421</ele>
        <time>2015-03-28T10:58:59Z</time>
      </trkpt>
      <trkpt lat="50.02369" lon="5.4811">
        <ele>421</ele>
        <time>2015-03-28T10:59:04Z</time>
      </trkpt>
      <trkpt lat="50.02368" lon="5.48101">
        <ele>420</ele>
        <time>2015-03-28T10:59:09Z</time>
      </trkpt>
      <trkpt lat="50.02367" lon="5.48095">
        <ele>421</ele>
        <time>2015-03-28T10:59:14Z</time>
      </trkpt>
      <trkpt lat="50.02367" lon="5.48087">
        <ele>422</ele>
        <time>2015-03-28T10:59:20Z</time>
      </trkpt>
      <trkpt lat="50.02367" lon="5.48079">
        <ele>421</ele>
        <time>2015-03-28T10:59:26Z</time>
      </trkpt>
      <trkpt lat="50.02367" lon="5.48074">
        <ele>421</ele>
        <time>2015-03-28T10:59:31Z</time>
      </trkpt>
      <trkpt lat="50.02366" lon="5.48073">
        <ele>421</ele>
        <time>2015-03-28T10:59:36Z</time>
      </trkpt>
      <trkpt lat="50.02366" lon="5.48067">
        <ele>421</ele>
        <time>2015-03-28T10:59:42Z</time>
      </trkpt>
      <trkpt lat="50.02366" lon="5.4806">
        <ele>422</ele>
        <time>2015-03-28T10:59:48Z</time>
      </trkpt>
      <trkpt lat="50.02366" lon="5.48054">
        <ele>422</ele>
        <time>2015-03-28T10:59:53Z</time>
      </trkpt>
      <trkpt lat="50.02365" lon="5.48044">
        <ele>422</ele>
        <time>2015-03-28T10:59:59Z</time>
      </trkpt>
      <trkpt lat="50.02364" lon="5.48036">
        <ele>422</ele>
        <time>2015-03-28T11:00:04Z</time>
      </trkpt>
      <trkpt lat="50.02363" lon="5.48026">
        <ele>422</ele>
        <time>2015-03-28T11:00:10Z</time>
      </trkpt>
      <trkpt lat="50.02362" lon="5.48016">
        <ele>423</ele>
        <time>2015-03-28T11:00:16Z</time>
      </trkpt>
      <trkpt lat="50.02362" lon="5.48012">
        <ele>422</ele>
        <time>2015-03-28T11:00:22Z</time>
      </trkpt>
      <trkpt lat="50.02361" lon="5.48003">
        <ele>423</ele>
        <time>2015-03-28T11:00:28Z</time>
      </trkpt>
      <trkpt lat="50.0236" lon="5.47994">
        <ele>423</ele>
        <time>2015-03-28T11:00:33Z</time>
      </trkpt>
      <trkpt lat="50.02359" lon="5.47986">
        <ele>423</ele>
        <time>2015-03-28T11:00:39Z</time>
      </trkpt>
      <trkpt lat="50.02359" lon="5.47975">
        <ele>423</ele>
        <time>2015-03-28T11:00:45Z</time>
      </trkpt>
      <trkpt lat="50.02357" lon="5.47964">
        <ele>422</ele>
        <time>2015-03-28T11:00:50Z</time>
      </trkpt>
      <trkpt lat="50.02358" lon="5.47955">
        <ele>423</ele>
        <time>2015-03-28T11:00:56Z</time>
      </trkpt>
      <trkpt lat="50.02357" lon="5.47942">
        <ele>423</ele>
        <time>2015-03-28T11:01:02Z</time>
      </trkpt>
      <trkpt lat="50.02357" lon="5.47936">
        <ele>423</ele>
        <time>2015-03-28T11:01:07Z</time>
      </trkpt>
      <trkpt lat="50.02356" lon="5.47926">
        <ele>423</ele>
        <time>2015-03-28T11:01:13Z</time>
      </trkpt>
      <trkpt lat="50.02356" lon="5.47918">
        <ele>423</ele>
        <time>2015-03-28T11:01:18Z</time>
      </trkpt>
      <trkpt lat="50.02354" lon="5.47909">
        <ele>424</ele>
        <time>2015-03-28T11:01:23Z</time>
      </trkpt>
      <trkpt lat="50.02352" lon="5.47898">
        <ele>424</ele>
        <time>2015-03-28T11:01:29Z</time>
      </trkpt>
      <trkpt lat="50.02351" lon="5.47889">
        <ele>424</ele>
        <time>2015-03-28T11:01:35Z</time>
      </trkpt>
      <trkpt lat="50.0235" lon="5.47879">
        <ele>424</ele>
        <time>2015-03-28T11:01:41Z</time>
      </trkpt>
      <trkpt lat="50.02351" lon="5.47869">
        <ele>424</ele>
        <time>2015-03-28T11:01:47Z</time>
      </trkpt>
      <trkpt lat="50.02351" lon="5.47861">
        <ele>425</ele>
        <time>2015-03-28T11:01:52Z</time>
      </trkpt>
      <trkpt lat="50.02351" lon="5.47853">
        <ele>425</ele>
        <time>2015-03-28T11:01:57Z</time>
      </trkpt>
      <trkpt lat="50.02349" lon="5.47843">
        <ele>424</ele>
        <time>2015-03-28T11:02:03Z</time>
      </trkpt>
      <trkpt lat="50.02348" lon="5.47836">
        <ele>424</ele>
        <time>2015-03-28T11:02:08Z</time>
      </trkpt>
      <trkpt lat="50.02346" lon="5.47829">
        <ele>425</ele>
        <time>2015-03-28T11:02:13Z</time>
      </trkpt>
      <trkpt lat="50.02344" lon="5.47821">
        <ele>426</ele>
        <time>2015-03-28T11:02:19Z</time>
      </trkpt>
      <trkpt lat="50.02343" lon="5.47813">
        <ele>426</ele>
        <time>2015-03-28T11:02:24Z</time>
      </trkpt>
      <trkpt lat="50.02342" lon="5.47804">
        <ele>426</ele>
        <time>2015-03-28T11:02:29Z</time>
      </trkpt>
      <trkpt lat="50.02342" lon="5.47794">
        <ele>427</ele>
        <time>2015-03-28T11:02:35Z</time>
      </trkpt>
      <trkpt lat="50.0234" lon="5.47784">
        <ele>427</ele>
        <time>2015-03-28T11:02:41Z</time>
      </trkpt>
      <trkpt lat="50.02339" lon="5.47776">
        <ele>428</ele>
        <time>2015-03-28T11:02:46Z</time>
      </trkpt>
      <trkpt lat="50.02337" lon="5.47766">
        <ele>428</ele>
        <time>2015-03-28T11:02:51Z</time>
      </trkpt>
      <trkpt lat="50.02336" lon="5.47754">
        <ele>427</ele>
        <time>2015-03-28T11:02:57Z</time>
      </trkpt>
      <trkpt lat="50.02335" lon="5.47744">
        <ele>428</ele>
        <time>2015-03-28T11:03:02Z</time>
      </trkpt>
      <trkpt lat="50.02334" lon="5.47734">
        <ele>428</ele>
        <time>2015-03-28T11:03:08Z</time>
      </trkpt>
      <trkpt lat="50.02333" lon="5.47723">
        <ele>429</ele>
        <time>2015-03-28T11:03:14Z</time>
      </trkpt>
      <trkpt lat="50.02332" lon="5.47713">
        <ele>430</ele>
        <time>2015-03-28T11:03:20Z</time>
      </trkpt>
      <trkpt lat="50.02333" lon="5.47704">
        <ele>430</ele>
        <time>2015-03-28T11:03:25Z</time>
      </trkpt>
      <trkpt lat="50.02331" lon="5.47695">
        <ele>431</ele>
        <time>2015-03-28T11:03:30Z</time>
      </trkpt>
      <trkpt lat="50.02328" lon="5.47685">
        <ele>431</ele>
        <time>2015-03-28T11:03:35Z</time>
      </trkpt>
      <trkpt lat="50.02325" lon="5.47674">
        <ele>431</ele>
        <time>2015-03-28T11:03:41Z</time>
      </trkpt>
      <trkpt lat="50.02324" lon="5.47667">
        <ele>432</ele>
        <time>2015-03-28T11:03:46Z</time>
      </trkpt>
      <trkpt lat="50.02324" lon="5.47657">
        <ele>432</ele>
        <time>2015-03-28T11:03:52Z</time>
      </trkpt>
      <trkpt lat="50.02322" lon="5.47649">
        <ele>432</ele>
        <time>2015-03-28T11:03:57Z</time>
      </trkpt>
      <trkpt lat="50.02321" lon="5.47642">
        <ele>433</ele>
        <time>2015-03-28T11:04:02Z</time>
      </trkpt>
      <trkpt lat="50.02319" lon="5.47632">
        <ele>433</ele>
        <time>2015-03-28T11:04:07Z</time>
      </trkpt>
      <trkpt lat="50.02318" lon="5.47622">
        <ele>434</ele>
        <time>2015-03-28T11:04:13Z</time>
      </trkpt>
      <trkpt lat="50.02319" lon="5.47614">
        <ele>434</ele>
        <time>2015-03-28T11:04:18Z</time>
      </trkpt>
      <trkpt lat="50.02317" lon="5.47605">
        <ele>434</ele>
        <time>2015-03-28T11:04:24Z</time>
      </trkpt>
      <trkpt lat="50.02317" lon="5.47597">
        <ele>435</ele>
        <time>2015-03-28T11:04:30Z</time>
      </trkpt>
      <trkpt lat="50.02316" lon="5.47588">
        <ele>435</ele>
        <time>2015-03-28T11:04:35Z</time>
      </trkpt>
      <trkpt lat="50.02316" lon="5.47578">
        <ele>436</ele>
        <time>2015-03-28T11:04:41Z</time>
      </trkpt>
      <trkpt lat="50.02315" lon="5.47567">
        <ele>437</ele>
        <time>2015-03-28T11:04:47Z</time>
      </trkpt>
      <trkpt lat="50.02314" lon="5.47557">
        <ele>437</ele>
        <time>2015-03-28T11:04:52Z</time>
      </trkpt>
      <trkpt lat="50.02313" lon="5.47549">
        <ele>438</ele>
        <time>2015-03-28T11:04:57Z</time>
      </trkpt>
      <trkpt lat="50.02312" lon="5.47539">
        <ele>439</ele>
        <time>2015-03-28T11:05:03Z</time>
      </trkpt>
      <trkpt lat="50.02311" lon="5.47527">
        <ele>439</ele>
        <time>2015-03-28T11:05:09Z</time>
      </trkpt>
      <trkpt lat="50.0231" lon="5.47518">
        <ele>439</ele>
        <time>2015-03-28T11:05:14Z</time>
      </trkpt>
      <trkpt lat="50.0231" lon="5.4751">
        <ele>439</ele>
        <time>2015-03-28T11:05:19Z</time>
      </trkpt>
      <trkpt lat="50.02309" lon="5.47501">
        <ele>440</ele>
        <time>2015-03-28T11:05:25Z</time>
      </trkpt>
      <trkpt lat="50.02308" lon="5.47492">
        <ele>441</ele>
        <time>2015-03-28T11:05:31Z</time>
      </trkpt>
      <trkpt lat="50.02307" lon="5.47482">
        <ele>441</ele>
        <time>2015-03-28T11:05:36Z</time>
      </trkpt>
      <trkpt lat="50.02307" lon="5.47472">
        <ele>442</ele>
        <time>2015-03-28T11:05:42Z</time>
      </trkpt>
      <trkpt lat="50.02308" lon="5.47463">
        <ele>442</ele>
        <time>2015-03-28T11:05:47Z</time>
      </trkpt>
      <trkpt lat="50.02311" lon="5.47454">
        <ele>442</ele>
        <time>2015-03-28T11:05:52Z</time>
      </trkpt>
      <trkpt lat="50.02314" lon="5.47442">
        <ele>443</ele>
        <time>2015-03-28T11:05:58Z</time>
      </trkpt>
      <trkpt lat="50.02316" lon="5.47434">
        <ele>443</ele>
        <time>2015-03-28T11:06:03Z</time>
      </trkpt>
      <trkpt lat="50.02316" lon="5.47425">
        <ele>443</ele>
        <time>2015-03-28T11:06:08Z</time>
      </trkpt>
      <trkpt lat="50.02315" lon="5.47414">
        <ele>444</ele>
        <time>2015-03-28T11:06:14Z</time>
      </trkpt>
      <trkpt lat="50.02317" lon="5.47405">
        <ele>444</ele>
        <time>2015-03-28T11:06:20Z</time>
      </trkpt>
      <trkpt lat="50.02319" lon="5.47398">
        <ele>445</ele>
        <time>2015-03-28T11:06:26Z</time>
      </trkpt>
      <trkpt lat="50.0232" lon="5.47391">
        <ele>446</ele>
        <time>2015-03-28T11:06:31Z</time>
      </trkpt>
      <trkpt lat="50.02322" lon="5.47384">
        <ele>446</ele>
        <time>2015-03-28T11:06:36Z</time>
      </trkpt>
      <trkpt lat="50.02323" lon="5.47377">
        <ele>447</ele>
        <time>2015-03-28T11:06:41Z</time>
      </trkpt>
      <trkpt lat="50.02325" lon="5.4737">
        <ele>447</ele>
        <time>2015-03-28T11:06:46Z</time>
      </trkpt>
      <trkpt lat="50.02324" lon="5.47365">
        <ele>447</ele>
        <time>2015-03-28T11:06:52Z</time>
      </trkpt>
      <trkpt lat="50.02328" lon="5.47358">
        <ele>448</ele>
        <time>2015-03-28T11:06:58Z</time>
      </trkpt>
      <trkpt lat="50.0233" lon="5.47353">
        <ele>449</ele>
        <time>2015-03-28T11:07:03Z</time>
      </trkpt>
      <trkpt lat="50.02332" lon="5.47345">
        <ele>449</ele>
        <time>2015-03-28T11:07:08Z</time>
      </trkpt>
      <trkpt lat="50.02333" lon="5.47336">
        <ele>449</ele>
        <time>2015-03-28T11:07:14Z</time>
      </trkpt>
      <trkpt lat="50.02335" lon="5.47328">
        <ele>450</ele>
        <time>2015-03-28T11:07:20Z</time>
      </trkpt>
      <trkpt lat="50.02337" lon="5.4732">
        <ele>451</ele>
        <time>2015-03-28T11:07:26Z</time>
      </trkpt>
      <trkpt lat="50.02339" lon="5.47312">
        <ele>451</ele>
        <time>2015-03-28T11:07:32Z</time>
      </trkpt>
      <trkpt lat="50.0234" lon="5.47304">
        <ele>452</ele>
        <time>2015-03-28T11:07:37Z</time>
      </trkpt>
      <trkpt lat="50.02344" lon="5.47298">
        <ele>453</ele>
        <time>2015-03-28T11:07:42Z</time>
      </trkpt>
      <trkpt lat="50.02346" lon="5.47293">
        <ele>453</ele>
        <time>2015-03-28T11:07:48Z</time>
      </trkpt>
      <trkpt lat="50.02348" lon="5.47287">
        <ele>453</ele>
        <time>2015-03-28T11:07:53Z</time>
      </trkpt>
      <trkpt lat="50.02351" lon="5.47279">
        <ele>454</ele>
        <time>2015-03-28T11:07:59Z</time>
      </trkpt>
      <trkpt lat="50.02353" lon="5.4727">
        <ele>454</ele>
        <time>2015-03-28T11:08:04Z</time>
      </trkpt>
      <trkpt lat="50.02356" lon="5.47258">
        <ele>454</ele>
        <time>2015-03-28T11:08:10Z</time>
      </trkpt>
      <trkpt lat="50.02359" lon="5.47248">
        <ele>455</ele>
        <time>2015-03-28T11:08:16Z</time>
      </trkpt>
      <trkpt lat="50.02362" lon="5.4724">
        <ele>456</ele>
        <time>2015-03-28T11:08:21Z</time>
      </trkpt>
      <trkpt lat="50.02363" lon="5.4723">
        <ele>457</ele>
        <time>2015-03-28T11:08:27Z</time>
      </trkpt>
      <trkpt lat="50.02365" lon="5.47221">
        <ele>457</ele>
        <time>2015-03-28T11:08:33Z</time>
      </trkpt>
      <trkpt lat="50.02367" lon="5.47212">
        <ele>458</ele>
        <time>2015-03-28T11:08:39Z</time>
      </trkpt>
      <trkpt lat="50.02367" lon="5.47204">
        <ele>458</ele>
        <time>2015-03-28T11:08:45Z</time>
      </trkpt>
      <trkpt lat="50.02366" lon="5.47196">
        <ele>458</ele>
        <time>2015-03-28T11:08:50Z</time>
      </trkpt>
      <trkpt lat="50.02365" lon="5.47189">
        <ele>459</ele>
        <time>2015-03-28T11:08:55Z</time>
      </trkpt>
      <trkpt lat="50.02364" lon="5.47179">
        <ele>460</ele>
        <time>2015-03-28T11:09:01Z</time>
      </trkpt>
      <trkpt lat="50.02366" lon="5.47169">
        <ele>460</ele>
        <time>2015-03-28T11:09:07Z</time>
      </trkpt>
      <trkpt lat="50.02369" lon="5.47162">
        <ele>461</ele>
        <time>2015-03-28T11:09:12Z</time>
      </trkpt>
      <trkpt lat="50.02371" lon="5.47152">
        <ele>462</ele>
        <time>2015-03-28T11:09:18Z</time>
      </trkpt>
      <trkpt lat="50.02373" lon="5.47143">
        <ele>463</ele>
        <time>2015-03-28T11:09:24Z</time>
      </trkpt>
      <trkpt lat="50.02375" lon="5.47135">
        <ele>463</ele>
        <time>2015-03-28T11:09:29Z</time>
      </trkpt>
      <trkpt lat="50.02377" lon="5.47128">
        <ele>464</ele>
        <time>2015-03-28T11:09:34Z</time>
      </trkpt>
      <trkpt lat="50.02378" lon="5.47119">
        <ele>464</ele>
        <time>2015-03-28T11:09:40Z</time>
      </trkpt>
      <trkpt lat="50.0238" lon="5.47108">
        <ele>465</ele>
        <time>2015-03-28T11:09:46Z</time>
      </trkpt>
      <trkpt lat="50.0238" lon="5.471">
        <ele>465</ele>
        <time>2015-03-28T11:09:51Z</time>
      </trkpt>
      <trkpt lat="50.0238" lon="5.47089">
        <ele>465</ele>
        <time>2015-03-28T11:09:57Z</time>
      </trkpt>
      <trkpt lat="50.02382" lon="5.47081">
        <ele>465</ele>
        <time>2015-03-28T11:10:02Z</time>
      </trkpt>
      <trkpt lat="50.02383" lon="5.47075">
        <ele>466</ele>
        <time>2015-03-28T11:10:07Z</time>
      </trkpt>
      <trkpt lat="50.02386" lon="5.47067">
        <ele>466</ele>
        <time>2015-03-28T11:10:13Z</time>
      </trkpt>
      <trkpt lat="50.02388" lon="5.47061">
        <ele>467</ele>
        <time>2015-03-28T11:10:18Z</time>
      </trkpt>
      <trkpt lat="50.02389" lon="5.47054">
        <ele>466</ele>
        <time>2015-03-28T11:10:24Z</time>
      </trkpt>
      <trkpt lat="50.02391" lon="5.47049">
        <ele>467</ele>
        <time>2015-03-28T11:10:29Z</time>
      </trkpt>
      <trkpt lat="50.02393" lon="5.47039">
        <ele>467</ele>
        <time>2015-03-28T11:10:35Z</time>
      </trkpt>
      <trkpt lat="50.02394" lon="5.47029">
        <ele>468</ele>
        <time>2015-03-28T11:10:41Z</time>
      </trkpt>
      <trkpt lat="50.02393" lon="5.4702">
        <ele>468</ele>
        <time>2015-03-28T11:10:46Z</time>
      </trkpt>
      <trkpt lat="50.02392" lon="5.47011">
        <ele>467</ele>
        <time>2015-03-28T11:10:51Z</time>
      </trkpt>
      <trkpt lat="50.02392" lon="5.47002">
        <ele>467</ele>
        <time>2015-03-28T11:10:57Z</time>
      </trkpt>
      <trkpt lat="50.02393" lon="5.46994">
        <ele>467</ele>
        <time>2015-03-28T11:11:03Z</time>
      </trkpt>
      <trkpt lat="50.02394" lon="5.46987">
        <ele>467</ele>
        <time>2015-03-28T11:11:08Z</time>
      </trkpt>
      <trkpt lat="50.02396" lon="5.46981">
        <ele>468</ele>
        <time>2015-03-28T11:11:13Z</time>
      </trkpt>
      <trkpt lat="50.02396" lon="5.46972">
        <ele>468</ele>
        <time>2015-03-28T11:11:19Z</time>
      </trkpt>
      <trkpt lat="50.02397" lon="5.46964">
        <ele>467</ele>
        <time>2015-03-28T11:11:24Z</time>
      </trkpt>
      <trkpt lat="50.02397" lon="5.46956">
        <ele>467</ele>
        <time>2015-03-28T11:11:29Z</time>
      </trkpt>
      <trkpt lat="50.02398" lon="5.46948">
        <ele>467</ele>
        <time>2015-03-28T11:11:34Z</time>
      </trkpt>
      <trkpt lat="50.02399" lon="5.4694">
        <ele>467</ele>
        <time>2015-03-28T11:11:39Z</time>
      </trkpt>
      <trkpt lat="50.024" lon="5.46931">
        <ele>467</ele>
        <time>2015-03-28T11:11:45Z</time>
      </trkpt>
      <trkpt lat="50.02401" lon="5.46923">
        <ele>467</ele>
        <time>2015-03-28T11:11:50Z</time>
      </trkpt>
      <trkpt lat="50.02402" lon="5.46916">
        <ele>467</ele>
        <time>2015-03-28T11:11:55Z</time>
      </trkpt>
      <trkpt lat="50.02403" lon="5.46907">
        <ele>467</ele>
        <time>2015-03-28T11:12:01Z</time>
      </trkpt>
      <trkpt lat="50.02405" lon="5.46898">
        <ele>467</ele>
        <time>2015-03-28T11:12:07Z</time>
      </trkpt>
      <trkpt lat="50.02407" lon="5.46888">
        <ele>466</ele>
        <time>2015-03-28T11:12:13Z</time>
      </trkpt>
      <trkpt lat="50.02409" lon="5.4688">
        <ele>467</ele>
        <time>2015-03-28T11:12:18Z</time>
      </trkpt>
      <trkpt lat="50.02411" lon="5.46868">
        <ele>467</ele>
        <time>2015-03-28T11:12:24Z</time>
      </trkpt>
      <trkpt lat="50.02413" lon="5.46857">
        <ele>467</ele>
        <time>2015-03-28T11:12:29Z</time>
      </trkpt>
      <trkpt lat="50.02414" lon="5.46848">
        <ele>466</ele>
        <time>2015-03-28T11:12:34Z</time>
      </trkpt>
      <trkpt lat="50.02417" lon="5.46838">
        <ele>466</ele>
        <time>2015-03-28T11:12:40Z</time>
      </trkpt>
      <trkpt lat="50.02418" lon="5.46828">
        <ele>466</ele>
        <time>2015-03-28T11:12:45Z</time>
      </trkpt>
      <trkpt lat="50.02419" lon="5.46815">
        <ele>465</ele>
        <time>2015-03-28T11:12:51Z</time>
      </trkpt>
      <trkpt lat="50.02421" lon="5.46805">
        <ele>465</ele>
        <time>2015-03-28T11:12:56Z</time>
      </trkpt>
      <trkpt lat="50.02423" lon="5.46796">
        <ele>464</ele>
        <time>2015-03-28T11:13:02Z</time>
      </trkpt>
      <trkpt lat="50.02426" lon="5.46788">
        <ele>464</ele>
        <time>2015-03-28T11:13:08Z</time>
      </trkpt>
      <trkpt lat="50.02428" lon="5.46779">
        <ele>464</ele>
        <time>2015-03-28T11:13:14Z</time>
      </trkpt>
      <trkpt lat="50.0243" lon="5.46771">
        <ele>464</ele>
        <time>2015-03-28T11:13:19Z</time>
      </trkpt>
      <trkpt lat="50.02432" lon="5.46762">
        <ele>464</ele>
        <time>2015-03-28T11:13:24Z</time>
      </trkpt>
      <trkpt lat="50.02434" lon="5.46752">
        <ele>464</ele>
        <time>2015-03-28T11:13:30Z</time>
      </trkpt>
      <trkpt lat="50.02436" lon="5.46739">
        <ele>464</ele>
        <time>2015-03-28T11:13:36Z</time>
      </trkpt>
      <trkpt lat="50.02439" lon="5.46729">
        <ele>463</ele>
        <time>2015-03-28T11:13:42Z</time>
      </trkpt>
      <trkpt lat="50.02441" lon="5.46721">
        <ele>463</ele>
        <time>2015-03-28T11:13:48Z</time>
      </trkpt>
      <trkpt lat="50.02442" lon="5.46716">
        <ele>462</ele>
        <time>2015-03-28T11:13:54Z</time>
      </trkpt>
      <trkpt lat="50.02443" lon="5.46712">
        <ele>462</ele>
        <time>2015-03-28T11:14:00Z</time>
      </trkpt>
      <trkpt lat="50.02444" lon="5.46704">
        <ele>462</ele>
        <time>2015-03-28T11:14:06Z</time>
      </trkpt>
      <trkpt lat="50.02445" lon="5.46694">
        <ele>462</ele>
        <time>2015-03-28T11:14:12Z</time>
      </trkpt>
      <trkpt lat="50.02446" lon="5.46685">
        <ele>461</ele>
        <time>2015-03-28T11:14:18Z</time>
      </trkpt>
      <trkpt lat="50.0245" lon="5.46676">
        <ele>460</ele>
        <time>2015-03-28T11:14:24Z</time>
      </trkpt>
      <trkpt lat="50.02453" lon="5.46666">
        <ele>460</ele>
        <time>2015-03-28T11:14:30Z</time>
      </trkpt>
      <trkpt lat="50.02456" lon="5.46658">
        <ele>459</ele>
        <time>2015-03-28T11:14:35Z</time>
      </trkpt>
      <trkpt lat="50.0246" lon="5.4665">
        <ele>459</ele>
        <time>2015-03-28T11:14:40Z</time>
      </trkpt>
      <trkpt lat="50.02462" lon="5.46643">
        <ele>459</ele>
        <time>2015-03-28T11:14:46Z</time>
      </trkpt>
      <trkpt lat="50.02464" lon="5.46639">
        <ele>459</ele>
        <time>2015-03-28T11:14:52Z</time>
      </trkpt>
      <trkpt lat="50.02468" lon="5.46637">
        <ele>459</ele>
        <time>2015-03-28T11:14:58Z</time>
      </trkpt>
      <trkpt lat="50.0247" lon="5.46635">
        <ele>459</ele>
        <time>2015-03-28T11:15:04Z</time>
      </trkpt>
      <trkpt lat="50.02473" lon="5.46634">
        <ele>459</ele>
        <time>2015-03-28T11:15:09Z</time>
      </trkpt>
      <trkpt lat="50.02473" lon="5.46629">
        <ele>459</ele>
        <time>2015-03-28T11:15:15Z</time>
      </trkpt>
      <trkpt lat="50.02474" lon="5.46622">
        <ele>458</ele>
        <time>2015-03-28T11:15:20Z</time>
      </trkpt>
      <trkpt lat="50.02474" lon="5.46612">
        <ele>458</ele>
        <time>2015-03-28T11:15:26Z</time>
      </trkpt>
      <trkpt lat="50.02475" lon="5.46605">
        <ele>458</ele>
        <time>2015-03-28T11:15:31Z</time>
      </trkpt>
      <trkpt lat="50.02475" lon="5.46596">
        <ele>457</ele>
        <time>2015-03-28T11:15:36Z</time>
      </trkpt>
      <trkpt lat="50.02478" lon="5.46586">
        <ele>457</ele>
        <time>2015-03-28T11:15:42Z</time>
      </trkpt>
      <trkpt lat="50.0248" lon="5.46577">
        <ele>456</ele>
        <time>2015-03-28T11:15:47Z</time>
      </trkpt>
      <trkpt lat="50.02481" lon="5.46565">
        <ele>456</ele>
        <time>2015-03-28T11:15:53Z</time>
      </trkpt>
      <trkpt lat="50.02483" lon="5.46555">
        <ele>456</ele>
        <time>2015-03-28T11:15:59Z</time>
      </trkpt>
      <trkpt lat="50.02484" lon="5.46548">
        <ele>456</ele>
        <time>2015-03-28T11:16:04Z</time>
      </trkpt>
      <trkpt lat="50.02486" lon="5.46541">
        <ele>455</ele>
        <time>2015-03-28T11:16:09Z</time>
      </trkpt>
      <trkpt lat="50.0249" lon="5.46536">
        <ele>455</ele>
        <time>2015-03-28T11:16:15Z</time>
      </trkpt>
      <trkpt lat="50.02492" lon="5.4653">
        <ele>455</ele>
        <time>2015-03-28T11:16:20Z</time>
      </trkpt>
      <trkpt lat="50.02493" lon="5.46524">
        <ele>455</ele>
        <time>2015-03-28T11:16:25Z</time>
      </trkpt>
      <trkpt lat="50.02493" lon="5.46516">
        <ele>454</ele>
        <time>2015-03-28T11:16:30Z</time>
      </trkpt>
      <trkpt lat="50.02494" lon="5.46511">
        <ele>454</ele>
        <time>2015-03-28T11:16:36Z</time>
      </trkpt>
      <trkpt lat="50.02493" lon="5.46508">
        <ele>454</ele>
        <time>2015-03-28T11:16:41Z</time>
      </trkpt>
      <trkpt lat="50.02494" lon="5.46505">
        <ele>454</ele>
        <time>2015-03-28T11:16:46Z</time>
      </trkpt>
      <trkpt lat="50.02497" lon="5.46505">
        <ele>454</ele>
        <time>2015-03-28T11:16:52Z</time>
      </trkpt>
      <trkpt lat="50.02498" lon="5.46505">
        <ele>454</ele>
        <time>2015-03-28T11:16:57Z</time>
      </trkpt>
      <trkpt lat="50.02499" lon="5.465">
        <ele>454</ele>
        <time>2015-03-28T11:17:02Z</time>
      </trkpt>
      <trkpt lat="50.02501" lon="5.46493">
        <ele>453</ele>
        <time>2015-03-28T11:17:08Z</time>
      </trkpt>
      <trkpt lat="50.02504" lon="5.46485">
        <ele>453</ele>
        <time>2015-03-28T11:17:14Z</time>
      </trkpt>
      <trkpt lat="50.02507" lon="5.46477">
        <ele>452</ele>
        <time>2015-03-28T11:17:19Z</time>
      </trkpt>
      <trkpt lat="50.02509" lon="5.46467">
        <ele>452</ele>
        <time>2015-03-28T11:17:25Z</time>
      </trkpt>
      <trkpt lat="50.0251" lon="5.46458">
        <ele>452</ele>
        <time>2015-03-28T11:17:30Z</time>
      </trkpt>
      <trkpt lat="50.0251" lon="5.46447">
        <ele>452</ele>
        <time>2015-03-28T11:17:36Z</time>
      </trkpt>
      <trkpt lat="50.02512" lon="5.46437">
        <ele>452</ele>
        <time>2015-03-28T11:17:42Z</time>
      </trkpt>
      <trkpt lat="50.02513" lon="5.46426">
        <ele>451</ele>
        <time>2015-03-28T11:17:48Z</time>
      </trkpt>
      <trkpt lat="50.02513" lon="5.46415">
        <ele>451</ele>
        <time>2015-03-28T11:17:53Z</time>
      </trkpt>
      <trkpt lat="50.02512" lon="5.46403">
        <ele>450</ele>
        <time>2015-03-28T11:17:59Z</time>
      </trkpt>
      <trkpt lat="50.02512" lon="5.46392">
        <ele>450</ele>
        <time>2015-03-28T11:18:05Z</time>
      </trkpt>
      <trkpt lat="50.02513" lon="5.46381">
        <ele>449</ele>
        <time>2015-03-28T11:18:11Z</time>
      </trkpt>
      <trkpt lat="50.02511" lon="5.46369">
        <ele>449</ele>
        <time>2015-03-28T11:18:17Z</time>
      </trkpt>
      <trkpt lat="50.02511" lon="5.4636">
        <ele>449</ele>
        <time>2015-03-28T11:18:22Z</time>
      </trkpt>
      <trkpt lat="50.0251" lon="5.46348">
        <ele>449</ele>
        <time>2015-03-28T11:18:28Z</time>
      </trkpt>
      <trkpt lat="50.0251" lon="5.46339">
        <ele>449</ele>
        <time>2015-03-28T11:18:33Z</time>
      </trkpt>
      <trkpt lat="50.02511" lon="5.46329">
        <ele>449</ele>
        <time>2015-03-28T11:18:39Z</time>
      </trkpt>
      <trkpt lat="50.02512" lon="5.46321">
        <ele>449</ele>
        <time>2015-03-28T11:18:44Z</time>
      </trkpt>
      <trkpt lat="50.02512" lon="5.46311">
        <ele>448</ele>
        <time>2015-03-28T11:18:50Z</time>
      </trkpt>
      <trkpt lat="50.02512" lon="5.46303">
        <ele>448</ele>
        <time>2015-03-28T11:18:55Z</time>
      </trkpt>
      <trkpt lat="50.02512" lon="5.46292">
        <ele>448</ele>
        <time>2015-03-28T11:19:01Z</time>
      </trkpt>
      <trkpt lat="50.02512" lon="5.46282">
        <ele>448</ele>
        <time>2015-03-28T11:19:07Z</time>
      </trkpt>
      <trkpt lat="50.02512" lon="5.46275">
        <ele>448</ele>
        <time>2015-03-28T11:19:12Z</time>
      </trkpt>
      <trkpt lat="50.02513" lon="5.46266">
        <ele>448</ele>
        <time>2015-03-28T11:19:18Z</time>
      </trkpt>
      <trkpt lat="50.02513" lon="5.46256">
        <ele>448</ele>
        <time>2015-03-28T11:19:24Z</time>
      </trkpt>
      <trkpt lat="50.02514" lon="5.46248">
        <ele>448</ele>
        <time>2015-03-28T11:19:30Z</time>
      </trkpt>
      <trkpt lat="50.02515" lon="5.4624">
        <ele>448</ele>
        <time>2015-03-28T11:19:36Z</time>
      </trkpt>
      <trkpt lat="50.02515" lon="5.46232">
        <ele>448</ele>
        <time>2015-03-28T11:19:41Z</time>
      </trkpt>
      <trkpt lat="50.02515" lon="5.46221">
        <ele>449</ele>
        <time>2015-03-28T11:19:47Z</time>
      </trkpt>
      <trkpt lat="50.02517" lon="5.4621">
        <ele>449</ele>
        <time>2015-03-28T11:19:53Z</time>
      </trkpt>
      <trkpt lat="50.02518" lon="5.46203">
        <ele>449</ele>
        <time>2015-03-28T11:19:58Z</time>
      </trkpt>
      <trkpt lat="50.02518" lon="5.46195">
        <ele>449</ele>
        <time>2015-03-28T11:20:03Z</time>
      </trkpt>
      <trkpt lat="50.02518" lon="5.46185">
        <ele>449</ele>
        <time>2015-03-28T11:20:09Z</time>
      </trkpt>
      <trkpt lat="50.0252" lon="5.46179">
        <ele>449</ele>
        <time>2015-03-28T11:20:14Z</time>
      </trkpt>
      <trkpt lat="50.0252" lon="5.46173">
        <ele>449</ele>
        <time>2015-03-28T11:20:19Z</time>
      </trkpt>
      <trkpt lat="50.0252" lon="5.46166">
        <ele>448</ele>
        <time>2015-03-28T11:20:25Z</time>
      </trkpt>
      <trkpt lat="50.02519" lon="5.4616">
        <ele>449</ele>
        <time>2015-03-28T11:20:30Z</time>
      </trkpt>
      <trkpt lat="50.02518" lon="5.46152">
        <ele>448</ele>
        <time>2015-03-28T11:20:35Z</time>
      </trkpt>
      <trkpt lat="50.02517" lon="5.46147">
        <ele>448</ele>
        <time>2015-03-28T11:20:41Z</time>
      </trkpt>
      <trkpt lat="50.02517" lon="5.46143">
        <ele>449</ele>
        <time>2015-03-28T11:20:47Z</time>
      </trkpt>
      <trkpt lat="50.02517" lon="5.46134">
        <ele>449</ele>
        <time>2015-03-28T11:20:53Z</time>
      </trkpt>
      <trkpt lat="50.02516" lon="5.46125">
        <ele>448</ele>
        <time>2015-03-28T11:20:59Z</time>
      </trkpt>
      <trkpt lat="50.02515" lon="5.46113">
        <ele>448</ele>
        <time>2015-03-28T11:21:05Z</time>
      </trkpt>
      <trkpt lat="50.02515" lon="5.46103">
        <ele>449</ele>
        <time>2015-03-28T11:21:11Z</time>
      </trkpt>
      <trkpt lat="50.02515" lon="5.46095">
        <ele>449</ele>
        <time>2015-03-28T11:21:17Z</time>
      </trkpt>
      <trkpt lat="50.02515" lon="5.46085">
        <ele>449</ele>
        <time>2015-03-28T11:21:23Z</time>
      </trkpt>
      <trkpt lat="50.02517" lon="5.46076">
        <ele>450</ele>
        <time>2015-03-28T11:21:29Z</time>
      </trkpt>
      <trkpt lat="50.02519" lon="5.46067">
        <ele>450</ele>
        <time>2015-03-28T11:21:35Z</time>
      </trkpt>
      <trkpt lat="50.0252" lon="5.4606">
        <ele>450</ele>
        <time>2015-03-28T11:21:40Z</time>
      </trkpt>
      <trkpt lat="50.02522" lon="5.4605">
        <ele>450</ele>
        <time>2015-03-28T11:21:46Z</time>
      </trkpt>
      <trkpt lat="50.02522" lon="5.4604">
        <ele>451</ele>
        <time>2015-03-28T11:21:52Z</time>
      </trkpt>
      <trkpt lat="50.02522" lon="5.46031">
        <ele>451</ele>
        <time>2015-03-28T11:21:57Z</time>
      </trkpt>
      <trkpt lat="50.02521" lon="5.4602">
        <ele>451</ele>
        <time>2015-03-28T11:22:03Z</time>
      </trkpt>
      <trkpt lat="50.02521" lon="5.46011">
        <ele>450</ele>
        <time>2015-03-28T11:22:08Z</time>
      </trkpt>
      <trkpt lat="50.02522" lon="5.46006">
        <ele>451</ele>
        <time>2015-03-28T11:22:14Z</time>
      </trkpt>
      <trkpt lat="50.02523" lon="5.46">
        <ele>451</ele>
        <time>2015-03-28T11:22:19Z</time>
      </trkpt>
      <trkpt lat="50.02523" lon="5.45992">
        <ele>451</ele>
        <time>2015-03-28T11:22:24Z</time>
      </trkpt>
      <trkpt lat="50.02521" lon="5.45982">
        <ele>451</ele>
        <time>2015-03-28T11:22:30Z</time>
      </trkpt>
      <trkpt lat="50.02519" lon="5.45972">
        <ele>451</ele>
        <time>2015-03-28T11:22:36Z</time>
      </trkpt>
      <trkpt lat="50.02517" lon="5.45962">
        <ele>452</ele>
        <time>2015-03-28T11:22:41Z</time>
      </trkpt>
      <trkpt lat="50.02515" lon="5.45953">
        <ele>452</ele>
        <time>2015-03-28T11:22:46Z</time>
      </trkpt>
      <trkpt lat="50.02512" lon="5.45943">
        <ele>452</ele>
        <time>2015-03-28T11:22:51Z</time>
      </trkpt>
      <trkpt lat="50.0251" lon="5.45938">
        <ele>453</ele>
        <time>2015-03-28T11:22:56Z</time>
      </trkpt>
      <trkpt lat="50.0251" lon="5.45932">
        <ele>453</ele>
        <time>2015-03-28T11:23:01Z</time>
      </trkpt>
      <trkpt lat="50.02509" lon="5.45925">
        <ele>453</ele>
        <time>2015-03-28T11:23:07Z</time>
      </trkpt>
      <trkpt lat="50.0251" lon="5.45916">
        <ele>453</ele>
        <time>2015-03-28T11:23:13Z</time>
      </trkpt>
      <trkpt lat="50.02511" lon="5.45911">
        <ele>453</ele>
        <time>2015-03-28T11:23:18Z</time>
      </trkpt>
      <trkpt lat="50.0251" lon="5.45902">
        <ele>453</ele>
        <time>2015-03-28T11:23:24Z</time>
      </trkpt>
      <trkpt lat="50.02509" lon="5.45892">
        <ele>454</ele>
        <time>2015-03-28T11:23:30Z</time>
      </trkpt>
      <trkpt lat="50.02507" lon="5.45886">
        <ele>455</ele>
        <time>2015-03-28T11:23:35Z</time>
      </trkpt>
      <trkpt lat="50.02507" lon="5.45877">
        <ele>455</ele>
        <time>2015-03-28T11:23:41Z</time>
      </trkpt>
      <trkpt lat="50.02505" lon="5.45868">
        <ele>455</ele>
        <time>2015-03-28T11:23:46Z</time>
      </trkpt>
      <trkpt lat="50.02504" lon="5.45859">
        <ele>455</ele>
        <time>2015-03-28T11:23:52Z</time>
      </trkpt>
      <trkpt lat="50.02502" lon="5.45851">
        <ele>456</ele>
        <time>2015-03-28T11:23:57Z</time>
      </trkpt>
      <trkpt lat="50.02502" lon="5.45841">
        <ele>456</ele>
        <time>2015-03-28T11:24:03Z</time>
      </trkpt>
      <trkpt lat="50.02501" lon="5.45829">
        <ele>456</ele>
        <time>2015-03-28T11:24:09Z</time>
      </trkpt>
      <trkpt lat="50.02501" lon="5.4582">
        <ele>456</ele>
        <time>2015-03-28T11:24:14Z</time>
      </trkpt>
      <trkpt lat="50.02501" lon="5.45809">
        <ele>457</ele>
        <time>2015-03-28T11:24:20Z</time>
      </trkpt>
      <trkpt lat="50.02501" lon="5.458">
        <ele>457</ele>
        <time>2015-03-28T11:24:25Z</time>
      </trkpt>
      <trkpt lat="50.02501" lon="5.4579">
        <ele>457</ele>
        <time>2015-03-28T11:24:30Z</time>
      </trkpt>
      <trkpt lat="50.025" lon="5.4578">
        <ele>457</ele>
        <time>2015-03-28T11:24:36Z</time>
      </trkpt>
      <trkpt lat="50.025" lon="5.45769">
        <ele>457</ele>
        <time>2015-03-28T11:24:41Z</time>
      </trkpt>
      <trkpt lat="50.02499" lon="5.45762">
        <ele>457</ele>
        <time>2015-03-28T11:24:46Z</time>
      </trkpt>
      <trkpt lat="50.02499" lon="5.4575">
        <ele>457</ele>
        <time>2015-03-28T11:24:52Z</time>
      </trkpt>
      <trkpt lat="50.025" lon="5.45738">
        <ele>458</ele>
        <time>2015-03-28T11:24:58Z</time>
      </trkpt>
      <trkpt lat="50.025" lon="5.45725">
        <ele>458</ele>
        <time>2015-03-28T11:25:04Z</time>
      </trkpt>
      <trkpt lat="50.025" lon="5.45713">
        <ele>458</ele>
        <time>2015-03-28T11:25:09Z</time>
      </trkpt>
      <trkpt lat="50.025" lon="5.45704">
        <ele>458</ele>
        <time>2015-03-28T11:25:14Z</time>
      </trkpt>
      <trkpt lat="50.02501" lon="5.45693">
        <ele>459</ele>
        <time>2015-03-28T11:25:19Z</time>
      </trkpt>
      <trkpt lat="50.025" lon="5.45682">
        <ele>459</ele>
        <time>2015-03-28T11:25:25Z</time>
      </trkpt>
      <trkpt lat="50.025" lon="5.45671">
        <ele>459</ele>
        <time>2015-03-28T11:25:31Z</time>
      </trkpt>
      <trkpt lat="50.02499" lon="5.45662">
        <ele>459</ele>
        <time>2015-03-28T11:25:36Z</time>
      </trkpt>
      <trkpt lat="50.02497" lon="5.45653">
        <ele>459</ele>
        <time>2015-03-28T11:25:42Z</time>
      </trkpt>
      <trkpt lat="50.02496" lon="5.45643">
        <ele>459</ele>
        <time>2015-03-28T11:25:47Z</time>
      </trkpt>
      <trkpt lat="50.02494" lon="5.45632">
        <ele>460</ele>
        <time>2015-03-28T11:25:52Z</time>
      </trkpt>
      <trkpt lat="50.02491" lon="5.45618">
        <ele>460</ele>
        <time>2015-03-28T11:25:58Z</time>
      </trkpt>
      <trkpt lat="50.02488" lon="5.45606">
        <ele>459</ele>
        <time>2015-03-28T11:26:03Z</time>
      </trkpt>
      <trkpt lat="50.02485" lon="5.45595">
        <ele>458</ele>
        <time>2015-03-28T11:26:09Z</time>
      </trkpt>
      <trkpt lat="50.02483" lon="5.45586">
        <ele>458</ele>
        <time>2015-03-28T11:26:14Z</time>
      </trkpt>
      <trkpt lat="50.0248" lon="5.45576">
        <ele>457</ele>
        <time>2015-03-28T11:26:20Z</time>
      </trkpt>
      <trkpt lat="50.0248" lon="5.45568">
        <ele>457</ele>
        <time>2015-03-28T11:26:25Z</time>
      </trkpt>
      <trkpt lat="50.02479" lon="5.4556">
        <ele>457</ele>
        <time>2015-03-28T11:26:31Z</time>
      </trkpt>
      <trkpt lat="50.02478" lon="5.4555">
        <ele>456</ele>
        <time>2015-03-28T11:26:37Z</time>
      </trkpt>
      <trkpt lat="50.02476" lon="5.45541">
        <ele>456</ele>
        <time>2015-03-28T11:26:42Z</time>
      </trkpt>
      <trkpt lat="50.02474" lon="5.45533">
        <ele>456</ele>
        <time>2015-03-28T11:26:47Z</time>
      </trkpt>
      <trkpt lat="50.02472" lon="5.45523">
        <ele>457</ele>
        <time>2015-03-28T11:26:53Z</time>
      </trkpt>
      <trkpt lat="50.02469" lon="5.45513">
        <ele>456</ele>
        <time>2015-03-28T11:26:58Z</time>
      </trkpt>
      <trkpt lat="50.02467" lon="5.45502">
        <ele>456</ele>
        <time>2015-03-28T11:27:04Z</time>
      </trkpt>
      <trkpt lat="50.02465" lon="5.45494">
        <ele>457</ele>
        <time>2015-03-28T11:27:09Z</time>
      </trkpt>
      <trkpt lat="50.02461" lon="5.45483">
        <ele>457</ele>
        <time>2015-03-28T11:27:15Z</time>
      </trkpt>
      <trkpt lat="50.02459" lon="5.45475">
        <ele>457</ele>
        <time>2015-03-28T11:27:20Z</time>
      </trkpt>
      <trkpt lat="50.02454" lon="5.45466">
        <ele>458</ele>
        <time>2015-03-28T11:27:25Z</time>
      </trkpt>
      <trkpt lat="50.02451" lon="5.45458">
        <ele>458</ele>
        <time>2015-03-28T11:27:31Z</time>
      </trkpt>
      <trkpt lat="50.02446" lon="5.45448">
        <ele>457</ele>
        <time>2015-03-28T11:27:37Z</time>
      </trkpt>
      <trkpt lat="50.02442" lon="5.45441">
        <ele>457</ele>
        <time>2015-03-28T11:27:42Z</time>
      </trkpt>
      <trkpt lat="50.02436" lon="5.45434">
        <ele>457</ele>
        <time>2015-03-28T11:27:48Z</time>
      </trkpt>
      <trkpt lat="50.02432" lon="5.45428">
        <ele>456</ele>
        <time>2015-03-28T11:27:53Z</time>
      </trkpt>
      <trkpt lat="50.02426" lon="5.45423">
        <ele>456</ele>
        <time>2015-03-28T11:27:58Z</time>
      </trkpt>
      <trkpt lat="50.0242" lon="5.45417">
        <ele>456</ele>
        <time>2015-03-28T11:28:04Z</time>
      </trkpt>
      <trkpt lat="50.02414" lon="5.45412">
        <ele>456</ele>
        <time>2015-03-28T11:28:10Z</time>
      </trkpt>
      <trkpt lat="50.02409" lon="5.45407">
        <ele>457</ele>
        <time>2015-03-28T11:28:16Z</time>
      </trkpt>
      <trkpt lat="50.02405" lon="5.45401">
        <ele>456</ele>
        <time>2015-03-28T11:28:22Z</time>
      </trkpt>
      <trkpt lat="50.02401" lon="5.45395">
        <ele>456</ele>
        <time>2015-03-28T11:28:27Z</time>
      </trkpt>
      <trkpt lat="50.02397" lon="5.45388">
        <ele>457</ele>
        <time>2015-03-28T11:28:32Z</time>
      </trkpt>
      <trkpt lat="50.02395" lon="5.45383">
        <ele>457</ele>
        <time>2015-03-28T11:28:38Z</time>
      </trkpt>
      <trkpt lat="50.02394" lon="5.45379">
        <ele>457</ele>
        <time>2015-03-28T11:28:43Z</time>
      </trkpt>
      <trkpt lat="50.02393" lon="5.45377">
        <ele>457</ele>
        <time>2015-03-28T11:28:49Z</time>
      </trkpt>
      <trkpt lat="50.0239" lon="5.45375">
        <ele>457</ele>
        <time>2015-03-28T11:28:54Z</time>
      </trkpt>
      <trkpt lat="50.02387" lon="5.45371">
        <ele>457</ele>
        <time>2015-03-28T11:29:00Z</time>
      </trkpt>
      <trkpt lat="50.02385" lon="5.4537">
        <ele>457</ele>
        <time>2015-03-28T11:29:06Z</time>
      </trkpt>
      <trkpt lat="50.02384" lon="5.45367">
        <ele>457</ele>
        <time>2015-03-28T11:29:12Z</time>
      </trkpt>
      <trkpt lat="50.02383" lon="5.45365">
        <ele>457</ele>
        <time>2015-03-28T11:29:18Z</time>
      </trkpt>
      <trkpt lat="50.02383" lon="5.45366">
        <ele>458</ele>
        <time>2015-03-28T11:29:24Z</time>
      </trkpt>
      <trkpt lat="50.02383" lon="5.45366">
        <ele>458</ele>
        <time>2015-03-28T11:29:30Z</time>
      </trkpt>
      <trkpt lat="50.02386" lon="5.45366">
        <ele>458</ele>
        <time>2015-03-28T11:29:36Z</time>
      </trkpt>
      <trkpt lat="50.02388" lon="5.45365">
        <ele>458</ele>
        <time>2015-03-28T11:29:41Z</time>
      </trkpt>
      <trkpt lat="50.02388" lon="5.45363">
        <ele>458</ele>
        <time>2015-03-28T11:29:46Z</time>
      </trkpt>
      <trkpt lat="50.02388" lon="5.45363">
        <ele>458</ele>
        <time>2015-03-28T11:29:53Z</time>
      </trkpt>
      <trkpt lat="50.02383" lon="5.45358">
        <ele>458</ele>
        <time>2015-03-28T11:29:59Z</time>
      </trkpt>
      <trkpt lat="50.02379" lon="5.45353">
        <ele>458</ele>
        <time>2015-03-28T11:30:04Z</time>
      </trkpt>
      <trkpt lat="50.02373" lon="5.45347">
        <ele>458</ele>
        <time>2015-03-28T11:30:10Z</time>
      </trkpt>
      <trkpt lat="50.02368" lon="5.45339">
        <ele>459</ele>
        <time>2015-03-28T11:30:16Z</time>
      </trkpt>
      <trkpt lat="50.02364" lon="5.4533">
        <ele>460</ele>
        <time>2015-03-28T11:30:22Z</time>
      </trkpt>
      <trkpt lat="50.02362" lon="5.45324">
        <ele>460</ele>
        <time>2015-03-28T11:30:27Z</time>
      </trkpt>
      <trkpt lat="50.02359" lon="5.45317">
        <ele>460</ele>
        <time>2015-03-28T11:30:32Z</time>
      </trkpt>
      <trkpt lat="50.02358" lon="5.45309">
        <ele>460</ele>
        <time>2015-03-28T11:30:37Z</time>
      </trkpt>
      <trkpt lat="50.02358" lon="5.453">
        <ele>461</ele>
        <time>2015-03-28T11:30:43Z</time>
      </trkpt>
      <trkpt lat="50.02357" lon="5.45292">
        <ele>461</ele>
        <time>2015-03-28T11:30:48Z</time>
      </trkpt>
      <trkpt lat="50.02354" lon="5.45282">
        <ele>462</ele>
        <time>2015-03-28T11:30:54Z</time>
      </trkpt>
      <trkpt lat="50.02352" lon="5.45273">
        <ele>462</ele>
        <time>2015-03-28T11:30:59Z</time>
      </trkpt>
      <trkpt lat="50.0235" lon="5.45262">
        <ele>462</ele>
        <time>2015-03-28T11:31:05Z</time>
      </trkpt>
      <trkpt lat="50.02348" lon="5.45251">
        <ele>462</ele>
        <time>2015-03-28T11:31:11Z</time>
      </trkpt>
      <trkpt lat="50.02347" lon="5.45242">
        <ele>463</ele>
        <time>2015-03-28T11:31:16Z</time>
      </trkpt>
      <trkpt lat="50.02345" lon="5.45232">
        <ele>464</ele>
        <time>2015-03-28T11:31:21Z</time>
      </trkpt>
      <trkpt lat="50.02344" lon="5.45221">
        <ele>464</ele>
        <time>2015-03-28T11:31:26Z</time>
      </trkpt>
      <trkpt lat="50.02343" lon="5.45209">
        <ele>465</ele>
        <time>2015-03-28T11:31:32Z</time>
      </trkpt>
      <trkpt lat="50.02341" lon="5.45197">
        <ele>465</ele>
        <time>2015-03-28T11:31:38Z</time>
      </trkpt>
      <trkpt lat="50.0234" lon="5.45187">
        <ele>465</ele>
        <time>2015-03-28T11:31:43Z</time>
      </trkpt>
      <trkpt lat="50.02338" lon="5.45177">
        <ele>466</ele>
        <time>2015-03-28T11:31:49Z</time>
      </trkpt>
      <trkpt lat="50.02338" lon="5.4517">
        <ele>466</ele>
        <time>2015-03-28T11:31:54Z</time>
      </trkpt>
      <trkpt lat="50.02337" lon="5.4516">
        <ele>466</ele>
        <time>2015-03-28T11:32:00Z</time>
      </trkpt>
      <trkpt lat="50.02336" lon="5.45151">
        <ele>467</ele>
        <time>2015-03-28T11:32:06Z</time>
      </trkpt>
      <trkpt lat="50.02336" lon="5.45141">
        <ele>467</ele>
        <time>2015-03-28T11:32:12Z</time>
      </trkpt>
      <trkpt lat="50.02335" lon="5.45134">
        <ele>468</ele>
        <time>2015-03-28T11:32:17Z</time>
      </trkpt>
      <trkpt lat="50.02335" lon="5.45126">
        <ele>468</ele>
        <time>2015-03-28T11:32:22Z</time>
      </trkpt>
      <trkpt lat="50.02335" lon="5.45115">
        <ele>468</ele>
        <time>2015-03-28T11:32:28Z</time>
      </trkpt>
      <trkpt lat="50.02334" lon="5.45106">
        <ele>470</ele>
        <time>2015-03-28T11:32:33Z</time>
      </trkpt>
      <trkpt lat="50.02335" lon="5.45094">
        <ele>470</ele>
        <time>2015-03-28T11:32:39Z</time>
      </trkpt>
      <trkpt lat="50.02335" lon="5.45085">
        <ele>470</ele>
        <time>2015-03-28T11:32:44Z</time>
      </trkpt>
      <trkpt lat="50.02333" lon="5.45077">
        <ele>469</ele>
        <time>2015-03-28T11:32:49Z</time>
      </trkpt>
      <trkpt lat="50.02332" lon="5.45072">
        <ele>470</ele>
        <time>2015-03-28T11:32:55Z</time>
      </trkpt>
      <trkpt lat="50.0233" lon="5.45062">
        <ele>470</ele>
        <time>2015-03-28T11:33:01Z</time>
      </trkpt>
      <trkpt lat="50.02329" lon="5.45054">
        <ele>471</ele>
        <time>2015-03-28T11:33:06Z</time>
      </trkpt>
      <trkpt lat="50.0233" lon="5.45048">
        <ele>471</ele>
        <time>2015-03-28T11:33:11Z</time>
      </trkpt>
      <trkpt lat="50.0233" lon="5.4504">
        <ele>472</ele>
        <time>2015-03-28T11:33:17Z</time>
      </trkpt>
      <trkpt lat="50.0233" lon="5.45033">
        <ele>472</ele>
        <time>2015-03-28T11:33:22Z</time>
      </trkpt>
      <trkpt lat="50.02331" lon="5.45024">
        <ele>472</ele>
        <time>2015-03-28T11:33:28Z</time>
      </trkpt>
      <trkpt lat="50.02332" lon="5.45016">
        <ele>472</ele>
        <time>2015-03-28T11:33:33Z</time>
      </trkpt>
      <trkpt lat="50.02331" lon="5.45009">
        <ele>472</ele>
        <time>2015-03-28T11:33:38Z</time>
      </trkpt>
      <trkpt lat="50.02332" lon="5.45001">
        <ele>472</ele>
        <time>2015-03-28T11:33:43Z</time>
      </trkpt>
      <trkpt lat="50.02331" lon="5.44992">
        <ele>473</ele>
        <time>2015-03-28T11:33:49Z</time>
      </trkpt>
      <trkpt lat="50.02332" lon="5.44983">
        <ele>474</ele>
        <time>2015-03-28T11:33:55Z</time>
      </trkpt>
      <trkpt lat="50.02334" lon="5.44973">
        <ele>474</ele>
        <time>2015-03-28T11:34:01Z</time>
      </trkpt>
      <trkpt lat="50.02333" lon="5.44965">
        <ele>474</ele>
        <time>2015-03-28T11:34:06Z</time>
      </trkpt>
      <trkpt lat="50.02333" lon="5.44956">
        <ele>474</ele>
        <time>2015-03-28T11:34:11Z</time>
      </trkpt>
      <trkpt lat="50.02332" lon="5.44946">
        <ele>475</ele>
        <time>2015-03-28T11:34:17Z</time>
      </trkpt>
      <trkpt lat="50.02332" lon="5.44938">
        <ele>475</ele>
        <time>2015-03-28T11:34:22Z</time>
      </trkpt>
      <trkpt lat="50.02333" lon="5.44929">
        <ele>476</ele>
        <time>2015-03-28T11:34:27Z</time>
      </trkpt>
      <trkpt lat="50.02335" lon="5.4492">
        <ele>476</ele>
        <time>2015-03-28T11:34:33Z</time>
      </trkpt>
      <trkpt lat="50.02337" lon="5.44909">
        <ele>476</ele>
        <time>2015-03-28T11:34:39Z</time>
      </trkpt>
      <trkpt lat="50.02338" lon="5.449">
        <ele>477</ele>
        <time>2015-03-28T11:34:44Z</time>
      </trkpt>
      <trkpt lat="50.02337" lon="5.44888">
        <ele>477</ele>
        <time>2015-03-28T11:34:50Z</time>
      </trkpt>
      <trkpt lat="50.02336" lon="5.44879">
        <ele>477</ele>
        <time>2015-03-28T11:34:55Z</time>
      </trkpt>
      <trkpt lat="50.02336" lon="5.44871">
        <ele>478</ele>
        <time>2015-03-28T11:35:00Z</time>
      </trkpt>
      <trkpt lat="50.02336" lon="5.44864">
        <ele>478</ele>
        <time>2015-03-28T11:35:05Z</time>
      </trkpt>
      <trkpt lat="50.02337" lon="5.44856">
        <ele>478</ele>
        <time>2015-03-28T11:35:10Z</time>
      </trkpt>
      <trkpt lat="50.02338" lon="5.44847">
        <ele>478</ele>
        <time>2015-03-28T11:35:15Z</time>
      </trkpt>
      <trkpt lat="50.02337" lon="5.44836">
        <ele>479</ele>
        <time>2015-03-28T11:35:21Z</time>
      </trkpt>
      <trkpt lat="50.02338" lon="5.44827">
        <ele>479</ele>
        <time>2015-03-28T11:35:26Z</time>
      </trkpt>
      <trkpt lat="50.02338" lon="5.44817">
        <ele>479</ele>
        <time>2015-03-28T11:35:32Z</time>
      </trkpt>
      <trkpt lat="50.02339" lon="5.44806">
        <ele>480</ele>
        <time>2015-03-28T11:35:38Z</time>
      </trkpt>
      <trkpt lat="50.02339" lon="5.44797">
        <ele>480</ele>
        <time>2015-03-28T11:35:44Z</time>
      </trkpt>
      <trkpt lat="50.02339" lon="5.44789">
        <ele>480</ele>
        <time>2015-03-28T11:35:49Z</time>
      </trkpt>
      <trkpt lat="50.02338" lon="5.44778">
        <ele>480</ele>
        <time>2015-03-28T11:35:55Z</time>
      </trkpt>
      <trkpt lat="50.02337" lon="5.44767">
        <ele>480</ele>
        <time>2015-03-28T11:36:01Z</time>
      </trkpt>
      <trkpt lat="50.02334" lon="5.44756">
        <ele>481</ele>
        <time>2015-03-28T11:36:07Z</time>
      </trkpt>
      <trkpt lat="50.02332" lon="5.44746">
        <ele>482</ele>
        <time>2015-03-28T11:36:13Z</time>
      </trkpt>
      <trkpt lat="50.02329" lon="5.44736">
        <ele>482</ele>
        <time>2015-03-28T11:36:18Z</time>
      </trkpt>
      <trkpt lat="50.02328" lon="5.44728">
        <ele>482</ele>
        <time>2015-03-28T11:36:23Z</time>
      </trkpt>
      <trkpt lat="50.02326" lon="5.44717">
        <ele>482</ele>
        <time>2015-03-28T11:36:29Z</time>
      </trkpt>
      <trkpt lat="50.02324" lon="5.44707">
        <ele>482</ele>
        <time>2015-03-28T11:36:34Z</time>
      </trkpt>
      <trkpt lat="50.02318" lon="5.44695">
        <ele>483</ele>
        <time>2015-03-28T11:36:40Z</time>
      </trkpt>
      <trkpt lat="50.02314" lon="5.44687">
        <ele>484</ele>
        <time>2015-03-28T11:36:46Z</time>
      </trkpt>
      <trkpt lat="50.02309" lon="5.44679">
        <ele>484</ele>
        <time>2015-03-28T11:36:52Z</time>
      </trkpt>
      <trkpt lat="50.02304" lon="5.44675">
        <ele>484</ele>
        <time>2015-03-28T11:36:57Z</time>
      </trkpt>
      <trkpt lat="50.02298" lon="5.44671">
        <ele>484</ele>
        <time>2015-03-28T11:37:03Z</time>
      </trkpt>
      <trkpt lat="50.02293" lon="5.44667">
        <ele>485</ele>
        <time>2015-03-28T11:37:08Z</time>
      </trkpt>
      <trkpt lat="50.02288" lon="5.44663">
        <ele>485</ele>
        <time>2015-03-28T11:37:13Z</time>
      </trkpt>
      <trkpt lat="50.02282" lon="5.44658">
        <ele>485</ele>
        <time>2015-03-28T11:37:18Z</time>
      </trkpt>
      <trkpt lat="50.02277" lon="5.44654">
        <ele>485</ele>
        <time>2015-03-28T11:37:24Z</time>
      </trkpt>
      <trkpt lat="50.02272" lon="5.4465">
        <ele>486</ele>
        <time>2015-03-28T11:37:29Z</time>
      </trkpt>
      <trkpt lat="50.02266" lon="5.44646">
        <ele>486</ele>
        <time>2015-03-28T11:37:35Z</time>
      </trkpt>
      <trkpt lat="50.02262" lon="5.44641">
        <ele>486</ele>
        <time>2015-03-28T11:37:41Z</time>
      </trkpt>
      <trkpt lat="50.02256" lon="5.44636">
        <ele>486</ele>
        <time>2015-03-28T11:37:47Z</time>
      </trkpt>
      <trkpt lat="50.02251" lon="5.44632">
        <ele>487</ele>
        <time>2015-03-28T11:37:52Z</time>
      </trkpt>
      <trkpt lat="50.02246" lon="5.44627">
        <ele>487</ele>
        <time>2015-03-28T11:37:58Z</time>
      </trkpt>
      <trkpt lat="50.0224" lon="5.44625">
        <ele>487</ele>
        <time>2015-03-28T11:38:04Z</time>
      </trkpt>
      <trkpt lat="50.02235" lon="5.44622">
        <ele>488</ele>
        <time>2015-03-28T11:38:09Z</time>
      </trkpt>
      <trkpt lat="50.02229" lon="5.44619">
        <ele>488</ele>
        <time>2015-03-28T11:38:15Z</time>
      </trkpt>
      <trkpt lat="50.02225" lon="5.44614">
        <ele>488</ele>
        <time>2015-03-28T11:38:21Z</time>
      </trkpt>
      <trkpt lat="50.02218" lon="5.4461">
        <ele>488</ele>
        <time>2015-03-28T11:38:27Z</time>
      </trkpt>
      <trkpt lat="50.02212" lon="5.44606">
        <ele>489</ele>
        <time>2015-03-28T11:38:33Z</time>
      </trkpt>
      <trkpt lat="50.02206" lon="5.44601">
        <ele>489</ele>
        <time>2015-03-28T11:38:38Z</time>
      </trkpt>
      <trkpt lat="50.022" lon="5.44596">
        <ele>489</ele>
        <time>2015-03-28T11:38:44Z</time>
      </trkpt>
      <trkpt lat="50.02195" lon="5.44592">
        <ele>490</ele>
        <time>2015-03-28T11:38:50Z</time>
      </trkpt>
      <trkpt lat="50.0219" lon="5.44586">
        <ele>490</ele>
        <time>2015-03-28T11:38:55Z</time>
      </trkpt>
      <trkpt lat="50.02185" lon="5.44581">
        <ele>490</ele>
        <time>2015-03-28T11:39:00Z</time>
      </trkpt>
      <trkpt lat="50.02181" lon="5.44577">
        <ele>490</ele>
        <time>2015-03-28T11:39:05Z</time>
      </trkpt>
      <trkpt lat="50.02176" lon="5.4457">
        <ele>491</ele>
        <time>2015-03-28T11:39:10Z</time>
      </trkpt>
      <trkpt lat="50.0217" lon="5.44563">
        <ele>491</ele>
        <time>2015-03-28T11:39:16Z</time>
      </trkpt>
      <trkpt lat="50.02166" lon="5.44558">
        <ele>491</ele>
        <time>2015-03-28T11:39:22Z</time>
      </trkpt>
      <trkpt lat="50.02162" lon="5.44554">
        <ele>491</ele>
        <time>2015-03-28T11:39:27Z</time>
      </trkpt>
      <trkpt lat="50.02157" lon="5.44548">
        <ele>492</ele>
        <time>2015-03-28T11:39:32Z</time>
      </trkpt>
      <trkpt lat="50.02153" lon="5.44542">
        <ele>492</ele>
        <time>2015-03-28T11:39:37Z</time>
      </trkpt>
      <trkpt lat="50.02148" lon="5.44535">
        <ele>492</ele>
        <time>2015-03-28T11:39:42Z</time>
      </trkpt>
      <trkpt lat="50.02145" lon="5.44528">
        <ele>493</ele>
        <time>2015-03-28T11:39:48Z</time>
      </trkpt>
      <trkpt lat="50.02141" lon="5.44522">
        <ele>493</ele>
        <time>2015-03-28T11:39:53Z</time>
      </trkpt>
      <trkpt lat="50.02137" lon="5.44517">
        <ele>494</ele>
        <time>2015-03-28T11:39:58Z</time>
      </trkpt>
      <trkpt lat="50.02132" lon="5.44509">
        <ele>494</ele>
        <time>2015-03-28T11:40:04Z</time>
      </trkpt>
      <trkpt lat="50.02126" lon="5.44508">
        <ele>494</ele>
        <time>2015-03-28T11:40:10Z</time>
      </trkpt>
      <trkpt lat="50.02121" lon="5.44501">
        <ele>494</ele>
        <time>2015-03-28T11:40:16Z</time>
      </trkpt>
      <trkpt lat="50.02117" lon="5.44499">
        <ele>494</ele>
        <time>2015-03-28T11:40:22Z</time>
      </trkpt>
      <trkpt lat="50.02113" lon="5.44493">
        <ele>494</ele>
        <time>2015-03-28T11:40:28Z</time>
      </trkpt>
      <trkpt lat="50.0211" lon="5.44489">
        <ele>495</ele>
        <time>2015-03-28T11:40:33Z</time>
      </trkpt>
      <trkpt lat="50.02106" lon="5.44486">
        <ele>495</ele>
        <time>2015-03-28T11:40:38Z</time>
      </trkpt>
      <trkpt lat="50.02101" lon="5.44479">
        <ele>495</ele>
        <time>2015-03-28T11:40:44Z</time>
      </trkpt>
      <trkpt lat="50.02097" lon="5.44472">
        <ele>495</ele>
        <time>2015-03-28T11:40:50Z</time>
      </trkpt>
      <trkpt lat="50.02093" lon="5.44465">
        <ele>495</ele>
        <time>2015-03-28T11:40:56Z</time>
      </trkpt>
      <trkpt lat="50.0209" lon="5.44461">
        <ele>496</ele>
        <time>2015-03-28T11:41:01Z</time>
      </trkpt>
      <trkpt lat="50.02088" lon="5.44456">
        <ele>496</ele>
        <time>2015-03-28T11:41:06Z</time>
      </trkpt>
      <trkpt lat="50.02084" lon="5.4445">
        <ele>496</ele>
        <time>2015-03-28T11:41:12Z</time>
      </trkpt>
      <trkpt lat="50.0208" lon="5.44443">
        <ele>497</ele>
        <time>2015-03-28T11:41:17Z</time>
      </trkpt>
      <trkpt lat="50.02075" lon="5.44439">
        <ele>497</ele>
        <time>2015-03-28T11:41:22Z</time>
      </trkpt>
      <trkpt lat="50.02071" lon="5.44431">
        <ele>498</ele>
        <time>2015-03-28T11:41:27Z</time>
      </trkpt>
      <trkpt lat="50.02066" lon="5.44424">
        <ele>497</ele>
        <time>2015-03-28T11:41:33Z</time>
      </trkpt>
      <trkpt lat="50.02061" lon="5.44418">
        <ele>498</ele>
        <time>2015-03-28T11:41:38Z</time>
      </trkpt>
      <trkpt lat="50.02056" lon="5.44411">
        <ele>498</ele>
        <time>2015-03-28T11:41:43Z</time>
      </trkpt>
      <trkpt lat="50.02051" lon="5.44402">
        <ele>498</ele>
        <time>2015-03-28T11:41:49Z</time>
      </trkpt>
      <trkpt lat="50.02046" lon="5.44396">
        <ele>499</ele>
        <time>2015-03-28T11:41:54Z</time>
      </trkpt>
      <trkpt lat="50.02041" lon="5.4439">
        <ele>499</ele>
        <time>2015-03-28T11:41:59Z</time>
      </trkpt>
      <trkpt lat="50.02036" lon="5.44382">
        <ele>500</ele>
        <time>2015-03-28T11:42:05Z</time>
      </trkpt>
      <trkpt lat="50.02032" lon="5.44377">
        <ele>501</ele>
        <time>2015-03-28T11:42:10Z</time>
      </trkpt>
      <trkpt lat="50.02026" lon="5.4437">
        <ele>501</ele>
        <time>2015-03-28T11:42:15Z</time>
      </trkpt>
      <trkpt lat="50.02021" lon="5.44368">
        <ele>501</ele>
        <time>2015-03-28T11:42:21Z</time>
      </trkpt>
      <trkpt lat="50.02017" lon="5.44364">
        <ele>501</ele>
        <time>2015-03-28T11:42:26Z</time>
      </trkpt>
      <trkpt lat="50.02016" lon="5.44354">
        <ele>501</ele>
        <time>2015-03-28T11:42:32Z</time>
      </trkpt>
      <trkpt lat="50.02015" lon="5.44347">
        <ele>501</ele>
        <time>2015-03-28T11:42:38Z</time>
      </trkpt>
      <trkpt lat="50.02013" lon="5.44342">
        <ele>502</ele>
        <time>2015-03-28T11:42:44Z</time>
      </trkpt>
      <trkpt lat="50.02014" lon="5.4434">
        <ele>502</ele>
        <time>2015-03-28T11:42:49Z</time>
      </trkpt>
      <trkpt lat="50.02014" lon="5.44339">
        <ele>502</ele>
        <time>2015-03-28T11:42:54Z</time>
      </trkpt>
      <trkpt lat="50.02015" lon="5.44339">
        <ele>501</ele>
        <time>2015-03-28T11:43:00Z</time>
      </trkpt>
      <trkpt lat="50.02015" lon="5.4434">
        <ele>502</ele>
        <time>2015-03-28T11:43:06Z</time>
      </trkpt>
      <trkpt lat="50.02013" lon="5.44339">
        <ele>502</ele>
        <time>2015-03-28T11:43:12Z</time>
      </trkpt>
      <trkpt lat="50.02011" lon="5.44337">
        <ele>502</ele>
        <time>2015-03-28T11:43:17Z</time>
      </trkpt>
      <trkpt lat="50.0201" lon="5.44337">
        <ele>502</ele>
        <time>2015-03-28T11:43:22Z</time>
      </trkpt>
      <trkpt lat="50.02008" lon="5.44339">
        <ele>502</ele>
        <time>2015-03-28T11:43:28Z</time>
      </trkpt>
      <trkpt lat="50.02007" lon="5.44341">
        <ele>501</ele>
        <time>2015-03-28T11:43:33Z</time>
      </trkpt>
      <trkpt lat="50.02004" lon="5.44344">
        <ele>501</ele>
        <time>2015-03-28T11:43:38Z</time>
      </trkpt>
      <trkpt lat="50.02002" lon="5.44346">
        <ele>502</ele>
        <time>2015-03-28T11:43:44Z</time>
      </trkpt>
      <trkpt lat="50.02002" lon="5.44346">
        <ele>502</ele>
        <time>2015-03-28T11:43:49Z</time>
      </trkpt>
      <trkpt lat="50.02003" lon="5.44346">
        <ele>502</ele>
        <time>2015-03-28T11:43:54Z</time>
      </trkpt>
      <trkpt lat="50.02005" lon="5.44347">
        <ele>502</ele>
        <time>2015-03-28T11:44:00Z</time>
      </trkpt>
      <trkpt lat="50.02007" lon="5.44347">
        <ele>501</ele>
        <time>2015-03-28T11:44:05Z</time>
      </trkpt>
      <trkpt lat="50.02008" lon="5.44347">
        <ele>501</ele>
        <time>2015-03-28T11:44:11Z</time>
      </trkpt>
      <trkpt lat="50.02008" lon="5.44346">
        <ele>502</ele>
        <time>2015-03-28T11:44:16Z</time>
      </trkpt>
      <trkpt lat="50.02007" lon="5.44345">
        <ele>502</ele>
        <time>2015-03-28T11:44:21Z</time>
      </trkpt>
      <trkpt lat="50.02007" lon="5.44346">
        <ele>501</ele>
        <time>2015-03-28T11:44:27Z</time>
      </trkpt>
      <trkpt lat="50.02006" lon="5.44345">
        <ele>501</ele>
        <time>2015-03-28T11:44:32Z</time>
      </trkpt>
      <trkpt lat="50.02006" lon="5.44343">
        <ele>501</ele>
        <time>2015-03-28T11:44:37Z</time>
      </trkpt>
      <trkpt lat="50.02007" lon="5.4434">
        <ele>501</ele>
        <time>2015-03-28T11:44:43Z</time>
      </trkpt>
      <trkpt lat="50.02008" lon="5.44336">
        <ele>502</ele>
        <time>2015-03-28T11:44:48Z</time>
      </trkpt>
      <trkpt lat="50.02008" lon="5.44333">
        <ele>501</ele>
        <time>2015-03-28T11:44:53Z</time>
      </trkpt>
      <trkpt lat="50.02008" lon="5.4433">
        <ele>502</ele>
        <time>2015-03-28T11:44:59Z</time>
      </trkpt>
      <trkpt lat="50.02009" lon="5.44327">
        <ele>501</ele>
        <time>2015-03-28T11:45:04Z</time>
      </trkpt>
      <trkpt lat="50.02008" lon="5.44326">
        <ele>501</ele>
        <time>2015-03-28T11:45:10Z</time>
      </trkpt>
      <trkpt lat="50.02007" lon="5.44327">
        <ele>501</ele>
        <time>2015-03-28T11:45:16Z</time>
      </trkpt>
      <trkpt lat="50.02006" lon="5.44327">
        <ele>501</ele>
        <time>2015-03-28T11:45:22Z</time>
      </trkpt>
      <trkpt lat="50.02007" lon="5.44329">
        <ele>501</ele>
        <time>2015-03-28T11:45:28Z</time>
      </trkpt>
      <trkpt lat="50.0201" lon="5.44328">
        <ele>501</ele>
        <time>2015-03-28T11:45:33Z</time>
      </trkpt>
      <trkpt lat="50.02012" lon="5.44331">
        <ele>501</ele>
        <time>2015-03-28T11:45:38Z</time>
      </trkpt>
      <trkpt lat="50.02015" lon="5.44333">
        <ele>501</ele>
        <time>2015-03-28T11:45:44Z</time>
      </trkpt>
      <trkpt lat="50.02016" lon="5.44334">
        <ele>501</ele>
        <time>2015-03-28T11:45:49Z</time>
      </trkpt>
      <trkpt lat="50.02016" lon="5.44335">
        <ele>501</ele>
        <time>2015-03-28T11:45:54Z</time>
      </trkpt>
      <trkpt lat="50.02016" lon="5.44335">
        <ele>501</ele>
        <time>2015-03-28T11:46:00Z</time>
      </trkpt>
      <trkpt lat="50.02014" lon="5.44334">
        <ele>501</ele>
        <time>2015-03-28T11:46:05Z</time>
      </trkpt>
      <trkpt lat="50.02013" lon="5.44334">
        <ele>501</ele>
        <time>2015-03-28T11:46:11Z</time>
      </trkpt>
      <trkpt lat="50.02011" lon="5.44335">
        <ele>501</ele>
        <time>2015-03-28T11:46:16Z</time>
      </trkpt>
      <trkpt lat="50.02011" lon="5.44336">
        <ele>500</ele>
        <time>2015-03-28T11:46:21Z</time>
      </trkpt>
      <trkpt lat="50.02011" lon="5.44337">
        <ele>501</ele>
        <time>2015-03-28T11:46:27Z</time>
      </trkpt>
      <trkpt lat="50.02011" lon="5.44339">
        <ele>501</ele>
        <time>2015-03-28T11:46:33Z</time>
      </trkpt>
      <trkpt lat="50.02011" lon="5.44342">
        <ele>501</ele>
        <time>2015-03-28T11:46:38Z</time>
      </trkpt>
      <trkpt lat="50.02011" lon="5.44344">
        <ele>501</ele>
        <time>2015-03-28T11:46:43Z</time>
      </trkpt>
      <trkpt lat="50.0201" lon="5.44344">
        <ele>501</ele>
        <time>2015-03-28T11:46:49Z</time>
      </trkpt>
      <trkpt lat="50.02009" lon="5.44343">
        <ele>501</ele>
        <time>2015-03-28T11:46:55Z</time>
      </trkpt>
      <trkpt lat="50.02008" lon="5.44342">
        <ele>502</ele>
        <time>2015-03-28T11:47:03Z</time>
      </trkpt>
      <trkpt lat="50.02008" lon="5.44341">
        <ele>501</ele>
        <time>2015-03-28T11:47:09Z</time>
      </trkpt>
      <trkpt lat="50.02009" lon="5.4434">
        <ele>501</ele>
        <time>2015-03-28T11:47:14Z</time>
      </trkpt>
      <trkpt lat="50.02009" lon="5.4434">
        <ele>501</ele>
        <time>2015-03-28T11:47:19Z</time>
      </trkpt>
      <trkpt lat="50.0201" lon="5.4434">
        <ele>501</ele>
        <time>2015-03-28T11:47:25Z</time>
      </trkpt>
      <trkpt lat="50.0201" lon="5.44339">
        <ele>501</ele>
        <time>2015-03-28T11:47:30Z</time>
      </trkpt>
      <trkpt lat="50.02009" lon="5.44338">
        <ele>501</ele>
        <time>2015-03-28T11:47:35Z</time>
      </trkpt>
      <trkpt lat="50.02009" lon="5.44335">
        <ele>501</ele>
        <time>2015-03-28T11:47:41Z</time>
      </trkpt>
      <trkpt lat="50.0201" lon="5.44333">
        <ele>501</ele>
        <time>2015-03-28T11:47:47Z</time>
      </trkpt>
      <trkpt lat="50.02011" lon="5.44332">
        <ele>501</ele>
        <time>2015-03-28T11:47:52Z</time>
      </trkpt>
      <trkpt lat="50.02012" lon="5.44333">
        <ele>501</ele>
        <time>2015-03-28T11:47:58Z</time>
      </trkpt>
      <trkpt lat="50.02013" lon="5.44333">
        <ele>501</ele>
        <time>2015-03-28T11:48:04Z</time>
      </trkpt>
      <trkpt lat="50.02013" lon="5.44333">
        <ele>501</ele>
        <time>2015-03-28T11:48:09Z</time>
      </trkpt>
      <trkpt lat="50.02013" lon="5.44331">
        <ele>501</ele>
        <time>2015-03-28T11:48:14Z</time>
      </trkpt>
      <trkpt lat="50.02013" lon="5.44331">
        <ele>501</ele>
        <time>2015-03-28T11:48:20Z</time>
      </trkpt>
      <trkpt lat="50.02013" lon="5.44331">
        <ele>501</ele>
        <time>2015-03-28T11:48:25Z</time>
      </trkpt>
      <trkpt lat="50.02012" lon="5.44332">
        <ele>501</ele>
        <time>2015-03-28T11:48:30Z</time>
      </trkpt>
      <trkpt lat="50.02011" lon="5.44335">
        <ele>501</ele>
        <time>2015-03-28T11:48:36Z</time>
      </trkpt>
      <trkpt lat="50.02011" lon="5.44338">
        <ele>501</ele>
        <time>2015-03-28T11:48:41Z</time>
      </trkpt>
      <trkpt lat="50.02011" lon="5.4434">
        <ele>501</ele>
        <time>2015-03-28T11:48:47Z</time>
      </trkpt>
      <trkpt lat="50.02011" lon="5.44341">
        <ele>501</ele>
        <time>2015-03-28T11:48:53Z</time>
      </trkpt>
      <trkpt lat="50.02012" lon="5.44341">
        <ele>501</ele>
        <time>2015-03-28T11:48:58Z</time>
      </trkpt>
      <trkpt lat="50.02011" lon="5.44343">
        <ele>501</ele>
        <time>2015-03-28T11:49:04Z</time>
      </trkpt>
      <trkpt lat="50.02011" lon="5.44345">
        <ele>501</ele>
        <time>2015-03-28T11:49:09Z</time>
      </trkpt>
      <trkpt lat="50.02011" lon="5.44347">
        <ele>501</ele>
        <time>2015-03-28T11:49:14Z</time>
      </trkpt>
      <trkpt lat="50.02012" lon="5.44347">
        <ele>501</ele>
        <time>2015-03-28T11:49:19Z</time>
      </trkpt>
      <trkpt lat="50.02012" lon="5.44347">
        <ele>501</ele>
        <time>2015-03-28T11:49:25Z</time>
      </trkpt>
      <trkpt lat="50.0201" lon="5.44349">
        <ele>501</ele>
        <time>2015-03-28T11:49:31Z</time>
      </trkpt>
      <trkpt lat="50.0201" lon="5.44351">
        <ele>501</ele>
        <time>2015-03-28T11:49:36Z</time>
      </trkpt>
      <trkpt lat="50.02011" lon="5.44352">
        <ele>501</ele>
        <time>2015-03-28T11:49:41Z</time>
      </trkpt>
      <trkpt lat="50.02012" lon="5.44352">
        <ele>501</ele>
        <time>2015-03-28T11:49:47Z</time>
      </trkpt>
      <trkpt lat="50.02014" lon="5.44354">
        <ele>501</ele>
        <time>2015-03-28T11:49:52Z</time>
      </trkpt>
      <trkpt lat="50.02015" lon="5.44358">
        <ele>501</ele>
        <time>2015-03-28T11:49:58Z</time>
      </trkpt>
      <trkpt lat="50.02016" lon="5.44359">
        <ele>502</ele>
        <time>2015-03-28T11:50:03Z</time>
      </trkpt>
      <trkpt lat="50.02016" lon="5.4436">
        <ele>502</ele>
        <time>2015-03-28T11:50:08Z</time>
      </trkpt>
      <trkpt lat="50.02016" lon="5.44361">
        <ele>501</ele>
        <time>2015-03-28T11:50:14Z</time>
      </trkpt>
      <trkpt lat="50.02016" lon="5.44361">
        <ele>501</ele>
        <time>2015-03-28T11:50:19Z</time>
      </trkpt>
      <trkpt lat="50.02015" lon="5.44361">
        <ele>501</ele>
        <time>2015-03-28T11:50:24Z</time>
      </trkpt>
      <trkpt lat="50.02015" lon="5.4436">
        <ele>501</ele>
        <time>2015-03-28T11:50:30Z</time>
      </trkpt>
      <trkpt lat="50.02015" lon="5.44359">
        <ele>501</ele>
        <time>2015-03-28T11:50:36Z</time>
      </trkpt>
      <trkpt lat="50.02015" lon="5.44358">
        <ele>501</ele>
        <time>2015-03-28T11:50:41Z</time>
      </trkpt>
      <trkpt lat="50.02015" lon="5.44357">
        <ele>501</ele>
        <time>2015-03-28T11:50:48Z</time>
      </trkpt>
      <trkpt lat="50.02015" lon="5.44356">
        <ele>501</ele>
        <time>2015-03-28T11:50:54Z</time>
      </trkpt>
      <trkpt lat="50.02015" lon="5.44356">
        <ele>501</ele>
        <time>2015-03-28T11:51:01Z</time>
      </trkpt>
      <trkpt lat="50.02015" lon="5.44356">
        <ele>501</ele>
        <time>2015-03-28T11:51:06Z</time>
      </trkpt>
      <trkpt lat="50.02015" lon="5.44356">
        <ele>501</ele>
        <time>2015-03-28T11:51:12Z</time>
      </trkpt>
      <trkpt lat="50.02015" lon="5.44355">
        <ele>501</ele>
        <time>2015-03-28T11:51:17Z</time>
      </trkpt>
      <trkpt lat="50.02015" lon="5.44355">
        <ele>501</ele>
        <time>2015-03-28T11:51:22Z</time>
      </trkpt>
      <trkpt lat="50.02015" lon="5.44354">
        <ele>502</ele>
        <time>2015-03-28T11:51:29Z</time>
      </trkpt>
      <trkpt lat="50.02015" lon="5.44354">
        <ele>502</ele>
        <time>2015-03-28T11:51:34Z</time>
      </trkpt>
      <trkpt lat="50.02014" lon="5.44355">
        <ele>501</ele>
        <time>2015-03-28T11:51:39Z</time>
      </trkpt>
      <trkpt lat="50.02014" lon="5.44355">
        <ele>501</ele>
        <time>2015-03-28T11:51:45Z</time>
      </trkpt>
      <trkpt lat="50.02014" lon="5.44355">
        <ele>501</ele>
        <time>2015-03-28T11:51:52Z</time>
      </trkpt>
      <trkpt lat="50.02015" lon="5.44356">
        <ele>501</ele>
        <time>2015-03-28T11:51:58Z</time>
      </trkpt>
      <trkpt lat="50.02015" lon="5.44356">
        <ele>501</ele>
        <time>2015-03-28T11:52:04Z</time>
      </trkpt>
      <trkpt lat="50.02015" lon="5.44356">
        <ele>501</ele>
        <time>2015-03-28T11:52:09Z</time>
      </trkpt>
      <trkpt lat="50.02016" lon="5.44356">
        <ele>501</ele>
        <time>2015-03-28T11:52:15Z</time>
      </trkpt>
      <trkpt lat="50.02016" lon="5.44355">
        <ele>501</ele>
        <time>2015-03-28T11:52:22Z</time>
      </trkpt>
      <trkpt lat="50.02018" lon="5.44352">
        <ele>501</ele>
        <time>2015-03-28T11:52:28Z</time>
      </trkpt>
      <trkpt lat="50.0202" lon="5.44351">
        <ele>501</ele>
        <time>2015-03-28T11:52:33Z</time>
      </trkpt>
      <trkpt lat="50.0202" lon="5.44351">
        <ele>501</ele>
        <time>2015-03-28T11:52:40Z</time>
      </trkpt>
      <trkpt lat="50.0202" lon="5.44351">
        <ele>501</ele>
        <time>2015-03-28T11:52:47Z</time>
      </trkpt>
      <trkpt lat="50.02018" lon="5.44352">
        <ele>501</ele>
        <time>2015-03-28T11:52:52Z</time>
      </trkpt>
      <trkpt lat="50.02017" lon="5.44352">
        <ele>501</ele>
        <time>2015-03-28T11:52:57Z</time>
      </trkpt>
      <trkpt lat="50.02016" lon="5.44353">
        <ele>501</ele>
        <time>2015-03-28T11:53:03Z</time>
      </trkpt>
      <trkpt lat="50.02015" lon="5.44354">
        <ele>501</ele>
        <time>2015-03-28T11:53:08Z</time>
      </trkpt>
      <trkpt lat="50.02013" lon="5.44354">
        <ele>501</ele>
        <time>2015-03-28T11:53:13Z</time>
      </trkpt>
      <trkpt lat="50.02013" lon="5.44353">
        <ele>501</ele>
        <time>2015-03-28T11:53:18Z</time>
      </trkpt>
      <trkpt lat="50.02015" lon="5.44352">
        <ele>501</ele>
        <time>2015-03-28T11:53:24Z</time>
      </trkpt>
      <trkpt lat="50.02015" lon="5.4435">
        <ele>501</ele>
        <time>2015-03-28T11:53:30Z</time>
      </trkpt>
      <trkpt lat="50.02016" lon="5.44349">
        <ele>501</ele>
        <time>2015-03-28T11:53:35Z</time>
      </trkpt>
      <trkpt lat="50.02016" lon="5.44348">
        <ele>501</ele>
        <time>2015-03-28T11:53:41Z</time>
      </trkpt>
      <trkpt lat="50.02017" lon="5.44347">
        <ele>501</ele>
        <time>2015-03-28T11:53:47Z</time>
      </trkpt>
      <trkpt lat="50.02018" lon="5.44347">
        <ele>501</ele>
        <time>2015-03-28T11:53:52Z</time>
      </trkpt>
      <trkpt lat="50.02019" lon="5.44347">
        <ele>501</ele>
        <time>2015-03-28T11:53:58Z</time>
      </trkpt>
      <trkpt lat="50.0202" lon="5.44347">
        <ele>501</ele>
        <time>2015-03-28T11:54:03Z</time>
      </trkpt>
      <trkpt lat="50.02021" lon="5.44347">
        <ele>501</ele>
        <time>2015-03-28T11:54:09Z</time>
      </trkpt>
      <trkpt lat="50.02022" lon="5.44347">
        <ele>501</ele>
        <time>2015-03-28T11:54:15Z</time>
      </trkpt>
      <trkpt lat="50.02022" lon="5.44348">
        <ele>502</ele>
        <time>2015-03-28T11:54:22Z</time>
      </trkpt>
      <trkpt lat="50.02022" lon="5.44348">
        <ele>501</ele>
        <time>2015-03-28T11:54:27Z</time>
      </trkpt>
      <trkpt lat="50.02022" lon="5.44349">
        <ele>501</ele>
        <time>2015-03-28T11:54:32Z</time>
      </trkpt>
      <trkpt lat="50.02023" lon="5.4435">
        <ele>501</ele>
        <time>2015-03-28T11:54:38Z</time>
      </trkpt>
      <trkpt lat="50.02022" lon="5.44349">
        <ele>501</ele>
        <time>2015-03-28T11:54:45Z</time>
      </trkpt>
      <trkpt lat="50.02021" lon="5.44347">
        <ele>502</ele>
        <time>2015-03-28T11:54:50Z</time>
      </trkpt>
      <trkpt lat="50.02019" lon="5.44346">
        <ele>501</ele>
        <time>2015-03-28T11:54:56Z</time>
      </trkpt>
      <trkpt lat="50.02019" lon="5.44345">
        <ele>501</ele>
        <time>2015-03-28T11:55:02Z</time>
      </trkpt>
      <trkpt lat="50.02019" lon="5.44345">
        <ele>501</ele>
        <time>2015-03-28T11:55:07Z</time>
      </trkpt>
      <trkpt lat="50.0202" lon="5.44346">
        <ele>501</ele>
        <time>2015-03-28T11:55:13Z</time>
      </trkpt>
      <trkpt lat="50.02021" lon="5.44347">
        <ele>501</ele>
        <time>2015-03-28T11:55:19Z</time>
      </trkpt>
      <trkpt lat="50.02021" lon="5.44348">
        <ele>501</ele>
        <time>2015-03-28T11:55:24Z</time>
      </trkpt>
      <trkpt lat="50.02022" lon="5.44349">
        <ele>501</ele>
        <time>2015-03-28T11:55:29Z</time>
      </trkpt>
      <trkpt lat="50.02023" lon="5.44351">
        <ele>501</ele>
        <time>2015-03-28T11:55:35Z</time>
      </trkpt>
      <trkpt lat="50.02024" lon="5.44351">
        <ele>501</ele>
        <time>2015-03-28T11:55:40Z</time>
      </trkpt>
      <trkpt lat="50.02024" lon="5.44352">
        <ele>501</ele>
        <time>2015-03-28T11:55:45Z</time>
      </trkpt>
      <trkpt lat="50.02024" lon="5.44352">
        <ele>501</ele>
        <time>2015-03-28T11:55:50Z</time>
      </trkpt>
      <trkpt lat="50.02024" lon="5.44352">
        <ele>501</ele>
        <time>2015-03-28T11:55:56Z</time>
      </trkpt>
      <trkpt lat="50.02024" lon="5.44352">
        <ele>501</ele>
        <time>2015-03-28T11:56:01Z</time>
      </trkpt>
      <trkpt lat="50.02023" lon="5.44352">
        <ele>501</ele>
        <time>2015-03-28T11:56:06Z</time>
      </trkpt>
      <trkpt lat="50.02022" lon="5.44352">
        <ele>501</ele>
        <time>2015-03-28T11:56:11Z</time>
      </trkpt>
      <trkpt lat="50.02021" lon="5.44352">
        <ele>501</ele>
        <time>2015-03-28T11:56:18Z</time>
      </trkpt>
      <trkpt lat="50.02021" lon="5.44352">
        <ele>501</ele>
        <time>2015-03-28T11:56:23Z</time>
      </trkpt>
      <trkpt lat="50.02021" lon="5.44352">
        <ele>501</ele>
        <time>2015-03-28T11:56:28Z</time>
      </trkpt>
      <trkpt lat="50.02021" lon="5.44351">
        <ele>501</ele>
        <time>2015-03-28T11:56:34Z</time>
      </trkpt>
      <trkpt lat="50.02021" lon="5.4435">
        <ele>501</ele>
        <time>2015-03-28T11:56:39Z</time>
      </trkpt>
      <trkpt lat="50.02021" lon="5.44349">
        <ele>501</ele>
        <time>2015-03-28T11:56:44Z</time>
      </trkpt>
      <trkpt lat="50.02021" lon="5.44349">
        <ele>501</ele>
        <time>2015-03-28T11:56:50Z</time>
      </trkpt>
      <trkpt lat="50.02021" lon="5.44349">
        <ele>501</ele>
        <time>2015-03-28T11:56:55Z</time>
      </trkpt>
      <trkpt lat="50.0202" lon="5.44348">
        <ele>501</ele>
        <time>2015-03-28T11:57:03Z</time>
      </trkpt>
      <trkpt lat="50.0202" lon="5.44348">
        <ele>501</ele>
        <time>2015-03-28T11:57:09Z</time>
      </trkpt>
      <trkpt lat="50.02019" lon="5.44348">
        <ele>501</ele>
        <time>2015-03-28T11:57:16Z</time>
      </trkpt>
      <trkpt lat="50.02018" lon="5.44348">
        <ele>501</ele>
        <time>2015-03-28T11:57:25Z</time>
      </trkpt>
      <trkpt lat="50.02018" lon="5.44348">
        <ele>501</ele>
        <time>2015-03-28T11:57:31Z</time>
      </trkpt>
      <trkpt lat="50.02018" lon="5.44349">
        <ele>501</ele>
        <time>2015-03-28T11:57:37Z</time>
      </trkpt>
      <trkpt lat="50.02017" lon="5.44349">
        <ele>501</ele>
        <time>2015-03-28T11:57:45Z</time>
      </trkpt>
      <trkpt lat="50.02017" lon="5.44348">
        <ele>501</ele>
        <time>2015-03-28T11:57:52Z</time>
      </trkpt>
      <trkpt lat="50.02016" lon="5.44348">
        <ele>501</ele>
        <time>2015-03-28T11:57:58Z</time>
      </trkpt>
      <trkpt lat="50.02016" lon="5.44348">
        <ele>501</ele>
        <time>2015-03-28T11:58:03Z</time>
      </trkpt>
      <trkpt lat="50.02016" lon="5.44347">
        <ele>501</ele>
        <time>2015-03-28T11:58:09Z</time>
      </trkpt>
      <trkpt lat="50.02016" lon="5.44347">
        <ele>501</ele>
        <time>2015-03-28T11:58:15Z</time>
      </trkpt>
      <trkpt lat="50.02016" lon="5.44348">
        <ele>501</ele>
        <time>2015-03-28T11:58:20Z</time>
      </trkpt>
      <trkpt lat="50.02016" lon="5.44349">
        <ele>501</ele>
        <time>2015-03-28T11:58:26Z</time>
      </trkpt>
      <trkpt lat="50.02016" lon="5.4435">
        <ele>501</ele>
        <time>2015-03-28T11:58:31Z</time>
      </trkpt>
      <trkpt lat="50.02017" lon="5.44352">
        <ele>501</ele>
        <time>2015-03-28T11:58:37Z</time>
      </trkpt>
      <trkpt lat="50.02018" lon="5.44353">
        <ele>501</ele>
        <time>2015-03-28T11:58:42Z</time>
      </trkpt>
      <trkpt lat="50.02019" lon="5.44354">
        <ele>501</ele>
        <time>2015-03-28T11:58:48Z</time>
      </trkpt>
      <trkpt lat="50.02021" lon="5.44355">
        <ele>501</ele>
        <time>2015-03-28T11:58:54Z</time>
      </trkpt>
      <trkpt lat="50.02021" lon="5.44354">
        <ele>501</ele>
        <time>2015-03-28T11:58:59Z</time>
      </trkpt>
      <trkpt lat="50.0202" lon="5.44353">
        <ele>501</ele>
        <time>2015-03-28T11:59:05Z</time>
      </trkpt>
      <trkpt lat="50.02019" lon="5.44352">
        <ele>501</ele>
        <time>2015-03-28T11:59:11Z</time>
      </trkpt>
      <trkpt lat="50.02018" lon="5.44352">
        <ele>501</ele>
        <time>2015-03-28T11:59:17Z</time>
      </trkpt>
      <trkpt lat="50.02018" lon="5.44353">
        <ele>501</ele>
        <time>2015-03-28T11:59:22Z</time>
      </trkpt>
      <trkpt lat="50.02018" lon="5.44354">
        <ele>501</ele>
        <time>2015-03-28T11:59:27Z</time>
      </trkpt>
      <trkpt lat="50.02018" lon="5.44355">
        <ele>501</ele>
        <time>2015-03-28T11:59:34Z</time>
      </trkpt>
      <trkpt lat="50.02019" lon="5.44354">
        <ele>501</ele>
        <time>2015-03-28T11:59:39Z</time>
      </trkpt>
      <trkpt lat="50.02019" lon="5.44353">
        <ele>502</ele>
        <time>2015-03-28T11:59:45Z</time>
      </trkpt>
      <trkpt lat="50.02019" lon="5.44352">
        <ele>502</ele>
        <time>2015-03-28T11:59:51Z</time>
      </trkpt>
      <trkpt lat="50.02021" lon="5.44349">
        <ele>502</ele>
        <time>2015-03-28T11:59:56Z</time>
      </trkpt>
      <trkpt lat="50.02021" lon="5.44347">
        <ele>502</ele>
        <time>2015-03-28T12:00:02Z</time>
      </trkpt>
      <trkpt lat="50.0202" lon="5.44345">
        <ele>502</ele>
        <time>2015-03-28T12:00:08Z</time>
      </trkpt>
      <trkpt lat="50.0202" lon="5.44346">
        <ele>501</ele>
        <time>2015-03-28T12:00:14Z</time>
      </trkpt>
      <trkpt lat="50.0202" lon="5.44347">
        <ele>501</ele>
        <time>2015-03-28T12:00:19Z</time>
      </trkpt>
      <trkpt lat="50.02017" lon="5.44349">
        <ele>501</ele>
        <time>2015-03-28T12:00:24Z</time>
      </trkpt>
      <trkpt lat="50.02015" lon="5.44353">
        <ele>501</ele>
        <time>2015-03-28T12:00:29Z</time>
      </trkpt>
      <trkpt lat="50.02012" lon="5.44355">
        <ele>501</ele>
        <time>2015-03-28T12:00:34Z</time>
      </trkpt>
      <trkpt lat="50.0201" lon="5.44357">
        <ele>502</ele>
        <time>2015-03-28T12:00:39Z</time>
      </trkpt>
      <trkpt lat="50.02008" lon="5.44357">
        <ele>501</ele>
        <time>2015-03-28T12:00:45Z</time>
      </trkpt>
      <trkpt lat="50.02008" lon="5.44355">
        <ele>501</ele>
        <time>2015-03-28T12:00:51Z</time>
      </trkpt>
      <trkpt lat="50.02008" lon="5.44353">
        <ele>501</ele>
        <time>2015-03-28T12:00:58Z</time>
      </trkpt>
      <trkpt lat="50.02008" lon="5.44351">
        <ele>501</ele>
        <time>2015-03-28T12:01:04Z</time>
      </trkpt>
      <trkpt lat="50.02008" lon="5.44349">
        <ele>501</ele>
        <time>2015-03-28T12:01:09Z</time>
      </trkpt>
      <trkpt lat="50.02008" lon="5.44349">
        <ele>501</ele>
        <time>2015-03-28T12:01:14Z</time>
      </trkpt>
      <trkpt lat="50.02005" lon="5.44351">
        <ele>501</ele>
        <time>2015-03-28T12:01:20Z</time>
      </trkpt>
      <trkpt lat="50.02" lon="5.44353">
        <ele>502</ele>
        <time>2015-03-28T12:01:25Z</time>
      </trkpt>
      <trkpt lat="50.02" lon="5.44357">
        <ele>502</ele>
        <time>2015-03-28T12:01:31Z</time>
      </trkpt>
      <trkpt lat="50.01997" lon="5.44362">
        <ele>502</ele>
        <time>2015-03-28T12:01:36Z</time>
      </trkpt>
      <trkpt lat="50.01995" lon="5.44363">
        <ele>501</ele>
        <time>2015-03-28T12:01:42Z</time>
      </trkpt>
      <trkpt lat="50.01992" lon="5.44372">
        <ele>501</ele>
        <time>2015-03-28T12:01:47Z</time>
      </trkpt>
      <trkpt lat="50.01989" lon="5.44378">
        <ele>501</ele>
        <time>2015-03-28T12:01:53Z</time>
      </trkpt>
      <trkpt lat="50.01987" lon="5.44375">
        <ele>501</ele>
        <time>2015-03-28T12:01:59Z</time>
      </trkpt>
      <trkpt lat="50.01985" lon="5.4437">
        <ele>501</ele>
        <time>2015-03-28T12:02:04Z</time>
      </trkpt>
      <trkpt lat="50.01981" lon="5.44363">
        <ele>502</ele>
        <time>2015-03-28T12:02:11Z</time>
      </trkpt>
      <trkpt lat="50.01979" lon="5.44354">
        <ele>502</ele>
        <time>2015-03-28T12:02:16Z</time>
      </trkpt>
      <trkpt lat="50.01977" lon="5.44348">
        <ele>502</ele>
        <time>2015-03-28T12:02:22Z</time>
      </trkpt>
      <trkpt lat="50.01975" lon="5.4434">
        <ele>502</ele>
        <time>2015-03-28T12:02:27Z</time>
      </trkpt>
      <trkpt lat="50.01971" lon="5.44333">
        <ele>502</ele>
        <time>2015-03-28T12:02:32Z</time>
      </trkpt>
      <trkpt lat="50.01969" lon="5.44326">
        <ele>502</ele>
        <time>2015-03-28T12:02:38Z</time>
      </trkpt>
      <trkpt lat="50.01964" lon="5.44319">
        <ele>503</ele>
        <time>2015-03-28T12:02:44Z</time>
      </trkpt>
      <trkpt lat="50.01963" lon="5.44312">
        <ele>503</ele>
        <time>2015-03-28T12:02:49Z</time>
      </trkpt>
      <trkpt lat="50.0196" lon="5.44306">
        <ele>504</ele>
        <time>2015-03-28T12:02:55Z</time>
      </trkpt>
      <trkpt lat="50.01955" lon="5.44297">
        <ele>504</ele>
        <time>2015-03-28T12:03:01Z</time>
      </trkpt>
      <trkpt lat="50.01951" lon="5.44289">
        <ele>505</ele>
        <time>2015-03-28T12:03:07Z</time>
      </trkpt>
      <trkpt lat="50.01945" lon="5.44282">
        <ele>505</ele>
        <time>2015-03-28T12:03:12Z</time>
      </trkpt>
      <trkpt lat="50.01941" lon="5.44279">
        <ele>505</ele>
        <time>2015-03-28T12:03:18Z</time>
      </trkpt>
      <trkpt lat="50.01937" lon="5.44273">
        <ele>504</ele>
        <time>2015-03-28T12:03:24Z</time>
      </trkpt>
      <trkpt lat="50.01933" lon="5.44267">
        <ele>505</ele>
        <time>2015-03-28T12:03:30Z</time>
      </trkpt>
      <trkpt lat="50.01928" lon="5.44263">
        <ele>504</ele>
        <time>2015-03-28T12:03:35Z</time>
      </trkpt>
      <trkpt lat="50.01925" lon="5.44257">
        <ele>505</ele>
        <time>2015-03-28T12:03:41Z</time>
      </trkpt>
      <trkpt lat="50.0192" lon="5.44251">
        <ele>505</ele>
        <time>2015-03-28T12:03:47Z</time>
      </trkpt>
      <trkpt lat="50.01918" lon="5.44246">
        <ele>505</ele>
        <time>2015-03-28T12:03:53Z</time>
      </trkpt>
      <trkpt lat="50.01916" lon="5.44244">
        <ele>505</ele>
        <time>2015-03-28T12:03:58Z</time>
      </trkpt>
      <trkpt lat="50.01914" lon="5.44243">
        <ele>505</ele>
        <time>2015-03-28T12:04:04Z</time>
      </trkpt>
      <trkpt lat="50.01913" lon="5.44242">
        <ele>505</ele>
        <time>2015-03-28T12:04:10Z</time>
      </trkpt>
      <trkpt lat="50.01909" lon="5.44238">
        <ele>505</ele>
        <time>2015-03-28T12:04:16Z</time>
      </trkpt>
      <trkpt lat="50.01905" lon="5.44232">
        <ele>506</ele>
        <time>2015-03-28T12:04:22Z</time>
      </trkpt>
      <trkpt lat="50.01902" lon="5.44225">
        <ele>506</ele>
        <time>2015-03-28T12:04:28Z</time>
      </trkpt>
      <trkpt lat="50.01899" lon="5.44219">
        <ele>507</ele>
        <time>2015-03-28T12:04:34Z</time>
      </trkpt>
      <trkpt lat="50.01898" lon="5.44214">
        <ele>507</ele>
        <time>2015-03-28T12:04:40Z</time>
      </trkpt>
      <trkpt lat="50.01895" lon="5.44211">
        <ele>507</ele>
        <time>2015-03-28T12:04:45Z</time>
      </trkpt>
      <trkpt lat="50.01891" lon="5.44206">
        <ele>507</ele>
        <time>2015-03-28T12:04:50Z</time>
      </trkpt>
      <trkpt lat="50.01889" lon="5.44205">
        <ele>506</ele>
        <time>2015-03-28T12:04:56Z</time>
      </trkpt>
      <trkpt lat="50.01885" lon="5.44199">
        <ele>507</ele>
        <time>2015-03-28T12:05:01Z</time>
      </trkpt>
      <trkpt lat="50.01882" lon="5.44193">
        <ele>507</ele>
        <time>2015-03-28T12:05:07Z</time>
      </trkpt>
      <trkpt lat="50.0188" lon="5.44187">
        <ele>507</ele>
        <time>2015-03-28T12:05:13Z</time>
      </trkpt>
      <trkpt lat="50.01876" lon="5.44184">
        <ele>507</ele>
        <time>2015-03-28T12:05:18Z</time>
      </trkpt>
      <trkpt lat="50.01874" lon="5.44179">
        <ele>507</ele>
        <time>2015-03-28T12:05:24Z</time>
      </trkpt>
      <trkpt lat="50.01874" lon="5.44174">
        <ele>507</ele>
        <time>2015-03-28T12:05:30Z</time>
      </trkpt>
      <trkpt lat="50.01874" lon="5.4417">
        <ele>507</ele>
        <time>2015-03-28T12:05:36Z</time>
      </trkpt>
      <trkpt lat="50.01874" lon="5.44166">
        <ele>507</ele>
        <time>2015-03-28T12:05:41Z</time>
      </trkpt>
      <trkpt lat="50.01875" lon="5.44161">
        <ele>508</ele>
        <time>2015-03-28T12:05:46Z</time>
      </trkpt>
      <trkpt lat="50.01874" lon="5.44158">
        <ele>508</ele>
        <time>2015-03-28T12:05:51Z</time>
      </trkpt>
      <trkpt lat="50.01873" lon="5.44151">
        <ele>507</ele>
        <time>2015-03-28T12:05:57Z</time>
      </trkpt>
      <trkpt lat="50.01869" lon="5.44148">
        <ele>507</ele>
        <time>2015-03-28T12:06:02Z</time>
      </trkpt>
      <trkpt lat="50.01864" lon="5.44144">
        <ele>507</ele>
        <time>2015-03-28T12:06:08Z</time>
      </trkpt>
      <trkpt lat="50.01862" lon="5.44141">
        <ele>508</ele>
        <time>2015-03-28T12:06:14Z</time>
      </trkpt>
      <trkpt lat="50.01859" lon="5.44136">
        <ele>508</ele>
        <time>2015-03-28T12:06:19Z</time>
      </trkpt>
      <trkpt lat="50.01857" lon="5.4413">
        <ele>508</ele>
        <time>2015-03-28T12:06:26Z</time>
      </trkpt>
      <trkpt lat="50.01855" lon="5.44126">
        <ele>508</ele>
        <time>2015-03-28T12:06:31Z</time>
      </trkpt>
      <trkpt lat="50.01852" lon="5.44121">
        <ele>508</ele>
        <time>2015-03-28T12:06:36Z</time>
      </trkpt>
      <trkpt lat="50.01847" lon="5.44115">
        <ele>507</ele>
        <time>2015-03-28T12:06:42Z</time>
      </trkpt>
      <trkpt lat="50.01841" lon="5.44109">
        <ele>507</ele>
        <time>2015-03-28T12:06:47Z</time>
      </trkpt>
      <trkpt lat="50.01838" lon="5.44103">
        <ele>507</ele>
        <time>2015-03-28T12:06:52Z</time>
      </trkpt>
      <trkpt lat="50.01834" lon="5.44096">
        <ele>507</ele>
        <time>2015-03-28T12:06:57Z</time>
      </trkpt>
      <trkpt lat="50.01828" lon="5.44087">
        <ele>507</ele>
        <time>2015-03-28T12:07:03Z</time>
      </trkpt>
      <trkpt lat="50.01823" lon="5.4408">
        <ele>507</ele>
        <time>2015-03-28T12:07:09Z</time>
      </trkpt>
      <trkpt lat="50.01817" lon="5.44074">
        <ele>507</ele>
        <time>2015-03-28T12:07:14Z</time>
      </trkpt>
      <trkpt lat="50.0181" lon="5.44065">
        <ele>507</ele>
        <time>2015-03-28T12:07:20Z</time>
      </trkpt>
      <trkpt lat="50.01805" lon="5.44058">
        <ele>507</ele>
        <time>2015-03-28T12:07:25Z</time>
      </trkpt>
      <trkpt lat="50.01799" lon="5.44049">
        <ele>506</ele>
        <time>2015-03-28T12:07:31Z</time>
      </trkpt>
      <trkpt lat="50.01793" lon="5.44046">
        <ele>505</ele>
        <time>2015-03-28T12:07:37Z</time>
      </trkpt>
      <trkpt lat="50.0179" lon="5.44043">
        <ele>506</ele>
        <time>2015-03-28T12:07:42Z</time>
      </trkpt>
      <trkpt lat="50.01786" lon="5.44037">
        <ele>505</ele>
        <time>2015-03-28T12:07:49Z</time>
      </trkpt>
      <trkpt lat="50.0178" lon="5.44031">
        <ele>505</ele>
        <time>2015-03-28T12:07:54Z</time>
      </trkpt>
      <trkpt lat="50.01775" lon="5.44026">
        <ele>504</ele>
        <time>2015-03-28T12:07:59Z</time>
      </trkpt>
      <trkpt lat="50.01771" lon="5.44019">
        <ele>504</ele>
        <time>2015-03-28T12:08:04Z</time>
      </trkpt>
      <trkpt lat="50.01764" lon="5.44011">
        <ele>504</ele>
        <time>2015-03-28T12:08:10Z</time>
      </trkpt>
      <trkpt lat="50.01757" lon="5.44004">
        <ele>504</ele>
        <time>2015-03-28T12:08:16Z</time>
      </trkpt>
      <trkpt lat="50.01752" lon="5.43997">
        <ele>503</ele>
        <time>2015-03-28T12:08:22Z</time>
      </trkpt>
      <trkpt lat="50.01744" lon="5.4399">
        <ele>503</ele>
        <time>2015-03-28T12:08:27Z</time>
      </trkpt>
      <trkpt lat="50.01739" lon="5.43986">
        <ele>502</ele>
        <time>2015-03-28T12:08:32Z</time>
      </trkpt>
      <trkpt lat="50.01735" lon="5.4398">
        <ele>502</ele>
        <time>2015-03-28T12:08:37Z</time>
      </trkpt>
      <trkpt lat="50.01728" lon="5.43974">
        <ele>502</ele>
        <time>2015-03-28T12:08:43Z</time>
      </trkpt>
      <trkpt lat="50.01723" lon="5.43969">
        <ele>501</ele>
        <time>2015-03-28T12:08:49Z</time>
      </trkpt>
      <trkpt lat="50.01717" lon="5.43963">
        <ele>501</ele>
        <time>2015-03-28T12:08:54Z</time>
      </trkpt>
      <trkpt lat="50.01712" lon="5.43958">
        <ele>500</ele>
        <time>2015-03-28T12:09:00Z</time>
      </trkpt>
      <trkpt lat="50.01707" lon="5.43952">
        <ele>500</ele>
        <time>2015-03-28T12:09:05Z</time>
      </trkpt>
      <trkpt lat="50.01701" lon="5.43947">
        <ele>499</ele>
        <time>2015-03-28T12:09:11Z</time>
      </trkpt>
      <trkpt lat="50.01695" lon="5.43942">
        <ele>499</ele>
        <time>2015-03-28T12:09:17Z</time>
      </trkpt>
      <trkpt lat="50.0169" lon="5.43937">
        <ele>498</ele>
        <time>2015-03-28T12:09:22Z</time>
      </trkpt>
      <trkpt lat="50.01685" lon="5.43929">
        <ele>498</ele>
        <time>2015-03-28T12:09:28Z</time>
      </trkpt>
      <trkpt lat="50.0168" lon="5.43921">
        <ele>498</ele>
        <time>2015-03-28T12:09:33Z</time>
      </trkpt>
      <trkpt lat="50.01674" lon="5.43916">
        <ele>497</ele>
        <time>2015-03-28T12:09:38Z</time>
      </trkpt>
      <trkpt lat="50.01667" lon="5.4391">
        <ele>497</ele>
        <time>2015-03-28T12:09:44Z</time>
      </trkpt>
      <trkpt lat="50.01662" lon="5.43905">
        <ele>496</ele>
        <time>2015-03-28T12:09:50Z</time>
      </trkpt>
      <trkpt lat="50.01656" lon="5.43897">
        <ele>496</ele>
        <time>2015-03-28T12:09:55Z</time>
      </trkpt>
      <trkpt lat="50.01652" lon="5.43892">
        <ele>495</ele>
        <time>2015-03-28T12:10:00Z</time>
      </trkpt>
      <trkpt lat="50.01647" lon="5.43885">
        <ele>495</ele>
        <time>2015-03-28T12:10:05Z</time>
      </trkpt>
      <trkpt lat="50.01642" lon="5.43878">
        <ele>494</ele>
        <time>2015-03-28T12:10:11Z</time>
      </trkpt>
      <trkpt lat="50.01637" lon="5.43873">
        <ele>493</ele>
        <time>2015-03-28T12:10:16Z</time>
      </trkpt>
      <trkpt lat="50.01631" lon="5.43867">
        <ele>493</ele>
        <time>2015-03-28T12:10:22Z</time>
      </trkpt>
      <trkpt lat="50.01623" lon="5.43862">
        <ele>493</ele>
        <time>2015-03-28T12:10:28Z</time>
      </trkpt>
      <trkpt lat="50.01618" lon="5.43857">
        <ele>493</ele>
        <time>2015-03-28T12:10:33Z</time>
      </trkpt>
      <trkpt lat="50.01611" lon="5.43849">
        <ele>492</ele>
        <time>2015-03-28T12:10:39Z</time>
      </trkpt>
      <trkpt lat="50.01605" lon="5.43844">
        <ele>491</ele>
        <time>2015-03-28T12:10:45Z</time>
      </trkpt>
      <trkpt lat="50.016" lon="5.43837">
        <ele>491</ele>
        <time>2015-03-28T12:10:50Z</time>
      </trkpt>
      <trkpt lat="50.01594" lon="5.43829">
        <ele>490</ele>
        <time>2015-03-28T12:10:56Z</time>
      </trkpt>
      <trkpt lat="50.0159" lon="5.43823">
        <ele>490</ele>
        <time>2015-03-28T12:11:01Z</time>
      </trkpt>
      <trkpt lat="50.01586" lon="5.43816">
        <ele>489</ele>
        <time>2015-03-28T12:11:07Z</time>
      </trkpt>
      <trkpt lat="50.01581" lon="5.43808">
        <ele>488</ele>
        <time>2015-03-28T12:11:13Z</time>
      </trkpt>
      <trkpt lat="50.01576" lon="5.43799">
        <ele>488</ele>
        <time>2015-03-28T12:11:19Z</time>
      </trkpt>
      <trkpt lat="50.01572" lon="5.43792">
        <ele>488</ele>
        <time>2015-03-28T12:11:24Z</time>
      </trkpt>
      <trkpt lat="50.01568" lon="5.43786">
        <ele>487</ele>
        <time>2015-03-28T12:11:29Z</time>
      </trkpt>
      <trkpt lat="50.01564" lon="5.43778">
        <ele>486</ele>
        <time>2015-03-28T12:11:35Z</time>
      </trkpt>
      <trkpt lat="50.01561" lon="5.43771">
        <ele>486</ele>
        <time>2015-03-28T12:11:40Z</time>
      </trkpt>
      <trkpt lat="50.01558" lon="5.43766">
        <ele>485</ele>
        <time>2015-03-28T12:11:46Z</time>
      </trkpt>
      <trkpt lat="50.01554" lon="5.43758">
        <ele>485</ele>
        <time>2015-03-28T12:11:51Z</time>
      </trkpt>
      <trkpt lat="50.01553" lon="5.4375">
        <ele>484</ele>
        <time>2015-03-28T12:11:56Z</time>
      </trkpt>
      <trkpt lat="50.01551" lon="5.4374">
        <ele>483</ele>
        <time>2015-03-28T12:12:01Z</time>
      </trkpt>
      <trkpt lat="50.01549" lon="5.43732">
        <ele>483</ele>
        <time>2015-03-28T12:12:06Z</time>
      </trkpt>
      <trkpt lat="50.01546" lon="5.43721">
        <ele>483</ele>
        <time>2015-03-28T12:12:12Z</time>
      </trkpt>
      <trkpt lat="50.01543" lon="5.43712">
        <ele>482</ele>
        <time>2015-03-28T12:12:17Z</time>
      </trkpt>
      <trkpt lat="50.01541" lon="5.43705">
        <ele>482</ele>
        <time>2015-03-28T12:12:22Z</time>
      </trkpt>
      <trkpt lat="50.01537" lon="5.43699">
        <ele>481</ele>
        <time>2015-03-28T12:12:27Z</time>
      </trkpt>
      <trkpt lat="50.01533" lon="5.43692">
        <ele>481</ele>
        <time>2015-03-28T12:12:33Z</time>
      </trkpt>
      <trkpt lat="50.0153" lon="5.43684">
        <ele>481</ele>
        <time>2015-03-28T12:12:38Z</time>
      </trkpt>
      <trkpt lat="50.01526" lon="5.43676">
        <ele>480</ele>
        <time>2015-03-28T12:12:43Z</time>
      </trkpt>
      <trkpt lat="50.01524" lon="5.43667">
        <ele>480</ele>
        <time>2015-03-28T12:12:49Z</time>
      </trkpt>
      <trkpt lat="50.0152" lon="5.43656">
        <ele>479</ele>
        <time>2015-03-28T12:12:55Z</time>
      </trkpt>
      <trkpt lat="50.01516" lon="5.43646">
        <ele>478</ele>
        <time>2015-03-28T12:13:00Z</time>
      </trkpt>
      <trkpt lat="50.01511" lon="5.4364">
        <ele>478</ele>
        <time>2015-03-28T12:13:06Z</time>
      </trkpt>
      <trkpt lat="50.01506" lon="5.43634">
        <ele>478</ele>
        <time>2015-03-28T12:13:11Z</time>
      </trkpt>
      <trkpt lat="50.01501" lon="5.43628">
        <ele>477</ele>
        <time>2015-03-28T12:13:16Z</time>
      </trkpt>
      <trkpt lat="50.01496" lon="5.43619">
        <ele>477</ele>
        <time>2015-03-28T12:13:22Z</time>
      </trkpt>
      <trkpt lat="50.01491" lon="5.4361">
        <ele>476</ele>
        <time>2015-03-28T12:13:27Z</time>
      </trkpt>
      <trkpt lat="50.0149" lon="5.43604">
        <ele>476</ele>
        <time>2015-03-28T12:13:32Z</time>
      </trkpt>
      <trkpt lat="50.01488" lon="5.43596">
        <ele>475</ele>
        <time>2015-03-28T12:13:37Z</time>
      </trkpt>
      <trkpt lat="50.01485" lon="5.43588">
        <ele>475</ele>
        <time>2015-03-28T12:13:43Z</time>
      </trkpt>
      <trkpt lat="50.01482" lon="5.4358">
        <ele>474</ele>
        <time>2015-03-28T12:13:48Z</time>
      </trkpt>
      <trkpt lat="50.01479" lon="5.43572">
        <ele>474</ele>
        <time>2015-03-28T12:13:53Z</time>
      </trkpt>
      <trkpt lat="50.01475" lon="5.43565">
        <ele>473</ele>
        <time>2015-03-28T12:13:59Z</time>
      </trkpt>
      <trkpt lat="50.01469" lon="5.43556">
        <ele>473</ele>
        <time>2015-03-28T12:14:04Z</time>
      </trkpt>
      <trkpt lat="50.01466" lon="5.43548">
        <ele>472</ele>
        <time>2015-03-28T12:14:09Z</time>
      </trkpt>
      <trkpt lat="50.01461" lon="5.43541">
        <ele>472</ele>
        <time>2015-03-28T12:14:14Z</time>
      </trkpt>
      <trkpt lat="50.01455" lon="5.43531">
        <ele>472</ele>
        <time>2015-03-28T12:14:20Z</time>
      </trkpt>
      <trkpt lat="50.01448" lon="5.43521">
        <ele>472</ele>
        <time>2015-03-28T12:14:26Z</time>
      </trkpt>
      <trkpt lat="50.01443" lon="5.43512">
        <ele>472</ele>
        <time>2015-03-28T12:14:32Z</time>
      </trkpt>
      <trkpt lat="50.0144" lon="5.43506">
        <ele>472</ele>
        <time>2015-03-28T12:14:37Z</time>
      </trkpt>
      <trkpt lat="50.01434" lon="5.43498">
        <ele>471</ele>
        <time>2015-03-28T12:14:43Z</time>
      </trkpt>
      <trkpt lat="50.01428" lon="5.43486">
        <ele>471</ele>
        <time>2015-03-28T12:14:49Z</time>
      </trkpt>
      <trkpt lat="50.01423" lon="5.43476">
        <ele>471</ele>
        <time>2015-03-28T12:14:55Z</time>
      </trkpt>
      <trkpt lat="50.01419" lon="5.43467">
        <ele>470</ele>
        <time>2015-03-28T12:15:00Z</time>
      </trkpt>
      <trkpt lat="50.01414" lon="5.43458">
        <ele>471</ele>
        <time>2015-03-28T12:15:06Z</time>
      </trkpt>
      <trkpt lat="50.0141" lon="5.43453">
        <ele>471</ele>
        <time>2015-03-28T12:15:11Z</time>
      </trkpt>
      <trkpt lat="50.01405" lon="5.43445">
        <ele>470</ele>
        <time>2015-03-28T12:15:17Z</time>
      </trkpt>
      <trkpt lat="50.01404" lon="5.43436">
        <ele>470</ele>
        <time>2015-03-28T12:15:23Z</time>
      </trkpt>
      <trkpt lat="50.01401" lon="5.43424">
        <ele>469</ele>
        <time>2015-03-28T12:15:29Z</time>
      </trkpt>
      <trkpt lat="50.01398" lon="5.43417">
        <ele>469</ele>
        <time>2015-03-28T12:15:34Z</time>
      </trkpt>
      <trkpt lat="50.01395" lon="5.43408">
        <ele>469</ele>
        <time>2015-03-28T12:15:40Z</time>
      </trkpt>
      <trkpt lat="50.01392" lon="5.43398">
        <ele>469</ele>
        <time>2015-03-28T12:15:46Z</time>
      </trkpt>
      <trkpt lat="50.01389" lon="5.4339">
        <ele>468</ele>
        <time>2015-03-28T12:15:51Z</time>
      </trkpt>
      <trkpt lat="50.01386" lon="5.43379">
        <ele>468</ele>
        <time>2015-03-28T12:15:57Z</time>
      </trkpt>
      <trkpt lat="50.01382" lon="5.43367">
        <ele>468</ele>
        <time>2015-03-28T12:16:02Z</time>
      </trkpt>
      <trkpt lat="50.01379" lon="5.43356">
        <ele>468</ele>
        <time>2015-03-28T12:16:08Z</time>
      </trkpt>
      <trkpt lat="50.01375" lon="5.43347">
        <ele>468</ele>
        <time>2015-03-28T12:16:13Z</time>
      </trkpt>
      <trkpt lat="50.01372" lon="5.43335">
        <ele>468</ele>
        <time>2015-03-28T12:16:19Z</time>
      </trkpt>
      <trkpt lat="50.0137" lon="5.43325">
        <ele>468</ele>
        <time>2015-03-28T12:16:24Z</time>
      </trkpt>
      <trkpt lat="50.01368" lon="5.43313">
        <ele>468</ele>
        <time>2015-03-28T12:16:30Z</time>
      </trkpt>
      <trkpt lat="50.01366" lon="5.43303">
        <ele>468</ele>
        <time>2015-03-28T12:16:35Z</time>
      </trkpt>
      <trkpt lat="50.01363" lon="5.43293">
        <ele>468</ele>
        <time>2015-03-28T12:16:40Z</time>
      </trkpt>
      <trkpt lat="50.0136" lon="5.43284">
        <ele>468</ele>
        <time>2015-03-28T12:16:46Z</time>
      </trkpt>
      <trkpt lat="50.01358" lon="5.43276">
        <ele>468</ele>
        <time>2015-03-28T12:16:51Z</time>
      </trkpt>
      <trkpt lat="50.01355" lon="5.43268">
        <ele>468</ele>
        <time>2015-03-28T12:16:56Z</time>
      </trkpt>
      <trkpt lat="50.01352" lon="5.43256">
        <ele>468</ele>
        <time>2015-03-28T12:17:02Z</time>
      </trkpt>
      <trkpt lat="50.0135" lon="5.43249">
        <ele>469</ele>
        <time>2015-03-28T12:17:07Z</time>
      </trkpt>
      <trkpt lat="50.01348" lon="5.43238">
        <ele>469</ele>
        <time>2015-03-28T12:17:13Z</time>
      </trkpt>
      <trkpt lat="50.01346" lon="5.43228">
        <ele>469</ele>
        <time>2015-03-28T12:17:18Z</time>
      </trkpt>
      <trkpt lat="50.01344" lon="5.43216">
        <ele>469</ele>
        <time>2015-03-28T12:17:24Z</time>
      </trkpt>
      <trkpt lat="50.01342" lon="5.43208">
        <ele>469</ele>
        <time>2015-03-28T12:17:29Z</time>
      </trkpt>
      <trkpt lat="50.01339" lon="5.43199">
        <ele>469</ele>
        <time>2015-03-28T12:17:34Z</time>
      </trkpt>
      <trkpt lat="50.01336" lon="5.43188">
        <ele>469</ele>
        <time>2015-03-28T12:17:40Z</time>
      </trkpt>
      <trkpt lat="50.01334" lon="5.43179">
        <ele>469</ele>
        <time>2015-03-28T12:17:46Z</time>
      </trkpt>
      <trkpt lat="50.01331" lon="5.43169">
        <ele>470</ele>
        <time>2015-03-28T12:17:52Z</time>
      </trkpt>
      <trkpt lat="50.01328" lon="5.43159">
        <ele>469</ele>
        <time>2015-03-28T12:17:57Z</time>
      </trkpt>
      <trkpt lat="50.01327" lon="5.43152">
        <ele>469</ele>
        <time>2015-03-28T12:18:02Z</time>
      </trkpt>
      <trkpt lat="50.01324" lon="5.43141">
        <ele>469</ele>
        <time>2015-03-28T12:18:08Z</time>
      </trkpt>
      <trkpt lat="50.01322" lon="5.43133">
        <ele>469</ele>
        <time>2015-03-28T12:18:13Z</time>
      </trkpt>
      <trkpt lat="50.01319" lon="5.43126">
        <ele>469</ele>
        <time>2015-03-28T12:18:19Z</time>
      </trkpt>
      <trkpt lat="50.01315" lon="5.43117">
        <ele>470</ele>
        <time>2015-03-28T12:18:25Z</time>
      </trkpt>
      <trkpt lat="50.01312" lon="5.43107">
        <ele>470</ele>
        <time>2015-03-28T12:18:31Z</time>
      </trkpt>
      <trkpt lat="50.01311" lon="5.43099">
        <ele>470</ele>
        <time>2015-03-28T12:18:36Z</time>
      </trkpt>
      <trkpt lat="50.01309" lon="5.43089">
        <ele>470</ele>
        <time>2015-03-28T12:18:42Z</time>
      </trkpt>
      <trkpt lat="50.01307" lon="5.4308">
        <ele>470</ele>
        <time>2015-03-28T12:18:47Z</time>
      </trkpt>
      <trkpt lat="50.01305" lon="5.43069">
        <ele>470</ele>
        <time>2015-03-28T12:18:53Z</time>
      </trkpt>
      <trkpt lat="50.01303" lon="5.4306">
        <ele>470</ele>
        <time>2015-03-28T12:18:58Z</time>
      </trkpt>
      <trkpt lat="50.013" lon="5.43049">
        <ele>470</ele>
        <time>2015-03-28T12:19:04Z</time>
      </trkpt>
      <trkpt lat="50.013" lon="5.43046">
        <ele>470</ele>
        <time>2015-03-28T12:19:10Z</time>
      </trkpt>
      <trkpt lat="50.01297" lon="5.43039">
        <ele>471</ele>
        <time>2015-03-28T12:19:15Z</time>
      </trkpt>
      <trkpt lat="50.01295" lon="5.43032">
        <ele>471</ele>
        <time>2015-03-28T12:19:20Z</time>
      </trkpt>
      <trkpt lat="50.01293" lon="5.43021">
        <ele>471</ele>
        <time>2015-03-28T12:19:26Z</time>
      </trkpt>
      <trkpt lat="50.01291" lon="5.43014">
        <ele>471</ele>
        <time>2015-03-28T12:19:31Z</time>
      </trkpt>
      <trkpt lat="50.01289" lon="5.43007">
        <ele>471</ele>
        <time>2015-03-28T12:19:36Z</time>
      </trkpt>
      <trkpt lat="50.01287" lon="5.42997">
        <ele>471</ele>
        <time>2015-03-28T12:19:42Z</time>
      </trkpt>
      <trkpt lat="50.01285" lon="5.42989">
        <ele>471</ele>
        <time>2015-03-28T12:19:48Z</time>
      </trkpt>
      <trkpt lat="50.01284" lon="5.42979">
        <ele>471</ele>
        <time>2015-03-28T12:19:54Z</time>
      </trkpt>
      <trkpt lat="50.01282" lon="5.4297">
        <ele>470</ele>
        <time>2015-03-28T12:20:00Z</time>
      </trkpt>
      <trkpt lat="50.01279" lon="5.42961">
        <ele>470</ele>
        <time>2015-03-28T12:20:05Z</time>
      </trkpt>
      <trkpt lat="50.01276" lon="5.42953">
        <ele>470</ele>
        <time>2015-03-28T12:20:11Z</time>
      </trkpt>
      <trkpt lat="50.01272" lon="5.42943">
        <ele>470</ele>
        <time>2015-03-28T12:20:17Z</time>
      </trkpt>
      <trkpt lat="50.01271" lon="5.42935">
        <ele>470</ele>
        <time>2015-03-28T12:20:23Z</time>
      </trkpt>
      <trkpt lat="50.01267" lon="5.42925">
        <ele>469</ele>
        <time>2015-03-28T12:20:29Z</time>
      </trkpt>
      <trkpt lat="50.01264" lon="5.42914">
        <ele>469</ele>
        <time>2015-03-28T12:20:35Z</time>
      </trkpt>
      <trkpt lat="50.01261" lon="5.42902">
        <ele>469</ele>
        <time>2015-03-28T12:20:41Z</time>
      </trkpt>
      <trkpt lat="50.01259" lon="5.42894">
        <ele>469</ele>
        <time>2015-03-28T12:20:47Z</time>
      </trkpt>
      <trkpt lat="50.01256" lon="5.42887">
        <ele>469</ele>
        <time>2015-03-28T12:20:52Z</time>
      </trkpt>
      <trkpt lat="50.01252" lon="5.42879">
        <ele>469</ele>
        <time>2015-03-28T12:20:58Z</time>
      </trkpt>
      <trkpt lat="50.01248" lon="5.42868">
        <ele>469</ele>
        <time>2015-03-28T12:21:04Z</time>
      </trkpt>
      <trkpt lat="50.01246" lon="5.42859">
        <ele>469</ele>
        <time>2015-03-28T12:21:09Z</time>
      </trkpt>
      <trkpt lat="50.01243" lon="5.42848">
        <ele>468</ele>
        <time>2015-03-28T12:21:15Z</time>
      </trkpt>
      <trkpt lat="50.01241" lon="5.42838">
        <ele>468</ele>
        <time>2015-03-28T12:21:21Z</time>
      </trkpt>
      <trkpt lat="50.01239" lon="5.42827">
        <ele>468</ele>
        <time>2015-03-28T12:21:26Z</time>
      </trkpt>
      <trkpt lat="50.01237" lon="5.42819">
        <ele>468</ele>
        <time>2015-03-28T12:21:31Z</time>
      </trkpt>
      <trkpt lat="50.01237" lon="5.4281">
        <ele>468</ele>
        <time>2015-03-28T12:21:36Z</time>
      </trkpt>
      <trkpt lat="50.01237" lon="5.42804">
        <ele>468</ele>
        <time>2015-03-28T12:21:42Z</time>
      </trkpt>
      <trkpt lat="50.01236" lon="5.42793">
        <ele>467</ele>
        <time>2015-03-28T12:21:47Z</time>
      </trkpt>
      <trkpt lat="50.01234" lon="5.42781">
        <ele>467</ele>
        <time>2015-03-28T12:21:52Z</time>
      </trkpt>
      <trkpt lat="50.01233" lon="5.42769">
        <ele>466</ele>
        <time>2015-03-28T12:21:57Z</time>
      </trkpt>
      <trkpt lat="50.01228" lon="5.42757">
        <ele>467</ele>
        <time>2015-03-28T12:22:03Z</time>
      </trkpt>
      <trkpt lat="50.01225" lon="5.4275">
        <ele>467</ele>
        <time>2015-03-28T12:22:08Z</time>
      </trkpt>
      <trkpt lat="50.01222" lon="5.42741">
        <ele>467</ele>
        <time>2015-03-28T12:22:13Z</time>
      </trkpt>
      <trkpt lat="50.0122" lon="5.42731">
        <ele>467</ele>
        <time>2015-03-28T12:22:19Z</time>
      </trkpt>
      <trkpt lat="50.01217" lon="5.42721">
        <ele>467</ele>
        <time>2015-03-28T12:22:25Z</time>
      </trkpt>
      <trkpt lat="50.01215" lon="5.42709">
        <ele>466</ele>
        <time>2015-03-28T12:22:31Z</time>
      </trkpt>
      <trkpt lat="50.01212" lon="5.427">
        <ele>466</ele>
        <time>2015-03-28T12:22:36Z</time>
      </trkpt>
      <trkpt lat="50.0121" lon="5.42692">
        <ele>466</ele>
        <time>2015-03-28T12:22:42Z</time>
      </trkpt>
      <trkpt lat="50.01206" lon="5.42688">
        <ele>465</ele>
        <time>2015-03-28T12:22:48Z</time>
      </trkpt>
      <trkpt lat="50.01204" lon="5.42678">
        <ele>466</ele>
        <time>2015-03-28T12:22:53Z</time>
      </trkpt>
      <trkpt lat="50.01203" lon="5.42669">
        <ele>466</ele>
        <time>2015-03-28T12:22:58Z</time>
      </trkpt>
      <trkpt lat="50.01201" lon="5.42657">
        <ele>465</ele>
        <time>2015-03-28T12:23:04Z</time>
      </trkpt>
      <trkpt lat="50.012" lon="5.42647">
        <ele>465</ele>
        <time>2015-03-28T12:23:09Z</time>
      </trkpt>
      <trkpt lat="50.01199" lon="5.42634">
        <ele>465</ele>
        <time>2015-03-28T12:23:15Z</time>
      </trkpt>
      <trkpt lat="50.01199" lon="5.42621">
        <ele>465</ele>
        <time>2015-03-28T12:23:21Z</time>
      </trkpt>
      <trkpt lat="50.01197" lon="5.42613">
        <ele>465</ele>
        <time>2015-03-28T12:23:27Z</time>
      </trkpt>
      <trkpt lat="50.01195" lon="5.42606">
        <ele>465</ele>
        <time>2015-03-28T12:23:32Z</time>
      </trkpt>
      <trkpt lat="50.01193" lon="5.42597">
        <ele>465</ele>
        <time>2015-03-28T12:23:38Z</time>
      </trkpt>
      <trkpt lat="50.01191" lon="5.42589">
        <ele>465</ele>
        <time>2015-03-28T12:23:44Z</time>
      </trkpt>
      <trkpt lat="50.01189" lon="5.4258">
        <ele>465</ele>
        <time>2015-03-28T12:23:49Z</time>
      </trkpt>
      <trkpt lat="50.01186" lon="5.4257">
        <ele>465</ele>
        <time>2015-03-28T12:23:55Z</time>
      </trkpt>
      <trkpt lat="50.01182" lon="5.42565">
        <ele>465</ele>
        <time>2015-03-28T12:24:01Z</time>
      </trkpt>
      <trkpt lat="50.0118" lon="5.42556">
        <ele>464</ele>
        <time>2015-03-28T12:24:07Z</time>
      </trkpt>
      <trkpt lat="50.01178" lon="5.42544">
        <ele>464</ele>
        <time>2015-03-28T12:24:12Z</time>
      </trkpt>
      <trkpt lat="50.01177" lon="5.42534">
        <ele>464</ele>
        <time>2015-03-28T12:24:18Z</time>
      </trkpt>
      <trkpt lat="50.01176" lon="5.42533">
        <ele>464</ele>
        <time>2015-03-28T12:24:23Z</time>
      </trkpt>
      <trkpt lat="50.01176" lon="5.42533">
        <ele>465</ele>
        <time>2015-03-28T12:24:29Z</time>
      </trkpt>
      <trkpt lat="50.01176" lon="5.4253">
        <ele>465</ele>
        <time>2015-03-28T12:24:34Z</time>
      </trkpt>
      <trkpt lat="50.01176" lon="5.42526">
        <ele>464</ele>
        <time>2015-03-28T12:24:39Z</time>
      </trkpt>
      <trkpt lat="50.01178" lon="5.42517">
        <ele>464</ele>
        <time>2015-03-28T12:24:45Z</time>
      </trkpt>
      <trkpt lat="50.01177" lon="5.42517">
        <ele>464</ele>
        <time>2015-03-28T12:24:50Z</time>
      </trkpt>
      <trkpt lat="50.01179" lon="5.42506">
        <ele>464</ele>
        <time>2015-03-28T12:24:56Z</time>
      </trkpt>
      <trkpt lat="50.0118" lon="5.42498">
        <ele>464</ele>
        <time>2015-03-28T12:25:02Z</time>
      </trkpt>
      <trkpt lat="50.0118" lon="5.42488">
        <ele>464</ele>
        <time>2015-03-28T12:25:07Z</time>
      </trkpt>
      <trkpt lat="50.0118" lon="5.42481">
        <ele>463</ele>
        <time>2015-03-28T12:25:12Z</time>
      </trkpt>
      <trkpt lat="50.0118" lon="5.42472">
        <ele>463</ele>
        <time>2015-03-28T12:25:18Z</time>
      </trkpt>
      <trkpt lat="50.0118" lon="5.42464">
        <ele>463</ele>
        <time>2015-03-28T12:25:24Z</time>
      </trkpt>
      <trkpt lat="50.01181" lon="5.42454">
        <ele>463</ele>
        <time>2015-03-28T12:25:29Z</time>
      </trkpt>
      <trkpt lat="50.0118" lon="5.42442">
        <ele>463</ele>
        <time>2015-03-28T12:25:35Z</time>
      </trkpt>
      <trkpt lat="50.0118" lon="5.42432">
        <ele>462</ele>
        <time>2015-03-28T12:25:41Z</time>
      </trkpt>
      <trkpt lat="50.01181" lon="5.42425">
        <ele>462</ele>
        <time>2015-03-28T12:25:46Z</time>
      </trkpt>
      <trkpt lat="50.01182" lon="5.42416">
        <ele>462</ele>
        <time>2015-03-28T12:25:52Z</time>
      </trkpt>
      <trkpt lat="50.01183" lon="5.42408">
        <ele>462</ele>
        <time>2015-03-28T12:25:57Z</time>
      </trkpt>
      <trkpt lat="50.01185" lon="5.424">
        <ele>462</ele>
        <time>2015-03-28T12:26:03Z</time>
      </trkpt>
      <trkpt lat="50.01186" lon="5.42389">
        <ele>462</ele>
        <time>2015-03-28T12:26:09Z</time>
      </trkpt>
      <trkpt lat="50.01188" lon="5.4238">
        <ele>462</ele>
        <time>2015-03-28T12:26:14Z</time>
      </trkpt>
      <trkpt lat="50.01191" lon="5.4237">
        <ele>462</ele>
        <time>2015-03-28T12:26:20Z</time>
      </trkpt>
      <trkpt lat="50.0119" lon="5.42368">
        <ele>461</ele>
        <time>2015-03-28T12:26:26Z</time>
      </trkpt>
      <trkpt lat="50.0119" lon="5.4236">
        <ele>461</ele>
        <time>2015-03-28T12:26:32Z</time>
      </trkpt>
      <trkpt lat="50.01191" lon="5.42349">
        <ele>461</ele>
        <time>2015-03-28T12:26:38Z</time>
      </trkpt>
      <trkpt lat="50.01192" lon="5.42338">
        <ele>461</ele>
        <time>2015-03-28T12:26:44Z</time>
      </trkpt>
      <trkpt lat="50.01192" lon="5.42326">
        <ele>461</ele>
        <time>2015-03-28T12:26:50Z</time>
      </trkpt>
      <trkpt lat="50.01192" lon="5.42317">
        <ele>461</ele>
        <time>2015-03-28T12:26:55Z</time>
      </trkpt>
      <trkpt lat="50.01192" lon="5.4231">
        <ele>461</ele>
        <time>2015-03-28T12:27:01Z</time>
      </trkpt>
      <trkpt lat="50.01192" lon="5.42301">
        <ele>462</ele>
        <time>2015-03-28T12:27:07Z</time>
      </trkpt>
      <trkpt lat="50.01191" lon="5.42292">
        <ele>462</ele>
        <time>2015-03-28T12:27:13Z</time>
      </trkpt>
      <trkpt lat="50.01192" lon="5.42283">
        <ele>461</ele>
        <time>2015-03-28T12:27:18Z</time>
      </trkpt>
      <trkpt lat="50.01192" lon="5.42275">
        <ele>462</ele>
        <time>2015-03-28T12:27:24Z</time>
      </trkpt>
      <trkpt lat="50.01191" lon="5.42267">
        <ele>461</ele>
        <time>2015-03-28T12:27:29Z</time>
      </trkpt>
      <trkpt lat="50.01191" lon="5.42259">
        <ele>462</ele>
        <time>2015-03-28T12:27:34Z</time>
      </trkpt>
      <trkpt lat="50.01192" lon="5.42249">
        <ele>462</ele>
        <time>2015-03-28T12:27:40Z</time>
      </trkpt>
      <trkpt lat="50.01194" lon="5.42242">
        <ele>462</ele>
        <time>2015-03-28T12:27:45Z</time>
      </trkpt>
      <trkpt lat="50.01194" lon="5.42234">
        <ele>462</ele>
        <time>2015-03-28T12:27:50Z</time>
      </trkpt>
      <trkpt lat="50.01193" lon="5.42224">
        <ele>462</ele>
        <time>2015-03-28T12:27:56Z</time>
      </trkpt>
      <trkpt lat="50.01192" lon="5.42215">
        <ele>462</ele>
        <time>2015-03-28T12:28:01Z</time>
      </trkpt>
      <trkpt lat="50.01192" lon="5.42209">
        <ele>463</ele>
        <time>2015-03-28T12:28:06Z</time>
      </trkpt>
      <trkpt lat="50.01192" lon="5.422">
        <ele>463</ele>
        <time>2015-03-28T12:28:12Z</time>
      </trkpt>
      <trkpt lat="50.01193" lon="5.42193">
        <ele>463</ele>
        <time>2015-03-28T12:28:17Z</time>
      </trkpt>
      <trkpt lat="50.01193" lon="5.42184">
        <ele>464</ele>
        <time>2015-03-28T12:28:23Z</time>
      </trkpt>
      <trkpt lat="50.01193" lon="5.42176">
        <ele>465</ele>
        <time>2015-03-28T12:28:28Z</time>
      </trkpt>
      <trkpt lat="50.01193" lon="5.42168">
        <ele>465</ele>
        <time>2015-03-28T12:28:33Z</time>
      </trkpt>
      <trkpt lat="50.01194" lon="5.42156">
        <ele>464</ele>
        <time>2015-03-28T12:28:39Z</time>
      </trkpt>
      <trkpt lat="50.01193" lon="5.42144">
        <ele>465</ele>
        <time>2015-03-28T12:28:45Z</time>
      </trkpt>
      <trkpt lat="50.01194" lon="5.42134">
        <ele>465</ele>
        <time>2015-03-28T12:28:50Z</time>
      </trkpt>
      <trkpt lat="50.01196" lon="5.42125">
        <ele>465</ele>
        <time>2015-03-28T12:28:55Z</time>
      </trkpt>
      <trkpt lat="50.01197" lon="5.42118">
        <ele>465</ele>
        <time>2015-03-28T12:29:01Z</time>
      </trkpt>
      <trkpt lat="50.012" lon="5.42114">
        <ele>466</ele>
        <time>2015-03-28T12:29:07Z</time>
      </trkpt>
      <trkpt lat="50.01201" lon="5.42109">
        <ele>466</ele>
        <time>2015-03-28T12:29:12Z</time>
      </trkpt>
      <trkpt lat="50.012" lon="5.42102">
        <ele>466</ele>
        <time>2015-03-28T12:29:18Z</time>
      </trkpt>
      <trkpt lat="50.012" lon="5.42096">
        <ele>466</ele>
        <time>2015-03-28T12:29:23Z</time>
      </trkpt>
      <trkpt lat="50.01201" lon="5.42089">
        <ele>467</ele>
        <time>2015-03-28T12:29:29Z</time>
      </trkpt>
      <trkpt lat="50.01202" lon="5.42084">
        <ele>467</ele>
        <time>2015-03-28T12:29:34Z</time>
      </trkpt>
      <trkpt lat="50.01203" lon="5.42077">
        <ele>466</ele>
        <time>2015-03-28T12:29:40Z</time>
      </trkpt>
      <trkpt lat="50.01204" lon="5.42071">
        <ele>466</ele>
        <time>2015-03-28T12:29:45Z</time>
      </trkpt>
      <trkpt lat="50.01202" lon="5.42062">
        <ele>466</ele>
        <time>2015-03-28T12:29:51Z</time>
      </trkpt>
      <trkpt lat="50.01201" lon="5.42053">
        <ele>467</ele>
        <time>2015-03-28T12:29:57Z</time>
      </trkpt>
      <trkpt lat="50.012" lon="5.42042">
        <ele>467</ele>
        <time>2015-03-28T12:30:03Z</time>
      </trkpt>
      <trkpt lat="50.01199" lon="5.42033">
        <ele>467</ele>
        <time>2015-03-28T12:30:09Z</time>
      </trkpt>
      <trkpt lat="50.01199" lon="5.42026">
        <ele>468</ele>
        <time>2015-03-28T12:30:14Z</time>
      </trkpt>
      <trkpt lat="50.01199" lon="5.42019">
        <ele>468</ele>
        <time>2015-03-28T12:30:19Z</time>
      </trkpt>
      <trkpt lat="50.01199" lon="5.42009">
        <ele>468</ele>
        <time>2015-03-28T12:30:25Z</time>
      </trkpt>
      <trkpt lat="50.012" lon="5.42001">
        <ele>468</ele>
        <time>2015-03-28T12:30:30Z</time>
      </trkpt>
      <trkpt lat="50.01201" lon="5.41993">
        <ele>469</ele>
        <time>2015-03-28T12:30:35Z</time>
      </trkpt>
      <trkpt lat="50.01201" lon="5.41984">
        <ele>469</ele>
        <time>2015-03-28T12:30:41Z</time>
      </trkpt>
      <trkpt lat="50.012" lon="5.41975">
        <ele>469</ele>
        <time>2015-03-28T12:30:46Z</time>
      </trkpt>
      <trkpt lat="50.012" lon="5.41965">
        <ele>470</ele>
        <time>2015-03-28T12:30:51Z</time>
      </trkpt>
      <trkpt lat="50.01199" lon="5.41953">
        <ele>470</ele>
        <time>2015-03-28T12:30:57Z</time>
      </trkpt>
      <trkpt lat="50.01198" lon="5.41942">
        <ele>470</ele>
        <time>2015-03-28T12:31:02Z</time>
      </trkpt>
      <trkpt lat="50.01197" lon="5.41932">
        <ele>470</ele>
        <time>2015-03-28T12:31:07Z</time>
      </trkpt>
      <trkpt lat="50.01197" lon="5.41921">
        <ele>470</ele>
        <time>2015-03-28T12:31:13Z</time>
      </trkpt>
      <trkpt lat="50.01197" lon="5.41911">
        <ele>470</ele>
        <time>2015-03-28T12:31:19Z</time>
      </trkpt>
      <trkpt lat="50.01196" lon="5.41901">
        <ele>470</ele>
        <time>2015-03-28T12:31:24Z</time>
      </trkpt>
      <trkpt lat="50.01194" lon="5.41889">
        <ele>470</ele>
        <time>2015-03-28T12:31:30Z</time>
      </trkpt>
      <trkpt lat="50.01194" lon="5.41877">
        <ele>470</ele>
        <time>2015-03-28T12:31:36Z</time>
      </trkpt>
      <trkpt lat="50.01192" lon="5.41866">
        <ele>470</ele>
        <time>2015-03-28T12:31:41Z</time>
      </trkpt>
      <trkpt lat="50.0119" lon="5.41854">
        <ele>470</ele>
        <time>2015-03-28T12:31:47Z</time>
      </trkpt>
      <trkpt lat="50.01189" lon="5.41846">
        <ele>470</ele>
        <time>2015-03-28T12:31:52Z</time>
      </trkpt>
      <trkpt lat="50.0119" lon="5.41838">
        <ele>470</ele>
        <time>2015-03-28T12:31:57Z</time>
      </trkpt>
      <trkpt lat="50.01191" lon="5.41827">
        <ele>470</ele>
        <time>2015-03-28T12:32:03Z</time>
      </trkpt>
      <trkpt lat="50.01192" lon="5.4182">
        <ele>470</ele>
        <time>2015-03-28T12:32:09Z</time>
      </trkpt>
      <trkpt lat="50.01194" lon="5.41812">
        <ele>469</ele>
        <time>2015-03-28T12:32:14Z</time>
      </trkpt>
      <trkpt lat="50.01196" lon="5.41804">
        <ele>468</ele>
        <time>2015-03-28T12:32:20Z</time>
      </trkpt>
      <trkpt lat="50.01198" lon="5.41793">
        <ele>468</ele>
        <time>2015-03-28T12:32:26Z</time>
      </trkpt>
      <trkpt lat="50.01199" lon="5.41785">
        <ele>468</ele>
        <time>2015-03-28T12:32:31Z</time>
      </trkpt>
      <trkpt lat="50.01199" lon="5.41775">
        <ele>468</ele>
        <time>2015-03-28T12:32:37Z</time>
      </trkpt>
      <trkpt lat="50.01199" lon="5.41765">
        <ele>468</ele>
        <time>2015-03-28T12:32:43Z</time>
      </trkpt>
      <trkpt lat="50.01199" lon="5.41757">
        <ele>468</ele>
        <time>2015-03-28T12:32:48Z</time>
      </trkpt>
      <trkpt lat="50.01198" lon="5.4175">
        <ele>468</ele>
        <time>2015-03-28T12:32:54Z</time>
      </trkpt>
      <trkpt lat="50.01197" lon="5.41743">
        <ele>468</ele>
        <time>2015-03-28T12:32:59Z</time>
      </trkpt>
      <trkpt lat="50.01196" lon="5.41738">
        <ele>468</ele>
        <time>2015-03-28T12:33:04Z</time>
      </trkpt>
      <trkpt lat="50.01194" lon="5.4173">
        <ele>468</ele>
        <time>2015-03-28T12:33:09Z</time>
      </trkpt>
      <trkpt lat="50.01193" lon="5.41721">
        <ele>468</ele>
        <time>2015-03-28T12:33:15Z</time>
      </trkpt>
      <trkpt lat="50.01191" lon="5.41713">
        <ele>468</ele>
        <time>2015-03-28T12:33:20Z</time>
      </trkpt>
      <trkpt lat="50.01188" lon="5.41702">
        <ele>468</ele>
        <time>2015-03-28T12:33:26Z</time>
      </trkpt>
      <trkpt lat="50.01185" lon="5.41693">
        <ele>468</ele>
        <time>2015-03-28T12:33:31Z</time>
      </trkpt>
      <trkpt lat="50.01182" lon="5.41681">
        <ele>468</ele>
        <time>2015-03-28T12:33:37Z</time>
      </trkpt>
      <trkpt lat="50.01178" lon="5.41673">
        <ele>467</ele>
        <time>2015-03-28T12:33:43Z</time>
      </trkpt>
      <trkpt lat="50.01177" lon="5.41663">
        <ele>467</ele>
        <time>2015-03-28T12:33:48Z</time>
      </trkpt>
      <trkpt lat="50.01175" lon="5.41656">
        <ele>468</ele>
        <time>2015-03-28T12:33:53Z</time>
      </trkpt>
      <trkpt lat="50.01178" lon="5.41648">
        <ele>467</ele>
        <time>2015-03-28T12:33:59Z</time>
      </trkpt>
      <trkpt lat="50.01181" lon="5.41644">
        <ele>467</ele>
        <time>2015-03-28T12:34:05Z</time>
      </trkpt>
      <trkpt lat="50.01184" lon="5.41641">
        <ele>466</ele>
        <time>2015-03-28T12:34:10Z</time>
      </trkpt>
      <trkpt lat="50.01187" lon="5.41635">
        <ele>466</ele>
        <time>2015-03-28T12:34:15Z</time>
      </trkpt>
      <trkpt lat="50.01192" lon="5.41631">
        <ele>465</ele>
        <time>2015-03-28T12:34:21Z</time>
      </trkpt>
      <trkpt lat="50.01195" lon="5.41627">
        <ele>465</ele>
        <time>2015-03-28T12:34:26Z</time>
      </trkpt>
      <trkpt lat="50.012" lon="5.41623">
        <ele>465</ele>
        <time>2015-03-28T12:34:31Z</time>
      </trkpt>
      <trkpt lat="50.01205" lon="5.41622">
        <ele>464</ele>
        <time>2015-03-28T12:34:36Z</time>
      </trkpt>
      <trkpt lat="50.01208" lon="5.41619">
        <ele>464</ele>
        <time>2015-03-28T12:34:41Z</time>
      </trkpt>
      <trkpt lat="50.01214" lon="5.41617">
        <ele>463</ele>
        <time>2015-03-28T12:34:47Z</time>
      </trkpt>
      <trkpt lat="50.0122" lon="5.41614">
        <ele>463</ele>
        <time>2015-03-28T12:34:52Z</time>
      </trkpt>
      <trkpt lat="50.01228" lon="5.41609">
        <ele>463</ele>
        <time>2015-03-28T12:34:58Z</time>
      </trkpt>
      <trkpt lat="50.01235" lon="5.41605">
        <ele>462</ele>
        <time>2015-03-28T12:35:04Z</time>
      </trkpt>
      <trkpt lat="50.01242" lon="5.416">
        <ele>461</ele>
        <time>2015-03-28T12:35:10Z</time>
      </trkpt>
      <trkpt lat="50.01249" lon="5.41597">
        <ele>461</ele>
        <time>2015-03-28T12:35:16Z</time>
      </trkpt>
      <trkpt lat="50.01256" lon="5.41594">
        <ele>461</ele>
        <time>2015-03-28T12:35:21Z</time>
      </trkpt>
      <trkpt lat="50.01262" lon="5.41593">
        <ele>460</ele>
        <time>2015-03-28T12:35:26Z</time>
      </trkpt>
      <trkpt lat="50.01269" lon="5.4159">
        <ele>460</ele>
        <time>2015-03-28T12:35:32Z</time>
      </trkpt>
      <trkpt lat="50.01275" lon="5.41588">
        <ele>459</ele>
        <time>2015-03-28T12:35:37Z</time>
      </trkpt>
      <trkpt lat="50.0128" lon="5.41585">
        <ele>459</ele>
        <time>2015-03-28T12:35:42Z</time>
      </trkpt>
      <trkpt lat="50.01285" lon="5.41582">
        <ele>459</ele>
        <time>2015-03-28T12:35:48Z</time>
      </trkpt>
      <trkpt lat="50.0129" lon="5.41579">
        <ele>458</ele>
        <time>2015-03-28T12:35:53Z</time>
      </trkpt>
      <trkpt lat="50.01293" lon="5.41576">
        <ele>458</ele>
        <time>2015-03-28T12:35:58Z</time>
      </trkpt>
      <trkpt lat="50.01296" lon="5.41573">
        <ele>458</ele>
        <time>2015-03-28T12:36:03Z</time>
      </trkpt>
      <trkpt lat="50.01302" lon="5.41571">
        <ele>457</ele>
        <time>2015-03-28T12:36:09Z</time>
      </trkpt>
      <trkpt lat="50.01306" lon="5.41569">
        <ele>457</ele>
        <time>2015-03-28T12:36:15Z</time>
      </trkpt>
      <trkpt lat="50.01311" lon="5.41568">
        <ele>457</ele>
        <time>2015-03-28T12:36:20Z</time>
      </trkpt>
      <trkpt lat="50.01317" lon="5.41564">
        <ele>456</ele>
        <time>2015-03-28T12:36:26Z</time>
      </trkpt>
      <trkpt lat="50.01321" lon="5.41562">
        <ele>455</ele>
        <time>2015-03-28T12:36:31Z</time>
      </trkpt>
      <trkpt lat="50.01326" lon="5.41558">
        <ele>455</ele>
        <time>2015-03-28T12:36:37Z</time>
      </trkpt>
      <trkpt lat="50.01329" lon="5.41557">
        <ele>455</ele>
        <time>2015-03-28T12:36:43Z</time>
      </trkpt>
      <trkpt lat="50.01334" lon="5.41553">
        <ele>455</ele>
        <time>2015-03-28T12:36:49Z</time>
      </trkpt>
      <trkpt lat="50.01336" lon="5.41544">
        <ele>455</ele>
        <time>2015-03-28T12:36:55Z</time>
      </trkpt>
      <trkpt lat="50.01337" lon="5.41541">
        <ele>455</ele>
        <time>2015-03-28T12:37:00Z</time>
      </trkpt>
      <trkpt lat="50.01335" lon="5.41532">
        <ele>454</ele>
        <time>2015-03-28T12:37:06Z</time>
      </trkpt>
      <trkpt lat="50.01331" lon="5.41521">
        <ele>454</ele>
        <time>2015-03-28T12:37:12Z</time>
      </trkpt>
      <trkpt lat="50.01329" lon="5.41511">
        <ele>454</ele>
        <time>2015-03-28T12:37:17Z</time>
      </trkpt>
      <trkpt lat="50.01326" lon="5.41503">
        <ele>454</ele>
        <time>2015-03-28T12:37:22Z</time>
      </trkpt>
      <trkpt lat="50.01323" lon="5.41492">
        <ele>454</ele>
        <time>2015-03-28T12:37:28Z</time>
      </trkpt>
      <trkpt lat="50.01321" lon="5.41484">
        <ele>455</ele>
        <time>2015-03-28T12:37:33Z</time>
      </trkpt>
      <trkpt lat="50.01318" lon="5.41475">
        <ele>455</ele>
        <time>2015-03-28T12:37:38Z</time>
      </trkpt>
      <trkpt lat="50.01316" lon="5.41465">
        <ele>455</ele>
        <time>2015-03-28T12:37:44Z</time>
      </trkpt>
      <trkpt lat="50.01313" lon="5.41455">
        <ele>454</ele>
        <time>2015-03-28T12:37:50Z</time>
      </trkpt>
      <trkpt lat="50.01309" lon="5.41446">
        <ele>454</ele>
        <time>2015-03-28T12:37:56Z</time>
      </trkpt>
      <trkpt lat="50.01305" lon="5.41438">
        <ele>454</ele>
        <time>2015-03-28T12:38:02Z</time>
      </trkpt>
      <trkpt lat="50.01302" lon="5.4143">
        <ele>454</ele>
        <time>2015-03-28T12:38:08Z</time>
      </trkpt>
      <trkpt lat="50.01297" lon="5.41421">
        <ele>454</ele>
        <time>2015-03-28T12:38:14Z</time>
      </trkpt>
      <trkpt lat="50.01294" lon="5.41416">
        <ele>454</ele>
        <time>2015-03-28T12:38:19Z</time>
      </trkpt>
      <trkpt lat="50.01292" lon="5.41416">
        <ele>455</ele>
        <time>2015-03-28T12:38:24Z</time>
      </trkpt>
      <trkpt lat="50.01291" lon="5.41417">
        <ele>455</ele>
        <time>2015-03-28T12:38:29Z</time>
      </trkpt>
      <trkpt lat="50.01291" lon="5.41417">
        <ele>455</ele>
        <time>2015-03-28T12:38:34Z</time>
      </trkpt>
      <trkpt lat="50.01289" lon="5.41418">
        <ele>455</ele>
        <time>2015-03-28T12:38:40Z</time>
      </trkpt>
      <trkpt lat="50.01289" lon="5.41419">
        <ele>455</ele>
        <time>2015-03-28T12:38:48Z</time>
      </trkpt>
      <trkpt lat="50.01287" lon="5.41413">
        <ele>454</ele>
        <time>2015-03-28T12:38:53Z</time>
      </trkpt>
      <trkpt lat="50.01286" lon="5.41411">
        <ele>454</ele>
        <time>2015-03-28T12:38:58Z</time>
      </trkpt>
      <trkpt lat="50.01287" lon="5.41415">
        <ele>454</ele>
        <time>2015-03-28T12:39:03Z</time>
      </trkpt>
      <trkpt lat="50.01286" lon="5.41419">
        <ele>454</ele>
        <time>2015-03-28T12:39:09Z</time>
      </trkpt>
      <trkpt lat="50.01286" lon="5.41417">
        <ele>455</ele>
        <time>2015-03-28T12:39:15Z</time>
      </trkpt>
      <trkpt lat="50.01284" lon="5.41411">
        <ele>455</ele>
        <time>2015-03-28T12:39:20Z</time>
      </trkpt>
      <trkpt lat="50.01282" lon="5.41401">
        <ele>454</ele>
        <time>2015-03-28T12:39:26Z</time>
      </trkpt>
      <trkpt lat="50.0128" lon="5.41393">
        <ele>454</ele>
        <time>2015-03-28T12:39:31Z</time>
      </trkpt>
      <trkpt lat="50.01277" lon="5.41384">
        <ele>454</ele>
        <time>2015-03-28T12:39:37Z</time>
      </trkpt>
      <trkpt lat="50.01273" lon="5.41376">
        <ele>454</ele>
        <time>2015-03-28T12:39:42Z</time>
      </trkpt>
      <trkpt lat="50.01269" lon="5.41366">
        <ele>453</ele>
        <time>2015-03-28T12:39:48Z</time>
      </trkpt>
      <trkpt lat="50.01266" lon="5.41358">
        <ele>453</ele>
        <time>2015-03-28T12:39:53Z</time>
      </trkpt>
      <trkpt lat="50.01263" lon="5.41349">
        <ele>454</ele>
        <time>2015-03-28T12:39:58Z</time>
      </trkpt>
      <trkpt lat="50.01259" lon="5.41339">
        <ele>454</ele>
        <time>2015-03-28T12:40:04Z</time>
      </trkpt>
      <trkpt lat="50.01256" lon="5.41332">
        <ele>454</ele>
        <time>2015-03-28T12:40:09Z</time>
      </trkpt>
      <trkpt lat="50.01252" lon="5.41323">
        <ele>454</ele>
        <time>2015-03-28T12:40:15Z</time>
      </trkpt>
      <trkpt lat="50.01247" lon="5.41316">
        <ele>454</ele>
        <time>2015-03-28T12:40:21Z</time>
      </trkpt>
      <trkpt lat="50.01243" lon="5.41309">
        <ele>454</ele>
        <time>2015-03-28T12:40:27Z</time>
      </trkpt>
      <trkpt lat="50.01239" lon="5.41301">
        <ele>454</ele>
        <time>2015-03-28T12:40:32Z</time>
      </trkpt>
      <trkpt lat="50.01235" lon="5.41294">
        <ele>454</ele>
        <time>2015-03-28T12:40:37Z</time>
      </trkpt>
      <trkpt lat="50.0123" lon="5.41285">
        <ele>454</ele>
        <time>2015-03-28T12:40:43Z</time>
      </trkpt>
      <trkpt lat="50.01227" lon="5.41277">
        <ele>454</ele>
        <time>2015-03-28T12:40:49Z</time>
      </trkpt>
      <trkpt lat="50.01223" lon="5.41267">
        <ele>453</ele>
        <time>2015-03-28T12:40:55Z</time>
      </trkpt>
      <trkpt lat="50.01219" lon="5.41261">
        <ele>454</ele>
        <time>2015-03-28T12:41:00Z</time>
      </trkpt>
      <trkpt lat="50.01215" lon="5.41255">
        <ele>454</ele>
        <time>2015-03-28T12:41:05Z</time>
      </trkpt>
      <trkpt lat="50.01211" lon="5.41248">
        <ele>454</ele>
        <time>2015-03-28T12:41:10Z</time>
      </trkpt>
      <trkpt lat="50.01207" lon="5.41242">
        <ele>453</ele>
        <time>2015-03-28T12:41:15Z</time>
      </trkpt>
      <trkpt lat="50.01202" lon="5.41235">
        <ele>453</ele>
        <time>2015-03-28T12:41:21Z</time>
      </trkpt>
      <trkpt lat="50.01198" lon="5.41229">
        <ele>453</ele>
        <time>2015-03-28T12:41:26Z</time>
      </trkpt>
      <trkpt lat="50.01194" lon="5.41224">
        <ele>454</ele>
        <time>2015-03-28T12:41:31Z</time>
      </trkpt>
      <trkpt lat="50.0119" lon="5.41218">
        <ele>453</ele>
        <time>2015-03-28T12:41:36Z</time>
      </trkpt>
      <trkpt lat="50.01186" lon="5.41211">
        <ele>453</ele>
        <time>2015-03-28T12:41:41Z</time>
      </trkpt>
      <trkpt lat="50.01181" lon="5.41202">
        <ele>453</ele>
        <time>2015-03-28T12:41:47Z</time>
      </trkpt>
      <trkpt lat="50.01177" lon="5.41195">
        <ele>453</ele>
        <time>2015-03-28T12:41:52Z</time>
      </trkpt>
      <trkpt lat="50.01172" lon="5.41185">
        <ele>453</ele>
        <time>2015-03-28T12:41:58Z</time>
      </trkpt>
      <trkpt lat="50.01168" lon="5.41177">
        <ele>453</ele>
        <time>2015-03-28T12:42:03Z</time>
      </trkpt>
      <trkpt lat="50.01165" lon="5.4117">
        <ele>452</ele>
        <time>2015-03-28T12:42:08Z</time>
      </trkpt>
      <trkpt lat="50.0116" lon="5.41161">
        <ele>452</ele>
        <time>2015-03-28T12:42:14Z</time>
      </trkpt>
      <trkpt lat="50.01156" lon="5.41154">
        <ele>452</ele>
        <time>2015-03-28T12:42:19Z</time>
      </trkpt>
      <trkpt lat="50.01152" lon="5.41145">
        <ele>452</ele>
        <time>2015-03-28T12:42:25Z</time>
      </trkpt>
      <trkpt lat="50.01147" lon="5.41137">
        <ele>452</ele>
        <time>2015-03-28T12:42:30Z</time>
      </trkpt>
      <trkpt lat="50.01142" lon="5.41127">
        <ele>452</ele>
        <time>2015-03-28T12:42:36Z</time>
      </trkpt>
      <trkpt lat="50.01137" lon="5.41119">
        <ele>453</ele>
        <time>2015-03-28T12:42:41Z</time>
      </trkpt>
      <trkpt lat="50.01132" lon="5.4111">
        <ele>452</ele>
        <time>2015-03-28T12:42:47Z</time>
      </trkpt>
      <trkpt lat="50.01128" lon="5.41104">
        <ele>452</ele>
        <time>2015-03-28T12:42:52Z</time>
      </trkpt>
      <trkpt lat="50.01123" lon="5.41097">
        <ele>453</ele>
        <time>2015-03-28T12:42:57Z</time>
      </trkpt>
      <trkpt lat="50.01119" lon="5.4109">
        <ele>453</ele>
        <time>2015-03-28T12:43:02Z</time>
      </trkpt>
      <trkpt lat="50.01114" lon="5.41082">
        <ele>453</ele>
        <time>2015-03-28T12:43:08Z</time>
      </trkpt>
      <trkpt lat="50.0111" lon="5.41075">
        <ele>453</ele>
        <time>2015-03-28T12:43:13Z</time>
      </trkpt>
      <trkpt lat="50.01105" lon="5.41067">
        <ele>453</ele>
        <time>2015-03-28T12:43:19Z</time>
      </trkpt>
      <trkpt lat="50.011" lon="5.41058">
        <ele>452</ele>
        <time>2015-03-28T12:43:25Z</time>
      </trkpt>
      <trkpt lat="50.01096" lon="5.4105">
        <ele>452</ele>
        <time>2015-03-28T12:43:30Z</time>
      </trkpt>
      <trkpt lat="50.01092" lon="5.41041">
        <ele>453</ele>
        <time>2015-03-28T12:43:36Z</time>
      </trkpt>
      <trkpt lat="50.01091" lon="5.4104">
        <ele>453</ele>
        <time>2015-03-28T12:43:41Z</time>
      </trkpt>
      <trkpt lat="50.0109" lon="5.41039">
        <ele>453</ele>
        <time>2015-03-28T12:43:47Z</time>
      </trkpt>
      <trkpt lat="50.0109" lon="5.41037">
        <ele>453</ele>
        <time>2015-03-28T12:43:53Z</time>
      </trkpt>
      <trkpt lat="50.01089" lon="5.41037">
        <ele>453</ele>
        <time>2015-03-28T12:43:58Z</time>
      </trkpt>
      <trkpt lat="50.01086" lon="5.41032">
        <ele>453</ele>
        <time>2015-03-28T12:44:04Z</time>
      </trkpt>
      <trkpt lat="50.01082" lon="5.41023">
        <ele>453</ele>
        <time>2015-03-28T12:44:10Z</time>
      </trkpt>
      <trkpt lat="50.01079" lon="5.41016">
        <ele>452</ele>
        <time>2015-03-28T12:44:15Z</time>
      </trkpt>
      <trkpt lat="50.01075" lon="5.41007">
        <ele>453</ele>
        <time>2015-03-28T12:44:21Z</time>
      </trkpt>
      <trkpt lat="50.01072" lon="5.40999">
        <ele>453</ele>
        <time>2015-03-28T12:44:26Z</time>
      </trkpt>
      <trkpt lat="50.0107" lon="5.4099">
        <ele>453</ele>
        <time>2015-03-28T12:44:31Z</time>
      </trkpt>
      <trkpt lat="50.01068" lon="5.40979">
        <ele>453</ele>
        <time>2015-03-28T12:44:37Z</time>
      </trkpt>
      <trkpt lat="50.01066" lon="5.40968">
        <ele>453</ele>
        <time>2015-03-28T12:44:43Z</time>
      </trkpt>
      <trkpt lat="50.01064" lon="5.40961">
        <ele>453</ele>
        <time>2015-03-28T12:44:48Z</time>
      </trkpt>
      <trkpt lat="50.01062" lon="5.40952">
        <ele>454</ele>
        <time>2015-03-28T12:44:53Z</time>
      </trkpt>
      <trkpt lat="50.01061" lon="5.40944">
        <ele>453</ele>
        <time>2015-03-28T12:44:58Z</time>
      </trkpt>
      <trkpt lat="50.01061" lon="5.40948">
        <ele>453</ele>
        <time>2015-03-28T12:45:04Z</time>
      </trkpt>
      <trkpt lat="50.01059" lon="5.40942">
        <ele>453</ele>
        <time>2015-03-28T12:45:09Z</time>
      </trkpt>
      <trkpt lat="50.01057" lon="5.40932">
        <ele>452</ele>
        <time>2015-03-28T12:45:15Z</time>
      </trkpt>
      <trkpt lat="50.01056" lon="5.40922">
        <ele>452</ele>
        <time>2015-03-28T12:45:21Z</time>
      </trkpt>
      <trkpt lat="50.01054" lon="5.40914">
        <ele>452</ele>
        <time>2015-03-28T12:45:26Z</time>
      </trkpt>
      <trkpt lat="50.01052" lon="5.40905">
        <ele>452</ele>
        <time>2015-03-28T12:45:31Z</time>
      </trkpt>
      <trkpt lat="50.0105" lon="5.40895">
        <ele>452</ele>
        <time>2015-03-28T12:45:37Z</time>
      </trkpt>
      <trkpt lat="50.01049" lon="5.4089">
        <ele>453</ele>
        <time>2015-03-28T12:45:42Z</time>
      </trkpt>
      <trkpt lat="50.01048" lon="5.40885">
        <ele>453</ele>
        <time>2015-03-28T12:45:48Z</time>
      </trkpt>
      <trkpt lat="50.01046" lon="5.40874">
        <ele>453</ele>
        <time>2015-03-28T12:45:54Z</time>
      </trkpt>
      <trkpt lat="50.01044" lon="5.40863">
        <ele>453</ele>
        <time>2015-03-28T12:46:00Z</time>
      </trkpt>
      <trkpt lat="50.01042" lon="5.40854">
        <ele>452</ele>
        <time>2015-03-28T12:46:05Z</time>
      </trkpt>
      <trkpt lat="50.01041" lon="5.40845">
        <ele>452</ele>
        <time>2015-03-28T12:46:10Z</time>
      </trkpt>
      <trkpt lat="50.01038" lon="5.40836">
        <ele>453</ele>
        <time>2015-03-28T12:46:15Z</time>
      </trkpt>
      <trkpt lat="50.01036" lon="5.40826">
        <ele>452</ele>
        <time>2015-03-28T12:46:21Z</time>
      </trkpt>
      <trkpt lat="50.01034" lon="5.40817">
        <ele>452</ele>
        <time>2015-03-28T12:46:26Z</time>
      </trkpt>
      <trkpt lat="50.01031" lon="5.40808">
        <ele>452</ele>
        <time>2015-03-28T12:46:31Z</time>
      </trkpt>
      <trkpt lat="50.01029" lon="5.40799">
        <ele>452</ele>
        <time>2015-03-28T12:46:36Z</time>
      </trkpt>
      <trkpt lat="50.01027" lon="5.4079">
        <ele>453</ele>
        <time>2015-03-28T12:46:42Z</time>
      </trkpt>
      <trkpt lat="50.01025" lon="5.40782">
        <ele>453</ele>
        <time>2015-03-28T12:46:47Z</time>
      </trkpt>
      <trkpt lat="50.01023" lon="5.40771">
        <ele>453</ele>
        <time>2015-03-28T12:46:53Z</time>
      </trkpt>
      <trkpt lat="50.0102" lon="5.40762">
        <ele>453</ele>
        <time>2015-03-28T12:46:58Z</time>
      </trkpt>
      <trkpt lat="50.01019" lon="5.40753">
        <ele>453</ele>
        <time>2015-03-28T12:47:03Z</time>
      </trkpt>
      <trkpt lat="50.01017" lon="5.40743">
        <ele>453</ele>
        <time>2015-03-28T12:47:09Z</time>
      </trkpt>
      <trkpt lat="50.01015" lon="5.40734">
        <ele>453</ele>
        <time>2015-03-28T12:47:14Z</time>
      </trkpt>
      <trkpt lat="50.01013" lon="5.40723">
        <ele>453</ele>
        <time>2015-03-28T12:47:20Z</time>
      </trkpt>
      <trkpt lat="50.01011" lon="5.40716">
        <ele>453</ele>
        <time>2015-03-28T12:47:25Z</time>
      </trkpt>
      <trkpt lat="50.0101" lon="5.40706">
        <ele>452</ele>
        <time>2015-03-28T12:47:30Z</time>
      </trkpt>
      <trkpt lat="50.01009" lon="5.40703">
        <ele>453</ele>
        <time>2015-03-28T12:47:35Z</time>
      </trkpt>
      <trkpt lat="50.01009" lon="5.40702">
        <ele>453</ele>
        <time>2015-03-28T12:47:40Z</time>
      </trkpt>
      <trkpt lat="50.01009" lon="5.407">
        <ele>452</ele>
        <time>2015-03-28T12:47:45Z</time>
      </trkpt>
      <trkpt lat="50.01007" lon="5.4069">
        <ele>452</ele>
        <time>2015-03-28T12:47:51Z</time>
      </trkpt>
      <trkpt lat="50.01005" lon="5.40681">
        <ele>452</ele>
        <time>2015-03-28T12:47:56Z</time>
      </trkpt>
      <trkpt lat="50.01003" lon="5.4067">
        <ele>453</ele>
        <time>2015-03-28T12:48:02Z</time>
      </trkpt>
      <trkpt lat="50.01001" lon="5.40661">
        <ele>453</ele>
        <time>2015-03-28T12:48:07Z</time>
      </trkpt>
      <trkpt lat="50.00999" lon="5.40652">
        <ele>452</ele>
        <time>2015-03-28T12:48:12Z</time>
      </trkpt>
      <trkpt lat="50.00998" lon="5.40642">
        <ele>452</ele>
        <time>2015-03-28T12:48:17Z</time>
      </trkpt>
      <trkpt lat="50.00996" lon="5.40633">
        <ele>452</ele>
        <time>2015-03-28T12:48:22Z</time>
      </trkpt>
      <trkpt lat="50.00994" lon="5.40624">
        <ele>452</ele>
        <time>2015-03-28T12:48:27Z</time>
      </trkpt>
      <trkpt lat="50.00993" lon="5.40613">
        <ele>451</ele>
        <time>2015-03-28T12:48:33Z</time>
      </trkpt>
      <trkpt lat="50.00991" lon="5.40604">
        <ele>451</ele>
        <time>2015-03-28T12:48:38Z</time>
      </trkpt>
      <trkpt lat="50.00988" lon="5.40593">
        <ele>452</ele>
        <time>2015-03-28T12:48:44Z</time>
      </trkpt>
      <trkpt lat="50.00986" lon="5.40584">
        <ele>452</ele>
        <time>2015-03-28T12:48:49Z</time>
      </trkpt>
      <trkpt lat="50.00985" lon="5.40573">
        <ele>452</ele>
        <time>2015-03-28T12:48:55Z</time>
      </trkpt>
      <trkpt lat="50.00983" lon="5.40565">
        <ele>452</ele>
        <time>2015-03-28T12:49:00Z</time>
      </trkpt>
      <trkpt lat="50.00983" lon="5.40562">
        <ele>453</ele>
        <time>2015-03-28T12:49:06Z</time>
      </trkpt>
      <trkpt lat="50.00981" lon="5.40553">
        <ele>453</ele>
        <time>2015-03-28T12:49:11Z</time>
      </trkpt>
      <trkpt lat="50.0098" lon="5.40544">
        <ele>453</ele>
        <time>2015-03-28T12:49:16Z</time>
      </trkpt>
      <trkpt lat="50.00978" lon="5.40535">
        <ele>453</ele>
        <time>2015-03-28T12:49:21Z</time>
      </trkpt>
      <trkpt lat="50.00976" lon="5.40525">
        <ele>453</ele>
        <time>2015-03-28T12:49:26Z</time>
      </trkpt>
      <trkpt lat="50.00974" lon="5.40514">
        <ele>453</ele>
        <time>2015-03-28T12:49:32Z</time>
      </trkpt>
      <trkpt lat="50.00972" lon="5.40504">
        <ele>453</ele>
        <time>2015-03-28T12:49:37Z</time>
      </trkpt>
      <trkpt lat="50.0097" lon="5.40496">
        <ele>452</ele>
        <time>2015-03-28T12:49:42Z</time>
      </trkpt>
      <trkpt lat="50.00969" lon="5.40487">
        <ele>452</ele>
        <time>2015-03-28T12:49:47Z</time>
      </trkpt>
      <trkpt lat="50.00968" lon="5.40484">
        <ele>453</ele>
        <time>2015-03-28T12:49:53Z</time>
      </trkpt>
      <trkpt lat="50.00968" lon="5.40481">
        <ele>453</ele>
        <time>2015-03-28T12:49:59Z</time>
      </trkpt>
      <trkpt lat="50.00967" lon="5.40475">
        <ele>453</ele>
        <time>2015-03-28T12:50:04Z</time>
      </trkpt>
      <trkpt lat="50.00964" lon="5.40464">
        <ele>453</ele>
        <time>2015-03-28T12:50:10Z</time>
      </trkpt>
      <trkpt lat="50.00963" lon="5.40456">
        <ele>452</ele>
        <time>2015-03-28T12:50:15Z</time>
      </trkpt>
      <trkpt lat="50.00961" lon="5.40445">
        <ele>452</ele>
        <time>2015-03-28T12:50:21Z</time>
      </trkpt>
      <trkpt lat="50.00959" lon="5.40436">
        <ele>452</ele>
        <time>2015-03-28T12:50:26Z</time>
      </trkpt>
      <trkpt lat="50.00956" lon="5.40425">
        <ele>452</ele>
        <time>2015-03-28T12:50:32Z</time>
      </trkpt>
      <trkpt lat="50.00954" lon="5.40413">
        <ele>452</ele>
        <time>2015-03-28T12:50:38Z</time>
      </trkpt>
      <trkpt lat="50.00952" lon="5.40404">
        <ele>453</ele>
        <time>2015-03-28T12:50:43Z</time>
      </trkpt>
      <trkpt lat="50.00951" lon="5.40395">
        <ele>453</ele>
        <time>2015-03-28T12:50:48Z</time>
      </trkpt>
      <trkpt lat="50.00949" lon="5.40385">
        <ele>452</ele>
        <time>2015-03-28T12:50:53Z</time>
      </trkpt>
      <trkpt lat="50.00948" lon="5.40377">
        <ele>453</ele>
        <time>2015-03-28T12:50:58Z</time>
      </trkpt>
      <trkpt lat="50.00946" lon="5.40367">
        <ele>453</ele>
        <time>2015-03-28T12:51:04Z</time>
      </trkpt>
      <trkpt lat="50.00944" lon="5.40358">
        <ele>452</ele>
        <time>2015-03-28T12:51:09Z</time>
      </trkpt>
      <trkpt lat="50.00943" lon="5.40348">
        <ele>453</ele>
        <time>2015-03-28T12:51:14Z</time>
      </trkpt>
      <trkpt lat="50.0094" lon="5.40338">
        <ele>453</ele>
        <time>2015-03-28T12:51:20Z</time>
      </trkpt>
      <trkpt lat="50.00938" lon="5.40329">
        <ele>453</ele>
        <time>2015-03-28T12:51:25Z</time>
      </trkpt>
      <trkpt lat="50.00936" lon="5.40321">
        <ele>453</ele>
        <time>2015-03-28T12:51:30Z</time>
      </trkpt>
      <trkpt lat="50.00933" lon="5.40312">
        <ele>452</ele>
        <time>2015-03-28T12:51:36Z</time>
      </trkpt>
      <trkpt lat="50.0093" lon="5.40306">
        <ele>452</ele>
        <time>2015-03-28T12:51:41Z</time>
      </trkpt>
      <trkpt lat="50.00928" lon="5.403">
        <ele>452</ele>
        <time>2015-03-28T12:51:46Z</time>
      </trkpt>
      <trkpt lat="50.0093" lon="5.40296">
        <ele>452</ele>
        <time>2015-03-28T12:51:52Z</time>
      </trkpt>
      <trkpt lat="50.00928" lon="5.40292">
        <ele>452</ele>
        <time>2015-03-28T12:51:57Z</time>
      </trkpt>
      <trkpt lat="50.00927" lon="5.40286">
        <ele>453</ele>
        <time>2015-03-28T12:52:02Z</time>
      </trkpt>
      <trkpt lat="50.00926" lon="5.4028">
        <ele>453</ele>
        <time>2015-03-28T12:52:08Z</time>
      </trkpt>
      <trkpt lat="50.00926" lon="5.40275">
        <ele>452</ele>
        <time>2015-03-28T12:52:13Z</time>
      </trkpt>
      <trkpt lat="50.00925" lon="5.40273">
        <ele>452</ele>
        <time>2015-03-28T12:52:18Z</time>
      </trkpt>
      <trkpt lat="50.00928" lon="5.40273">
        <ele>452</ele>
        <time>2015-03-28T12:52:24Z</time>
      </trkpt>
      <trkpt lat="50.00931" lon="5.40277">
        <ele>452</ele>
        <time>2015-03-28T12:52:29Z</time>
      </trkpt>
      <trkpt lat="50.00933" lon="5.40281">
        <ele>452</ele>
        <time>2015-03-28T12:52:34Z</time>
      </trkpt>
      <trkpt lat="50.00936" lon="5.40286">
        <ele>452</ele>
        <time>2015-03-28T12:52:40Z</time>
      </trkpt>
      <trkpt lat="50.00938" lon="5.4029">
        <ele>451</ele>
        <time>2015-03-28T12:52:46Z</time>
      </trkpt>
      <trkpt lat="50.00939" lon="5.40298">
        <ele>451</ele>
        <time>2015-03-28T12:52:52Z</time>
      </trkpt>
      <trkpt lat="50.0094" lon="5.40303">
        <ele>451</ele>
        <time>2015-03-28T12:52:57Z</time>
      </trkpt>
      <trkpt lat="50.00945" lon="5.40312">
        <ele>451</ele>
        <time>2015-03-28T12:53:03Z</time>
      </trkpt>
      <trkpt lat="50.00948" lon="5.40316">
        <ele>451</ele>
        <time>2015-03-28T12:53:09Z</time>
      </trkpt>
      <trkpt lat="50.00951" lon="5.40321">
        <ele>450</ele>
        <time>2015-03-28T12:53:15Z</time>
      </trkpt>
      <trkpt lat="50.00954" lon="5.40329">
        <ele>450</ele>
        <time>2015-03-28T12:53:21Z</time>
      </trkpt>
      <trkpt lat="50.00955" lon="5.40331">
        <ele>449</ele>
        <time>2015-03-28T12:53:27Z</time>
      </trkpt>
      <trkpt lat="50.00959" lon="5.40338">
        <ele>450</ele>
        <time>2015-03-28T12:53:32Z</time>
      </trkpt>
      <trkpt lat="50.00964" lon="5.40345">
        <ele>450</ele>
        <time>2015-03-28T12:53:37Z</time>
      </trkpt>
      <trkpt lat="50.00968" lon="5.40352">
        <ele>449</ele>
        <time>2015-03-28T12:53:42Z</time>
      </trkpt>
      <trkpt lat="50.00973" lon="5.40359">
        <ele>448</ele>
        <time>2015-03-28T12:53:48Z</time>
      </trkpt>
      <trkpt lat="50.00978" lon="5.40369">
        <ele>448</ele>
        <time>2015-03-28T12:53:54Z</time>
      </trkpt>
      <trkpt lat="50.00984" lon="5.40378">
        <ele>447</ele>
        <time>2015-03-28T12:54:00Z</time>
      </trkpt>
      <trkpt lat="50.00988" lon="5.40388">
        <ele>447</ele>
        <time>2015-03-28T12:54:06Z</time>
      </trkpt>
      <trkpt lat="50.00993" lon="5.40398">
        <ele>447</ele>
        <time>2015-03-28T12:54:12Z</time>
      </trkpt>
      <trkpt lat="50.00998" lon="5.40405">
        <ele>446</ele>
        <time>2015-03-28T12:54:17Z</time>
      </trkpt>
      <trkpt lat="50.01002" lon="5.40412">
        <ele>446</ele>
        <time>2015-03-28T12:54:23Z</time>
      </trkpt>
      <trkpt lat="50.01006" lon="5.40418">
        <ele>445</ele>
        <time>2015-03-28T12:54:28Z</time>
      </trkpt>
      <trkpt lat="50.01012" lon="5.40426">
        <ele>445</ele>
        <time>2015-03-28T12:54:34Z</time>
      </trkpt>
      <trkpt lat="50.01016" lon="5.40432">
        <ele>445</ele>
        <time>2015-03-28T12:54:39Z</time>
      </trkpt>
      <trkpt lat="50.0102" lon="5.40439">
        <ele>444</ele>
        <time>2015-03-28T12:54:45Z</time>
      </trkpt>
      <trkpt lat="50.01023" lon="5.40445">
        <ele>444</ele>
        <time>2015-03-28T12:54:50Z</time>
      </trkpt>
      <trkpt lat="50.01028" lon="5.40452">
        <ele>445</ele>
        <time>2015-03-28T12:54:56Z</time>
      </trkpt>
      <trkpt lat="50.01033" lon="5.40459">
        <ele>444</ele>
        <time>2015-03-28T12:55:02Z</time>
      </trkpt>
      <trkpt lat="50.01038" lon="5.40465">
        <ele>443</ele>
        <time>2015-03-28T12:55:07Z</time>
      </trkpt>
      <trkpt lat="50.01042" lon="5.40472">
        <ele>443</ele>
        <time>2015-03-28T12:55:13Z</time>
      </trkpt>
      <trkpt lat="50.01047" lon="5.40478">
        <ele>443</ele>
        <time>2015-03-28T12:55:19Z</time>
      </trkpt>
      <trkpt lat="50.01051" lon="5.40483">
        <ele>443</ele>
        <time>2015-03-28T12:55:24Z</time>
      </trkpt>
      <trkpt lat="50.01056" lon="5.40489">
        <ele>442</ele>
        <time>2015-03-28T12:55:29Z</time>
      </trkpt>
      <trkpt lat="50.01059" lon="5.40495">
        <ele>442</ele>
        <time>2015-03-28T12:55:34Z</time>
      </trkpt>
      <trkpt lat="50.01064" lon="5.40502">
        <ele>442</ele>
        <time>2015-03-28T12:55:40Z</time>
      </trkpt>
      <trkpt lat="50.01069" lon="5.40508">
        <ele>442</ele>
        <time>2015-03-28T12:55:45Z</time>
      </trkpt>
      <trkpt lat="50.01074" lon="5.40515">
        <ele>442</ele>
        <time>2015-03-28T12:55:51Z</time>
      </trkpt>
      <trkpt lat="50.01078" lon="5.40519">
        <ele>442</ele>
        <time>2015-03-28T12:55:56Z</time>
      </trkpt>
      <trkpt lat="50.01084" lon="5.40524">
        <ele>441</ele>
        <time>2015-03-28T12:56:01Z</time>
      </trkpt>
      <trkpt lat="50.01089" lon="5.40531">
        <ele>442</ele>
        <time>2015-03-28T12:56:07Z</time>
      </trkpt>
      <trkpt lat="50.01096" lon="5.40538">
        <ele>442</ele>
        <time>2015-03-28T12:56:13Z</time>
      </trkpt>
      <trkpt lat="50.01101" lon="5.40542">
        <ele>441</ele>
        <time>2015-03-28T12:56:18Z</time>
      </trkpt>
      <trkpt lat="50.01107" lon="5.40547">
        <ele>441</ele>
        <time>2015-03-28T12:56:23Z</time>
      </trkpt>
      <trkpt lat="50.01113" lon="5.40552">
        <ele>441</ele>
        <time>2015-03-28T12:56:29Z</time>
      </trkpt>
      <trkpt lat="50.01118" lon="5.40556">
        <ele>441</ele>
        <time>2015-03-28T12:56:34Z</time>
      </trkpt>
      <trkpt lat="50.01124" lon="5.4056">
        <ele>441</ele>
        <time>2015-03-28T12:56:40Z</time>
      </trkpt>
      <trkpt lat="50.01129" lon="5.40564">
        <ele>441</ele>
        <time>2015-03-28T12:56:45Z</time>
      </trkpt>
      <trkpt lat="50.01134" lon="5.40567">
        <ele>440</ele>
        <time>2015-03-28T12:56:50Z</time>
      </trkpt>
      <trkpt lat="50.0114" lon="5.40571">
        <ele>440</ele>
        <time>2015-03-28T12:56:55Z</time>
      </trkpt>
      <trkpt lat="50.01144" lon="5.40573">
        <ele>440</ele>
        <time>2015-03-28T12:57:00Z</time>
      </trkpt>
      <trkpt lat="50.01146" lon="5.40573">
        <ele>440</ele>
        <time>2015-03-28T12:57:06Z</time>
      </trkpt>
      <trkpt lat="50.01151" lon="5.40576">
        <ele>440</ele>
        <time>2015-03-28T12:57:11Z</time>
      </trkpt>
      <trkpt lat="50.01157" lon="5.40578">
        <ele>439</ele>
        <time>2015-03-28T12:57:16Z</time>
      </trkpt>
      <trkpt lat="50.01161" lon="5.40578">
        <ele>439</ele>
        <time>2015-03-28T12:57:21Z</time>
      </trkpt>
      <trkpt lat="50.01167" lon="5.40579">
        <ele>439</ele>
        <time>2015-03-28T12:57:27Z</time>
      </trkpt>
      <trkpt lat="50.01172" lon="5.40578">
        <ele>438</ele>
        <time>2015-03-28T12:57:32Z</time>
      </trkpt>
      <trkpt lat="50.01179" lon="5.40577">
        <ele>439</ele>
        <time>2015-03-28T12:57:38Z</time>
      </trkpt>
      <trkpt lat="50.01184" lon="5.40575">
        <ele>438</ele>
        <time>2015-03-28T12:57:43Z</time>
      </trkpt>
      <trkpt lat="50.01189" lon="5.40574">
        <ele>438</ele>
        <time>2015-03-28T12:57:48Z</time>
      </trkpt>
      <trkpt lat="50.01196" lon="5.40573">
        <ele>438</ele>
        <time>2015-03-28T12:57:54Z</time>
      </trkpt>
      <trkpt lat="50.01201" lon="5.40574">
        <ele>437</ele>
        <time>2015-03-28T12:57:59Z</time>
      </trkpt>
      <trkpt lat="50.01209" lon="5.40576">
        <ele>437</ele>
        <time>2015-03-28T12:58:05Z</time>
      </trkpt>
      <trkpt lat="50.01215" lon="5.40579">
        <ele>437</ele>
        <time>2015-03-28T12:58:10Z</time>
      </trkpt>
      <trkpt lat="50.01221" lon="5.40583">
        <ele>437</ele>
        <time>2015-03-28T12:58:16Z</time>
      </trkpt>
      <trkpt lat="50.01227" lon="5.40587">
        <ele>437</ele>
        <time>2015-03-28T12:58:21Z</time>
      </trkpt>
      <trkpt lat="50.01232" lon="5.4059">
        <ele>437</ele>
        <time>2015-03-28T12:58:27Z</time>
      </trkpt>
      <trkpt lat="50.01235" lon="5.40594">
        <ele>436</ele>
        <time>2015-03-28T12:58:32Z</time>
      </trkpt>
      <trkpt lat="50.01239" lon="5.40601">
        <ele>436</ele>
        <time>2015-03-28T12:58:37Z</time>
      </trkpt>
      <trkpt lat="50.01243" lon="5.40609">
        <ele>435</ele>
        <time>2015-03-28T12:58:43Z</time>
      </trkpt>
      <trkpt lat="50.01248" lon="5.40616">
        <ele>435</ele>
        <time>2015-03-28T12:58:48Z</time>
      </trkpt>
      <trkpt lat="50.01253" lon="5.40625">
        <ele>435</ele>
        <time>2015-03-28T12:58:54Z</time>
      </trkpt>
      <trkpt lat="50.01257" lon="5.40632">
        <ele>435</ele>
        <time>2015-03-28T12:59:00Z</time>
      </trkpt>
      <trkpt lat="50.01262" lon="5.4064">
        <ele>435</ele>
        <time>2015-03-28T12:59:06Z</time>
      </trkpt>
      <trkpt lat="50.01265" lon="5.40646">
        <ele>435</ele>
        <time>2015-03-28T12:59:11Z</time>
      </trkpt>
      <trkpt lat="50.01269" lon="5.40655">
        <ele>435</ele>
        <time>2015-03-28T12:59:17Z</time>
      </trkpt>
      <trkpt lat="50.01273" lon="5.40663">
        <ele>434</ele>
        <time>2015-03-28T12:59:23Z</time>
      </trkpt>
      <trkpt lat="50.01277" lon="5.40673">
        <ele>434</ele>
        <time>2015-03-28T12:59:29Z</time>
      </trkpt>
      <trkpt lat="50.0128" lon="5.40681">
        <ele>434</ele>
        <time>2015-03-28T12:59:35Z</time>
      </trkpt>
      <trkpt lat="50.01282" lon="5.40689">
        <ele>434</ele>
        <time>2015-03-28T12:59:41Z</time>
      </trkpt>
      <trkpt lat="50.01285" lon="5.40696">
        <ele>434</ele>
        <time>2015-03-28T12:59:46Z</time>
      </trkpt>
      <trkpt lat="50.01289" lon="5.40706">
        <ele>434</ele>
        <time>2015-03-28T12:59:52Z</time>
      </trkpt>
      <trkpt lat="50.01291" lon="5.40715">
        <ele>434</ele>
        <time>2015-03-28T12:59:58Z</time>
      </trkpt>
      <trkpt lat="50.01296" lon="5.40724">
        <ele>433</ele>
        <time>2015-03-28T13:00:04Z</time>
      </trkpt>
      <trkpt lat="50.013" lon="5.40731">
        <ele>433</ele>
        <time>2015-03-28T13:00:09Z</time>
      </trkpt>
      <trkpt lat="50.01304" lon="5.40738">
        <ele>434</ele>
        <time>2015-03-28T13:00:14Z</time>
      </trkpt>
      <trkpt lat="50.0131" lon="5.40745">
        <ele>433</ele>
        <time>2015-03-28T13:00:20Z</time>
      </trkpt>
      <trkpt lat="50.01316" lon="5.40752">
        <ele>433</ele>
        <time>2015-03-28T13:00:26Z</time>
      </trkpt>
      <trkpt lat="50.01322" lon="5.40757">
        <ele>433</ele>
        <time>2015-03-28T13:00:31Z</time>
      </trkpt>
      <trkpt lat="50.01329" lon="5.40761">
        <ele>433</ele>
        <time>2015-03-28T13:00:37Z</time>
      </trkpt>
      <trkpt lat="50.01332" lon="5.40764">
        <ele>433</ele>
        <time>2015-03-28T13:00:42Z</time>
      </trkpt>
      <trkpt lat="50.01336" lon="5.40765">
        <ele>433</ele>
        <time>2015-03-28T13:00:48Z</time>
      </trkpt>
      <trkpt lat="50.01335" lon="5.40766">
        <ele>433</ele>
        <time>2015-03-28T13:00:53Z</time>
      </trkpt>
      <trkpt lat="50.01334" lon="5.40766">
        <ele>433</ele>
        <time>2015-03-28T13:01:03Z</time>
      </trkpt>
      <trkpt lat="50.01339" lon="5.40768">
        <ele>433</ele>
        <time>2015-03-28T13:01:08Z</time>
      </trkpt>
      <trkpt lat="50.01344" lon="5.4077">
        <ele>433</ele>
        <time>2015-03-28T13:01:14Z</time>
      </trkpt>
      <trkpt lat="50.0135" lon="5.40766">
        <ele>433</ele>
        <time>2015-03-28T13:01:19Z</time>
      </trkpt>
      <trkpt lat="50.01353" lon="5.4076">
        <ele>433</ele>
        <time>2015-03-28T13:01:24Z</time>
      </trkpt>
      <trkpt lat="50.01357" lon="5.40751">
        <ele>433</ele>
        <time>2015-03-28T13:01:30Z</time>
      </trkpt>
      <trkpt lat="50.0136" lon="5.40743">
        <ele>433</ele>
        <time>2015-03-28T13:01:35Z</time>
      </trkpt>
      <trkpt lat="50.0136" lon="5.40734">
        <ele>433</ele>
        <time>2015-03-28T13:01:40Z</time>
      </trkpt>
      <trkpt lat="50.01361" lon="5.40724">
        <ele>433</ele>
        <time>2015-03-28T13:01:46Z</time>
      </trkpt>
      <trkpt lat="50.01362" lon="5.40715">
        <ele>433</ele>
        <time>2015-03-28T13:01:51Z</time>
      </trkpt>
      <trkpt lat="50.01362" lon="5.40708">
        <ele>434</ele>
        <time>2015-03-28T13:01:56Z</time>
      </trkpt>
      <trkpt lat="50.01362" lon="5.40697">
        <ele>434</ele>
        <time>2015-03-28T13:02:02Z</time>
      </trkpt>
      <trkpt lat="50.01363" lon="5.40689">
        <ele>434</ele>
        <time>2015-03-28T13:02:07Z</time>
      </trkpt>
      <trkpt lat="50.01365" lon="5.40679">
        <ele>434</ele>
        <time>2015-03-28T13:02:13Z</time>
      </trkpt>
      <trkpt lat="50.01365" lon="5.40669">
        <ele>434</ele>
        <time>2015-03-28T13:02:18Z</time>
      </trkpt>
      <trkpt lat="50.01365" lon="5.40661">
        <ele>434</ele>
        <time>2015-03-28T13:02:24Z</time>
      </trkpt>
      <trkpt lat="50.01366" lon="5.40654">
        <ele>435</ele>
        <time>2015-03-28T13:02:29Z</time>
      </trkpt>
      <trkpt lat="50.01366" lon="5.40643">
        <ele>434</ele>
        <time>2015-03-28T13:02:35Z</time>
      </trkpt>
      <trkpt lat="50.01366" lon="5.40635">
        <ele>434</ele>
        <time>2015-03-28T13:02:40Z</time>
      </trkpt>
      <trkpt lat="50.01366" lon="5.40623">
        <ele>434</ele>
        <time>2015-03-28T13:02:46Z</time>
      </trkpt>
      <trkpt lat="50.01366" lon="5.40612">
        <ele>433</ele>
        <time>2015-03-28T13:02:52Z</time>
      </trkpt>
      <trkpt lat="50.01366" lon="5.40603">
        <ele>433</ele>
        <time>2015-03-28T13:02:57Z</time>
      </trkpt>
      <trkpt lat="50.01367" lon="5.40591">
        <ele>433</ele>
        <time>2015-03-28T13:03:03Z</time>
      </trkpt>
      <trkpt lat="50.0137" lon="5.40581">
        <ele>434</ele>
        <time>2015-03-28T13:03:09Z</time>
      </trkpt>
      <trkpt lat="50.01373" lon="5.40572">
        <ele>434</ele>
        <time>2015-03-28T13:03:14Z</time>
      </trkpt>
      <trkpt lat="50.01377" lon="5.40563">
        <ele>434</ele>
        <time>2015-03-28T13:03:20Z</time>
      </trkpt>
      <trkpt lat="50.01381" lon="5.40557">
        <ele>435</ele>
        <time>2015-03-28T13:03:26Z</time>
      </trkpt>
      <trkpt lat="50.01385" lon="5.40554">
        <ele>435</ele>
        <time>2015-03-28T13:03:31Z</time>
      </trkpt>
      <trkpt lat="50.01387" lon="5.40551">
        <ele>435</ele>
        <time>2015-03-28T13:03:36Z</time>
      </trkpt>
      <trkpt lat="50.0139" lon="5.4055">
        <ele>436</ele>
        <time>2015-03-28T13:03:41Z</time>
      </trkpt>
      <trkpt lat="50.01392" lon="5.40548">
        <ele>436</ele>
        <time>2015-03-28T13:03:46Z</time>
      </trkpt>
      <trkpt lat="50.01393" lon="5.40546">
        <ele>437</ele>
        <time>2015-03-28T13:03:51Z</time>
      </trkpt>
      <trkpt lat="50.01395" lon="5.40543">
        <ele>437</ele>
        <time>2015-03-28T13:03:56Z</time>
      </trkpt>
      <trkpt lat="50.01397" lon="5.40539">
        <ele>436</ele>
        <time>2015-03-28T13:04:02Z</time>
      </trkpt>
      <trkpt lat="50.01402" lon="5.40536">
        <ele>437</ele>
        <time>2015-03-28T13:04:08Z</time>
      </trkpt>
      <trkpt lat="50.01407" lon="5.40535">
        <ele>437</ele>
        <time>2015-03-28T13:04:13Z</time>
      </trkpt>
      <trkpt lat="50.01412" lon="5.40535">
        <ele>438</ele>
        <time>2015-03-28T13:04:18Z</time>
      </trkpt>
      <trkpt lat="50.01418" lon="5.40532">
        <ele>438</ele>
        <time>2015-03-28T13:04:24Z</time>
      </trkpt>
      <trkpt lat="50.01424" lon="5.40529">
        <ele>438</ele>
        <time>2015-03-28T13:04:29Z</time>
      </trkpt>
      <trkpt lat="50.01432" lon="5.40525">
        <ele>438</ele>
        <time>2015-03-28T13:04:35Z</time>
      </trkpt>
      <trkpt lat="50.0144" lon="5.40522">
        <ele>439</ele>
        <time>2015-03-28T13:04:41Z</time>
      </trkpt>
      <trkpt lat="50.01446" lon="5.40518">
        <ele>439</ele>
        <time>2015-03-28T13:04:46Z</time>
      </trkpt>
      <trkpt lat="50.01452" lon="5.40514">
        <ele>440</ele>
        <time>2015-03-28T13:04:51Z</time>
      </trkpt>
      <trkpt lat="50.01459" lon="5.40509">
        <ele>440</ele>
        <time>2015-03-28T13:04:57Z</time>
      </trkpt>
      <trkpt lat="50.01465" lon="5.40504">
        <ele>440</ele>
        <time>2015-03-28T13:05:02Z</time>
      </trkpt>
      <trkpt lat="50.0147" lon="5.40499">
        <ele>441</ele>
        <time>2015-03-28T13:05:07Z</time>
      </trkpt>
      <trkpt lat="50.01474" lon="5.40488">
        <ele>441</ele>
        <time>2015-03-28T13:05:13Z</time>
      </trkpt>
      <trkpt lat="50.01477" lon="5.40477">
        <ele>442</ele>
        <time>2015-03-28T13:05:19Z</time>
      </trkpt>
      <trkpt lat="50.0148" lon="5.40469">
        <ele>442</ele>
        <time>2015-03-28T13:05:24Z</time>
      </trkpt>
      <trkpt lat="50.01483" lon="5.40459">
        <ele>441</ele>
        <time>2015-03-28T13:05:29Z</time>
      </trkpt>
      <trkpt lat="50.01486" lon="5.40449">
        <ele>442</ele>
        <time>2015-03-28T13:05:35Z</time>
      </trkpt>
      <trkpt lat="50.01487" lon="5.40443">
        <ele>442</ele>
        <time>2015-03-28T13:05:40Z</time>
      </trkpt>
      <trkpt lat="50.01489" lon="5.40435">
        <ele>443</ele>
        <time>2015-03-28T13:05:46Z</time>
      </trkpt>
      <trkpt lat="50.0149" lon="5.40428">
        <ele>443</ele>
        <time>2015-03-28T13:05:51Z</time>
      </trkpt>
      <trkpt lat="50.01491" lon="5.40421">
        <ele>444</ele>
        <time>2015-03-28T13:05:57Z</time>
      </trkpt>
      <trkpt lat="50.01493" lon="5.40414">
        <ele>443</ele>
        <time>2015-03-28T13:06:03Z</time>
      </trkpt>
      <trkpt lat="50.01494" lon="5.40409">
        <ele>444</ele>
        <time>2015-03-28T13:06:08Z</time>
      </trkpt>
      <trkpt lat="50.01495" lon="5.40405">
        <ele>445</ele>
        <time>2015-03-28T13:06:13Z</time>
      </trkpt>
      <trkpt lat="50.01495" lon="5.40402">
        <ele>445</ele>
        <time>2015-03-28T13:06:19Z</time>
      </trkpt>
      <trkpt lat="50.01494" lon="5.404">
        <ele>445</ele>
        <time>2015-03-28T13:06:25Z</time>
      </trkpt>
      <trkpt lat="50.01493" lon="5.40399">
        <ele>445</ele>
        <time>2015-03-28T13:06:30Z</time>
      </trkpt>
      <trkpt lat="50.01495" lon="5.40397">
        <ele>445</ele>
        <time>2015-03-28T13:06:36Z</time>
      </trkpt>
      <trkpt lat="50.01495" lon="5.40396">
        <ele>445</ele>
        <time>2015-03-28T13:06:41Z</time>
      </trkpt>
      <trkpt lat="50.01494" lon="5.40397">
        <ele>445</ele>
        <time>2015-03-28T13:06:46Z</time>
      </trkpt>
      <trkpt lat="50.01494" lon="5.40397">
        <ele>446</ele>
        <time>2015-03-28T13:06:52Z</time>
      </trkpt>
      <trkpt lat="50.01495" lon="5.40395">
        <ele>446</ele>
        <time>2015-03-28T13:06:58Z</time>
      </trkpt>
      <trkpt lat="50.01495" lon="5.40393">
        <ele>446</ele>
        <time>2015-03-28T13:07:04Z</time>
      </trkpt>
      <trkpt lat="50.01495" lon="5.40392">
        <ele>446</ele>
        <time>2015-03-28T13:07:09Z</time>
      </trkpt>
      <trkpt lat="50.01494" lon="5.40393">
        <ele>446</ele>
        <time>2015-03-28T13:07:14Z</time>
      </trkpt>
      <trkpt lat="50.01493" lon="5.40395">
        <ele>446</ele>
        <time>2015-03-28T13:07:19Z</time>
      </trkpt>
      <trkpt lat="50.01492" lon="5.40397">
        <ele>446</ele>
        <time>2015-03-28T13:07:25Z</time>
      </trkpt>
      <trkpt lat="50.01491" lon="5.40397">
        <ele>445</ele>
        <time>2015-03-28T13:07:30Z</time>
      </trkpt>
      <trkpt lat="50.0149" lon="5.40399">
        <ele>445</ele>
        <time>2015-03-28T13:07:36Z</time>
      </trkpt>
      <trkpt lat="50.01488" lon="5.404">
        <ele>445</ele>
        <time>2015-03-28T13:07:41Z</time>
      </trkpt>
      <trkpt lat="50.01487" lon="5.40401">
        <ele>445</ele>
        <time>2015-03-28T13:07:46Z</time>
      </trkpt>
      <trkpt lat="50.01486" lon="5.40402">
        <ele>445</ele>
        <time>2015-03-28T13:07:51Z</time>
      </trkpt>
      <trkpt lat="50.01488" lon="5.40401">
        <ele>445</ele>
        <time>2015-03-28T13:07:57Z</time>
      </trkpt>
      <trkpt lat="50.01491" lon="5.40397">
        <ele>445</ele>
        <time>2015-03-28T13:08:03Z</time>
      </trkpt>
      <trkpt lat="50.01493" lon="5.40394">
        <ele>445</ele>
        <time>2015-03-28T13:08:08Z</time>
      </trkpt>
      <trkpt lat="50.01493" lon="5.40392">
        <ele>445</ele>
        <time>2015-03-28T13:08:14Z</time>
      </trkpt>
      <trkpt lat="50.01491" lon="5.40395">
        <ele>445</ele>
        <time>2015-03-28T13:08:20Z</time>
      </trkpt>
      <trkpt lat="50.0149" lon="5.40398">
        <ele>445</ele>
        <time>2015-03-28T13:08:26Z</time>
      </trkpt>
      <trkpt lat="50.01489" lon="5.40399">
        <ele>445</ele>
        <time>2015-03-28T13:08:32Z</time>
      </trkpt>
      <trkpt lat="50.0149" lon="5.40399">
        <ele>445</ele>
        <time>2015-03-28T13:08:38Z</time>
      </trkpt>
      <trkpt lat="50.01488" lon="5.40397">
        <ele>445</ele>
        <time>2015-03-28T13:08:43Z</time>
      </trkpt>
      <trkpt lat="50.01487" lon="5.40397">
        <ele>445</ele>
        <time>2015-03-28T13:08:48Z</time>
      </trkpt>
      <trkpt lat="50.01485" lon="5.40397">
        <ele>445</ele>
        <time>2015-03-28T13:08:54Z</time>
      </trkpt>
      <trkpt lat="50.01484" lon="5.40397">
        <ele>445</ele>
        <time>2015-03-28T13:09:00Z</time>
      </trkpt>
      <trkpt lat="50.01483" lon="5.40399">
        <ele>445</ele>
        <time>2015-03-28T13:09:05Z</time>
      </trkpt>
      <trkpt lat="50.01484" lon="5.404">
        <ele>445</ele>
        <time>2015-03-28T13:09:11Z</time>
      </trkpt>
      <trkpt lat="50.01482" lon="5.40398">
        <ele>445</ele>
        <time>2015-03-28T13:09:17Z</time>
      </trkpt>
      <trkpt lat="50.01481" lon="5.40399">
        <ele>445</ele>
        <time>2015-03-28T13:09:22Z</time>
      </trkpt>
      <trkpt lat="50.01481" lon="5.40399">
        <ele>445</ele>
        <time>2015-03-28T13:09:27Z</time>
      </trkpt>
      <trkpt lat="50.01482" lon="5.40398">
        <ele>445</ele>
        <time>2015-03-28T13:09:32Z</time>
      </trkpt>
      <trkpt lat="50.01485" lon="5.40396">
        <ele>445</ele>
        <time>2015-03-28T13:09:37Z</time>
      </trkpt>
      <trkpt lat="50.01486" lon="5.40394">
        <ele>445</ele>
        <time>2015-03-28T13:09:43Z</time>
      </trkpt>
      <trkpt lat="50.01485" lon="5.40394">
        <ele>445</ele>
        <time>2015-03-28T13:09:49Z</time>
      </trkpt>
      <trkpt lat="50.01486" lon="5.40395">
        <ele>445</ele>
        <time>2015-03-28T13:09:54Z</time>
      </trkpt>
      <trkpt lat="50.01486" lon="5.40396">
        <ele>445</ele>
        <time>2015-03-28T13:09:59Z</time>
      </trkpt>
      <trkpt lat="50.01487" lon="5.40397">
        <ele>445</ele>
        <time>2015-03-28T13:10:04Z</time>
      </trkpt>
      <trkpt lat="50.01489" lon="5.40396">
        <ele>445</ele>
        <time>2015-03-28T13:10:09Z</time>
      </trkpt>
      <trkpt lat="50.01491" lon="5.40395">
        <ele>445</ele>
        <time>2015-03-28T13:10:15Z</time>
      </trkpt>
      <trkpt lat="50.01492" lon="5.40394">
        <ele>445</ele>
        <time>2015-03-28T13:10:21Z</time>
      </trkpt>
      <trkpt lat="50.01493" lon="5.40394">
        <ele>445</ele>
        <time>2015-03-28T13:10:26Z</time>
      </trkpt>
      <trkpt lat="50.01493" lon="5.40395">
        <ele>445</ele>
        <time>2015-03-28T13:10:32Z</time>
      </trkpt>
      <trkpt lat="50.01493" lon="5.40393">
        <ele>445</ele>
        <time>2015-03-28T13:10:37Z</time>
      </trkpt>
      <trkpt lat="50.01495" lon="5.40392">
        <ele>445</ele>
        <time>2015-03-28T13:10:43Z</time>
      </trkpt>
      <trkpt lat="50.01496" lon="5.4039">
        <ele>445</ele>
        <time>2015-03-28T13:10:49Z</time>
      </trkpt>
      <trkpt lat="50.01498" lon="5.4039">
        <ele>446</ele>
        <time>2015-03-28T13:10:54Z</time>
      </trkpt>
      <trkpt lat="50.01498" lon="5.4039">
        <ele>446</ele>
        <time>2015-03-28T13:11:00Z</time>
      </trkpt>
      <trkpt lat="50.01499" lon="5.40395">
        <ele>446</ele>
        <time>2015-03-28T13:11:05Z</time>
      </trkpt>
      <trkpt lat="50.015" lon="5.404">
        <ele>446</ele>
        <time>2015-03-28T13:11:11Z</time>
      </trkpt>
      <trkpt lat="50.01498" lon="5.40399">
        <ele>446</ele>
        <time>2015-03-28T13:11:17Z</time>
      </trkpt>
      <trkpt lat="50.01496" lon="5.404">
        <ele>446</ele>
        <time>2015-03-28T13:11:22Z</time>
      </trkpt>
      <trkpt lat="50.01493" lon="5.40399">
        <ele>445</ele>
        <time>2015-03-28T13:11:28Z</time>
      </trkpt>
      <trkpt lat="50.01491" lon="5.40399">
        <ele>445</ele>
        <time>2015-03-28T13:11:33Z</time>
      </trkpt>
      <trkpt lat="50.01486" lon="5.40402">
        <ele>445</ele>
        <time>2015-03-28T13:11:39Z</time>
      </trkpt>
      <trkpt lat="50.01485" lon="5.40401">
        <ele>445</ele>
        <time>2015-03-28T13:11:44Z</time>
      </trkpt>
      <trkpt lat="50.01482" lon="5.40402">
        <ele>445</ele>
        <time>2015-03-28T13:11:50Z</time>
      </trkpt>
      <trkpt lat="50.01479" lon="5.40399">
        <ele>445</ele>
        <time>2015-03-28T13:11:56Z</time>
      </trkpt>
      <trkpt lat="50.01479" lon="5.40398">
        <ele>445</ele>
        <time>2015-03-28T13:12:01Z</time>
      </trkpt>
      <trkpt lat="50.01479" lon="5.40395">
        <ele>445</ele>
        <time>2015-03-28T13:12:06Z</time>
      </trkpt>
      <trkpt lat="50.0148" lon="5.40396">
        <ele>445</ele>
        <time>2015-03-28T13:12:11Z</time>
      </trkpt>
      <trkpt lat="50.0148" lon="5.40394">
        <ele>445</ele>
        <time>2015-03-28T13:12:17Z</time>
      </trkpt>
      <trkpt lat="50.01479" lon="5.40397">
        <ele>444</ele>
        <time>2015-03-28T13:12:23Z</time>
      </trkpt>
      <trkpt lat="50.01475" lon="5.40394">
        <ele>444</ele>
        <time>2015-03-28T13:12:29Z</time>
      </trkpt>
      <trkpt lat="50.01473" lon="5.40386">
        <ele>444</ele>
        <time>2015-03-28T13:12:35Z</time>
      </trkpt>
      <trkpt lat="50.01469" lon="5.40377">
        <ele>444</ele>
        <time>2015-03-28T13:12:41Z</time>
      </trkpt>
      <trkpt lat="50.01466" lon="5.4037">
        <ele>444</ele>
        <time>2015-03-28T13:12:46Z</time>
      </trkpt>
      <trkpt lat="50.01463" lon="5.40358">
        <ele>445</ele>
        <time>2015-03-28T13:12:52Z</time>
      </trkpt>
      <trkpt lat="50.01463" lon="5.40354">
        <ele>445</ele>
        <time>2015-03-28T13:12:57Z</time>
      </trkpt>
      <trkpt lat="50.01461" lon="5.40356">
        <ele>444</ele>
        <time>2015-03-28T13:13:03Z</time>
      </trkpt>
      <trkpt lat="50.01461" lon="5.40354">
        <ele>445</ele>
        <time>2015-03-28T13:13:08Z</time>
      </trkpt>
      <trkpt lat="50.0146" lon="5.4035">
        <ele>445</ele>
        <time>2015-03-28T13:13:14Z</time>
      </trkpt>
      <trkpt lat="50.0146" lon="5.40344">
        <ele>445</ele>
        <time>2015-03-28T13:13:19Z</time>
      </trkpt>
      <trkpt lat="50.01458" lon="5.4034">
        <ele>444</ele>
        <time>2015-03-28T13:13:25Z</time>
      </trkpt>
      <trkpt lat="50.01454" lon="5.4033">
        <ele>445</ele>
        <time>2015-03-28T13:13:31Z</time>
      </trkpt>
      <trkpt lat="50.0145" lon="5.4032">
        <ele>445</ele>
        <time>2015-03-28T13:13:37Z</time>
      </trkpt>
      <trkpt lat="50.01445" lon="5.40315">
        <ele>445</ele>
        <time>2015-03-28T13:13:42Z</time>
      </trkpt>
      <trkpt lat="50.01442" lon="5.40307">
        <ele>445</ele>
        <time>2015-03-28T13:13:47Z</time>
      </trkpt>
      <trkpt lat="50.0144" lon="5.40297">
        <ele>444</ele>
        <time>2015-03-28T13:13:52Z</time>
      </trkpt>
      <trkpt lat="50.01439" lon="5.40286">
        <ele>445</ele>
        <time>2015-03-28T13:13:58Z</time>
      </trkpt>
      <trkpt lat="50.01436" lon="5.40281">
        <ele>445</ele>
        <time>2015-03-28T13:14:03Z</time>
      </trkpt>
      <trkpt lat="50.01433" lon="5.40271">
        <ele>445</ele>
        <time>2015-03-28T13:14:09Z</time>
      </trkpt>
      <trkpt lat="50.01431" lon="5.40261">
        <ele>445</ele>
        <time>2015-03-28T13:14:14Z</time>
      </trkpt>
      <trkpt lat="50.01427" lon="5.40252">
        <ele>444</ele>
        <time>2015-03-28T13:14:20Z</time>
      </trkpt>
      <trkpt lat="50.01424" lon="5.40242">
        <ele>444</ele>
        <time>2015-03-28T13:14:26Z</time>
      </trkpt>
      <trkpt lat="50.01421" lon="5.40232">
        <ele>444</ele>
        <time>2015-03-28T13:14:32Z</time>
      </trkpt>
      <trkpt lat="50.01418" lon="5.40225">
        <ele>444</ele>
        <time>2015-03-28T13:14:37Z</time>
      </trkpt>
      <trkpt lat="50.01413" lon="5.40218">
        <ele>444</ele>
        <time>2015-03-28T13:14:42Z</time>
      </trkpt>
      <trkpt lat="50.01409" lon="5.40208">
        <ele>443</ele>
        <time>2015-03-28T13:14:48Z</time>
      </trkpt>
      <trkpt lat="50.01406" lon="5.40205">
        <ele>443</ele>
        <time>2015-03-28T13:14:53Z</time>
      </trkpt>
      <trkpt lat="50.01403" lon="5.40199">
        <ele>443</ele>
        <time>2015-03-28T13:14:59Z</time>
      </trkpt>
      <trkpt lat="50.01401" lon="5.40189">
        <ele>442</ele>
        <time>2015-03-28T13:15:04Z</time>
      </trkpt>
      <trkpt lat="50.01396" lon="5.40181">
        <ele>442</ele>
        <time>2015-03-28T13:15:09Z</time>
      </trkpt>
      <trkpt lat="50.01392" lon="5.40171">
        <ele>442</ele>
        <time>2015-03-28T13:15:15Z</time>
      </trkpt>
      <trkpt lat="50.01387" lon="5.40162">
        <ele>442</ele>
        <time>2015-03-28T13:15:21Z</time>
      </trkpt>
      <trkpt lat="50.01384" lon="5.40153">
        <ele>442</ele>
        <time>2015-03-28T13:15:26Z</time>
      </trkpt>
      <trkpt lat="50.01379" lon="5.40146">
        <ele>441</ele>
        <time>2015-03-28T13:15:31Z</time>
      </trkpt>
      <trkpt lat="50.01376" lon="5.40137">
        <ele>440</ele>
        <time>2015-03-28T13:15:36Z</time>
      </trkpt>
      <trkpt lat="50.01373" lon="5.40125">
        <ele>440</ele>
        <time>2015-03-28T13:15:42Z</time>
      </trkpt>
      <trkpt lat="50.0137" lon="5.40117">
        <ele>440</ele>
        <time>2015-03-28T13:15:47Z</time>
      </trkpt>
      <trkpt lat="50.01365" lon="5.40111">
        <ele>440</ele>
        <time>2015-03-28T13:15:52Z</time>
      </trkpt>
      <trkpt lat="50.01362" lon="5.401">
        <ele>440</ele>
        <time>2015-03-28T13:15:58Z</time>
      </trkpt>
      <trkpt lat="50.0136" lon="5.40093">
        <ele>440</ele>
        <time>2015-03-28T13:16:03Z</time>
      </trkpt>
      <trkpt lat="50.01357" lon="5.40084">
        <ele>440</ele>
        <time>2015-03-28T13:16:09Z</time>
      </trkpt>
      <trkpt lat="50.01352" lon="5.40078">
        <ele>440</ele>
        <time>2015-03-28T13:16:15Z</time>
      </trkpt>
      <trkpt lat="50.01349" lon="5.40076">
        <ele>440</ele>
        <time>2015-03-28T13:16:21Z</time>
      </trkpt>
      <trkpt lat="50.01347" lon="5.40068">
        <ele>439</ele>
        <time>2015-03-28T13:16:27Z</time>
      </trkpt>
      <trkpt lat="50.01343" lon="5.40058">
        <ele>439</ele>
        <time>2015-03-28T13:16:33Z</time>
      </trkpt>
      <trkpt lat="50.01339" lon="5.4005">
        <ele>439</ele>
        <time>2015-03-28T13:16:38Z</time>
      </trkpt>
      <trkpt lat="50.01335" lon="5.40042">
        <ele>439</ele>
        <time>2015-03-28T13:16:44Z</time>
      </trkpt>
      <trkpt lat="50.0133" lon="5.40035">
        <ele>439</ele>
        <time>2015-03-28T13:16:50Z</time>
      </trkpt>
      <trkpt lat="50.01325" lon="5.40028">
        <ele>439</ele>
        <time>2015-03-28T13:16:55Z</time>
      </trkpt>
      <trkpt lat="50.01317" lon="5.40024">
        <ele>439</ele>
        <time>2015-03-28T13:17:01Z</time>
      </trkpt>
      <trkpt lat="50.0131" lon="5.40027">
        <ele>438</ele>
        <time>2015-03-28T13:17:07Z</time>
      </trkpt>
      <trkpt lat="50.01304" lon="5.40031">
        <ele>437</ele>
        <time>2015-03-28T13:17:12Z</time>
      </trkpt>
      <trkpt lat="50.01297" lon="5.40036">
        <ele>436</ele>
        <time>2015-03-28T13:17:18Z</time>
      </trkpt>
      <trkpt lat="50.01291" lon="5.4004">
        <ele>435</ele>
        <time>2015-03-28T13:17:23Z</time>
      </trkpt>
      <trkpt lat="50.01283" lon="5.40041">
        <ele>434</ele>
        <time>2015-03-28T13:17:29Z</time>
      </trkpt>
      <trkpt lat="50.01276" lon="5.40041">
        <ele>434</ele>
        <time>2015-03-28T13:17:34Z</time>
      </trkpt>
      <trkpt lat="50.01268" lon="5.40039">
        <ele>432</ele>
        <time>2015-03-28T13:17:40Z</time>
      </trkpt>
      <trkpt lat="50.01262" lon="5.40035">
        <ele>432</ele>
        <time>2015-03-28T13:17:46Z</time>
      </trkpt>
      <trkpt lat="50.01257" lon="5.40031">
        <ele>431</ele>
        <time>2015-03-28T13:17:51Z</time>
      </trkpt>
      <trkpt lat="50.01252" lon="5.40026">
        <ele>430</ele>
        <time>2015-03-28T13:17:56Z</time>
      </trkpt>
      <trkpt lat="50.01246" lon="5.4002">
        <ele>429</ele>
        <time>2015-03-28T13:18:02Z</time>
      </trkpt>
      <trkpt lat="50.01239" lon="5.40014">
        <ele>429</ele>
        <time>2015-03-28T13:18:07Z</time>
      </trkpt>
      <trkpt lat="50.01233" lon="5.40008">
        <ele>429</ele>
        <time>2015-03-28T13:18:12Z</time>
      </trkpt>
      <trkpt lat="50.01227" lon="5.4">
        <ele>428</ele>
        <time>2015-03-28T13:18:18Z</time>
      </trkpt>
      <trkpt lat="50.01222" lon="5.39992">
        <ele>428</ele>
        <time>2015-03-28T13:18:23Z</time>
      </trkpt>
      <trkpt lat="50.01217" lon="5.39985">
        <ele>427</ele>
        <time>2015-03-28T13:18:29Z</time>
      </trkpt>
      <trkpt lat="50.01213" lon="5.39977">
        <ele>427</ele>
        <time>2015-03-28T13:18:34Z</time>
      </trkpt>
      <trkpt lat="50.01209" lon="5.39968">
        <ele>427</ele>
        <time>2015-03-28T13:18:39Z</time>
      </trkpt>
      <trkpt lat="50.01205" lon="5.39959">
        <ele>426</ele>
        <time>2015-03-28T13:18:45Z</time>
      </trkpt>
      <trkpt lat="50.01202" lon="5.3995">
        <ele>426</ele>
        <time>2015-03-28T13:18:51Z</time>
      </trkpt>
      <trkpt lat="50.01199" lon="5.39943">
        <ele>426</ele>
        <time>2015-03-28T13:18:56Z</time>
      </trkpt>
      <trkpt lat="50.01196" lon="5.39933">
        <ele>426</ele>
        <time>2015-03-28T13:19:02Z</time>
      </trkpt>
      <trkpt lat="50.01193" lon="5.39923">
        <ele>426</ele>
        <time>2015-03-28T13:19:08Z</time>
      </trkpt>
      <trkpt lat="50.01191" lon="5.39915">
        <ele>426</ele>
        <time>2015-03-28T13:19:13Z</time>
      </trkpt>
      <trkpt lat="50.01188" lon="5.39905">
        <ele>425</ele>
        <time>2015-03-28T13:19:19Z</time>
      </trkpt>
      <trkpt lat="50.01186" lon="5.39894">
        <ele>425</ele>
        <time>2015-03-28T13:19:25Z</time>
      </trkpt>
      <trkpt lat="50.01185" lon="5.39885">
        <ele>424</ele>
        <time>2015-03-28T13:19:31Z</time>
      </trkpt>
      <trkpt lat="50.01183" lon="5.39877">
        <ele>424</ele>
        <time>2015-03-28T13:19:36Z</time>
      </trkpt>
      <trkpt lat="50.01182" lon="5.39868">
        <ele>424</ele>
        <time>2015-03-28T13:19:41Z</time>
      </trkpt>
      <trkpt lat="50.01181" lon="5.39859">
        <ele>425</ele>
        <time>2015-03-28T13:19:47Z</time>
      </trkpt>
      <trkpt lat="50.01181" lon="5.3985">
        <ele>424</ele>
        <time>2015-03-28T13:19:52Z</time>
      </trkpt>
      <trkpt lat="50.0118" lon="5.3984">
        <ele>424</ele>
        <time>2015-03-28T13:19:58Z</time>
      </trkpt>
      <trkpt lat="50.01179" lon="5.39833">
        <ele>424</ele>
        <time>2015-03-28T13:20:03Z</time>
      </trkpt>
      <trkpt lat="50.0118" lon="5.39825">
        <ele>424</ele>
        <time>2015-03-28T13:20:09Z</time>
      </trkpt>
      <trkpt lat="50.0118" lon="5.3982">
        <ele>424</ele>
        <time>2015-03-28T13:20:14Z</time>
      </trkpt>
      <trkpt lat="50.01178" lon="5.39812">
        <ele>424</ele>
        <time>2015-03-28T13:20:19Z</time>
      </trkpt>
      <trkpt lat="50.01178" lon="5.39802">
        <ele>423</ele>
        <time>2015-03-28T13:20:25Z</time>
      </trkpt>
      <trkpt lat="50.01178" lon="5.39793">
        <ele>423</ele>
        <time>2015-03-28T13:20:30Z</time>
      </trkpt>
      <trkpt lat="50.01178" lon="5.39782">
        <ele>423</ele>
        <time>2015-03-28T13:20:36Z</time>
      </trkpt>
      <trkpt lat="50.01178" lon="5.39773">
        <ele>422</ele>
        <time>2015-03-28T13:20:41Z</time>
      </trkpt>
      <trkpt lat="50.01178" lon="5.39759">
        <ele>423</ele>
        <time>2015-03-28T13:20:47Z</time>
      </trkpt>
      <trkpt lat="50.01179" lon="5.39748">
        <ele>423</ele>
        <time>2015-03-28T13:20:52Z</time>
      </trkpt>
      <trkpt lat="50.0118" lon="5.39743">
        <ele>423</ele>
        <time>2015-03-28T13:20:58Z</time>
      </trkpt>
      <trkpt lat="50.01179" lon="5.39732">
        <ele>423</ele>
        <time>2015-03-28T13:21:03Z</time>
      </trkpt>
      <trkpt lat="50.01179" lon="5.39722">
        <ele>423</ele>
        <time>2015-03-28T13:21:08Z</time>
      </trkpt>
      <trkpt lat="50.01179" lon="5.3971">
        <ele>422</ele>
        <time>2015-03-28T13:21:14Z</time>
      </trkpt>
      <trkpt lat="50.01178" lon="5.39699">
        <ele>422</ele>
        <time>2015-03-28T13:21:20Z</time>
      </trkpt>
      <trkpt lat="50.01177" lon="5.3969">
        <ele>423</ele>
        <time>2015-03-28T13:21:25Z</time>
      </trkpt>
      <trkpt lat="50.01176" lon="5.39679">
        <ele>423</ele>
        <time>2015-03-28T13:21:31Z</time>
      </trkpt>
      <trkpt lat="50.01175" lon="5.39668">
        <ele>423</ele>
        <time>2015-03-28T13:21:37Z</time>
      </trkpt>
      <trkpt lat="50.01174" lon="5.39659">
        <ele>423</ele>
        <time>2015-03-28T13:21:42Z</time>
      </trkpt>
      <trkpt lat="50.01173" lon="5.39648">
        <ele>423</ele>
        <time>2015-03-28T13:21:48Z</time>
      </trkpt>
      <trkpt lat="50.01172" lon="5.3964">
        <ele>422</ele>
        <time>2015-03-28T13:21:53Z</time>
      </trkpt>
      <trkpt lat="50.01171" lon="5.3963">
        <ele>421</ele>
        <time>2015-03-28T13:21:59Z</time>
      </trkpt>
      <trkpt lat="50.01171" lon="5.39628">
        <ele>422</ele>
        <time>2015-03-28T13:22:05Z</time>
      </trkpt>
      <trkpt lat="50.0117" lon="5.39617">
        <ele>421</ele>
        <time>2015-03-28T13:22:11Z</time>
      </trkpt>
      <trkpt lat="50.01169" lon="5.39606">
        <ele>421</ele>
        <time>2015-03-28T13:22:17Z</time>
      </trkpt>
      <trkpt lat="50.01167" lon="5.39595">
        <ele>421</ele>
        <time>2015-03-28T13:22:22Z</time>
      </trkpt>
      <trkpt lat="50.01165" lon="5.39583">
        <ele>422</ele>
        <time>2015-03-28T13:22:28Z</time>
      </trkpt>
      <trkpt lat="50.01164" lon="5.39571">
        <ele>422</ele>
        <time>2015-03-28T13:22:34Z</time>
      </trkpt>
      <trkpt lat="50.01162" lon="5.39561">
        <ele>421</ele>
        <time>2015-03-28T13:22:39Z</time>
      </trkpt>
      <trkpt lat="50.0116" lon="5.39551">
        <ele>421</ele>
        <time>2015-03-28T13:22:44Z</time>
      </trkpt>
      <trkpt lat="50.01157" lon="5.3954">
        <ele>422</ele>
        <time>2015-03-28T13:22:50Z</time>
      </trkpt>
      <trkpt lat="50.01155" lon="5.39531">
        <ele>422</ele>
        <time>2015-03-28T13:22:56Z</time>
      </trkpt>
      <trkpt lat="50.01154" lon="5.39522">
        <ele>421</ele>
        <time>2015-03-28T13:23:01Z</time>
      </trkpt>
      <trkpt lat="50.01152" lon="5.39512">
        <ele>421</ele>
        <time>2015-03-28T13:23:07Z</time>
      </trkpt>
      <trkpt lat="50.01151" lon="5.39504">
        <ele>421</ele>
        <time>2015-03-28T13:23:12Z</time>
      </trkpt>
      <trkpt lat="50.01149" lon="5.39495">
        <ele>422</ele>
        <time>2015-03-28T13:23:17Z</time>
      </trkpt>
      <trkpt lat="50.01148" lon="5.39486">
        <ele>421</ele>
        <time>2015-03-28T13:23:22Z</time>
      </trkpt>
      <trkpt lat="50.01147" lon="5.39477">
        <ele>421</ele>
        <time>2015-03-28T13:23:27Z</time>
      </trkpt>
      <trkpt lat="50.01144" lon="5.39466">
        <ele>421</ele>
        <time>2015-03-28T13:23:33Z</time>
      </trkpt>
      <trkpt lat="50.01142" lon="5.39454">
        <ele>421</ele>
        <time>2015-03-28T13:23:39Z</time>
      </trkpt>
      <trkpt lat="50.0114" lon="5.39445">
        <ele>420</ele>
        <time>2015-03-28T13:23:44Z</time>
      </trkpt>
      <trkpt lat="50.01138" lon="5.39433">
        <ele>421</ele>
        <time>2015-03-28T13:23:50Z</time>
      </trkpt>
      <trkpt lat="50.01136" lon="5.39424">
        <ele>420</ele>
        <time>2015-03-28T13:23:56Z</time>
      </trkpt>
      <trkpt lat="50.01136" lon="5.39419">
        <ele>421</ele>
        <time>2015-03-28T13:24:01Z</time>
      </trkpt>
      <trkpt lat="50.01133" lon="5.3941">
        <ele>421</ele>
        <time>2015-03-28T13:24:06Z</time>
      </trkpt>
      <trkpt lat="50.0113" lon="5.39401">
        <ele>420</ele>
        <time>2015-03-28T13:24:11Z</time>
      </trkpt>
      <trkpt lat="50.01127" lon="5.39392">
        <ele>418</ele>
        <time>2015-03-28T13:24:16Z</time>
      </trkpt>
      <trkpt lat="50.01123" lon="5.39382">
        <ele>418</ele>
        <time>2015-03-28T13:24:22Z</time>
      </trkpt>
      <trkpt lat="50.01119" lon="5.39372">
        <ele>417</ele>
        <time>2015-03-28T13:24:27Z</time>
      </trkpt>
      <trkpt lat="50.01116" lon="5.39361">
        <ele>418</ele>
        <time>2015-03-28T13:24:33Z</time>
      </trkpt>
      <trkpt lat="50.01111" lon="5.3935">
        <ele>417</ele>
        <time>2015-03-28T13:24:39Z</time>
      </trkpt>
      <trkpt lat="50.01108" lon="5.39341">
        <ele>417</ele>
        <time>2015-03-28T13:24:44Z</time>
      </trkpt>
      <trkpt lat="50.01104" lon="5.39332">
        <ele>417</ele>
        <time>2015-03-28T13:24:49Z</time>
      </trkpt>
      <trkpt lat="50.01101" lon="5.39324">
        <ele>417</ele>
        <time>2015-03-28T13:24:54Z</time>
      </trkpt>
      <trkpt lat="50.01098" lon="5.39313">
        <ele>417</ele>
        <time>2015-03-28T13:25:00Z</time>
      </trkpt>
      <trkpt lat="50.01096" lon="5.39304">
        <ele>416</ele>
        <time>2015-03-28T13:25:05Z</time>
      </trkpt>
      <trkpt lat="50.01092" lon="5.39294">
        <ele>415</ele>
        <time>2015-03-28T13:25:11Z</time>
      </trkpt>
      <trkpt lat="50.01089" lon="5.39286">
        <ele>415</ele>
        <time>2015-03-28T13:25:16Z</time>
      </trkpt>
      <trkpt lat="50.01086" lon="5.39277">
        <ele>415</ele>
        <time>2015-03-28T13:25:22Z</time>
      </trkpt>
      <trkpt lat="50.01084" lon="5.39268">
        <ele>415</ele>
        <time>2015-03-28T13:25:27Z</time>
      </trkpt>
      <trkpt lat="50.01081" lon="5.39258">
        <ele>415</ele>
        <time>2015-03-28T13:25:33Z</time>
      </trkpt>
      <trkpt lat="50.01079" lon="5.3925">
        <ele>415</ele>
        <time>2015-03-28T13:25:38Z</time>
      </trkpt>
      <trkpt lat="50.01077" lon="5.39242">
        <ele>415</ele>
        <time>2015-03-28T13:25:43Z</time>
      </trkpt>
      <trkpt lat="50.01074" lon="5.39231">
        <ele>415</ele>
        <time>2015-03-28T13:25:49Z</time>
      </trkpt>
      <trkpt lat="50.01073" lon="5.39223">
        <ele>414</ele>
        <time>2015-03-28T13:25:54Z</time>
      </trkpt>
      <trkpt lat="50.01071" lon="5.39214">
        <ele>414</ele>
        <time>2015-03-28T13:26:00Z</time>
      </trkpt>
      <trkpt lat="50.01068" lon="5.39202">
        <ele>414</ele>
        <time>2015-03-28T13:26:06Z</time>
      </trkpt>
      <trkpt lat="50.01065" lon="5.39193">
        <ele>413</ele>
        <time>2015-03-28T13:26:11Z</time>
      </trkpt>
      <trkpt lat="50.01063" lon="5.39181">
        <ele>413</ele>
        <time>2015-03-28T13:26:17Z</time>
      </trkpt>
      <trkpt lat="50.01061" lon="5.39169">
        <ele>413</ele>
        <time>2015-03-28T13:26:23Z</time>
      </trkpt>
      <trkpt lat="50.0106" lon="5.39159">
        <ele>412</ele>
        <time>2015-03-28T13:26:28Z</time>
      </trkpt>
      <trkpt lat="50.01057" lon="5.39147">
        <ele>412</ele>
        <time>2015-03-28T13:26:34Z</time>
      </trkpt>
      <trkpt lat="50.01055" lon="5.39137">
        <ele>412</ele>
        <time>2015-03-28T13:26:40Z</time>
      </trkpt>
      <trkpt lat="50.01052" lon="5.39125">
        <ele>412</ele>
        <time>2015-03-28T13:26:46Z</time>
      </trkpt>
      <trkpt lat="50.01049" lon="5.39113">
        <ele>411</ele>
        <time>2015-03-28T13:26:52Z</time>
      </trkpt>
      <trkpt lat="50.01046" lon="5.39102">
        <ele>410</ele>
        <time>2015-03-28T13:26:57Z</time>
      </trkpt>
      <trkpt lat="50.01043" lon="5.3909">
        <ele>410</ele>
        <time>2015-03-28T13:27:02Z</time>
      </trkpt>
      <trkpt lat="50.01039" lon="5.3908">
        <ele>410</ele>
        <time>2015-03-28T13:27:08Z</time>
      </trkpt>
      <trkpt lat="50.01038" lon="5.39075">
        <ele>409</ele>
        <time>2015-03-28T13:27:14Z</time>
      </trkpt>
      <trkpt lat="50.01037" lon="5.39067">
        <ele>409</ele>
        <time>2015-03-28T13:27:19Z</time>
      </trkpt>
      <trkpt lat="50.01037" lon="5.39057">
        <ele>408</ele>
        <time>2015-03-28T13:27:25Z</time>
      </trkpt>
      <trkpt lat="50.01036" lon="5.39048">
        <ele>408</ele>
        <time>2015-03-28T13:27:30Z</time>
      </trkpt>
      <trkpt lat="50.01034" lon="5.39039">
        <ele>408</ele>
        <time>2015-03-28T13:27:36Z</time>
      </trkpt>
      <trkpt lat="50.01033" lon="5.3903">
        <ele>407</ele>
        <time>2015-03-28T13:27:42Z</time>
      </trkpt>
      <trkpt lat="50.01031" lon="5.3902">
        <ele>407</ele>
        <time>2015-03-28T13:27:48Z</time>
      </trkpt>
      <trkpt lat="50.01028" lon="5.3901">
        <ele>406</ele>
        <time>2015-03-28T13:27:54Z</time>
      </trkpt>
      <trkpt lat="50.01026" lon="5.39002">
        <ele>406</ele>
        <time>2015-03-28T13:27:59Z</time>
      </trkpt>
      <trkpt lat="50.01023" lon="5.38995">
        <ele>405</ele>
        <time>2015-03-28T13:28:04Z</time>
      </trkpt>
      <trkpt lat="50.0102" lon="5.38988">
        <ele>404</ele>
        <time>2015-03-28T13:28:10Z</time>
      </trkpt>
      <trkpt lat="50.01016" lon="5.3898">
        <ele>404</ele>
        <time>2015-03-28T13:28:16Z</time>
      </trkpt>
      <trkpt lat="50.01013" lon="5.38973">
        <ele>403</ele>
        <time>2015-03-28T13:28:21Z</time>
      </trkpt>
      <trkpt lat="50.0101" lon="5.38966">
        <ele>402</ele>
        <time>2015-03-28T13:28:27Z</time>
      </trkpt>
      <trkpt lat="50.01005" lon="5.38958">
        <ele>402</ele>
        <time>2015-03-28T13:28:32Z</time>
      </trkpt>
      <trkpt lat="50.00999" lon="5.38948">
        <ele>401</ele>
        <time>2015-03-28T13:28:38Z</time>
      </trkpt>
      <trkpt lat="50.00994" lon="5.38936">
        <ele>402</ele>
        <time>2015-03-28T13:28:44Z</time>
      </trkpt>
      <trkpt lat="50.00992" lon="5.38924">
        <ele>402</ele>
        <time>2015-03-28T13:28:50Z</time>
      </trkpt>
      <trkpt lat="50.0099" lon="5.38914">
        <ele>401</ele>
        <time>2015-03-28T13:28:55Z</time>
      </trkpt>
      <trkpt lat="50.0099" lon="5.38903">
        <ele>402</ele>
        <time>2015-03-28T13:29:01Z</time>
      </trkpt>
      <trkpt lat="50.0099" lon="5.38894">
        <ele>402</ele>
        <time>2015-03-28T13:29:06Z</time>
      </trkpt>
      <trkpt lat="50.0099" lon="5.38883">
        <ele>402</ele>
        <time>2015-03-28T13:29:12Z</time>
      </trkpt>
      <trkpt lat="50.00992" lon="5.38876">
        <ele>403</ele>
        <time>2015-03-28T13:29:17Z</time>
      </trkpt>
      <trkpt lat="50.00994" lon="5.38869">
        <ele>403</ele>
        <time>2015-03-28T13:29:22Z</time>
      </trkpt>
      <trkpt lat="50.00997" lon="5.3886">
        <ele>404</ele>
        <time>2015-03-28T13:29:28Z</time>
      </trkpt>
      <trkpt lat="50.00999" lon="5.38851">
        <ele>404</ele>
        <time>2015-03-28T13:29:33Z</time>
      </trkpt>
      <trkpt lat="50.01001" lon="5.3884">
        <ele>405</ele>
        <time>2015-03-28T13:29:39Z</time>
      </trkpt>
      <trkpt lat="50.01003" lon="5.38831">
        <ele>405</ele>
        <time>2015-03-28T13:29:44Z</time>
      </trkpt>
      <trkpt lat="50.01005" lon="5.38823">
        <ele>406</ele>
        <time>2015-03-28T13:29:49Z</time>
      </trkpt>
      <trkpt lat="50.01006" lon="5.38813">
        <ele>407</ele>
        <time>2015-03-28T13:29:55Z</time>
      </trkpt>
      <trkpt lat="50.01009" lon="5.38806">
        <ele>407</ele>
        <time>2015-03-28T13:30:00Z</time>
      </trkpt>
      <trkpt lat="50.01011" lon="5.38799">
        <ele>408</ele>
        <time>2015-03-28T13:30:05Z</time>
      </trkpt>
      <trkpt lat="50.01014" lon="5.38791">
        <ele>408</ele>
        <time>2015-03-28T13:30:11Z</time>
      </trkpt>
      <trkpt lat="50.01016" lon="5.38785">
        <ele>409</ele>
        <time>2015-03-28T13:30:16Z</time>
      </trkpt>
      <trkpt lat="50.01018" lon="5.38779">
        <ele>409</ele>
        <time>2015-03-28T13:30:21Z</time>
      </trkpt>
      <trkpt lat="50.0102" lon="5.38773">
        <ele>410</ele>
        <time>2015-03-28T13:30:26Z</time>
      </trkpt>
      <trkpt lat="50.01022" lon="5.38764">
        <ele>411</ele>
        <time>2015-03-28T13:30:32Z</time>
      </trkpt>
      <trkpt lat="50.01023" lon="5.38754">
        <ele>411</ele>
        <time>2015-03-28T13:30:38Z</time>
      </trkpt>
      <trkpt lat="50.01023" lon="5.3875">
        <ele>411</ele>
        <time>2015-03-28T13:30:43Z</time>
      </trkpt>
      <trkpt lat="50.01024" lon="5.38742">
        <ele>412</ele>
        <time>2015-03-28T13:30:48Z</time>
      </trkpt>
      <trkpt lat="50.01026" lon="5.38734">
        <ele>412</ele>
        <time>2015-03-28T13:30:53Z</time>
      </trkpt>
      <trkpt lat="50.01029" lon="5.38725">
        <ele>413</ele>
        <time>2015-03-28T13:30:59Z</time>
      </trkpt>
      <trkpt lat="50.01031" lon="5.38717">
        <ele>413</ele>
        <time>2015-03-28T13:31:04Z</time>
      </trkpt>
      <trkpt lat="50.01033" lon="5.38707">
        <ele>414</ele>
        <time>2015-03-28T13:31:10Z</time>
      </trkpt>
      <trkpt lat="50.01036" lon="5.38697">
        <ele>414</ele>
        <time>2015-03-28T13:31:15Z</time>
      </trkpt>
      <trkpt lat="50.01039" lon="5.38688">
        <ele>414</ele>
        <time>2015-03-28T13:31:21Z</time>
      </trkpt>
      <trkpt lat="50.01042" lon="5.38681">
        <ele>415</ele>
        <time>2015-03-28T13:31:26Z</time>
      </trkpt>
      <trkpt lat="50.01046" lon="5.38671">
        <ele>415</ele>
        <time>2015-03-28T13:31:32Z</time>
      </trkpt>
      <trkpt lat="50.01049" lon="5.38665">
        <ele>415</ele>
        <time>2015-03-28T13:31:37Z</time>
      </trkpt>
      <trkpt lat="50.01052" lon="5.38658">
        <ele>415</ele>
        <time>2015-03-28T13:31:42Z</time>
      </trkpt>
      <trkpt lat="50.01056" lon="5.38652">
        <ele>416</ele>
        <time>2015-03-28T13:31:47Z</time>
      </trkpt>
      <trkpt lat="50.0106" lon="5.38643">
        <ele>416</ele>
        <time>2015-03-28T13:31:53Z</time>
      </trkpt>
      <trkpt lat="50.01063" lon="5.38636">
        <ele>416</ele>
        <time>2015-03-28T13:31:58Z</time>
      </trkpt>
      <trkpt lat="50.01067" lon="5.38626">
        <ele>417</ele>
        <time>2015-03-28T13:32:04Z</time>
      </trkpt>
      <trkpt lat="50.0107" lon="5.38616">
        <ele>417</ele>
        <time>2015-03-28T13:32:10Z</time>
      </trkpt>
      <trkpt lat="50.01073" lon="5.3861">
        <ele>417</ele>
        <time>2015-03-28T13:32:15Z</time>
      </trkpt>
      <trkpt lat="50.01076" lon="5.38603">
        <ele>417</ele>
        <time>2015-03-28T13:32:20Z</time>
      </trkpt>
      <trkpt lat="50.01079" lon="5.38596">
        <ele>418</ele>
        <time>2015-03-28T13:32:25Z</time>
      </trkpt>
      <trkpt lat="50.01082" lon="5.38588">
        <ele>418</ele>
        <time>2015-03-28T13:32:30Z</time>
      </trkpt>
      <trkpt lat="50.01085" lon="5.38579">
        <ele>419</ele>
        <time>2015-03-28T13:32:36Z</time>
      </trkpt>
      <trkpt lat="50.01089" lon="5.38571">
        <ele>419</ele>
        <time>2015-03-28T13:32:42Z</time>
      </trkpt>
      <trkpt lat="50.01093" lon="5.38565">
        <ele>420</ele>
        <time>2015-03-28T13:32:47Z</time>
      </trkpt>
      <trkpt lat="50.01097" lon="5.38569">
        <ele>420</ele>
        <time>2015-03-28T13:32:53Z</time>
      </trkpt>
      <trkpt lat="50.01099" lon="5.38573">
        <ele>421</ele>
        <time>2015-03-28T13:32:58Z</time>
      </trkpt>
      <trkpt lat="50.01103" lon="5.38579">
        <ele>421</ele>
        <time>2015-03-28T13:33:04Z</time>
      </trkpt>
      <trkpt lat="50.01107" lon="5.38586">
        <ele>422</ele>
        <time>2015-03-28T13:33:10Z</time>
      </trkpt>
      <trkpt lat="50.0111" lon="5.38592">
        <ele>423</ele>
        <time>2015-03-28T13:33:16Z</time>
      </trkpt>
      <trkpt lat="50.01114" lon="5.386">
        <ele>424</ele>
        <time>2015-03-28T13:33:22Z</time>
      </trkpt>
      <trkpt lat="50.01117" lon="5.38607">
        <ele>424</ele>
        <time>2015-03-28T13:33:27Z</time>
      </trkpt>
      <trkpt lat="50.0112" lon="5.38614">
        <ele>424</ele>
        <time>2015-03-28T13:33:32Z</time>
      </trkpt>
      <trkpt lat="50.01122" lon="5.3862">
        <ele>425</ele>
        <time>2015-03-28T13:33:37Z</time>
      </trkpt>
      <trkpt lat="50.01126" lon="5.38627">
        <ele>426</ele>
        <time>2015-03-28T13:33:42Z</time>
      </trkpt>
      <trkpt lat="50.01129" lon="5.38634">
        <ele>427</ele>
        <time>2015-03-28T13:33:47Z</time>
      </trkpt>
      <trkpt lat="50.01133" lon="5.38641">
        <ele>427</ele>
        <time>2015-03-28T13:33:53Z</time>
      </trkpt>
      <trkpt lat="50.01138" lon="5.38649">
        <ele>428</ele>
        <time>2015-03-28T13:33:59Z</time>
      </trkpt>
      <trkpt lat="50.01142" lon="5.38657">
        <ele>429</ele>
        <time>2015-03-28T13:34:05Z</time>
      </trkpt>
      <trkpt lat="50.01145" lon="5.38663">
        <ele>429</ele>
        <time>2015-03-28T13:34:10Z</time>
      </trkpt>
      <trkpt lat="50.01149" lon="5.38672">
        <ele>429</ele>
        <time>2015-03-28T13:34:16Z</time>
      </trkpt>
      <trkpt lat="50.01154" lon="5.38681">
        <ele>430</ele>
        <time>2015-03-28T13:34:22Z</time>
      </trkpt>
      <trkpt lat="50.01158" lon="5.38687">
        <ele>431</ele>
        <time>2015-03-28T13:34:28Z</time>
      </trkpt>
      <trkpt lat="50.0116" lon="5.38693">
        <ele>431</ele>
        <time>2015-03-28T13:34:33Z</time>
      </trkpt>
      <trkpt lat="50.01165" lon="5.38699">
        <ele>432</ele>
        <time>2015-03-28T13:34:39Z</time>
      </trkpt>
      <trkpt lat="50.01168" lon="5.38706">
        <ele>432</ele>
        <time>2015-03-28T13:34:44Z</time>
      </trkpt>
      <trkpt lat="50.01171" lon="5.38714">
        <ele>432</ele>
        <time>2015-03-28T13:34:50Z</time>
      </trkpt>
      <trkpt lat="50.01174" lon="5.3872">
        <ele>433</ele>
        <time>2015-03-28T13:34:55Z</time>
      </trkpt>
      <trkpt lat="50.01176" lon="5.38726">
        <ele>433</ele>
        <time>2015-03-28T13:35:01Z</time>
      </trkpt>
      <trkpt lat="50.01179" lon="5.38733">
        <ele>434</ele>
        <time>2015-03-28T13:35:06Z</time>
      </trkpt>
      <trkpt lat="50.01181" lon="5.3874">
        <ele>433</ele>
        <time>2015-03-28T13:35:11Z</time>
      </trkpt>
      <trkpt lat="50.01182" lon="5.38748">
        <ele>434</ele>
        <time>2015-03-28T13:35:16Z</time>
      </trkpt>
      <trkpt lat="50.01184" lon="5.38758">
        <ele>434</ele>
        <time>2015-03-28T13:35:22Z</time>
      </trkpt>
      <trkpt lat="50.01185" lon="5.38762">
        <ele>434</ele>
        <time>2015-03-28T13:35:27Z</time>
      </trkpt>
      <trkpt lat="50.01188" lon="5.38769">
        <ele>434</ele>
        <time>2015-03-28T13:35:32Z</time>
      </trkpt>
      <trkpt lat="50.0119" lon="5.38778">
        <ele>434</ele>
        <time>2015-03-28T13:35:38Z</time>
      </trkpt>
      <trkpt lat="50.01192" lon="5.38788">
        <ele>435</ele>
        <time>2015-03-28T13:35:44Z</time>
      </trkpt>
      <trkpt lat="50.01194" lon="5.38796">
        <ele>435</ele>
        <time>2015-03-28T13:35:49Z</time>
      </trkpt>
      <trkpt lat="50.01196" lon="5.38807">
        <ele>435</ele>
        <time>2015-03-28T13:35:55Z</time>
      </trkpt>
      <trkpt lat="50.01196" lon="5.38812">
        <ele>435</ele>
        <time>2015-03-28T13:36:00Z</time>
      </trkpt>
      <trkpt lat="50.01197" lon="5.38818">
        <ele>435</ele>
        <time>2015-03-28T13:36:06Z</time>
      </trkpt>
      <trkpt lat="50.01197" lon="5.38825">
        <ele>435</ele>
        <time>2015-03-28T13:36:11Z</time>
      </trkpt>
      <trkpt lat="50.01199" lon="5.38831">
        <ele>435</ele>
        <time>2015-03-28T13:36:16Z</time>
      </trkpt>
      <trkpt lat="50.01201" lon="5.38837">
        <ele>436</ele>
        <time>2015-03-28T13:36:22Z</time>
      </trkpt>
      <trkpt lat="50.01204" lon="5.38843">
        <ele>436</ele>
        <time>2015-03-28T13:36:27Z</time>
      </trkpt>
      <trkpt lat="50.01206" lon="5.3885">
        <ele>437</ele>
        <time>2015-03-28T13:36:32Z</time>
      </trkpt>
      <trkpt lat="50.01207" lon="5.38853">
        <ele>436</ele>
        <time>2015-03-28T13:36:37Z</time>
      </trkpt>
      <trkpt lat="50.01209" lon="5.38861">
        <ele>436</ele>
        <time>2015-03-28T13:36:43Z</time>
      </trkpt>
      <trkpt lat="50.01211" lon="5.38869">
        <ele>437</ele>
        <time>2015-03-28T13:36:49Z</time>
      </trkpt>
      <trkpt lat="50.01212" lon="5.38876">
        <ele>437</ele>
        <time>2015-03-28T13:36:54Z</time>
      </trkpt>
      <trkpt lat="50.01213" lon="5.38884">
        <ele>438</ele>
        <time>2015-03-28T13:37:00Z</time>
      </trkpt>
      <trkpt lat="50.01215" lon="5.38894">
        <ele>438</ele>
        <time>2015-03-28T13:37:06Z</time>
      </trkpt>
      <trkpt lat="50.01218" lon="5.38903">
        <ele>439</ele>
        <time>2015-03-28T13:37:11Z</time>
      </trkpt>
      <trkpt lat="50.01221" lon="5.38913">
        <ele>439</ele>
        <time>2015-03-28T13:37:17Z</time>
      </trkpt>
      <trkpt lat="50.01223" lon="5.38922">
        <ele>440</ele>
        <time>2015-03-28T13:37:22Z</time>
      </trkpt>
      <trkpt lat="50.01226" lon="5.38931">
        <ele>440</ele>
        <time>2015-03-28T13:37:28Z</time>
      </trkpt>
      <trkpt lat="50.01228" lon="5.38939">
        <ele>440</ele>
        <time>2015-03-28T13:37:33Z</time>
      </trkpt>
      <trkpt lat="50.01231" lon="5.38949">
        <ele>440</ele>
        <time>2015-03-28T13:37:39Z</time>
      </trkpt>
      <trkpt lat="50.0123" lon="5.38957">
        <ele>440</ele>
        <time>2015-03-28T13:37:45Z</time>
      </trkpt>
      <trkpt lat="50.01231" lon="5.38962">
        <ele>440</ele>
        <time>2015-03-28T13:37:50Z</time>
      </trkpt>
      <trkpt lat="50.01234" lon="5.3897">
        <ele>441</ele>
        <time>2015-03-28T13:37:56Z</time>
      </trkpt>
      <trkpt lat="50.01235" lon="5.38977">
        <ele>441</ele>
        <time>2015-03-28T13:38:01Z</time>
      </trkpt>
      <trkpt lat="50.01237" lon="5.38984">
        <ele>441</ele>
        <time>2015-03-28T13:38:07Z</time>
      </trkpt>
      <trkpt lat="50.01239" lon="5.38992">
        <ele>442</ele>
        <time>2015-03-28T13:38:12Z</time>
      </trkpt>
      <trkpt lat="50.01243" lon="5.39001">
        <ele>442</ele>
        <time>2015-03-28T13:38:18Z</time>
      </trkpt>
      <trkpt lat="50.01246" lon="5.3901">
        <ele>442</ele>
        <time>2015-03-28T13:38:24Z</time>
      </trkpt>
      <trkpt lat="50.01249" lon="5.39021">
        <ele>443</ele>
        <time>2015-03-28T13:38:30Z</time>
      </trkpt>
      <trkpt lat="50.01252" lon="5.39031">
        <ele>442</ele>
        <time>2015-03-28T13:38:36Z</time>
      </trkpt>
      <trkpt lat="50.01253" lon="5.39039">
        <ele>443</ele>
        <time>2015-03-28T13:38:41Z</time>
      </trkpt>
      <trkpt lat="50.01255" lon="5.39051">
        <ele>443</ele>
        <time>2015-03-28T13:38:47Z</time>
      </trkpt>
      <trkpt lat="50.01258" lon="5.39064">
        <ele>443</ele>
        <time>2015-03-28T13:38:53Z</time>
      </trkpt>
      <trkpt lat="50.01259" lon="5.39075">
        <ele>443</ele>
        <time>2015-03-28T13:38:59Z</time>
      </trkpt>
      <trkpt lat="50.0126" lon="5.39085">
        <ele>443</ele>
        <time>2015-03-28T13:39:05Z</time>
      </trkpt>
      <trkpt lat="50.01263" lon="5.39094">
        <ele>443</ele>
        <time>2015-03-28T13:39:10Z</time>
      </trkpt>
      <trkpt lat="50.01265" lon="5.39103">
        <ele>444</ele>
        <time>2015-03-28T13:39:15Z</time>
      </trkpt>
      <trkpt lat="50.01268" lon="5.39114">
        <ele>444</ele>
        <time>2015-03-28T13:39:21Z</time>
      </trkpt>
      <trkpt lat="50.01271" lon="5.39125">
        <ele>444</ele>
        <time>2015-03-28T13:39:27Z</time>
      </trkpt>
      <trkpt lat="50.01273" lon="5.39133">
        <ele>444</ele>
        <time>2015-03-28T13:39:32Z</time>
      </trkpt>
      <trkpt lat="50.01275" lon="5.39144">
        <ele>444</ele>
        <time>2015-03-28T13:39:38Z</time>
      </trkpt>
      <trkpt lat="50.01277" lon="5.39153">
        <ele>445</ele>
        <time>2015-03-28T13:39:43Z</time>
      </trkpt>
      <trkpt lat="50.0128" lon="5.39165">
        <ele>445</ele>
        <time>2015-03-28T13:39:49Z</time>
      </trkpt>
      <trkpt lat="50.01283" lon="5.39175">
        <ele>445</ele>
        <time>2015-03-28T13:39:54Z</time>
      </trkpt>
      <trkpt lat="50.01287" lon="5.39187">
        <ele>445</ele>
        <time>2015-03-28T13:40:00Z</time>
      </trkpt>
      <trkpt lat="50.0129" lon="5.39196">
        <ele>446</ele>
        <time>2015-03-28T13:40:05Z</time>
      </trkpt>
      <trkpt lat="50.01293" lon="5.39205">
        <ele>446</ele>
        <time>2015-03-28T13:40:11Z</time>
      </trkpt>
      <trkpt lat="50.01294" lon="5.39217">
        <ele>446</ele>
        <time>2015-03-28T13:40:17Z</time>
      </trkpt>
      <trkpt lat="50.01296" lon="5.39227">
        <ele>446</ele>
        <time>2015-03-28T13:40:22Z</time>
      </trkpt>
      <trkpt lat="50.01297" lon="5.39236">
        <ele>447</ele>
        <time>2015-03-28T13:40:28Z</time>
      </trkpt>
      <trkpt lat="50.01299" lon="5.39245">
        <ele>447</ele>
        <time>2015-03-28T13:40:33Z</time>
      </trkpt>
      <trkpt lat="50.01302" lon="5.39253">
        <ele>447</ele>
        <time>2015-03-28T13:40:38Z</time>
      </trkpt>
      <trkpt lat="50.01306" lon="5.39263">
        <ele>447</ele>
        <time>2015-03-28T13:40:44Z</time>
      </trkpt>
      <trkpt lat="50.01309" lon="5.39272">
        <ele>447</ele>
        <time>2015-03-28T13:40:50Z</time>
      </trkpt>
      <trkpt lat="50.01311" lon="5.39281">
        <ele>448</ele>
        <time>2015-03-28T13:40:55Z</time>
      </trkpt>
      <trkpt lat="50.01313" lon="5.39291">
        <ele>448</ele>
        <time>2015-03-28T13:41:01Z</time>
      </trkpt>
      <trkpt lat="50.01314" lon="5.39297">
        <ele>448</ele>
        <time>2015-03-28T13:41:06Z</time>
      </trkpt>
      <trkpt lat="50.01315" lon="5.39307">
        <ele>449</ele>
        <time>2015-03-28T13:41:11Z</time>
      </trkpt>
      <trkpt lat="50.0132" lon="5.39317">
        <ele>449</ele>
        <time>2015-03-28T13:41:17Z</time>
      </trkpt>
      <trkpt lat="50.01322" lon="5.39325">
        <ele>449</ele>
        <time>2015-03-28T13:41:22Z</time>
      </trkpt>
      <trkpt lat="50.01325" lon="5.39333">
        <ele>450</ele>
        <time>2015-03-28T13:41:28Z</time>
      </trkpt>
      <trkpt lat="50.01327" lon="5.39341">
        <ele>450</ele>
        <time>2015-03-28T13:41:33Z</time>
      </trkpt>
      <trkpt lat="50.01331" lon="5.39349">
        <ele>450</ele>
        <time>2015-03-28T13:41:39Z</time>
      </trkpt>
      <trkpt lat="50.01334" lon="5.39358">
        <ele>451</ele>
        <time>2015-03-28T13:41:45Z</time>
      </trkpt>
      <trkpt lat="50.01336" lon="5.39366">
        <ele>451</ele>
        <time>2015-03-28T13:41:50Z</time>
      </trkpt>
      <trkpt lat="50.01338" lon="5.39374">
        <ele>452</ele>
        <time>2015-03-28T13:41:56Z</time>
      </trkpt>
      <trkpt lat="50.0134" lon="5.39382">
        <ele>452</ele>
        <time>2015-03-28T13:42:01Z</time>
      </trkpt>
      <trkpt lat="50.01343" lon="5.39391">
        <ele>452</ele>
        <time>2015-03-28T13:42:07Z</time>
      </trkpt>
      <trkpt lat="50.01345" lon="5.39401">
        <ele>453</ele>
        <time>2015-03-28T13:42:13Z</time>
      </trkpt>
      <trkpt lat="50.01347" lon="5.39409">
        <ele>453</ele>
        <time>2015-03-28T13:42:18Z</time>
      </trkpt>
      <trkpt lat="50.01349" lon="5.39419">
        <ele>453</ele>
        <time>2015-03-28T13:42:24Z</time>
      </trkpt>
      <trkpt lat="50.0135" lon="5.39426">
        <ele>454</ele>
        <time>2015-03-28T13:42:29Z</time>
      </trkpt>
      <trkpt lat="50.01354" lon="5.39436">
        <ele>454</ele>
        <time>2015-03-28T13:42:35Z</time>
      </trkpt>
      <trkpt lat="50.01356" lon="5.39444">
        <ele>454</ele>
        <time>2015-03-28T13:42:40Z</time>
      </trkpt>
      <trkpt lat="50.01359" lon="5.39454">
        <ele>455</ele>
        <time>2015-03-28T13:42:46Z</time>
      </trkpt>
      <trkpt lat="50.01361" lon="5.39464">
        <ele>455</ele>
        <time>2015-03-28T13:42:52Z</time>
      </trkpt>
      <trkpt lat="50.01363" lon="5.39474">
        <ele>456</ele>
        <time>2015-03-28T13:42:58Z</time>
      </trkpt>
      <trkpt lat="50.0136" lon="5.39481">
        <ele>456</ele>
        <time>2015-03-28T13:43:03Z</time>
      </trkpt>
      <trkpt lat="50.01363" lon="5.3949">
        <ele>456</ele>
        <time>2015-03-28T13:43:09Z</time>
      </trkpt>
      <trkpt lat="50.01366" lon="5.39496">
        <ele>456</ele>
        <time>2015-03-28T13:43:14Z</time>
      </trkpt>
      <trkpt lat="50.01368" lon="5.39502">
        <ele>457</ele>
        <time>2015-03-28T13:43:19Z</time>
      </trkpt>
      <trkpt lat="50.0137" lon="5.39511">
        <ele>457</ele>
        <time>2015-03-28T13:43:24Z</time>
      </trkpt>
      <trkpt lat="50.01373" lon="5.39518">
        <ele>457</ele>
        <time>2015-03-28T13:43:29Z</time>
      </trkpt>
      <trkpt lat="50.01376" lon="5.3953">
        <ele>457</ele>
        <time>2015-03-28T13:43:35Z</time>
      </trkpt>
      <trkpt lat="50.01378" lon="5.39539">
        <ele>457</ele>
        <time>2015-03-28T13:43:40Z</time>
      </trkpt>
      <trkpt lat="50.01381" lon="5.3955">
        <ele>458</ele>
        <time>2015-03-28T13:43:46Z</time>
      </trkpt>
      <trkpt lat="50.01384" lon="5.39558">
        <ele>458</ele>
        <time>2015-03-28T13:43:51Z</time>
      </trkpt>
      <trkpt lat="50.01388" lon="5.39567">
        <ele>458</ele>
        <time>2015-03-28T13:43:56Z</time>
      </trkpt>
      <trkpt lat="50.01392" lon="5.39577">
        <ele>458</ele>
        <time>2015-03-28T13:44:02Z</time>
      </trkpt>
      <trkpt lat="50.01394" lon="5.39586">
        <ele>458</ele>
        <time>2015-03-28T13:44:08Z</time>
      </trkpt>
      <trkpt lat="50.01397" lon="5.39593">
        <ele>458</ele>
        <time>2015-03-28T13:44:13Z</time>
      </trkpt>
      <trkpt lat="50.01399" lon="5.39601">
        <ele>458</ele>
        <time>2015-03-28T13:44:18Z</time>
      </trkpt>
      <trkpt lat="50.01401" lon="5.3961">
        <ele>458</ele>
        <time>2015-03-28T13:44:24Z</time>
      </trkpt>
      <trkpt lat="50.01405" lon="5.39619">
        <ele>458</ele>
        <time>2015-03-28T13:44:30Z</time>
      </trkpt>
      <trkpt lat="50.01408" lon="5.39628">
        <ele>458</ele>
        <time>2015-03-28T13:44:35Z</time>
      </trkpt>
      <trkpt lat="50.01411" lon="5.39637">
        <ele>459</ele>
        <time>2015-03-28T13:44:41Z</time>
      </trkpt>
      <trkpt lat="50.01413" lon="5.39646">
        <ele>459</ele>
        <time>2015-03-28T13:44:47Z</time>
      </trkpt>
      <trkpt lat="50.01415" lon="5.39655">
        <ele>459</ele>
        <time>2015-03-28T13:44:52Z</time>
      </trkpt>
      <trkpt lat="50.01417" lon="5.39665">
        <ele>459</ele>
        <time>2015-03-28T13:44:58Z</time>
      </trkpt>
      <trkpt lat="50.01419" lon="5.39675">
        <ele>460</ele>
        <time>2015-03-28T13:45:03Z</time>
      </trkpt>
      <trkpt lat="50.01422" lon="5.39685">
        <ele>460</ele>
        <time>2015-03-28T13:45:08Z</time>
      </trkpt>
      <trkpt lat="50.01425" lon="5.39696">
        <ele>461</ele>
        <time>2015-03-28T13:45:14Z</time>
      </trkpt>
      <trkpt lat="50.01429" lon="5.39705">
        <ele>461</ele>
        <time>2015-03-28T13:45:19Z</time>
      </trkpt>
      <trkpt lat="50.01432" lon="5.39714">
        <ele>461</ele>
        <time>2015-03-28T13:45:24Z</time>
      </trkpt>
      <trkpt lat="50.01435" lon="5.39725">
        <ele>461</ele>
        <time>2015-03-28T13:45:30Z</time>
      </trkpt>
      <trkpt lat="50.01439" lon="5.39736">
        <ele>462</ele>
        <time>2015-03-28T13:45:36Z</time>
      </trkpt>
      <trkpt lat="50.01442" lon="5.39747">
        <ele>462</ele>
        <time>2015-03-28T13:45:41Z</time>
      </trkpt>
      <trkpt lat="50.01445" lon="5.39756">
        <ele>462</ele>
        <time>2015-03-28T13:45:46Z</time>
      </trkpt>
      <trkpt lat="50.01449" lon="5.39765">
        <ele>462</ele>
        <time>2015-03-28T13:45:51Z</time>
      </trkpt>
      <trkpt lat="50.01452" lon="5.39774">
        <ele>462</ele>
        <time>2015-03-28T13:45:56Z</time>
      </trkpt>
      <trkpt lat="50.01455" lon="5.39786">
        <ele>462</ele>
        <time>2015-03-28T13:46:02Z</time>
      </trkpt>
      <trkpt lat="50.01458" lon="5.39797">
        <ele>462</ele>
        <time>2015-03-28T13:46:08Z</time>
      </trkpt>
      <trkpt lat="50.01461" lon="5.39807">
        <ele>462</ele>
        <time>2015-03-28T13:46:13Z</time>
      </trkpt>
      <trkpt lat="50.01463" lon="5.39815">
        <ele>463</ele>
        <time>2015-03-28T13:46:18Z</time>
      </trkpt>
      <trkpt lat="50.01466" lon="5.39826">
        <ele>463</ele>
        <time>2015-03-28T13:46:24Z</time>
      </trkpt>
      <trkpt lat="50.01469" lon="5.39836">
        <ele>463</ele>
        <time>2015-03-28T13:46:30Z</time>
      </trkpt>
      <trkpt lat="50.01473" lon="5.39847">
        <ele>463</ele>
        <time>2015-03-28T13:46:36Z</time>
      </trkpt>
      <trkpt lat="50.01476" lon="5.39858">
        <ele>463</ele>
        <time>2015-03-28T13:46:42Z</time>
      </trkpt>
      <trkpt lat="50.01479" lon="5.39868">
        <ele>463</ele>
        <time>2015-03-28T13:46:47Z</time>
      </trkpt>
      <trkpt lat="50.0148" lon="5.39876">
        <ele>463</ele>
        <time>2015-03-28T13:46:52Z</time>
      </trkpt>
      <trkpt lat="50.01481" lon="5.39886">
        <ele>463</ele>
        <time>2015-03-28T13:46:57Z</time>
      </trkpt>
      <trkpt lat="50.01485" lon="5.39899">
        <ele>463</ele>
        <time>2015-03-28T13:47:03Z</time>
      </trkpt>
      <trkpt lat="50.01488" lon="5.3991">
        <ele>462</ele>
        <time>2015-03-28T13:47:09Z</time>
      </trkpt>
      <trkpt lat="50.01491" lon="5.39921">
        <ele>462</ele>
        <time>2015-03-28T13:47:15Z</time>
      </trkpt>
      <trkpt lat="50.01494" lon="5.39929">
        <ele>462</ele>
        <time>2015-03-28T13:47:20Z</time>
      </trkpt>
      <trkpt lat="50.01498" lon="5.39938">
        <ele>462</ele>
        <time>2015-03-28T13:47:25Z</time>
      </trkpt>
      <trkpt lat="50.01501" lon="5.39951">
        <ele>462</ele>
        <time>2015-03-28T13:47:31Z</time>
      </trkpt>
      <trkpt lat="50.01504" lon="5.3996">
        <ele>462</ele>
        <time>2015-03-28T13:47:36Z</time>
      </trkpt>
      <trkpt lat="50.01507" lon="5.39969">
        <ele>462</ele>
        <time>2015-03-28T13:47:41Z</time>
      </trkpt>
      <trkpt lat="50.0151" lon="5.3998">
        <ele>462</ele>
        <time>2015-03-28T13:47:47Z</time>
      </trkpt>
      <trkpt lat="50.01513" lon="5.3999">
        <ele>462</ele>
        <time>2015-03-28T13:47:52Z</time>
      </trkpt>
      <trkpt lat="50.01515" lon="5.39998">
        <ele>462</ele>
        <time>2015-03-28T13:47:57Z</time>
      </trkpt>
      <trkpt lat="50.01519" lon="5.40009">
        <ele>462</ele>
        <time>2015-03-28T13:48:03Z</time>
      </trkpt>
      <trkpt lat="50.01519" lon="5.40016">
        <ele>462</ele>
        <time>2015-03-28T13:48:08Z</time>
      </trkpt>
      <trkpt lat="50.0152" lon="5.40022">
        <ele>462</ele>
        <time>2015-03-28T13:48:14Z</time>
      </trkpt>
      <trkpt lat="50.01521" lon="5.40029">
        <ele>463</ele>
        <time>2015-03-28T13:48:20Z</time>
      </trkpt>
      <trkpt lat="50.01522" lon="5.40034">
        <ele>462</ele>
        <time>2015-03-28T13:48:25Z</time>
      </trkpt>
      <trkpt lat="50.01522" lon="5.40037">
        <ele>462</ele>
        <time>2015-03-28T13:48:31Z</time>
      </trkpt>
      <trkpt lat="50.01522" lon="5.40039">
        <ele>462</ele>
        <time>2015-03-28T13:48:36Z</time>
      </trkpt>
      <trkpt lat="50.01521" lon="5.40039">
        <ele>462</ele>
        <time>2015-03-28T13:48:41Z</time>
      </trkpt>
      <trkpt lat="50.0152" lon="5.4004">
        <ele>462</ele>
        <time>2015-03-28T13:48:47Z</time>
      </trkpt>
      <trkpt lat="50.01522" lon="5.40043">
        <ele>462</ele>
        <time>2015-03-28T13:48:53Z</time>
      </trkpt>
      <trkpt lat="50.01525" lon="5.40047">
        <ele>462</ele>
        <time>2015-03-28T13:48:58Z</time>
      </trkpt>
      <trkpt lat="50.01527" lon="5.40052">
        <ele>462</ele>
        <time>2015-03-28T13:49:04Z</time>
      </trkpt>
      <trkpt lat="50.01528" lon="5.40057">
        <ele>462</ele>
        <time>2015-03-28T13:49:09Z</time>
      </trkpt>
      <trkpt lat="50.01531" lon="5.40064">
        <ele>463</ele>
        <time>2015-03-28T13:49:14Z</time>
      </trkpt>
      <trkpt lat="50.01534" lon="5.40071">
        <ele>463</ele>
        <time>2015-03-28T13:49:19Z</time>
      </trkpt>
      <trkpt lat="50.01537" lon="5.40078">
        <ele>462</ele>
        <time>2015-03-28T13:49:24Z</time>
      </trkpt>
      <trkpt lat="50.01538" lon="5.40084">
        <ele>462</ele>
        <time>2015-03-28T13:49:29Z</time>
      </trkpt>
      <trkpt lat="50.01541" lon="5.40091">
        <ele>462</ele>
        <time>2015-03-28T13:49:35Z</time>
      </trkpt>
      <trkpt lat="50.01543" lon="5.401">
        <ele>463</ele>
        <time>2015-03-28T13:49:41Z</time>
      </trkpt>
      <trkpt lat="50.01546" lon="5.4011">
        <ele>462</ele>
        <time>2015-03-28T13:49:47Z</time>
      </trkpt>
      <trkpt lat="50.0155" lon="5.4012">
        <ele>462</ele>
        <time>2015-03-28T13:49:53Z</time>
      </trkpt>
      <trkpt lat="50.01552" lon="5.40128">
        <ele>462</ele>
        <time>2015-03-28T13:49:58Z</time>
      </trkpt>
      <trkpt lat="50.01554" lon="5.40137">
        <ele>462</ele>
        <time>2015-03-28T13:50:04Z</time>
      </trkpt>
      <trkpt lat="50.01556" lon="5.40145">
        <ele>462</ele>
        <time>2015-03-28T13:50:09Z</time>
      </trkpt>
      <trkpt lat="50.0156" lon="5.40156">
        <ele>462</ele>
        <time>2015-03-28T13:50:15Z</time>
      </trkpt>
      <trkpt lat="50.01565" lon="5.40163">
        <ele>462</ele>
        <time>2015-03-28T13:50:20Z</time>
      </trkpt>
      <trkpt lat="50.01569" lon="5.40171">
        <ele>462</ele>
        <time>2015-03-28T13:50:26Z</time>
      </trkpt>
      <trkpt lat="50.01572" lon="5.4018">
        <ele>462</ele>
        <time>2015-03-28T13:50:32Z</time>
      </trkpt>
      <trkpt lat="50.01577" lon="5.40184">
        <ele>462</ele>
        <time>2015-03-28T13:50:38Z</time>
      </trkpt>
      <trkpt lat="50.01582" lon="5.4018">
        <ele>463</ele>
        <time>2015-03-28T13:50:44Z</time>
      </trkpt>
      <trkpt lat="50.01586" lon="5.40176">
        <ele>464</ele>
        <time>2015-03-28T13:50:50Z</time>
      </trkpt>
      <trkpt lat="50.01588" lon="5.40169">
        <ele>464</ele>
        <time>2015-03-28T13:50:55Z</time>
      </trkpt>
      <trkpt lat="50.01591" lon="5.40161">
        <ele>465</ele>
        <time>2015-03-28T13:51:00Z</time>
      </trkpt>
      <trkpt lat="50.01592" lon="5.40153">
        <ele>465</ele>
        <time>2015-03-28T13:51:06Z</time>
      </trkpt>
      <trkpt lat="50.01594" lon="5.40146">
        <ele>465</ele>
        <time>2015-03-28T13:51:11Z</time>
      </trkpt>
      <trkpt lat="50.01598" lon="5.4014">
        <ele>466</ele>
        <time>2015-03-28T13:51:17Z</time>
      </trkpt>
      <trkpt lat="50.01599" lon="5.40131">
        <ele>466</ele>
        <time>2015-03-28T13:51:22Z</time>
      </trkpt>
      <trkpt lat="50.01599" lon="5.40121">
        <ele>466</ele>
        <time>2015-03-28T13:51:28Z</time>
      </trkpt>
      <trkpt lat="50.01601" lon="5.40113">
        <ele>467</ele>
        <time>2015-03-28T13:51:33Z</time>
      </trkpt>
      <trkpt lat="50.01601" lon="5.40104">
        <ele>468</ele>
        <time>2015-03-28T13:51:38Z</time>
      </trkpt>
      <trkpt lat="50.01604" lon="5.40092">
        <ele>468</ele>
        <time>2015-03-28T13:51:44Z</time>
      </trkpt>
      <trkpt lat="50.01607" lon="5.40084">
        <ele>468</ele>
        <time>2015-03-28T13:51:49Z</time>
      </trkpt>
      <trkpt lat="50.01609" lon="5.40077">
        <ele>469</ele>
        <time>2015-03-28T13:51:54Z</time>
      </trkpt>
      <trkpt lat="50.01613" lon="5.40069">
        <ele>470</ele>
        <time>2015-03-28T13:52:00Z</time>
      </trkpt>
      <trkpt lat="50.01615" lon="5.4006">
        <ele>471</ele>
        <time>2015-03-28T13:52:05Z</time>
      </trkpt>
      <trkpt lat="50.01617" lon="5.40049">
        <ele>471</ele>
        <time>2015-03-28T13:52:10Z</time>
      </trkpt>
      <trkpt lat="50.0162" lon="5.40036">
        <ele>470</ele>
        <time>2015-03-28T13:52:16Z</time>
      </trkpt>
      <trkpt lat="50.01622" lon="5.40026">
        <ele>471</ele>
        <time>2015-03-28T13:52:21Z</time>
      </trkpt>
      <trkpt lat="50.01624" lon="5.40015">
        <ele>472</ele>
        <time>2015-03-28T13:52:27Z</time>
      </trkpt>
      <trkpt lat="50.01625" lon="5.40005">
        <ele>472</ele>
        <time>2015-03-28T13:52:32Z</time>
      </trkpt>
      <trkpt lat="50.01627" lon="5.39995">
        <ele>472</ele>
        <time>2015-03-28T13:52:37Z</time>
      </trkpt>
      <trkpt lat="50.0163" lon="5.39986">
        <ele>472</ele>
        <time>2015-03-28T13:52:43Z</time>
      </trkpt>
      <trkpt lat="50.01634" lon="5.39979">
        <ele>472</ele>
        <time>2015-03-28T13:52:48Z</time>
      </trkpt>
      <trkpt lat="50.01638" lon="5.39972">
        <ele>472</ele>
        <time>2015-03-28T13:52:53Z</time>
      </trkpt>
      <trkpt lat="50.01641" lon="5.39963">
        <ele>472</ele>
        <time>2015-03-28T13:52:58Z</time>
      </trkpt>
      <trkpt lat="50.01643" lon="5.39955">
        <ele>473</ele>
        <time>2015-03-28T13:53:04Z</time>
      </trkpt>
      <trkpt lat="50.01646" lon="5.39948">
        <ele>473</ele>
        <time>2015-03-28T13:53:10Z</time>
      </trkpt>
      <trkpt lat="50.01648" lon="5.39938">
        <ele>473</ele>
        <time>2015-03-28T13:53:16Z</time>
      </trkpt>
      <trkpt lat="50.0165" lon="5.39928">
        <ele>474</ele>
        <time>2015-03-28T13:53:22Z</time>
      </trkpt>
      <trkpt lat="50.01653" lon="5.3992">
        <ele>474</ele>
        <time>2015-03-28T13:53:27Z</time>
      </trkpt>
      <trkpt lat="50.01653" lon="5.3991">
        <ele>474</ele>
        <time>2015-03-28T13:53:33Z</time>
      </trkpt>
      <trkpt lat="50.01654" lon="5.39899">
        <ele>475</ele>
        <time>2015-03-28T13:53:39Z</time>
      </trkpt>
      <trkpt lat="50.01654" lon="5.3989">
        <ele>475</ele>
        <time>2015-03-28T13:53:44Z</time>
      </trkpt>
      <trkpt lat="50.01655" lon="5.3988">
        <ele>475</ele>
        <time>2015-03-28T13:53:50Z</time>
      </trkpt>
      <trkpt lat="50.01655" lon="5.3987">
        <ele>474</ele>
        <time>2015-03-28T13:53:56Z</time>
      </trkpt>
      <trkpt lat="50.01656" lon="5.39862">
        <ele>475</ele>
        <time>2015-03-28T13:54:01Z</time>
      </trkpt>
      <trkpt lat="50.01658" lon="5.39852">
        <ele>475</ele>
        <time>2015-03-28T13:54:07Z</time>
      </trkpt>
      <trkpt lat="50.01658" lon="5.39841">
        <ele>475</ele>
        <time>2015-03-28T13:54:12Z</time>
      </trkpt>
      <trkpt lat="50.0166" lon="5.39832">
        <ele>476</ele>
        <time>2015-03-28T13:54:17Z</time>
      </trkpt>
      <trkpt lat="50.01662" lon="5.39823">
        <ele>476</ele>
        <time>2015-03-28T13:54:22Z</time>
      </trkpt>
      <trkpt lat="50.01666" lon="5.39812">
        <ele>476</ele>
        <time>2015-03-28T13:54:28Z</time>
      </trkpt>
      <trkpt lat="50.01669" lon="5.39801">
        <ele>476</ele>
        <time>2015-03-28T13:54:34Z</time>
      </trkpt>
      <trkpt lat="50.01671" lon="5.39789">
        <ele>476</ele>
        <time>2015-03-28T13:54:40Z</time>
      </trkpt>
      <trkpt lat="50.01673" lon="5.3978">
        <ele>477</ele>
        <time>2015-03-28T13:54:46Z</time>
      </trkpt>
      <trkpt lat="50.01676" lon="5.39771">
        <ele>477</ele>
        <time>2015-03-28T13:54:51Z</time>
      </trkpt>
      <trkpt lat="50.01678" lon="5.39762">
        <ele>477</ele>
        <time>2015-03-28T13:54:56Z</time>
      </trkpt>
      <trkpt lat="50.0168" lon="5.39754">
        <ele>477</ele>
        <time>2015-03-28T13:55:01Z</time>
      </trkpt>
      <trkpt lat="50.01681" lon="5.39744">
        <ele>477</ele>
        <time>2015-03-28T13:55:07Z</time>
      </trkpt>
      <trkpt lat="50.01684" lon="5.39734">
        <ele>477</ele>
        <time>2015-03-28T13:55:13Z</time>
      </trkpt>
      <trkpt lat="50.01687" lon="5.39726">
        <ele>477</ele>
        <time>2015-03-28T13:55:18Z</time>
      </trkpt>
      <trkpt lat="50.01692" lon="5.39716">
        <ele>477</ele>
        <time>2015-03-28T13:55:24Z</time>
      </trkpt>
      <trkpt lat="50.01694" lon="5.39703">
        <ele>478</ele>
        <time>2015-03-28T13:55:30Z</time>
      </trkpt>
      <trkpt lat="50.01695" lon="5.39692">
        <ele>478</ele>
        <time>2015-03-28T13:55:35Z</time>
      </trkpt>
      <trkpt lat="50.01697" lon="5.39681">
        <ele>478</ele>
        <time>2015-03-28T13:55:41Z</time>
      </trkpt>
      <trkpt lat="50.01701" lon="5.39671">
        <ele>478</ele>
        <time>2015-03-28T13:55:47Z</time>
      </trkpt>
      <trkpt lat="50.01706" lon="5.39664">
        <ele>478</ele>
        <time>2015-03-28T13:55:52Z</time>
      </trkpt>
      <trkpt lat="50.01708" lon="5.39655">
        <ele>478</ele>
        <time>2015-03-28T13:55:58Z</time>
      </trkpt>
      <trkpt lat="50.01711" lon="5.39646">
        <ele>478</ele>
        <time>2015-03-28T13:56:04Z</time>
      </trkpt>
      <trkpt lat="50.01718" lon="5.39639">
        <ele>478</ele>
        <time>2015-03-28T13:56:10Z</time>
      </trkpt>
      <trkpt lat="50.01724" lon="5.39632">
        <ele>478</ele>
        <time>2015-03-28T13:56:16Z</time>
      </trkpt>
      <trkpt lat="50.0173" lon="5.39626">
        <ele>478</ele>
        <time>2015-03-28T13:56:21Z</time>
      </trkpt>
      <trkpt lat="50.01735" lon="5.39619">
        <ele>478</ele>
        <time>2015-03-28T13:56:26Z</time>
      </trkpt>
      <trkpt lat="50.0174" lon="5.39613">
        <ele>477</ele>
        <time>2015-03-28T13:56:31Z</time>
      </trkpt>
      <trkpt lat="50.01742" lon="5.39608">
        <ele>477</ele>
        <time>2015-03-28T13:56:37Z</time>
      </trkpt>
      <trkpt lat="50.01745" lon="5.39601">
        <ele>478</ele>
        <time>2015-03-28T13:56:43Z</time>
      </trkpt>
      <trkpt lat="50.01748" lon="5.39594">
        <ele>477</ele>
        <time>2015-03-28T13:56:48Z</time>
      </trkpt>
      <trkpt lat="50.01751" lon="5.39586">
        <ele>477</ele>
        <time>2015-03-28T13:56:53Z</time>
      </trkpt>
      <trkpt lat="50.01755" lon="5.39577">
        <ele>477</ele>
        <time>2015-03-28T13:56:59Z</time>
      </trkpt>
      <trkpt lat="50.01759" lon="5.39568">
        <ele>476</ele>
        <time>2015-03-28T13:57:05Z</time>
      </trkpt>
      <trkpt lat="50.01762" lon="5.39559">
        <ele>476</ele>
        <time>2015-03-28T13:57:11Z</time>
      </trkpt>
      <trkpt lat="50.01765" lon="5.39549">
        <ele>476</ele>
        <time>2015-03-28T13:57:17Z</time>
      </trkpt>
      <trkpt lat="50.01768" lon="5.39541">
        <ele>476</ele>
        <time>2015-03-28T13:57:22Z</time>
      </trkpt>
      <trkpt lat="50.01774" lon="5.39533">
        <ele>476</ele>
        <time>2015-03-28T13:57:28Z</time>
      </trkpt>
      <trkpt lat="50.01778" lon="5.39525">
        <ele>476</ele>
        <time>2015-03-28T13:57:33Z</time>
      </trkpt>
      <trkpt lat="50.01781" lon="5.39517">
        <ele>475</ele>
        <time>2015-03-28T13:57:38Z</time>
      </trkpt>
      <trkpt lat="50.01786" lon="5.3951">
        <ele>475</ele>
        <time>2015-03-28T13:57:43Z</time>
      </trkpt>
      <trkpt lat="50.01791" lon="5.39502">
        <ele>475</ele>
        <time>2015-03-28T13:57:48Z</time>
      </trkpt>
      <trkpt lat="50.01795" lon="5.39494">
        <ele>475</ele>
        <time>2015-03-28T13:57:53Z</time>
      </trkpt>
      <trkpt lat="50.01801" lon="5.39485">
        <ele>474</ele>
        <time>2015-03-28T13:57:59Z</time>
      </trkpt>
      <trkpt lat="50.01807" lon="5.39477">
        <ele>474</ele>
        <time>2015-03-28T13:58:04Z</time>
      </trkpt>
      <trkpt lat="50.01811" lon="5.39467">
        <ele>474</ele>
        <time>2015-03-28T13:58:10Z</time>
      </trkpt>
      <trkpt lat="50.01815" lon="5.3946">
        <ele>474</ele>
        <time>2015-03-28T13:58:15Z</time>
      </trkpt>
      <trkpt lat="50.01821" lon="5.39452">
        <ele>474</ele>
        <time>2015-03-28T13:58:21Z</time>
      </trkpt>
      <trkpt lat="50.01825" lon="5.39444">
        <ele>474</ele>
        <time>2015-03-28T13:58:27Z</time>
      </trkpt>
      <trkpt lat="50.01828" lon="5.39436">
        <ele>473</ele>
        <time>2015-03-28T13:58:32Z</time>
      </trkpt>
      <trkpt lat="50.01831" lon="5.39426">
        <ele>473</ele>
        <time>2015-03-28T13:58:38Z</time>
      </trkpt>
      <trkpt lat="50.01834" lon="5.3942">
        <ele>473</ele>
        <time>2015-03-28T13:58:43Z</time>
      </trkpt>
      <trkpt lat="50.01836" lon="5.39408">
        <ele>472</ele>
        <time>2015-03-28T13:58:49Z</time>
      </trkpt>
      <trkpt lat="50.01837" lon="5.39397">
        <ele>472</ele>
        <time>2015-03-28T13:58:55Z</time>
      </trkpt>
      <trkpt lat="50.01836" lon="5.39387">
        <ele>472</ele>
        <time>2015-03-28T13:59:00Z</time>
      </trkpt>
      <trkpt lat="50.01837" lon="5.39375">
        <ele>471</ele>
        <time>2015-03-28T13:59:06Z</time>
      </trkpt>
      <trkpt lat="50.01839" lon="5.39366">
        <ele>471</ele>
        <time>2015-03-28T13:59:11Z</time>
      </trkpt>
      <trkpt lat="50.01841" lon="5.39356">
        <ele>471</ele>
        <time>2015-03-28T13:59:17Z</time>
      </trkpt>
      <trkpt lat="50.01842" lon="5.39346">
        <ele>470</ele>
        <time>2015-03-28T13:59:22Z</time>
      </trkpt>
      <trkpt lat="50.01844" lon="5.39334">
        <ele>469</ele>
        <time>2015-03-28T13:59:28Z</time>
      </trkpt>
      <trkpt lat="50.01845" lon="5.3933">
        <ele>469</ele>
        <time>2015-03-28T13:59:33Z</time>
      </trkpt>
      <trkpt lat="50.01845" lon="5.39326">
        <ele>469</ele>
        <time>2015-03-28T13:59:38Z</time>
      </trkpt>
      <trkpt lat="50.01848" lon="5.39318">
        <ele>469</ele>
        <time>2015-03-28T13:59:43Z</time>
      </trkpt>
      <trkpt lat="50.01851" lon="5.3931">
        <ele>469</ele>
        <time>2015-03-28T13:59:48Z</time>
      </trkpt>
      <trkpt lat="50.01854" lon="5.39299">
        <ele>468</ele>
        <time>2015-03-28T13:59:54Z</time>
      </trkpt>
      <trkpt lat="50.01855" lon="5.39289">
        <ele>468</ele>
        <time>2015-03-28T13:59:59Z</time>
      </trkpt>
      <trkpt lat="50.01857" lon="5.39279">
        <ele>468</ele>
        <time>2015-03-28T14:00:04Z</time>
      </trkpt>
      <trkpt lat="50.0186" lon="5.39269">
        <ele>468</ele>
        <time>2015-03-28T14:00:10Z</time>
      </trkpt>
      <trkpt lat="50.01862" lon="5.3926">
        <ele>468</ele>
        <time>2015-03-28T14:00:15Z</time>
      </trkpt>
      <trkpt lat="50.01865" lon="5.39251">
        <ele>467</ele>
        <time>2015-03-28T14:00:20Z</time>
      </trkpt>
      <trkpt lat="50.01868" lon="5.39243">
        <ele>467</ele>
        <time>2015-03-28T14:00:25Z</time>
      </trkpt>
      <trkpt lat="50.0187" lon="5.39235">
        <ele>467</ele>
        <time>2015-03-28T14:00:30Z</time>
      </trkpt>
      <trkpt lat="50.01873" lon="5.39226">
        <ele>466</ele>
        <time>2015-03-28T14:00:36Z</time>
      </trkpt>
      <trkpt lat="50.01875" lon="5.39217">
        <ele>466</ele>
        <time>2015-03-28T14:00:41Z</time>
      </trkpt>
      <trkpt lat="50.01878" lon="5.39206">
        <ele>466</ele>
        <time>2015-03-28T14:00:47Z</time>
      </trkpt>
      <trkpt lat="50.01881" lon="5.39197">
        <ele>465</ele>
        <time>2015-03-28T14:00:53Z</time>
      </trkpt>
      <trkpt lat="50.01883" lon="5.39188">
        <ele>465</ele>
        <time>2015-03-28T14:00:58Z</time>
      </trkpt>
      <trkpt lat="50.01886" lon="5.39181">
        <ele>465</ele>
        <time>2015-03-28T14:01:03Z</time>
      </trkpt>
      <trkpt lat="50.0189" lon="5.39175">
        <ele>465</ele>
        <time>2015-03-28T14:01:08Z</time>
      </trkpt>
      <trkpt lat="50.01894" lon="5.39166">
        <ele>464</ele>
        <time>2015-03-28T14:01:14Z</time>
      </trkpt>
      <trkpt lat="50.01899" lon="5.39159">
        <ele>464</ele>
        <time>2015-03-28T14:01:20Z</time>
      </trkpt>
      <trkpt lat="50.01904" lon="5.39152">
        <ele>463</ele>
        <time>2015-03-28T14:01:25Z</time>
      </trkpt>
      <trkpt lat="50.01909" lon="5.39145">
        <ele>463</ele>
        <time>2015-03-28T14:01:31Z</time>
      </trkpt>
      <trkpt lat="50.01915" lon="5.39138">
        <ele>463</ele>
        <time>2015-03-28T14:01:37Z</time>
      </trkpt>
      <trkpt lat="50.0192" lon="5.39134">
        <ele>463</ele>
        <time>2015-03-28T14:01:42Z</time>
      </trkpt>
      <trkpt lat="50.01923" lon="5.39127">
        <ele>462</ele>
        <time>2015-03-28T14:01:48Z</time>
      </trkpt>
      <trkpt lat="50.01926" lon="5.3912">
        <ele>462</ele>
        <time>2015-03-28T14:01:54Z</time>
      </trkpt>
      <trkpt lat="50.01929" lon="5.39116">
        <ele>462</ele>
        <time>2015-03-28T14:01:59Z</time>
      </trkpt>
      <trkpt lat="50.01935" lon="5.39113">
        <ele>461</ele>
        <time>2015-03-28T14:02:05Z</time>
      </trkpt>
      <trkpt lat="50.01942" lon="5.39111">
        <ele>461</ele>
        <time>2015-03-28T14:02:11Z</time>
      </trkpt>
      <trkpt lat="50.01948" lon="5.39108">
        <ele>460</ele>
        <time>2015-03-28T14:02:17Z</time>
      </trkpt>
      <trkpt lat="50.01954" lon="5.39105">
        <ele>460</ele>
        <time>2015-03-28T14:02:23Z</time>
      </trkpt>
      <trkpt lat="50.0196" lon="5.39103">
        <ele>460</ele>
        <time>2015-03-28T14:02:29Z</time>
      </trkpt>
      <trkpt lat="50.01966" lon="5.39099">
        <ele>460</ele>
        <time>2015-03-28T14:02:35Z</time>
      </trkpt>
      <trkpt lat="50.01973" lon="5.39097">
        <ele>459</ele>
        <time>2015-03-28T14:02:40Z</time>
      </trkpt>
      <trkpt lat="50.01982" lon="5.39092">
        <ele>459</ele>
        <time>2015-03-28T14:02:46Z</time>
      </trkpt>
      <trkpt lat="50.0199" lon="5.39088">
        <ele>459</ele>
        <time>2015-03-28T14:02:52Z</time>
      </trkpt>
      <trkpt lat="50.01997" lon="5.39084">
        <ele>458</ele>
        <time>2015-03-28T14:02:58Z</time>
      </trkpt>
      <trkpt lat="50.02002" lon="5.3908">
        <ele>458</ele>
        <time>2015-03-28T14:03:03Z</time>
      </trkpt>
      <trkpt lat="50.0201" lon="5.39075">
        <ele>458</ele>
        <time>2015-03-28T14:03:09Z</time>
      </trkpt>
      <trkpt lat="50.02018" lon="5.39072">
        <ele>457</ele>
        <time>2015-03-28T14:03:15Z</time>
      </trkpt>
      <trkpt lat="50.02024" lon="5.39069">
        <ele>457</ele>
        <time>2015-03-28T14:03:20Z</time>
      </trkpt>
      <trkpt lat="50.0203" lon="5.39065">
        <ele>456</ele>
        <time>2015-03-28T14:03:25Z</time>
      </trkpt>
      <trkpt lat="50.02037" lon="5.3906">
        <ele>456</ele>
        <time>2015-03-28T14:03:30Z</time>
      </trkpt>
      <trkpt lat="50.02044" lon="5.39054">
        <ele>456</ele>
        <time>2015-03-28T14:03:36Z</time>
      </trkpt>
      <trkpt lat="50.02052" lon="5.39049">
        <ele>455</ele>
        <time>2015-03-28T14:03:42Z</time>
      </trkpt>
      <trkpt lat="50.02058" lon="5.39045">
        <ele>454</ele>
        <time>2015-03-28T14:03:47Z</time>
      </trkpt>
      <trkpt lat="50.02065" lon="5.3904">
        <ele>454</ele>
        <time>2015-03-28T14:03:52Z</time>
      </trkpt>
      <trkpt lat="50.02072" lon="5.39034">
        <ele>454</ele>
        <time>2015-03-28T14:03:58Z</time>
      </trkpt>
      <trkpt lat="50.02079" lon="5.39029">
        <ele>453</ele>
        <time>2015-03-28T14:04:04Z</time>
      </trkpt>
      <trkpt lat="50.02085" lon="5.39024">
        <ele>453</ele>
        <time>2015-03-28T14:04:10Z</time>
      </trkpt>
      <trkpt lat="50.02091" lon="5.39021">
        <ele>453</ele>
        <time>2015-03-28T14:04:15Z</time>
      </trkpt>
      <trkpt lat="50.02099" lon="5.39019">
        <ele>452</ele>
        <time>2015-03-28T14:04:21Z</time>
      </trkpt>
      <trkpt lat="50.02107" lon="5.39019">
        <ele>452</ele>
        <time>2015-03-28T14:04:27Z</time>
      </trkpt>
      <trkpt lat="50.02114" lon="5.39018">
        <ele>452</ele>
        <time>2015-03-28T14:04:32Z</time>
      </trkpt>
      <trkpt lat="50.02121" lon="5.39015">
        <ele>451</ele>
        <time>2015-03-28T14:04:38Z</time>
      </trkpt>
      <trkpt lat="50.02128" lon="5.39015">
        <ele>451</ele>
        <time>2015-03-28T14:04:44Z</time>
      </trkpt>
      <trkpt lat="50.02133" lon="5.39014">
        <ele>451</ele>
        <time>2015-03-28T14:04:49Z</time>
      </trkpt>
      <trkpt lat="50.0214" lon="5.39012">
        <ele>451</ele>
        <time>2015-03-28T14:04:55Z</time>
      </trkpt>
      <trkpt lat="50.02147" lon="5.39011">
        <ele>450</ele>
        <time>2015-03-28T14:05:01Z</time>
      </trkpt>
      <trkpt lat="50.02154" lon="5.3901">
        <ele>450</ele>
        <time>2015-03-28T14:05:07Z</time>
      </trkpt>
      <trkpt lat="50.02158" lon="5.39005">
        <ele>450</ele>
        <time>2015-03-28T14:05:12Z</time>
      </trkpt>
      <trkpt lat="50.02161" lon="5.38998">
        <ele>450</ele>
        <time>2015-03-28T14:05:18Z</time>
      </trkpt>
      <trkpt lat="50.02165" lon="5.38995">
        <ele>449</ele>
        <time>2015-03-28T14:05:23Z</time>
      </trkpt>
      <trkpt lat="50.0217" lon="5.38992">
        <ele>449</ele>
        <time>2015-03-28T14:05:28Z</time>
      </trkpt>
      <trkpt lat="50.02175" lon="5.38987">
        <ele>449</ele>
        <time>2015-03-28T14:05:33Z</time>
      </trkpt>
      <trkpt lat="50.0218" lon="5.38978">
        <ele>448</ele>
        <time>2015-03-28T14:05:39Z</time>
      </trkpt>
      <trkpt lat="50.02185" lon="5.38971">
        <ele>447</ele>
        <time>2015-03-28T14:05:44Z</time>
      </trkpt>
      <trkpt lat="50.02189" lon="5.38962">
        <ele>447</ele>
        <time>2015-03-28T14:05:49Z</time>
      </trkpt>
      <trkpt lat="50.02192" lon="5.38952">
        <ele>447</ele>
        <time>2015-03-28T14:05:54Z</time>
      </trkpt>
      <trkpt lat="50.02196" lon="5.38939">
        <ele>446</ele>
        <time>2015-03-28T14:06:00Z</time>
      </trkpt>
      <trkpt lat="50.02199" lon="5.38929">
        <ele>445</ele>
        <time>2015-03-28T14:06:05Z</time>
      </trkpt>
      <trkpt lat="50.02205" lon="5.38922">
        <ele>445</ele>
        <time>2015-03-28T14:06:11Z</time>
      </trkpt>
      <trkpt lat="50.0221" lon="5.38916">
        <ele>445</ele>
        <time>2015-03-28T14:06:17Z</time>
      </trkpt>
      <trkpt lat="50.02216" lon="5.38911">
        <ele>444</ele>
        <time>2015-03-28T14:06:23Z</time>
      </trkpt>
      <trkpt lat="50.02222" lon="5.38907">
        <ele>444</ele>
        <time>2015-03-28T14:06:28Z</time>
      </trkpt>
      <trkpt lat="50.02227" lon="5.38898">
        <ele>443</ele>
        <time>2015-03-28T14:06:34Z</time>
      </trkpt>
      <trkpt lat="50.02231" lon="5.3889">
        <ele>443</ele>
        <time>2015-03-28T14:06:39Z</time>
      </trkpt>
      <trkpt lat="50.02235" lon="5.38883">
        <ele>443</ele>
        <time>2015-03-28T14:06:44Z</time>
      </trkpt>
      <trkpt lat="50.02239" lon="5.38875">
        <ele>442</ele>
        <time>2015-03-28T14:06:49Z</time>
      </trkpt>
      <trkpt lat="50.02243" lon="5.38868">
        <ele>442</ele>
        <time>2015-03-28T14:06:55Z</time>
      </trkpt>
      <trkpt lat="50.02246" lon="5.3886">
        <ele>442</ele>
        <time>2015-03-28T14:07:00Z</time>
      </trkpt>
      <trkpt lat="50.0225" lon="5.38854">
        <ele>441</ele>
        <time>2015-03-28T14:07:05Z</time>
      </trkpt>
      <trkpt lat="50.02255" lon="5.38847">
        <ele>441</ele>
        <time>2015-03-28T14:07:11Z</time>
      </trkpt>
      <trkpt lat="50.0226" lon="5.38839">
        <ele>441</ele>
        <time>2015-03-28T14:07:17Z</time>
      </trkpt>
      <trkpt lat="50.02264" lon="5.38833">
        <ele>441</ele>
        <time>2015-03-28T14:07:22Z</time>
      </trkpt>
      <trkpt lat="50.02269" lon="5.38825">
        <ele>441</ele>
        <time>2015-03-28T14:07:28Z</time>
      </trkpt>
      <trkpt lat="50.02274" lon="5.3882">
        <ele>440</ele>
        <time>2015-03-28T14:07:34Z</time>
      </trkpt>
      <trkpt lat="50.02279" lon="5.38815">
        <ele>440</ele>
        <time>2015-03-28T14:07:40Z</time>
      </trkpt>
      <trkpt lat="50.02283" lon="5.3881">
        <ele>439</ele>
        <time>2015-03-28T14:07:45Z</time>
      </trkpt>
      <trkpt lat="50.02288" lon="5.38806">
        <ele>439</ele>
        <time>2015-03-28T14:07:51Z</time>
      </trkpt>
      <trkpt lat="50.02293" lon="5.38802">
        <ele>438</ele>
        <time>2015-03-28T14:07:56Z</time>
      </trkpt>
      <trkpt lat="50.02296" lon="5.38798">
        <ele>438</ele>
        <time>2015-03-28T14:08:01Z</time>
      </trkpt>
      <trkpt lat="50.02299" lon="5.38794">
        <ele>437</ele>
        <time>2015-03-28T14:08:06Z</time>
      </trkpt>
      <trkpt lat="50.02302" lon="5.38789">
        <ele>438</ele>
        <time>2015-03-28T14:08:11Z</time>
      </trkpt>
      <trkpt lat="50.02306" lon="5.38782">
        <ele>437</ele>
        <time>2015-03-28T14:08:17Z</time>
      </trkpt>
      <trkpt lat="50.02311" lon="5.38776">
        <ele>436</ele>
        <time>2015-03-28T14:08:22Z</time>
      </trkpt>
      <trkpt lat="50.02313" lon="5.38774">
        <ele>436</ele>
        <time>2015-03-28T14:08:27Z</time>
      </trkpt>
      <trkpt lat="50.02316" lon="5.38768">
        <ele>436</ele>
        <time>2015-03-28T14:08:33Z</time>
      </trkpt>
      <trkpt lat="50.02319" lon="5.38763">
        <ele>437</ele>
        <time>2015-03-28T14:08:38Z</time>
      </trkpt>
      <trkpt lat="50.02323" lon="5.38757">
        <ele>436</ele>
        <time>2015-03-28T14:08:43Z</time>
      </trkpt>
      <trkpt lat="50.02328" lon="5.38749">
        <ele>435</ele>
        <time>2015-03-28T14:08:49Z</time>
      </trkpt>
      <trkpt lat="50.02333" lon="5.38741">
        <ele>436</ele>
        <time>2015-03-28T14:08:55Z</time>
      </trkpt>
      <trkpt lat="50.02338" lon="5.38732">
        <ele>435</ele>
        <time>2015-03-28T14:09:01Z</time>
      </trkpt>
      <trkpt lat="50.02342" lon="5.38724">
        <ele>435</ele>
        <time>2015-03-28T14:09:07Z</time>
      </trkpt>
      <trkpt lat="50.02346" lon="5.38718">
        <ele>435</ele>
        <time>2015-03-28T14:09:12Z</time>
      </trkpt>
      <trkpt lat="50.0235" lon="5.3871">
        <ele>434</ele>
        <time>2015-03-28T14:09:18Z</time>
      </trkpt>
      <trkpt lat="50.02354" lon="5.38702">
        <ele>434</ele>
        <time>2015-03-28T14:09:24Z</time>
      </trkpt>
      <trkpt lat="50.02358" lon="5.38694">
        <ele>434</ele>
        <time>2015-03-28T14:09:30Z</time>
      </trkpt>
      <trkpt lat="50.02361" lon="5.38687">
        <ele>433</ele>
        <time>2015-03-28T14:09:35Z</time>
      </trkpt>
      <trkpt lat="50.02364" lon="5.38678">
        <ele>433</ele>
        <time>2015-03-28T14:09:41Z</time>
      </trkpt>
      <trkpt lat="50.02365" lon="5.38673">
        <ele>433</ele>
        <time>2015-03-28T14:09:46Z</time>
      </trkpt>
      <trkpt lat="50.02368" lon="5.38667">
        <ele>432</ele>
        <time>2015-03-28T14:09:51Z</time>
      </trkpt>
      <trkpt lat="50.02371" lon="5.38656">
        <ele>432</ele>
        <time>2015-03-28T14:09:57Z</time>
      </trkpt>
      <trkpt lat="50.02374" lon="5.38646">
        <ele>432</ele>
        <time>2015-03-28T14:10:02Z</time>
      </trkpt>
      <trkpt lat="50.02377" lon="5.38637">
        <ele>431</ele>
        <time>2015-03-28T14:10:08Z</time>
      </trkpt>
      <trkpt lat="50.02377" lon="5.38633">
        <ele>431</ele>
        <time>2015-03-28T14:10:13Z</time>
      </trkpt>
      <trkpt lat="50.02379" lon="5.38628">
        <ele>430</ele>
        <time>2015-03-28T14:10:19Z</time>
      </trkpt>
      <trkpt lat="50.02382" lon="5.38622">
        <ele>430</ele>
        <time>2015-03-28T14:10:24Z</time>
      </trkpt>
      <trkpt lat="50.02384" lon="5.38613">
        <ele>430</ele>
        <time>2015-03-28T14:10:30Z</time>
      </trkpt>
      <trkpt lat="50.02385" lon="5.38607">
        <ele>429</ele>
        <time>2015-03-28T14:10:35Z</time>
      </trkpt>
      <trkpt lat="50.02388" lon="5.38598">
        <ele>428</ele>
        <time>2015-03-28T14:10:41Z</time>
      </trkpt>
      <trkpt lat="50.0239" lon="5.38589">
        <ele>428</ele>
        <time>2015-03-28T14:10:46Z</time>
      </trkpt>
      <trkpt lat="50.02391" lon="5.38579">
        <ele>428</ele>
        <time>2015-03-28T14:10:52Z</time>
      </trkpt>
      <trkpt lat="50.02393" lon="5.38572">
        <ele>428</ele>
        <time>2015-03-28T14:10:57Z</time>
      </trkpt>
      <trkpt lat="50.02394" lon="5.38563">
        <ele>427</ele>
        <time>2015-03-28T14:11:03Z</time>
      </trkpt>
      <trkpt lat="50.02395" lon="5.38554">
        <ele>427</ele>
        <time>2015-03-28T14:11:08Z</time>
      </trkpt>
      <trkpt lat="50.02396" lon="5.38545">
        <ele>427</ele>
        <time>2015-03-28T14:11:14Z</time>
      </trkpt>
      <trkpt lat="50.02397" lon="5.38538">
        <ele>426</ele>
        <time>2015-03-28T14:11:19Z</time>
      </trkpt>
      <trkpt lat="50.024" lon="5.38525">
        <ele>426</ele>
        <time>2015-03-28T14:11:25Z</time>
      </trkpt>
      <trkpt lat="50.02402" lon="5.38516">
        <ele>426</ele>
        <time>2015-03-28T14:11:30Z</time>
      </trkpt>
      <trkpt lat="50.02404" lon="5.38507">
        <ele>425</ele>
        <time>2015-03-28T14:11:35Z</time>
      </trkpt>
      <trkpt lat="50.02407" lon="5.38498">
        <ele>425</ele>
        <time>2015-03-28T14:11:41Z</time>
      </trkpt>
      <trkpt lat="50.0241" lon="5.38488">
        <ele>424</ele>
        <time>2015-03-28T14:11:47Z</time>
      </trkpt>
      <trkpt lat="50.02412" lon="5.3848">
        <ele>424</ele>
        <time>2015-03-28T14:11:52Z</time>
      </trkpt>
      <trkpt lat="50.02414" lon="5.3847">
        <ele>423</ele>
        <time>2015-03-28T14:11:57Z</time>
      </trkpt>
      <trkpt lat="50.02417" lon="5.38462">
        <ele>424</ele>
        <time>2015-03-28T14:12:02Z</time>
      </trkpt>
      <trkpt lat="50.02421" lon="5.38451">
        <ele>423</ele>
        <time>2015-03-28T14:12:08Z</time>
      </trkpt>
      <trkpt lat="50.02423" lon="5.3844">
        <ele>423</ele>
        <time>2015-03-28T14:12:14Z</time>
      </trkpt>
      <trkpt lat="50.02425" lon="5.38432">
        <ele>423</ele>
        <time>2015-03-28T14:12:19Z</time>
      </trkpt>
      <trkpt lat="50.02428" lon="5.38422">
        <ele>423</ele>
        <time>2015-03-28T14:12:25Z</time>
      </trkpt>
      <trkpt lat="50.0243" lon="5.38414">
        <ele>422</ele>
        <time>2015-03-28T14:12:30Z</time>
      </trkpt>
      <trkpt lat="50.02433" lon="5.38404">
        <ele>421</ele>
        <time>2015-03-28T14:12:36Z</time>
      </trkpt>
      <trkpt lat="50.02435" lon="5.38396">
        <ele>421</ele>
        <time>2015-03-28T14:12:41Z</time>
      </trkpt>
      <trkpt lat="50.02439" lon="5.38386">
        <ele>421</ele>
        <time>2015-03-28T14:12:47Z</time>
      </trkpt>
      <trkpt lat="50.02443" lon="5.38379">
        <ele>421</ele>
        <time>2015-03-28T14:12:52Z</time>
      </trkpt>
      <trkpt lat="50.02447" lon="5.38369">
        <ele>421</ele>
        <time>2015-03-28T14:12:58Z</time>
      </trkpt>
      <trkpt lat="50.02449" lon="5.38363">
        <ele>421</ele>
        <time>2015-03-28T14:13:03Z</time>
      </trkpt>
      <trkpt lat="50.02451" lon="5.38353">
        <ele>420</ele>
        <time>2015-03-28T14:13:09Z</time>
      </trkpt>
      <trkpt lat="50.02453" lon="5.38346">
        <ele>420</ele>
        <time>2015-03-28T14:13:14Z</time>
      </trkpt>
      <trkpt lat="50.02455" lon="5.38337">
        <ele>420</ele>
        <time>2015-03-28T14:13:20Z</time>
      </trkpt>
      <trkpt lat="50.02457" lon="5.38328">
        <ele>420</ele>
        <time>2015-03-28T14:13:25Z</time>
      </trkpt>
      <trkpt lat="50.02457" lon="5.38316">
        <ele>420</ele>
        <time>2015-03-28T14:13:31Z</time>
      </trkpt>
      <trkpt lat="50.02457" lon="5.38303">
        <ele>420</ele>
        <time>2015-03-28T14:13:37Z</time>
      </trkpt>
      <trkpt lat="50.02455" lon="5.38296">
        <ele>421</ele>
        <time>2015-03-28T14:13:42Z</time>
      </trkpt>
      <trkpt lat="50.02451" lon="5.3829">
        <ele>422</ele>
        <time>2015-03-28T14:13:48Z</time>
      </trkpt>
      <trkpt lat="50.02449" lon="5.38287">
        <ele>422</ele>
        <time>2015-03-28T14:13:53Z</time>
      </trkpt>
      <trkpt lat="50.02446" lon="5.38284">
        <ele>423</ele>
        <time>2015-03-28T14:13:59Z</time>
      </trkpt>
      <trkpt lat="50.02442" lon="5.38281">
        <ele>423</ele>
        <time>2015-03-28T14:14:04Z</time>
      </trkpt>
      <trkpt lat="50.02438" lon="5.38279">
        <ele>424</ele>
        <time>2015-03-28T14:14:09Z</time>
      </trkpt>
      <trkpt lat="50.02432" lon="5.38278">
        <ele>424</ele>
        <time>2015-03-28T14:14:15Z</time>
      </trkpt>
      <trkpt lat="50.02427" lon="5.38279">
        <ele>425</ele>
        <time>2015-03-28T14:14:20Z</time>
      </trkpt>
      <trkpt lat="50.02422" lon="5.38279">
        <ele>426</ele>
        <time>2015-03-28T14:14:25Z</time>
      </trkpt>
      <trkpt lat="50.02416" lon="5.38276">
        <ele>426</ele>
        <time>2015-03-28T14:14:31Z</time>
      </trkpt>
      <trkpt lat="50.0241" lon="5.38273">
        <ele>427</ele>
        <time>2015-03-28T14:14:37Z</time>
      </trkpt>
      <trkpt lat="50.02403" lon="5.38271">
        <ele>428</ele>
        <time>2015-03-28T14:14:43Z</time>
      </trkpt>
      <trkpt lat="50.02397" lon="5.38269">
        <ele>428</ele>
        <time>2015-03-28T14:14:49Z</time>
      </trkpt>
      <trkpt lat="50.02391" lon="5.38267">
        <ele>429</ele>
        <time>2015-03-28T14:14:54Z</time>
      </trkpt>
      <trkpt lat="50.02386" lon="5.38264">
        <ele>430</ele>
        <time>2015-03-28T14:15:00Z</time>
      </trkpt>
      <trkpt lat="50.02381" lon="5.38262">
        <ele>430</ele>
        <time>2015-03-28T14:15:05Z</time>
      </trkpt>
      <trkpt lat="50.02375" lon="5.38261">
        <ele>431</ele>
        <time>2015-03-28T14:15:11Z</time>
      </trkpt>
      <trkpt lat="50.02371" lon="5.38261">
        <ele>431</ele>
        <time>2015-03-28T14:15:16Z</time>
      </trkpt>
      <trkpt lat="50.02366" lon="5.3826">
        <ele>432</ele>
        <time>2015-03-28T14:15:22Z</time>
      </trkpt>
      <trkpt lat="50.0236" lon="5.38259">
        <ele>433</ele>
        <time>2015-03-28T14:15:28Z</time>
      </trkpt>
      <trkpt lat="50.02354" lon="5.38257">
        <ele>434</ele>
        <time>2015-03-28T14:15:33Z</time>
      </trkpt>
      <trkpt lat="50.02348" lon="5.38257">
        <ele>434</ele>
        <time>2015-03-28T14:15:39Z</time>
      </trkpt>
      <trkpt lat="50.02344" lon="5.38257">
        <ele>435</ele>
        <time>2015-03-28T14:15:45Z</time>
      </trkpt>
      <trkpt lat="50.02339" lon="5.38256">
        <ele>436</ele>
        <time>2015-03-28T14:15:50Z</time>
      </trkpt>
      <trkpt lat="50.02333" lon="5.38255">
        <ele>436</ele>
        <time>2015-03-28T14:15:56Z</time>
      </trkpt>
      <trkpt lat="50.02327" lon="5.38253">
        <ele>437</ele>
        <time>2015-03-28T14:16:02Z</time>
      </trkpt>
      <trkpt lat="50.02321" lon="5.3825">
        <ele>437</ele>
        <time>2015-03-28T14:16:07Z</time>
      </trkpt>
      <trkpt lat="50.02314" lon="5.38247">
        <ele>438</ele>
        <time>2015-03-28T14:16:13Z</time>
      </trkpt>
      <trkpt lat="50.02307" lon="5.38244">
        <ele>439</ele>
        <time>2015-03-28T14:16:19Z</time>
      </trkpt>
      <trkpt lat="50.02301" lon="5.38243">
        <ele>439</ele>
        <time>2015-03-28T14:16:24Z</time>
      </trkpt>
      <trkpt lat="50.02294" lon="5.38241">
        <ele>440</ele>
        <time>2015-03-28T14:16:30Z</time>
      </trkpt>
      <trkpt lat="50.02288" lon="5.38239">
        <ele>440</ele>
        <time>2015-03-28T14:16:36Z</time>
      </trkpt>
      <trkpt lat="50.02284" lon="5.38236">
        <ele>441</ele>
        <time>2015-03-28T14:16:41Z</time>
      </trkpt>
      <trkpt lat="50.02279" lon="5.38235">
        <ele>441</ele>
        <time>2015-03-28T14:16:46Z</time>
      </trkpt>
      <trkpt lat="50.02274" lon="5.38233">
        <ele>442</ele>
        <time>2015-03-28T14:16:52Z</time>
      </trkpt>
      <trkpt lat="50.02272" lon="5.38228">
        <ele>442</ele>
        <time>2015-03-28T14:16:58Z</time>
      </trkpt>
      <trkpt lat="50.02272" lon="5.38218">
        <ele>442</ele>
        <time>2015-03-28T14:17:04Z</time>
      </trkpt>
      <trkpt lat="50.02272" lon="5.38208">
        <ele>442</ele>
        <time>2015-03-28T14:17:10Z</time>
      </trkpt>
      <trkpt lat="50.02273" lon="5.38197">
        <ele>442</ele>
        <time>2015-03-28T14:17:16Z</time>
      </trkpt>
      <trkpt lat="50.02274" lon="5.38188">
        <ele>441</ele>
        <time>2015-03-28T14:17:22Z</time>
      </trkpt>
      <trkpt lat="50.02275" lon="5.3818">
        <ele>441</ele>
        <time>2015-03-28T14:17:27Z</time>
      </trkpt>
      <trkpt lat="50.02277" lon="5.38173">
        <ele>441</ele>
        <time>2015-03-28T14:17:33Z</time>
      </trkpt>
      <trkpt lat="50.02278" lon="5.38164">
        <ele>441</ele>
        <time>2015-03-28T14:17:39Z</time>
      </trkpt>
      <trkpt lat="50.0228" lon="5.38156">
        <ele>440</ele>
        <time>2015-03-28T14:17:44Z</time>
      </trkpt>
      <trkpt lat="50.02284" lon="5.38147">
        <ele>439</ele>
        <time>2015-03-28T14:17:50Z</time>
      </trkpt>
      <trkpt lat="50.02287" lon="5.3814">
        <ele>439</ele>
        <time>2015-03-28T14:17:55Z</time>
      </trkpt>
      <trkpt lat="50.02289" lon="5.38132">
        <ele>438</ele>
        <time>2015-03-28T14:18:00Z</time>
      </trkpt>
      <trkpt lat="50.02292" lon="5.38121">
        <ele>437</ele>
        <time>2015-03-28T14:18:06Z</time>
      </trkpt>
      <trkpt lat="50.02296" lon="5.38112">
        <ele>437</ele>
        <time>2015-03-28T14:18:11Z</time>
      </trkpt>
      <trkpt lat="50.02303" lon="5.38104">
        <ele>436</ele>
        <time>2015-03-28T14:18:17Z</time>
      </trkpt>
      <trkpt lat="50.02308" lon="5.38097">
        <ele>436</ele>
        <time>2015-03-28T14:18:22Z</time>
      </trkpt>
      <trkpt lat="50.02316" lon="5.38089">
        <ele>435</ele>
        <time>2015-03-28T14:18:28Z</time>
      </trkpt>
      <trkpt lat="50.02322" lon="5.38083">
        <ele>434</ele>
        <time>2015-03-28T14:18:33Z</time>
      </trkpt>
      <trkpt lat="50.02326" lon="5.3808">
        <ele>434</ele>
        <time>2015-03-28T14:18:38Z</time>
      </trkpt>
      <trkpt lat="50.02332" lon="5.38077">
        <ele>433</ele>
        <time>2015-03-28T14:18:44Z</time>
      </trkpt>
      <trkpt lat="50.02337" lon="5.38072">
        <ele>432</ele>
        <time>2015-03-28T14:18:50Z</time>
      </trkpt>
      <trkpt lat="50.0234" lon="5.3807">
        <ele>432</ele>
        <time>2015-03-28T14:18:55Z</time>
      </trkpt>
      <trkpt lat="50.02344" lon="5.38066">
        <ele>431</ele>
        <time>2015-03-28T14:19:00Z</time>
      </trkpt>
      <trkpt lat="50.02349" lon="5.38062">
        <ele>431</ele>
        <time>2015-03-28T14:19:05Z</time>
      </trkpt>
      <trkpt lat="50.02354" lon="5.38056">
        <ele>431</ele>
        <time>2015-03-28T14:19:11Z</time>
      </trkpt>
      <trkpt lat="50.02357" lon="5.38052">
        <ele>431</ele>
        <time>2015-03-28T14:19:16Z</time>
      </trkpt>
      <trkpt lat="50.02362" lon="5.38049">
        <ele>430</ele>
        <time>2015-03-28T14:19:21Z</time>
      </trkpt>
      <trkpt lat="50.02367" lon="5.38044">
        <ele>430</ele>
        <time>2015-03-28T14:19:26Z</time>
      </trkpt>
      <trkpt lat="50.02373" lon="5.38038">
        <ele>429</ele>
        <time>2015-03-28T14:19:32Z</time>
      </trkpt>
      <trkpt lat="50.02381" lon="5.38033">
        <ele>428</ele>
        <time>2015-03-28T14:19:38Z</time>
      </trkpt>
      <trkpt lat="50.02386" lon="5.38031">
        <ele>428</ele>
        <time>2015-03-28T14:19:44Z</time>
      </trkpt>
      <trkpt lat="50.0239" lon="5.38028">
        <ele>428</ele>
        <time>2015-03-28T14:19:49Z</time>
      </trkpt>
      <trkpt lat="50.02395" lon="5.38023">
        <ele>427</ele>
        <time>2015-03-28T14:19:55Z</time>
      </trkpt>
      <trkpt lat="50.02399" lon="5.38018">
        <ele>427</ele>
        <time>2015-03-28T14:20:00Z</time>
      </trkpt>
      <trkpt lat="50.02404" lon="5.38012">
        <ele>427</ele>
        <time>2015-03-28T14:20:05Z</time>
      </trkpt>
      <trkpt lat="50.0241" lon="5.38004">
        <ele>427</ele>
        <time>2015-03-28T14:20:11Z</time>
      </trkpt>
      <trkpt lat="50.02416" lon="5.37998">
        <ele>426</ele>
        <time>2015-03-28T14:20:17Z</time>
      </trkpt>
      <trkpt lat="50.02423" lon="5.37993">
        <ele>426</ele>
        <time>2015-03-28T14:20:23Z</time>
      </trkpt>
      <trkpt lat="50.0243" lon="5.37989">
        <ele>425</ele>
        <time>2015-03-28T14:20:28Z</time>
      </trkpt>
      <trkpt lat="50.02437" lon="5.37982">
        <ele>425</ele>
        <time>2015-03-28T14:20:34Z</time>
      </trkpt>
      <trkpt lat="50.02442" lon="5.37975">
        <ele>425</ele>
        <time>2015-03-28T14:20:39Z</time>
      </trkpt>
      <trkpt lat="50.02448" lon="5.37968">
        <ele>425</ele>
        <time>2015-03-28T14:20:45Z</time>
      </trkpt>
      <trkpt lat="50.02454" lon="5.37961">
        <ele>424</ele>
        <time>2015-03-28T14:20:51Z</time>
      </trkpt>
      <trkpt lat="50.02459" lon="5.37956">
        <ele>423</ele>
        <time>2015-03-28T14:20:56Z</time>
      </trkpt>
      <trkpt lat="50.02464" lon="5.37952">
        <ele>423</ele>
        <time>2015-03-28T14:21:01Z</time>
      </trkpt>
      <trkpt lat="50.02469" lon="5.37947">
        <ele>423</ele>
        <time>2015-03-28T14:21:07Z</time>
      </trkpt>
      <trkpt lat="50.02473" lon="5.37943">
        <ele>423</ele>
        <time>2015-03-28T14:21:12Z</time>
      </trkpt>
      <trkpt lat="50.02478" lon="5.37936">
        <ele>423</ele>
        <time>2015-03-28T14:21:18Z</time>
      </trkpt>
      <trkpt lat="50.02481" lon="5.37932">
        <ele>422</ele>
        <time>2015-03-28T14:21:24Z</time>
      </trkpt>
      <trkpt lat="50.02485" lon="5.37926">
        <ele>422</ele>
        <time>2015-03-28T14:21:30Z</time>
      </trkpt>
      <trkpt lat="50.02489" lon="5.37922">
        <ele>422</ele>
        <time>2015-03-28T14:21:36Z</time>
      </trkpt>
      <trkpt lat="50.02494" lon="5.37918">
        <ele>422</ele>
        <time>2015-03-28T14:21:42Z</time>
      </trkpt>
      <trkpt lat="50.02498" lon="5.37912">
        <ele>421</ele>
        <time>2015-03-28T14:21:48Z</time>
      </trkpt>
      <trkpt lat="50.02502" lon="5.37907">
        <ele>421</ele>
        <time>2015-03-28T14:21:53Z</time>
      </trkpt>
      <trkpt lat="50.02508" lon="5.37902">
        <ele>421</ele>
        <time>2015-03-28T14:21:59Z</time>
      </trkpt>
      <trkpt lat="50.02512" lon="5.37896">
        <ele>421</ele>
        <time>2015-03-28T14:22:04Z</time>
      </trkpt>
      <trkpt lat="50.02517" lon="5.3789">
        <ele>420</ele>
        <time>2015-03-28T14:22:09Z</time>
      </trkpt>
      <trkpt lat="50.02522" lon="5.37883">
        <ele>420</ele>
        <time>2015-03-28T14:22:15Z</time>
      </trkpt>
      <trkpt lat="50.02526" lon="5.37875">
        <ele>419</ele>
        <time>2015-03-28T14:22:21Z</time>
      </trkpt>
      <trkpt lat="50.02531" lon="5.3787">
        <ele>419</ele>
        <time>2015-03-28T14:22:26Z</time>
      </trkpt>
      <trkpt lat="50.02537" lon="5.37865">
        <ele>420</ele>
        <time>2015-03-28T14:22:32Z</time>
      </trkpt>
      <trkpt lat="50.02542" lon="5.37861">
        <ele>419</ele>
        <time>2015-03-28T14:22:37Z</time>
      </trkpt>
      <trkpt lat="50.02547" lon="5.37856">
        <ele>419</ele>
        <time>2015-03-28T14:22:43Z</time>
      </trkpt>
      <trkpt lat="50.02551" lon="5.37853">
        <ele>418</ele>
        <time>2015-03-28T14:22:48Z</time>
      </trkpt>
      <trkpt lat="50.02554" lon="5.37849">
        <ele>418</ele>
        <time>2015-03-28T14:22:53Z</time>
      </trkpt>
      <trkpt lat="50.02557" lon="5.37844">
        <ele>417</ele>
        <time>2015-03-28T14:22:58Z</time>
      </trkpt>
      <trkpt lat="50.02561" lon="5.37837">
        <ele>416</ele>
        <time>2015-03-28T14:23:04Z</time>
      </trkpt>
      <trkpt lat="50.02566" lon="5.37828">
        <ele>416</ele>
        <time>2015-03-28T14:23:10Z</time>
      </trkpt>
      <trkpt lat="50.0257" lon="5.37822">
        <ele>416</ele>
        <time>2015-03-28T14:23:15Z</time>
      </trkpt>
      <trkpt lat="50.02574" lon="5.37811">
        <ele>415</ele>
        <time>2015-03-28T14:23:21Z</time>
      </trkpt>
      <trkpt lat="50.02578" lon="5.37801">
        <ele>414</ele>
        <time>2015-03-28T14:23:27Z</time>
      </trkpt>
      <trkpt lat="50.02581" lon="5.37795">
        <ele>414</ele>
        <time>2015-03-28T14:23:32Z</time>
      </trkpt>
      <trkpt lat="50.02583" lon="5.37784">
        <ele>413</ele>
        <time>2015-03-28T14:23:38Z</time>
      </trkpt>
      <trkpt lat="50.02585" lon="5.37774">
        <ele>413</ele>
        <time>2015-03-28T14:23:44Z</time>
      </trkpt>
      <trkpt lat="50.02589" lon="5.37765">
        <ele>412</ele>
        <time>2015-03-28T14:23:49Z</time>
      </trkpt>
      <trkpt lat="50.02589" lon="5.37753">
        <ele>411</ele>
        <time>2015-03-28T14:23:55Z</time>
      </trkpt>
      <trkpt lat="50.02588" lon="5.37745">
        <ele>410</ele>
        <time>2015-03-28T14:24:00Z</time>
      </trkpt>
      <trkpt lat="50.02586" lon="5.37733">
        <ele>410</ele>
        <time>2015-03-28T14:24:06Z</time>
      </trkpt>
      <trkpt lat="50.02586" lon="5.37722">
        <ele>409</ele>
        <time>2015-03-28T14:24:11Z</time>
      </trkpt>
      <trkpt lat="50.02583" lon="5.37714">
        <ele>409</ele>
        <time>2015-03-28T14:24:16Z</time>
      </trkpt>
      <trkpt lat="50.02583" lon="5.37705">
        <ele>409</ele>
        <time>2015-03-28T14:24:22Z</time>
      </trkpt>
      <trkpt lat="50.02582" lon="5.37696">
        <ele>407</ele>
        <time>2015-03-28T14:24:28Z</time>
      </trkpt>
      <trkpt lat="50.02582" lon="5.37689">
        <ele>407</ele>
        <time>2015-03-28T14:24:34Z</time>
      </trkpt>
      <trkpt lat="50.0258" lon="5.37679">
        <ele>407</ele>
        <time>2015-03-28T14:24:39Z</time>
      </trkpt>
      <trkpt lat="50.02579" lon="5.37672">
        <ele>406</ele>
        <time>2015-03-28T14:24:44Z</time>
      </trkpt>
      <trkpt lat="50.02576" lon="5.3766">
        <ele>406</ele>
        <time>2015-03-28T14:24:50Z</time>
      </trkpt>
      <trkpt lat="50.02577" lon="5.37655">
        <ele>406</ele>
        <time>2015-03-28T14:24:55Z</time>
      </trkpt>
      <trkpt lat="50.02576" lon="5.37649">
        <ele>405</ele>
        <time>2015-03-28T14:25:00Z</time>
      </trkpt>
      <trkpt lat="50.02574" lon="5.37642">
        <ele>405</ele>
        <time>2015-03-28T14:25:06Z</time>
      </trkpt>
      <trkpt lat="50.02575" lon="5.37632">
        <ele>405</ele>
        <time>2015-03-28T14:25:12Z</time>
      </trkpt>
      <trkpt lat="50.02573" lon="5.37624">
        <ele>404</ele>
        <time>2015-03-28T14:25:17Z</time>
      </trkpt>
      <trkpt lat="50.02572" lon="5.37613">
        <ele>404</ele>
        <time>2015-03-28T14:25:23Z</time>
      </trkpt>
      <trkpt lat="50.02571" lon="5.37604">
        <ele>404</ele>
        <time>2015-03-28T14:25:28Z</time>
      </trkpt>
      <trkpt lat="50.02567" lon="5.37595">
        <ele>403</ele>
        <time>2015-03-28T14:25:33Z</time>
      </trkpt>
      <trkpt lat="50.02563" lon="5.37583">
        <ele>402</ele>
        <time>2015-03-28T14:25:38Z</time>
      </trkpt>
      <trkpt lat="50.02558" lon="5.37571">
        <ele>402</ele>
        <time>2015-03-28T14:25:44Z</time>
      </trkpt>
      <trkpt lat="50.02553" lon="5.3756">
        <ele>402</ele>
        <time>2015-03-28T14:25:49Z</time>
      </trkpt>
      <trkpt lat="50.02551" lon="5.37551">
        <ele>401</ele>
        <time>2015-03-28T14:25:54Z</time>
      </trkpt>
      <trkpt lat="50.02548" lon="5.37541">
        <ele>401</ele>
        <time>2015-03-28T14:26:00Z</time>
      </trkpt>
      <trkpt lat="50.02546" lon="5.37533">
        <ele>401</ele>
        <time>2015-03-28T14:26:05Z</time>
      </trkpt>
      <trkpt lat="50.02545" lon="5.37525">
        <ele>400</ele>
        <time>2015-03-28T14:26:10Z</time>
      </trkpt>
      <trkpt lat="50.02544" lon="5.37518">
        <ele>399</ele>
        <time>2015-03-28T14:26:15Z</time>
      </trkpt>
      <trkpt lat="50.02543" lon="5.3751">
        <ele>399</ele>
        <time>2015-03-28T14:26:20Z</time>
      </trkpt>
      <trkpt lat="50.02541" lon="5.37499">
        <ele>399</ele>
        <time>2015-03-28T14:26:26Z</time>
      </trkpt>
      <trkpt lat="50.02539" lon="5.37489">
        <ele>398</ele>
        <time>2015-03-28T14:26:32Z</time>
      </trkpt>
      <trkpt lat="50.02537" lon="5.37481">
        <ele>397</ele>
        <time>2015-03-28T14:26:38Z</time>
      </trkpt>
      <trkpt lat="50.02535" lon="5.37471">
        <ele>397</ele>
        <time>2015-03-28T14:26:44Z</time>
      </trkpt>
      <trkpt lat="50.02534" lon="5.37461">
        <ele>397</ele>
        <time>2015-03-28T14:26:49Z</time>
      </trkpt>
      <trkpt lat="50.02532" lon="5.37451">
        <ele>396</ele>
        <time>2015-03-28T14:26:54Z</time>
      </trkpt>
      <trkpt lat="50.02531" lon="5.37439">
        <ele>396</ele>
        <time>2015-03-28T14:27:00Z</time>
      </trkpt>
      <trkpt lat="50.02529" lon="5.37431">
        <ele>396</ele>
        <time>2015-03-28T14:27:05Z</time>
      </trkpt>
      <trkpt lat="50.02527" lon="5.37424">
        <ele>395</ele>
        <time>2015-03-28T14:27:10Z</time>
      </trkpt>
      <trkpt lat="50.02525" lon="5.37416">
        <ele>395</ele>
        <time>2015-03-28T14:27:16Z</time>
      </trkpt>
      <trkpt lat="50.02524" lon="5.37404">
        <ele>394</ele>
        <time>2015-03-28T14:27:21Z</time>
      </trkpt>
      <trkpt lat="50.02525" lon="5.37392">
        <ele>394</ele>
        <time>2015-03-28T14:27:26Z</time>
      </trkpt>
      <trkpt lat="50.02528" lon="5.37381">
        <ele>393</ele>
        <time>2015-03-28T14:27:32Z</time>
      </trkpt>
      <trkpt lat="50.02529" lon="5.37374">
        <ele>393</ele>
        <time>2015-03-28T14:27:37Z</time>
      </trkpt>
      <trkpt lat="50.02531" lon="5.37365">
        <ele>392</ele>
        <time>2015-03-28T14:27:42Z</time>
      </trkpt>
      <trkpt lat="50.02533" lon="5.37357">
        <ele>391</ele>
        <time>2015-03-28T14:27:47Z</time>
      </trkpt>
      <trkpt lat="50.02537" lon="5.3735">
        <ele>391</ele>
        <time>2015-03-28T14:27:52Z</time>
      </trkpt>
      <trkpt lat="50.02541" lon="5.37344">
        <ele>390</ele>
        <time>2015-03-28T14:27:58Z</time>
      </trkpt>
      <trkpt lat="50.02547" lon="5.37336">
        <ele>390</ele>
        <time>2015-03-28T14:28:04Z</time>
      </trkpt>
      <trkpt lat="50.02553" lon="5.3733">
        <ele>389</ele>
        <time>2015-03-28T14:28:10Z</time>
      </trkpt>
      <trkpt lat="50.02559" lon="5.37328">
        <ele>389</ele>
        <time>2015-03-28T14:28:15Z</time>
      </trkpt>
      <trkpt lat="50.02563" lon="5.37328">
        <ele>389</ele>
        <time>2015-03-28T14:28:20Z</time>
      </trkpt>
      <trkpt lat="50.02568" lon="5.37327">
        <ele>389</ele>
        <time>2015-03-28T14:28:25Z</time>
      </trkpt>
      <trkpt lat="50.0257" lon="5.37327">
        <ele>388</ele>
        <time>2015-03-28T14:28:30Z</time>
      </trkpt>
      <trkpt lat="50.02573" lon="5.37325">
        <ele>388</ele>
        <time>2015-03-28T14:28:36Z</time>
      </trkpt>
      <trkpt lat="50.02576" lon="5.37324">
        <ele>388</ele>
        <time>2015-03-28T14:28:42Z</time>
      </trkpt>
      <trkpt lat="50.02578" lon="5.37325">
        <ele>387</ele>
        <time>2015-03-28T14:28:47Z</time>
      </trkpt>
      <trkpt lat="50.02581" lon="5.37324">
        <ele>387</ele>
        <time>2015-03-28T14:28:53Z</time>
      </trkpt>
      <trkpt lat="50.02586" lon="5.3732">
        <ele>387</ele>
        <time>2015-03-28T14:28:58Z</time>
      </trkpt>
      <trkpt lat="50.02588" lon="5.37312">
        <ele>386</ele>
        <time>2015-03-28T14:29:03Z</time>
      </trkpt>
      <trkpt lat="50.02593" lon="5.37303">
        <ele>385</ele>
        <time>2015-03-28T14:29:09Z</time>
      </trkpt>
      <trkpt lat="50.02596" lon="5.37294">
        <ele>385</ele>
        <time>2015-03-28T14:29:14Z</time>
      </trkpt>
      <trkpt lat="50.02599" lon="5.37283">
        <ele>384</ele>
        <time>2015-03-28T14:29:20Z</time>
      </trkpt>
      <trkpt lat="50.02602" lon="5.37274">
        <ele>384</ele>
        <time>2015-03-28T14:29:26Z</time>
      </trkpt>
      <trkpt lat="50.02604" lon="5.37264">
        <ele>384</ele>
        <time>2015-03-28T14:29:31Z</time>
      </trkpt>
      <trkpt lat="50.02604" lon="5.37252">
        <ele>384</ele>
        <time>2015-03-28T14:29:37Z</time>
      </trkpt>
      <trkpt lat="50.02603" lon="5.37239">
        <ele>383</ele>
        <time>2015-03-28T14:29:43Z</time>
      </trkpt>
      <trkpt lat="50.02603" lon="5.37227">
        <ele>383</ele>
        <time>2015-03-28T14:29:49Z</time>
      </trkpt>
      <trkpt lat="50.02603" lon="5.37217">
        <ele>383</ele>
        <time>2015-03-28T14:29:55Z</time>
      </trkpt>
      <trkpt lat="50.02602" lon="5.37208">
        <ele>383</ele>
        <time>2015-03-28T14:30:00Z</time>
      </trkpt>
      <trkpt lat="50.02601" lon="5.37198">
        <ele>383</ele>
        <time>2015-03-28T14:30:06Z</time>
      </trkpt>
      <trkpt lat="50.02599" lon="5.3719">
        <ele>383</ele>
        <time>2015-03-28T14:30:11Z</time>
      </trkpt>
      <trkpt lat="50.02595" lon="5.37182">
        <ele>382</ele>
        <time>2015-03-28T14:30:17Z</time>
      </trkpt>
      <trkpt lat="50.02592" lon="5.37174">
        <ele>382</ele>
        <time>2015-03-28T14:30:22Z</time>
      </trkpt>
      <trkpt lat="50.02591" lon="5.37166">
        <ele>382</ele>
        <time>2015-03-28T14:30:27Z</time>
      </trkpt>
      <trkpt lat="50.0259" lon="5.37158">
        <ele>381</ele>
        <time>2015-03-28T14:30:33Z</time>
      </trkpt>
      <trkpt lat="50.02588" lon="5.37149">
        <ele>381</ele>
        <time>2015-03-28T14:30:39Z</time>
      </trkpt>
      <trkpt lat="50.02589" lon="5.3714">
        <ele>381</ele>
        <time>2015-03-28T14:30:45Z</time>
      </trkpt>
      <trkpt lat="50.02587" lon="5.37129">
        <ele>381</ele>
        <time>2015-03-28T14:30:50Z</time>
      </trkpt>
      <trkpt lat="50.02586" lon="5.3712">
        <ele>381</ele>
        <time>2015-03-28T14:30:55Z</time>
      </trkpt>
      <trkpt lat="50.02583" lon="5.37106">
        <ele>381</ele>
        <time>2015-03-28T14:31:01Z</time>
      </trkpt>
      <trkpt lat="50.02584" lon="5.37097">
        <ele>381</ele>
        <time>2015-03-28T14:31:07Z</time>
      </trkpt>
      <trkpt lat="50.02578" lon="5.3709">
        <ele>381</ele>
        <time>2015-03-28T14:31:13Z</time>
      </trkpt>
      <trkpt lat="50.02567" lon="5.37081">
        <ele>382</ele>
        <time>2015-03-28T14:31:19Z</time>
      </trkpt>
      <trkpt lat="50.02563" lon="5.37071">
        <ele>382</ele>
        <time>2015-03-28T14:31:25Z</time>
      </trkpt>
      <trkpt lat="50.02559" lon="5.37066">
        <ele>381</ele>
        <time>2015-03-28T14:31:30Z</time>
      </trkpt>
      <trkpt lat="50.02555" lon="5.37056">
        <ele>382</ele>
        <time>2015-03-28T14:31:35Z</time>
      </trkpt>
      <trkpt lat="50.02553" lon="5.37047">
        <ele>382</ele>
        <time>2015-03-28T14:31:41Z</time>
      </trkpt>
      <trkpt lat="50.0255" lon="5.37036">
        <ele>383</ele>
        <time>2015-03-28T14:31:47Z</time>
      </trkpt>
      <trkpt lat="50.02546" lon="5.37028">
        <ele>383</ele>
        <time>2015-03-28T14:31:52Z</time>
      </trkpt>
      <trkpt lat="50.0254" lon="5.37016">
        <ele>383</ele>
        <time>2015-03-28T14:31:58Z</time>
      </trkpt>
      <trkpt lat="50.02537" lon="5.37009">
        <ele>383</ele>
        <time>2015-03-28T14:32:03Z</time>
      </trkpt>
      <trkpt lat="50.02532" lon="5.37002">
        <ele>383</ele>
        <time>2015-03-28T14:32:08Z</time>
      </trkpt>
      <trkpt lat="50.02525" lon="5.36996">
        <ele>383</ele>
        <time>2015-03-28T14:32:14Z</time>
      </trkpt>
      <trkpt lat="50.0249" lon="5.36988">
        <ele>386</ele>
        <time>2015-03-28T14:32:20Z</time>
      </trkpt>
      <trkpt lat="50.02489" lon="5.36989">
        <ele>386</ele>
        <time>2015-03-28T14:32:25Z</time>
      </trkpt>
      <trkpt lat="50.02485" lon="5.36989">
        <ele>387</ele>
        <time>2015-03-28T14:32:30Z</time>
      </trkpt>
      <trkpt lat="50.0248" lon="5.36991">
        <ele>387</ele>
        <time>2015-03-28T14:32:36Z</time>
      </trkpt>
      <trkpt lat="50.02477" lon="5.36998">
        <ele>387</ele>
        <time>2015-03-28T14:32:42Z</time>
      </trkpt>
      <trkpt lat="50.02472" lon="5.37005">
        <ele>387</ele>
        <time>2015-03-28T14:32:48Z</time>
      </trkpt>
      <trkpt lat="50.02467" lon="5.37012">
        <ele>388</ele>
        <time>2015-03-28T14:32:53Z</time>
      </trkpt>
      <trkpt lat="50.02461" lon="5.3702">
        <ele>389</ele>
        <time>2015-03-28T14:32:59Z</time>
      </trkpt>
      <trkpt lat="50.02458" lon="5.37027">
        <ele>389</ele>
        <time>2015-03-28T14:33:04Z</time>
      </trkpt>
      <trkpt lat="50.02454" lon="5.37032">
        <ele>389</ele>
        <time>2015-03-28T14:33:09Z</time>
      </trkpt>
      <trkpt lat="50.02449" lon="5.37035">
        <ele>390</ele>
        <time>2015-03-28T14:33:14Z</time>
      </trkpt>
      <trkpt lat="50.02445" lon="5.37039">
        <ele>391</ele>
        <time>2015-03-28T14:33:19Z</time>
      </trkpt>
      <trkpt lat="50.0244" lon="5.37043">
        <ele>392</ele>
        <time>2015-03-28T14:33:25Z</time>
      </trkpt>
      <trkpt lat="50.02434" lon="5.37043">
        <ele>392</ele>
        <time>2015-03-28T14:33:30Z</time>
      </trkpt>
      <trkpt lat="50.02428" lon="5.37039">
        <ele>392</ele>
        <time>2015-03-28T14:33:36Z</time>
      </trkpt>
      <trkpt lat="50.02422" lon="5.37032">
        <ele>394</ele>
        <time>2015-03-28T14:33:42Z</time>
      </trkpt>
      <trkpt lat="50.02417" lon="5.37026">
        <ele>394</ele>
        <time>2015-03-28T14:33:47Z</time>
      </trkpt>
      <trkpt lat="50.0241" lon="5.37018">
        <ele>394</ele>
        <time>2015-03-28T14:33:53Z</time>
      </trkpt>
      <trkpt lat="50.02405" lon="5.37011">
        <ele>394</ele>
        <time>2015-03-28T14:33:58Z</time>
      </trkpt>
      <trkpt lat="50.02401" lon="5.37007">
        <ele>393</ele>
        <time>2015-03-28T14:34:04Z</time>
      </trkpt>
      <trkpt lat="50.02394" lon="5.37005">
        <ele>394</ele>
        <time>2015-03-28T14:34:10Z</time>
      </trkpt>
      <trkpt lat="50.02391" lon="5.36997">
        <ele>394</ele>
        <time>2015-03-28T14:34:15Z</time>
      </trkpt>
      <trkpt lat="50.02389" lon="5.36988">
        <ele>394</ele>
        <time>2015-03-28T14:34:21Z</time>
      </trkpt>
      <trkpt lat="50.02385" lon="5.36981">
        <ele>394</ele>
        <time>2015-03-28T14:34:27Z</time>
      </trkpt>
      <trkpt lat="50.02383" lon="5.36977">
        <ele>394</ele>
        <time>2015-03-28T14:34:32Z</time>
      </trkpt>
      <trkpt lat="50.02377" lon="5.36975">
        <ele>394</ele>
        <time>2015-03-28T14:34:37Z</time>
      </trkpt>
      <trkpt lat="50.02372" lon="5.36966">
        <ele>395</ele>
        <time>2015-03-28T14:34:43Z</time>
      </trkpt>
      <trkpt lat="50.02364" lon="5.36962">
        <ele>395</ele>
        <time>2015-03-28T14:34:48Z</time>
      </trkpt>
      <trkpt lat="50.02359" lon="5.36966">
        <ele>396</ele>
        <time>2015-03-28T14:34:53Z</time>
      </trkpt>
      <trkpt lat="50.02353" lon="5.36965">
        <ele>396</ele>
        <time>2015-03-28T14:34:59Z</time>
      </trkpt>
      <trkpt lat="50.02346" lon="5.36969">
        <ele>396</ele>
        <time>2015-03-28T14:35:04Z</time>
      </trkpt>
      <trkpt lat="50.02341" lon="5.36974">
        <ele>396</ele>
        <time>2015-03-28T14:35:09Z</time>
      </trkpt>
      <trkpt lat="50.02338" lon="5.36978">
        <ele>397</ele>
        <time>2015-03-28T14:35:14Z</time>
      </trkpt>
      <trkpt lat="50.02333" lon="5.36982">
        <ele>397</ele>
        <time>2015-03-28T14:35:19Z</time>
      </trkpt>
      <trkpt lat="50.02325" lon="5.36984">
        <ele>397</ele>
        <time>2015-03-28T14:35:25Z</time>
      </trkpt>
      <trkpt lat="50.0232" lon="5.3699">
        <ele>398</ele>
        <time>2015-03-28T14:35:30Z</time>
      </trkpt>
      <trkpt lat="50.02316" lon="5.36996">
        <ele>398</ele>
        <time>2015-03-28T14:35:36Z</time>
      </trkpt>
      <trkpt lat="50.02312" lon="5.36998">
        <ele>398</ele>
        <time>2015-03-28T14:35:41Z</time>
      </trkpt>
      <trkpt lat="50.0231" lon="5.37">
        <ele>398</ele>
        <time>2015-03-28T14:35:47Z</time>
      </trkpt>
      <trkpt lat="50.02306" lon="5.37001">
        <ele>398</ele>
        <time>2015-03-28T14:35:52Z</time>
      </trkpt>
      <trkpt lat="50.02301" lon="5.37004">
        <ele>399</ele>
        <time>2015-03-28T14:35:58Z</time>
      </trkpt>
      <trkpt lat="50.02296" lon="5.37008">
        <ele>399</ele>
        <time>2015-03-28T14:36:03Z</time>
      </trkpt>
      <trkpt lat="50.02291" lon="5.37012">
        <ele>400</ele>
        <time>2015-03-28T14:36:09Z</time>
      </trkpt>
      <trkpt lat="50.02288" lon="5.37014">
        <ele>400</ele>
        <time>2015-03-28T14:36:14Z</time>
      </trkpt>
      <trkpt lat="50.02284" lon="5.3702">
        <ele>401</ele>
        <time>2015-03-28T14:36:20Z</time>
      </trkpt>
      <trkpt lat="50.0228" lon="5.37026">
        <ele>402</ele>
        <time>2015-03-28T14:36:25Z</time>
      </trkpt>
      <trkpt lat="50.02277" lon="5.37032">
        <ele>403</ele>
        <time>2015-03-28T14:36:30Z</time>
      </trkpt>
      <trkpt lat="50.02275" lon="5.37038">
        <ele>404</ele>
        <time>2015-03-28T14:36:35Z</time>
      </trkpt>
      <trkpt lat="50.02273" lon="5.37045">
        <ele>404</ele>
        <time>2015-03-28T14:36:41Z</time>
      </trkpt>
      <trkpt lat="50.02271" lon="5.37052">
        <ele>404</ele>
        <time>2015-03-28T14:36:47Z</time>
      </trkpt>
      <trkpt lat="50.02272" lon="5.37059">
        <ele>405</ele>
        <time>2015-03-28T14:36:53Z</time>
      </trkpt>
      <trkpt lat="50.0227" lon="5.37064">
        <ele>406</ele>
        <time>2015-03-28T14:36:58Z</time>
      </trkpt>
      <trkpt lat="50.02268" lon="5.37073">
        <ele>407</ele>
        <time>2015-03-28T14:37:04Z</time>
      </trkpt>
      <trkpt lat="50.02267" lon="5.37083">
        <ele>407</ele>
        <time>2015-03-28T14:37:10Z</time>
      </trkpt>
      <trkpt lat="50.02266" lon="5.3709">
        <ele>407</ele>
        <time>2015-03-28T14:37:15Z</time>
      </trkpt>
      <trkpt lat="50.02265" lon="5.37099">
        <ele>407</ele>
        <time>2015-03-28T14:37:21Z</time>
      </trkpt>
      <trkpt lat="50.02266" lon="5.37104">
        <ele>407</ele>
        <time>2015-03-28T14:37:26Z</time>
      </trkpt>
      <trkpt lat="50.02267" lon="5.37111">
        <ele>407</ele>
        <time>2015-03-28T14:37:32Z</time>
      </trkpt>
      <trkpt lat="50.02267" lon="5.37122">
        <ele>407</ele>
        <time>2015-03-28T14:37:37Z</time>
      </trkpt>
      <trkpt lat="50.0227" lon="5.37132">
        <ele>406</ele>
        <time>2015-03-28T14:37:43Z</time>
      </trkpt>
      <trkpt lat="50.02274" lon="5.37138">
        <ele>406</ele>
        <time>2015-03-28T14:37:48Z</time>
      </trkpt>
      <trkpt lat="50.02276" lon="5.37147">
        <ele>406</ele>
        <time>2015-03-28T14:37:54Z</time>
      </trkpt>
      <trkpt lat="50.02279" lon="5.37152">
        <ele>406</ele>
        <time>2015-03-28T14:37:59Z</time>
      </trkpt>
      <trkpt lat="50.02282" lon="5.37158">
        <ele>406</ele>
        <time>2015-03-28T14:38:04Z</time>
      </trkpt>
      <trkpt lat="50.02282" lon="5.37166">
        <ele>406</ele>
        <time>2015-03-28T14:38:10Z</time>
      </trkpt>
      <trkpt lat="50.02284" lon="5.37166">
        <ele>406</ele>
        <time>2015-03-28T14:38:15Z</time>
      </trkpt>
      <trkpt lat="50.02286" lon="5.37163">
        <ele>407</ele>
        <time>2015-03-28T14:38:20Z</time>
      </trkpt>
      <trkpt lat="50.02289" lon="5.37159">
        <ele>407</ele>
        <time>2015-03-28T14:38:26Z</time>
      </trkpt>
      <trkpt lat="50.02292" lon="5.37157">
        <ele>407</ele>
        <time>2015-03-28T14:38:31Z</time>
      </trkpt>
      <trkpt lat="50.02296" lon="5.37156">
        <ele>407</ele>
        <time>2015-03-28T14:38:37Z</time>
      </trkpt>
      <trkpt lat="50.02302" lon="5.37156">
        <ele>407</ele>
        <time>2015-03-28T14:38:43Z</time>
      </trkpt>
      <trkpt lat="50.02307" lon="5.37157">
        <ele>407</ele>
        <time>2015-03-28T14:38:49Z</time>
      </trkpt>
      <trkpt lat="50.02311" lon="5.37157">
        <ele>407</ele>
        <time>2015-03-28T14:38:54Z</time>
      </trkpt>
      <trkpt lat="50.02314" lon="5.37157">
        <ele>407</ele>
        <time>2015-03-28T14:39:00Z</time>
      </trkpt>
      <trkpt lat="50.02317" lon="5.37156">
        <ele>407</ele>
        <time>2015-03-28T14:39:06Z</time>
      </trkpt>
      <trkpt lat="50.02319" lon="5.37156">
        <ele>407</ele>
        <time>2015-03-28T14:39:11Z</time>
      </trkpt>
      <trkpt lat="50.0232" lon="5.37157">
        <ele>407</ele>
        <time>2015-03-28T14:39:17Z</time>
      </trkpt>
      <trkpt lat="50.02321" lon="5.37159">
        <ele>407</ele>
        <time>2015-03-28T14:39:22Z</time>
      </trkpt>
      <trkpt lat="50.02322" lon="5.37161">
        <ele>407</ele>
        <time>2015-03-28T14:39:27Z</time>
      </trkpt>
      <trkpt lat="50.02322" lon="5.37162">
        <ele>407</ele>
        <time>2015-03-28T14:39:33Z</time>
      </trkpt>
      <trkpt lat="50.02322" lon="5.37164">
        <ele>407</ele>
        <time>2015-03-28T14:39:38Z</time>
      </trkpt>
      <trkpt lat="50.02322" lon="5.37165">
        <ele>407</ele>
        <time>2015-03-28T14:39:43Z</time>
      </trkpt>
      <trkpt lat="50.02322" lon="5.37166">
        <ele>407</ele>
        <time>2015-03-28T14:39:49Z</time>
      </trkpt>
      <trkpt lat="50.02322" lon="5.37167">
        <ele>407</ele>
        <time>2015-03-28T14:39:55Z</time>
      </trkpt>
      <trkpt lat="50.02321" lon="5.37165">
        <ele>407</ele>
        <time>2015-03-28T14:40:01Z</time>
      </trkpt>
      <trkpt lat="50.0232" lon="5.37162">
        <ele>407</ele>
        <time>2015-03-28T14:40:07Z</time>
      </trkpt>
      <trkpt lat="50.02319" lon="5.3716">
        <ele>407</ele>
        <time>2015-03-28T14:40:12Z</time>
      </trkpt>
      <trkpt lat="50.02319" lon="5.37159">
        <ele>407</ele>
        <time>2015-03-28T14:40:17Z</time>
      </trkpt>
      <trkpt lat="50.02319" lon="5.3716">
        <ele>407</ele>
        <time>2015-03-28T14:40:22Z</time>
      </trkpt>
      <trkpt lat="50.0232" lon="5.3716">
        <ele>407</ele>
        <time>2015-03-28T14:40:28Z</time>
      </trkpt>
      <trkpt lat="50.02321" lon="5.37161">
        <ele>407</ele>
        <time>2015-03-28T14:40:34Z</time>
      </trkpt>
      <trkpt lat="50.02322" lon="5.37161">
        <ele>407</ele>
        <time>2015-03-28T14:40:40Z</time>
      </trkpt>
      <trkpt lat="50.02322" lon="5.37162">
        <ele>407</ele>
        <time>2015-03-28T14:40:45Z</time>
      </trkpt>
      <trkpt lat="50.02321" lon="5.37164">
        <ele>407</ele>
        <time>2015-03-28T14:40:51Z</time>
      </trkpt>
      <trkpt lat="50.02321" lon="5.37165">
        <ele>407</ele>
        <time>2015-03-28T14:40:56Z</time>
      </trkpt>
      <trkpt lat="50.02321" lon="5.37166">
        <ele>407</ele>
        <time>2015-03-28T14:41:02Z</time>
      </trkpt>
      <trkpt lat="50.0232" lon="5.37167">
        <ele>407</ele>
        <time>2015-03-28T14:41:07Z</time>
      </trkpt>
      <trkpt lat="50.02319" lon="5.37168">
        <ele>407</ele>
        <time>2015-03-28T14:41:13Z</time>
      </trkpt>
      <trkpt lat="50.02318" lon="5.37169">
        <ele>407</ele>
        <time>2015-03-28T14:41:18Z</time>
      </trkpt>
      <trkpt lat="50.02317" lon="5.3717">
        <ele>407</ele>
        <time>2015-03-28T14:41:23Z</time>
      </trkpt>
      <trkpt lat="50.02317" lon="5.37171">
        <ele>407</ele>
        <time>2015-03-28T14:41:29Z</time>
      </trkpt>
      <trkpt lat="50.02318" lon="5.37172">
        <ele>408</ele>
        <time>2015-03-28T14:41:34Z</time>
      </trkpt>
      <trkpt lat="50.02319" lon="5.37173">
        <ele>407</ele>
        <time>2015-03-28T14:41:39Z</time>
      </trkpt>
      <trkpt lat="50.02318" lon="5.37173">
        <ele>407</ele>
        <time>2015-03-28T14:41:45Z</time>
      </trkpt>
      <trkpt lat="50.02317" lon="5.37174">
        <ele>407</ele>
        <time>2015-03-28T14:41:50Z</time>
      </trkpt>
      <trkpt lat="50.02317" lon="5.37176">
        <ele>407</ele>
        <time>2015-03-28T14:41:55Z</time>
      </trkpt>
      <trkpt lat="50.02317" lon="5.37178">
        <ele>407</ele>
        <time>2015-03-28T14:42:01Z</time>
      </trkpt>
      <trkpt lat="50.02316" lon="5.3718">
        <ele>408</ele>
        <time>2015-03-28T14:42:07Z</time>
      </trkpt>
      <trkpt lat="50.02316" lon="5.37182">
        <ele>407</ele>
        <time>2015-03-28T14:42:13Z</time>
      </trkpt>
      <trkpt lat="50.02316" lon="5.37185">
        <ele>408</ele>
        <time>2015-03-28T14:42:18Z</time>
      </trkpt>
      <trkpt lat="50.02311" lon="5.37195">
        <ele>408</ele>
        <time>2015-03-28T14:42:24Z</time>
      </trkpt>
      <trkpt lat="50.02295" lon="5.37192">
        <ele>408</ele>
        <time>2015-03-28T14:42:30Z</time>
      </trkpt>
      <trkpt lat="50.02278" lon="5.37196">
        <ele>408</ele>
        <time>2015-03-28T14:42:36Z</time>
      </trkpt>
      <trkpt lat="50.02265" lon="5.37176">
        <ele>408</ele>
        <time>2015-03-28T14:42:42Z</time>
      </trkpt>
      <trkpt lat="50.02258" lon="5.37151">
        <ele>407</ele>
        <time>2015-03-28T14:42:48Z</time>
      </trkpt>
      <trkpt lat="50.02255" lon="5.37122">
        <ele>408</ele>
        <time>2015-03-28T14:42:53Z</time>
      </trkpt>
      <trkpt lat="50.02257" lon="5.37094">
        <ele>408</ele>
        <time>2015-03-28T14:42:58Z</time>
      </trkpt>
      <trkpt lat="50.02258" lon="5.37091">
        <ele>408</ele>
        <time>2015-03-28T14:43:04Z</time>
      </trkpt>
      <trkpt lat="50.02263" lon="5.37067">
        <ele>408</ele>
        <time>2015-03-28T14:43:09Z</time>
      </trkpt>
      <trkpt lat="50.02277" lon="5.37028">
        <ele>406</ele>
        <time>2015-03-28T14:43:14Z</time>
      </trkpt>
      <trkpt lat="50.02296" lon="5.37006">
        <ele>402</ele>
        <time>2015-03-28T14:43:19Z</time>
      </trkpt>
      <trkpt lat="50.02289" lon="5.36966">
        <ele>400</ele>
        <time>2015-03-28T14:43:25Z</time>
      </trkpt>
      <trkpt lat="50.02267" lon="5.36885">
        <ele>402</ele>
        <time>2015-03-28T14:43:31Z</time>
      </trkpt>
      <trkpt lat="50.02237" lon="5.36771">
        <ele>405</ele>
        <time>2015-03-28T14:43:37Z</time>
      </trkpt>
      <trkpt lat="50.02205" lon="5.36679">
        <ele>407</ele>
        <time>2015-03-28T14:43:42Z</time>
      </trkpt>
      <trkpt lat="50.02162" lon="5.36597">
        <ele>409</ele>
        <time>2015-03-28T14:43:47Z</time>
      </trkpt>
      <trkpt lat="50.02117" lon="5.36488">
        <ele>410</ele>
        <time>2015-03-28T14:43:53Z</time>
      </trkpt>
      <trkpt lat="50.02055" lon="5.36399">
        <ele>412</ele>
        <time>2015-03-28T14:43:59Z</time>
      </trkpt>
      <trkpt lat="50.02" lon="5.36362">
        <ele>415</ele>
        <time>2015-03-28T14:44:04Z</time>
      </trkpt>
      <trkpt lat="50.0196" lon="5.36356">
        <ele>416</ele>
        <time>2015-03-28T14:44:09Z</time>
      </trkpt>
      <trkpt lat="50.01896" lon="5.36351">
        <ele>415</ele>
        <time>2015-03-28T14:44:15Z</time>
      </trkpt>
      <trkpt lat="50.01832" lon="5.36308">
        <ele>412</ele>
        <time>2015-03-28T14:44:20Z</time>
      </trkpt>
      <trkpt lat="50.01743" lon="5.36242">
        <ele>408</ele>
        <time>2015-03-28T14:44:26Z</time>
      </trkpt>
      <trkpt lat="50.01651" lon="5.36166">
        <ele>402</ele>
        <time>2015-03-28T14:44:32Z</time>
      </trkpt>
      <trkpt lat="50.01579" lon="5.36097">
        <ele>395</ele>
        <time>2015-03-28T14:44:37Z</time>
      </trkpt>
      <trkpt lat="50.01498" lon="5.36036">
        <ele>385</ele>
        <time>2015-03-28T14:44:43Z</time>
      </trkpt>
      <trkpt lat="50.01425" lon="5.36024">
        <ele>376</ele>
        <time>2015-03-28T14:44:48Z</time>
      </trkpt>
      <trkpt lat="50.01339" lon="5.35957">
        <ele>366</ele>
        <time>2015-03-28T14:44:54Z</time>
      </trkpt>
      <trkpt lat="50.01254" lon="5.35871">
        <ele>366</ele>
        <time>2015-03-28T14:45:00Z</time>
      </trkpt>
      <trkpt lat="50.01217" lon="5.35765">
        <ele>374</ele>
        <time>2015-03-28T14:45:05Z</time>
      </trkpt>
      <trkpt lat="50.01195" lon="5.35629">
        <ele>380</ele>
        <time>2015-03-28T14:45:11Z</time>
      </trkpt>
      <trkpt lat="50.01153" lon="5.35527">
        <ele>387</ele>
        <time>2015-03-28T14:45:16Z</time>
      </trkpt>
      <trkpt lat="50.01098" lon="5.35417">
        <ele>391</ele>
        <time>2015-03-28T14:45:22Z</time>
      </trkpt>
      <trkpt lat="50.01053" lon="5.35335">
        <ele>393</ele>
        <time>2015-03-28T14:45:27Z</time>
      </trkpt>
      <trkpt lat="50.00998" lon="5.35237">
        <ele>391</ele>
        <time>2015-03-28T14:45:33Z</time>
      </trkpt>
      <trkpt lat="50.00939" lon="5.3517">
        <ele>387</ele>
        <time>2015-03-28T14:45:39Z</time>
      </trkpt>
      <trkpt lat="50.00853" lon="5.35145">
        <ele>381</ele>
        <time>2015-03-28T14:45:45Z</time>
      </trkpt>
      <trkpt lat="50.00764" lon="5.35124">
        <ele>378</ele>
        <time>2015-03-28T14:45:51Z</time>
      </trkpt>
      <trkpt lat="50.00687" lon="5.35054">
        <ele>377</ele>
        <time>2015-03-28T14:45:57Z</time>
      </trkpt>
      <trkpt lat="50.00625" lon="5.34964">
        <ele>378</ele>
        <time>2015-03-28T14:46:03Z</time>
      </trkpt>
      <trkpt lat="50.006" lon="5.34878">
        <ele>380</ele>
        <time>2015-03-28T14:46:08Z</time>
      </trkpt>
      <trkpt lat="50.00591" lon="5.34829">
        <ele>382</ele>
        <time>2015-03-28T14:46:13Z</time>
      </trkpt>
      <trkpt lat="50.00577" lon="5.3478">
        <ele>384</ele>
        <time>2015-03-28T14:46:19Z</time>
      </trkpt>
      <trkpt lat="50.00549" lon="5.34693">
        <ele>389</ele>
        <time>2015-03-28T14:46:25Z</time>
      </trkpt>
      <trkpt lat="50.00522" lon="5.34601">
        <ele>395</ele>
        <time>2015-03-28T14:46:30Z</time>
      </trkpt>
      <trkpt lat="50.00489" lon="5.34508">
        <ele>400</ele>
        <time>2015-03-28T14:46:36Z</time>
      </trkpt>
      <trkpt lat="50.00458" lon="5.34417">
        <ele>406</ele>
        <time>2015-03-28T14:46:42Z</time>
      </trkpt>
      <trkpt lat="50.00443" lon="5.34338">
        <ele>410</ele>
        <time>2015-03-28T14:46:47Z</time>
      </trkpt>
      <trkpt lat="50.00396" lon="5.34295">
        <ele>413</ele>
        <time>2015-03-28T14:46:52Z</time>
      </trkpt>
      <trkpt lat="50.00337" lon="5.34223">
        <ele>418</ele>
        <time>2015-03-28T14:46:58Z</time>
      </trkpt>
      <trkpt lat="50.00281" lon="5.34174">
        <ele>423</ele>
        <time>2015-03-28T14:47:03Z</time>
      </trkpt>
      <trkpt lat="50.00228" lon="5.34099">
        <ele>428</ele>
        <time>2015-03-28T14:47:08Z</time>
      </trkpt>
      <trkpt lat="50.00156" lon="5.33993">
        <ele>429</ele>
        <time>2015-03-28T14:47:14Z</time>
      </trkpt>
      <trkpt lat="50.00074" lon="5.33885">
        <ele>425</ele>
        <time>2015-03-28T14:47:20Z</time>
      </trkpt>
      <trkpt lat="49.99993" lon="5.3378">
        <ele>416</ele>
        <time>2015-03-28T14:47:26Z</time>
      </trkpt>
      <trkpt lat="49.99937" lon="5.33683">
        <ele>409</ele>
        <time>2015-03-28T14:47:31Z</time>
      </trkpt>
      <trkpt lat="49.99879" lon="5.33579">
        <ele>401</ele>
        <time>2015-03-28T14:47:36Z</time>
      </trkpt>
      <trkpt lat="49.99817" lon="5.33445">
        <ele>393</ele>
        <time>2015-03-28T14:47:42Z</time>
      </trkpt>
      <trkpt lat="49.99786" lon="5.33324">
        <ele>388</ele>
        <time>2015-03-28T14:47:47Z</time>
      </trkpt>
      <trkpt lat="49.99772" lon="5.33185">
        <ele>385</ele>
        <time>2015-03-28T14:47:52Z</time>
      </trkpt>
      <trkpt lat="49.99731" lon="5.33072">
        <ele>385</ele>
        <time>2015-03-28T14:47:57Z</time>
      </trkpt>
      <trkpt lat="49.9966" lon="5.32959">
        <ele>386</ele>
        <time>2015-03-28T14:48:03Z</time>
      </trkpt>
      <trkpt lat="49.9959" lon="5.32831">
        <ele>383</ele>
        <time>2015-03-28T14:48:09Z</time>
      </trkpt>
      <trkpt lat="49.99525" lon="5.32735">
        <ele>379</ele>
        <time>2015-03-28T14:48:14Z</time>
      </trkpt>
      <trkpt lat="49.99463" lon="5.32643">
        <ele>373</ele>
        <time>2015-03-28T14:48:19Z</time>
      </trkpt>
      <trkpt lat="49.99402" lon="5.32535">
        <ele>366</ele>
        <time>2015-03-28T14:48:25Z</time>
      </trkpt>
      <trkpt lat="49.99361" lon="5.32432">
        <ele>363</ele>
        <time>2015-03-28T14:48:30Z</time>
      </trkpt>
      <trkpt lat="49.99338" lon="5.32285">
        <ele>359</ele>
        <time>2015-03-28T14:48:36Z</time>
      </trkpt>
      <trkpt lat="49.99327" lon="5.32166">
        <ele>355</ele>
        <time>2015-03-28T14:48:41Z</time>
      </trkpt>
      <trkpt lat="49.99308" lon="5.32064">
        <ele>352</ele>
        <time>2015-03-28T14:48:46Z</time>
      </trkpt>
      <trkpt lat="49.99272" lon="5.3197">
        <ele>347</ele>
        <time>2015-03-28T14:48:52Z</time>
      </trkpt>
      <trkpt lat="49.99216" lon="5.31936">
        <ele>341</ele>
        <time>2015-03-28T14:48:58Z</time>
      </trkpt>
      <trkpt lat="49.99166" lon="5.31965">
        <ele>336</ele>
        <time>2015-03-28T14:49:04Z</time>
      </trkpt>
      <trkpt lat="49.99139" lon="5.31952">
        <ele>335</ele>
        <time>2015-03-28T14:49:09Z</time>
      </trkpt>
      <trkpt lat="49.99102" lon="5.31928">
        <ele>333</ele>
        <time>2015-03-28T14:49:15Z</time>
      </trkpt>
      <trkpt lat="49.99058" lon="5.31973">
        <ele>331</ele>
        <time>2015-03-28T14:49:20Z</time>
      </trkpt>
      <trkpt lat="49.99004" lon="5.32016">
        <ele>327</ele>
        <time>2015-03-28T14:49:25Z</time>
      </trkpt>
      <trkpt lat="49.9894" lon="5.31986">
        <ele>322</ele>
        <time>2015-03-28T14:49:31Z</time>
      </trkpt>
      <trkpt lat="49.98898" lon="5.31919">
        <ele>320</ele>
        <time>2015-03-28T14:49:36Z</time>
      </trkpt>
      <trkpt lat="49.98855" lon="5.31838">
        <ele>320</ele>
        <time>2015-03-28T14:49:41Z</time>
      </trkpt>
      <trkpt lat="49.98828" lon="5.3173">
        <ele>322</ele>
        <time>2015-03-28T14:49:46Z</time>
      </trkpt>
      <trkpt lat="49.98805" lon="5.31632">
        <ele>326</ele>
        <time>2015-03-28T14:49:52Z</time>
      </trkpt>
      <trkpt lat="49.98816" lon="5.31589">
        <ele>328</ele>
        <time>2015-03-28T14:49:57Z</time>
      </trkpt>
      <trkpt lat="49.98874" lon="5.31526">
        <ele>330</ele>
        <time>2015-03-28T14:50:03Z</time>
      </trkpt>
      <trkpt lat="49.98929" lon="5.31464">
        <ele>331</ele>
        <time>2015-03-28T14:50:08Z</time>
      </trkpt>
      <trkpt lat="49.99017" lon="5.31417">
        <ele>334</ele>
        <time>2015-03-28T14:50:14Z</time>
      </trkpt>
      <trkpt lat="49.99094" lon="5.31381">
        <ele>339</ele>
        <time>2015-03-28T14:50:19Z</time>
      </trkpt>
      <trkpt lat="49.99146" lon="5.31265">
        <ele>347</ele>
        <time>2015-03-28T14:50:25Z</time>
      </trkpt>
      <trkpt lat="49.99184" lon="5.31141">
        <ele>354</ele>
        <time>2015-03-28T14:50:30Z</time>
      </trkpt>
      <trkpt lat="49.99225" lon="5.31012">
        <ele>359</ele>
        <time>2015-03-28T14:50:35Z</time>
      </trkpt>
      <trkpt lat="49.99277" lon="5.3086">
        <ele>368</ele>
        <time>2015-03-28T14:50:41Z</time>
      </trkpt>
      <trkpt lat="49.99319" lon="5.30743">
        <ele>376</ele>
        <time>2015-03-28T14:50:46Z</time>
      </trkpt>
      <trkpt lat="49.99371" lon="5.30604">
        <ele>384</ele>
        <time>2015-03-28T14:50:52Z</time>
      </trkpt>
      <trkpt lat="49.99415" lon="5.30495">
        <ele>392</ele>
        <time>2015-03-28T14:50:57Z</time>
      </trkpt>
      <trkpt lat="49.99457" lon="5.30388">
        <ele>398</ele>
        <time>2015-03-28T14:51:02Z</time>
      </trkpt>
      <trkpt lat="49.99502" lon="5.30278">
        <ele>399</ele>
        <time>2015-03-28T14:51:07Z</time>
      </trkpt>
      <trkpt lat="49.99545" lon="5.30138">
        <ele>400</ele>
        <time>2015-03-28T14:51:13Z</time>
      </trkpt>
      <trkpt lat="49.99561" lon="5.29966">
        <ele>403</ele>
        <time>2015-03-28T14:51:19Z</time>
      </trkpt>
      <trkpt lat="49.9955" lon="5.29815">
        <ele>406</ele>
        <time>2015-03-28T14:51:25Z</time>
      </trkpt>
      <trkpt lat="49.99492" lon="5.29674">
        <ele>409</ele>
        <time>2015-03-28T14:51:31Z</time>
      </trkpt>
      <trkpt lat="49.99427" lon="5.29563">
        <ele>412</ele>
        <time>2015-03-28T14:51:36Z</time>
      </trkpt>
      <trkpt lat="49.99354" lon="5.29429">
        <ele>416</ele>
        <time>2015-03-28T14:51:42Z</time>
      </trkpt>
      <trkpt lat="49.99328" lon="5.29256">
        <ele>420</ele>
        <time>2015-03-28T14:51:48Z</time>
      </trkpt>
      <trkpt lat="49.99307" lon="5.29077">
        <ele>425</ele>
        <time>2015-03-28T14:51:54Z</time>
      </trkpt>
      <trkpt lat="49.99288" lon="5.28908">
        <ele>430</ele>
        <time>2015-03-28T14:52:00Z</time>
      </trkpt>
      <trkpt lat="49.99262" lon="5.28786">
        <ele>432</ele>
        <time>2015-03-28T14:52:05Z</time>
      </trkpt>
      <trkpt lat="49.99211" lon="5.28671">
        <ele>433</ele>
        <time>2015-03-28T14:52:10Z</time>
      </trkpt>
      <trkpt lat="49.99137" lon="5.28521">
        <ele>430</ele>
        <time>2015-03-28T14:52:16Z</time>
      </trkpt>
      <trkpt lat="49.99087" lon="5.28378">
        <ele>427</ele>
        <time>2015-03-28T14:52:21Z</time>
      </trkpt>
      <trkpt lat="49.99044" lon="5.28221">
        <ele>424</ele>
        <time>2015-03-28T14:52:26Z</time>
      </trkpt>
      <trkpt lat="49.98994" lon="5.28033">
        <ele>418</ele>
        <time>2015-03-28T14:52:32Z</time>
      </trkpt>
      <trkpt lat="49.98951" lon="5.27898">
        <ele>412</ele>
        <time>2015-03-28T14:52:37Z</time>
      </trkpt>
      <trkpt lat="49.98877" lon="5.27751">
        <ele>409</ele>
        <time>2015-03-28T14:52:43Z</time>
      </trkpt>
      <trkpt lat="49.98808" lon="5.27625">
        <ele>407</ele>
        <time>2015-03-28T14:52:48Z</time>
      </trkpt>
      <trkpt lat="49.98719" lon="5.27472">
        <ele>404</ele>
        <time>2015-03-28T14:52:54Z</time>
      </trkpt>
      <trkpt lat="49.98665" lon="5.27346">
        <ele>401</ele>
        <time>2015-03-28T14:52:59Z</time>
      </trkpt>
      <trkpt lat="49.98641" lon="5.27181">
        <ele>399</ele>
        <time>2015-03-28T14:53:05Z</time>
      </trkpt>
      <trkpt lat="49.98621" lon="5.27056">
        <ele>397</ele>
        <time>2015-03-28T14:53:10Z</time>
      </trkpt>
      <trkpt lat="49.98586" lon="5.26917">
        <ele>394</ele>
        <time>2015-03-28T14:53:16Z</time>
      </trkpt>
      <trkpt lat="49.98516" lon="5.26822">
        <ele>394</ele>
        <time>2015-03-28T14:53:22Z</time>
      </trkpt>
      <trkpt lat="49.98446" lon="5.26785">
        <ele>392</ele>
        <time>2015-03-28T14:53:28Z</time>
      </trkpt>
      <trkpt lat="49.98407" lon="5.26757">
        <ele>388</ele>
        <time>2015-03-28T14:53:33Z</time>
      </trkpt>
      <trkpt lat="49.98384" lon="5.26717">
        <ele>384</ele>
        <time>2015-03-28T14:53:38Z</time>
      </trkpt>
      <trkpt lat="49.98357" lon="5.26711">
        <ele>382</ele>
        <time>2015-03-28T14:53:44Z</time>
      </trkpt>
      <trkpt lat="49.983" lon="5.26723">
        <ele>381</ele>
        <time>2015-03-28T14:53:50Z</time>
      </trkpt>
      <trkpt lat="49.98244" lon="5.26744">
        <ele>378</ele>
        <time>2015-03-28T14:53:55Z</time>
      </trkpt>
      <trkpt lat="49.98195" lon="5.2677">
        <ele>373</ele>
        <time>2015-03-28T14:54:01Z</time>
      </trkpt>
      <trkpt lat="49.98165" lon="5.2676">
        <ele>369</ele>
        <time>2015-03-28T14:54:07Z</time>
      </trkpt>
      <trkpt lat="49.98153" lon="5.26799">
        <ele>367</ele>
        <time>2015-03-28T14:54:13Z</time>
      </trkpt>
      <trkpt lat="49.98146" lon="5.26849">
        <ele>369</ele>
        <time>2015-03-28T14:54:18Z</time>
      </trkpt>
      <trkpt lat="49.98141" lon="5.26864">
        <ele>370</ele>
        <time>2015-03-28T14:54:23Z</time>
      </trkpt>
      <trkpt lat="49.9814" lon="5.26863">
        <ele>370</ele>
        <time>2015-03-28T14:54:29Z</time>
      </trkpt>
      <trkpt lat="49.98138" lon="5.26863">
        <ele>370</ele>
        <time>2015-03-28T14:54:35Z</time>
      </trkpt>
      <trkpt lat="49.98137" lon="5.26862">
        <ele>370</ele>
        <time>2015-03-28T14:54:40Z</time>
      </trkpt>
      <trkpt lat="49.98136" lon="5.26863">
        <ele>371</ele>
        <time>2015-03-28T14:54:46Z</time>
      </trkpt>
      <trkpt lat="49.98137" lon="5.26862">
        <ele>371</ele>
        <time>2015-03-28T14:54:51Z</time>
      </trkpt>
      <trkpt lat="49.98137" lon="5.2686">
        <ele>371</ele>
        <time>2015-03-28T14:54:56Z</time>
      </trkpt>
      <trkpt lat="49.98135" lon="5.26857">
        <ele>370</ele>
        <time>2015-03-28T14:55:02Z</time>
      </trkpt>
      <trkpt lat="49.98134" lon="5.26857">
        <ele>370</ele>
        <time>2015-03-28T14:55:09Z</time>
      </trkpt>
      <trkpt lat="49.98136" lon="5.26857">
        <ele>370</ele>
        <time>2015-03-28T14:55:14Z</time>
      </trkpt>
      <trkpt lat="49.98137" lon="5.26857">
        <ele>370</ele>
        <time>2015-03-28T14:55:20Z</time>
      </trkpt>
      <trkpt lat="49.98138" lon="5.26858">
        <ele>371</ele>
        <time>2015-03-28T14:55:25Z</time>
      </trkpt>
      <trkpt lat="49.9814" lon="5.26856">
        <ele>371</ele>
        <time>2015-03-28T14:55:31Z</time>
      </trkpt>
      <trkpt lat="49.98142" lon="5.26854">
        <ele>371</ele>
        <time>2015-03-28T14:55:37Z</time>
      </trkpt>
      <trkpt lat="49.98142" lon="5.26853">
        <ele>371</ele>
        <time>2015-03-28T14:55:43Z</time>
      </trkpt>
      <trkpt lat="49.98142" lon="5.26853">
        <ele>371</ele>
        <time>2015-03-28T14:55:49Z</time>
      </trkpt>
      <trkpt lat="49.98142" lon="5.26853">
        <ele>370</ele>
        <time>2015-03-28T14:55:55Z</time>
      </trkpt>
      <trkpt lat="49.98139" lon="5.26854">
        <ele>371</ele>
        <time>2015-03-28T14:56:01Z</time>
      </trkpt>
      <trkpt lat="49.98138" lon="5.26857">
        <ele>370</ele>
        <time>2015-03-28T14:56:06Z</time>
      </trkpt>
      <trkpt lat="49.98135" lon="5.26861">
        <ele>371</ele>
        <time>2015-03-28T14:56:11Z</time>
      </trkpt>
      <trkpt lat="49.98133" lon="5.26865">
        <ele>371</ele>
        <time>2015-03-28T14:56:17Z</time>
      </trkpt>
      <trkpt lat="49.98135" lon="5.26869">
        <ele>371</ele>
        <time>2015-03-28T14:56:22Z</time>
      </trkpt>
      <trkpt lat="49.98136" lon="5.26876">
        <ele>371</ele>
        <time>2015-03-28T14:56:28Z</time>
      </trkpt>
      <trkpt lat="49.9814" lon="5.2687">
        <ele>371</ele>
        <time>2015-03-28T14:56:34Z</time>
      </trkpt>
      <trkpt lat="49.98137" lon="5.2687">
        <ele>370</ele>
        <time>2015-03-28T14:56:39Z</time>
      </trkpt>
      <trkpt lat="49.98137" lon="5.26867">
        <ele>370</ele>
        <time>2015-03-28T14:56:44Z</time>
      </trkpt>
      <trkpt lat="49.98135" lon="5.26866">
        <ele>370</ele>
        <time>2015-03-28T14:56:50Z</time>
      </trkpt>
      <trkpt lat="49.98134" lon="5.26865">
        <ele>370</ele>
        <time>2015-03-28T14:56:56Z</time>
      </trkpt>
      <trkpt lat="49.98132" lon="5.26858">
        <ele>370</ele>
        <time>2015-03-28T14:57:01Z</time>
      </trkpt>
      <trkpt lat="49.98131" lon="5.26852">
        <ele>370</ele>
        <time>2015-03-28T14:57:06Z</time>
      </trkpt>
      <trkpt lat="49.98133" lon="5.26852">
        <ele>370</ele>
        <time>2015-03-28T14:57:12Z</time>
      </trkpt>
      <trkpt lat="49.98134" lon="5.26849">
        <ele>370</ele>
        <time>2015-03-28T14:57:18Z</time>
      </trkpt>
      <trkpt lat="49.98132" lon="5.26846">
        <ele>370</ele>
        <time>2015-03-28T14:57:24Z</time>
      </trkpt>
      <trkpt lat="49.98131" lon="5.26846">
        <ele>370</ele>
        <time>2015-03-28T14:57:29Z</time>
      </trkpt>
      <trkpt lat="49.98131" lon="5.26848">
        <ele>370</ele>
        <time>2015-03-28T14:57:34Z</time>
      </trkpt>
      <trkpt lat="49.9813" lon="5.26848">
        <ele>370</ele>
        <time>2015-03-28T14:57:39Z</time>
      </trkpt>
      <trkpt lat="49.98129" lon="5.26845">
        <ele>370</ele>
        <time>2015-03-28T14:57:45Z</time>
      </trkpt>
      <trkpt lat="49.98127" lon="5.26846">
        <ele>370</ele>
        <time>2015-03-28T14:57:51Z</time>
      </trkpt>
      <trkpt lat="49.98127" lon="5.26844">
        <ele>369</ele>
        <time>2015-03-28T14:57:56Z</time>
      </trkpt>
      <trkpt lat="49.98127" lon="5.26843">
        <ele>369</ele>
        <time>2015-03-28T14:58:02Z</time>
      </trkpt>
      <trkpt lat="49.9813" lon="5.26843">
        <ele>369</ele>
        <time>2015-03-28T14:58:08Z</time>
      </trkpt>
      <trkpt lat="49.9813" lon="5.26844">
        <ele>370</ele>
        <time>2015-03-28T14:58:14Z</time>
      </trkpt>
      <trkpt lat="49.98129" lon="5.26842">
        <ele>369</ele>
        <time>2015-03-28T14:58:19Z</time>
      </trkpt>
      <trkpt lat="49.98126" lon="5.26837">
        <ele>369</ele>
        <time>2015-03-28T14:58:25Z</time>
      </trkpt>
      <trkpt lat="49.98125" lon="5.26836">
        <ele>370</ele>
        <time>2015-03-28T14:58:31Z</time>
      </trkpt>
      <trkpt lat="49.98126" lon="5.26834">
        <ele>370</ele>
        <time>2015-03-28T14:58:37Z</time>
      </trkpt>
      <trkpt lat="49.98126" lon="5.26834">
        <ele>369</ele>
        <time>2015-03-28T14:58:42Z</time>
      </trkpt>
      <trkpt lat="49.98124" lon="5.26835">
        <ele>370</ele>
        <time>2015-03-28T14:58:47Z</time>
      </trkpt>
      <trkpt lat="49.98126" lon="5.26837">
        <ele>370</ele>
        <time>2015-03-28T14:58:53Z</time>
      </trkpt>
      <trkpt lat="49.98127" lon="5.26839">
        <ele>370</ele>
        <time>2015-03-28T14:58:58Z</time>
      </trkpt>
      <trkpt lat="49.98129" lon="5.26843">
        <ele>370</ele>
        <time>2015-03-28T14:59:04Z</time>
      </trkpt>
      <trkpt lat="49.98129" lon="5.26844">
        <ele>370</ele>
        <time>2015-03-28T14:59:09Z</time>
      </trkpt>
      <trkpt lat="49.98129" lon="5.26845">
        <ele>370</ele>
        <time>2015-03-28T14:59:14Z</time>
      </trkpt>
      <trkpt lat="49.98128" lon="5.26847">
        <ele>370</ele>
        <time>2015-03-28T14:59:20Z</time>
      </trkpt>
      <trkpt lat="49.98128" lon="5.26851">
        <ele>370</ele>
        <time>2015-03-28T14:59:25Z</time>
      </trkpt>
      <trkpt lat="49.98124" lon="5.26846">
        <ele>370</ele>
        <time>2015-03-28T14:59:31Z</time>
      </trkpt>
      <trkpt lat="49.98122" lon="5.26843">
        <ele>370</ele>
        <time>2015-03-28T14:59:36Z</time>
      </trkpt>
      <trkpt lat="49.98123" lon="5.26843">
        <ele>370</ele>
        <time>2015-03-28T14:59:41Z</time>
      </trkpt>
      <trkpt lat="49.98125" lon="5.26845">
        <ele>370</ele>
        <time>2015-03-28T14:59:47Z</time>
      </trkpt>
      <trkpt lat="49.98126" lon="5.26847">
        <ele>370</ele>
        <time>2015-03-28T14:59:53Z</time>
      </trkpt>
      <trkpt lat="49.98125" lon="5.26847">
        <ele>370</ele>
        <time>2015-03-28T14:59:59Z</time>
      </trkpt>
      <trkpt lat="49.98124" lon="5.26846">
        <ele>370</ele>
        <time>2015-03-28T15:00:05Z</time>
      </trkpt>
      <trkpt lat="49.98124" lon="5.26845">
        <ele>370</ele>
        <time>2015-03-28T15:00:11Z</time>
      </trkpt>
      <trkpt lat="49.98122" lon="5.26842">
        <ele>370</ele>
        <time>2015-03-28T15:00:16Z</time>
      </trkpt>
      <trkpt lat="49.98122" lon="5.2684">
        <ele>371</ele>
        <time>2015-03-28T15:00:21Z</time>
      </trkpt>
      <trkpt lat="49.98122" lon="5.26841">
        <ele>371</ele>
        <time>2015-03-28T15:00:26Z</time>
      </trkpt>
      <trkpt lat="49.98123" lon="5.2684">
        <ele>371</ele>
        <time>2015-03-28T15:00:31Z</time>
      </trkpt>
      <trkpt lat="49.98124" lon="5.26837">
        <ele>371</ele>
        <time>2015-03-28T15:00:36Z</time>
      </trkpt>
      <trkpt lat="49.98122" lon="5.26835">
        <ele>370</ele>
        <time>2015-03-28T15:00:42Z</time>
      </trkpt>
      <trkpt lat="49.98121" lon="5.26833">
        <ele>371</ele>
        <time>2015-03-28T15:00:47Z</time>
      </trkpt>
      <trkpt lat="49.98125" lon="5.26839">
        <ele>371</ele>
        <time>2015-03-28T15:00:53Z</time>
      </trkpt>
      <trkpt lat="49.98126" lon="5.2684">
        <ele>371</ele>
        <time>2015-03-28T15:00:58Z</time>
      </trkpt>
      <trkpt lat="49.98125" lon="5.26837">
        <ele>371</ele>
        <time>2015-03-28T15:01:04Z</time>
      </trkpt>
      <trkpt lat="49.98122" lon="5.26832">
        <ele>371</ele>
        <time>2015-03-28T15:01:10Z</time>
      </trkpt>
      <trkpt lat="49.98124" lon="5.26833">
        <ele>370</ele>
        <time>2015-03-28T15:01:15Z</time>
      </trkpt>
      <trkpt lat="49.98126" lon="5.26832">
        <ele>371</ele>
        <time>2015-03-28T15:01:21Z</time>
      </trkpt>
      <trkpt lat="49.98129" lon="5.26837">
        <ele>371</ele>
        <time>2015-03-28T15:01:27Z</time>
      </trkpt>
      <trkpt lat="49.9813" lon="5.26837">
        <ele>371</ele>
        <time>2015-03-28T15:01:34Z</time>
      </trkpt>
      <trkpt lat="49.9813" lon="5.26839">
        <ele>371</ele>
        <time>2015-03-28T15:01:39Z</time>
      </trkpt>
      <trkpt lat="49.98132" lon="5.26844">
        <ele>371</ele>
        <time>2015-03-28T15:01:44Z</time>
      </trkpt>
      <trkpt lat="49.9813" lon="5.26845">
        <ele>371</ele>
        <time>2015-03-28T15:01:49Z</time>
      </trkpt>
      <trkpt lat="49.9813" lon="5.26845">
        <ele>371</ele>
        <time>2015-03-28T15:01:54Z</time>
      </trkpt>
      <trkpt lat="49.98129" lon="5.26847">
        <ele>371</ele>
        <time>2015-03-28T15:02:00Z</time>
      </trkpt>
      <trkpt lat="49.98129" lon="5.26847">
        <ele>371</ele>
        <time>2015-03-28T15:02:05Z</time>
      </trkpt>
      <trkpt lat="49.98127" lon="5.2685">
        <ele>371</ele>
        <time>2015-03-28T15:02:11Z</time>
      </trkpt>
      <trkpt lat="49.98128" lon="5.26853">
        <ele>371</ele>
        <time>2015-03-28T15:02:16Z</time>
      </trkpt>
      <trkpt lat="49.98127" lon="5.26855">
        <ele>371</ele>
        <time>2015-03-28T15:02:21Z</time>
      </trkpt>
      <trkpt lat="49.98125" lon="5.26853">
        <ele>371</ele>
        <time>2015-03-28T15:02:27Z</time>
      </trkpt>
      <trkpt lat="49.98125" lon="5.26852">
        <ele>371</ele>
        <time>2015-03-28T15:02:33Z</time>
      </trkpt>
      <trkpt lat="49.98125" lon="5.2685">
        <ele>371</ele>
        <time>2015-03-28T15:02:39Z</time>
      </trkpt>
      <trkpt lat="49.98128" lon="5.26848">
        <ele>371</ele>
        <time>2015-03-28T15:02:45Z</time>
      </trkpt>
      <trkpt lat="49.98128" lon="5.26846">
        <ele>371</ele>
        <time>2015-03-28T15:02:50Z</time>
      </trkpt>
      <trkpt lat="49.98128" lon="5.26843">
        <ele>371</ele>
        <time>2015-03-28T15:02:56Z</time>
      </trkpt>
      <trkpt lat="49.98129" lon="5.26844">
        <ele>371</ele>
        <time>2015-03-28T15:03:01Z</time>
      </trkpt>
      <trkpt lat="49.98129" lon="5.26849">
        <ele>371</ele>
        <time>2015-03-28T15:03:07Z</time>
      </trkpt>
      <trkpt lat="49.98127" lon="5.26852">
        <ele>371</ele>
        <time>2015-03-28T15:03:13Z</time>
      </trkpt>
      <trkpt lat="49.98127" lon="5.26856">
        <ele>371</ele>
        <time>2015-03-28T15:03:19Z</time>
      </trkpt>
      <trkpt lat="49.98127" lon="5.2686">
        <ele>371</ele>
        <time>2015-03-28T15:03:25Z</time>
      </trkpt>
      <trkpt lat="49.98127" lon="5.26861">
        <ele>371</ele>
        <time>2015-03-28T15:03:30Z</time>
      </trkpt>
      <trkpt lat="49.98126" lon="5.2686">
        <ele>371</ele>
        <time>2015-03-28T15:03:36Z</time>
      </trkpt>
      <trkpt lat="49.98125" lon="5.26856">
        <ele>371</ele>
        <time>2015-03-28T15:03:41Z</time>
      </trkpt>
      <trkpt lat="49.98124" lon="5.26853">
        <ele>371</ele>
        <time>2015-03-28T15:03:46Z</time>
      </trkpt>
      <trkpt lat="49.98125" lon="5.26851">
        <ele>371</ele>
        <time>2015-03-28T15:03:51Z</time>
      </trkpt>
      <trkpt lat="49.98125" lon="5.26845">
        <ele>371</ele>
        <time>2015-03-28T15:03:57Z</time>
      </trkpt>
      <trkpt lat="49.98125" lon="5.26843">
        <ele>371</ele>
        <time>2015-03-28T15:04:03Z</time>
      </trkpt>
      <trkpt lat="49.98127" lon="5.26844">
        <ele>371</ele>
        <time>2015-03-28T15:04:08Z</time>
      </trkpt>
      <trkpt lat="49.98127" lon="5.26842">
        <ele>371</ele>
        <time>2015-03-28T15:04:14Z</time>
      </trkpt>
      <trkpt lat="49.98127" lon="5.26842">
        <ele>371</ele>
        <time>2015-03-28T15:04:19Z</time>
      </trkpt>
      <trkpt lat="49.9813" lon="5.2685">
        <ele>371</ele>
        <time>2015-03-28T15:04:25Z</time>
      </trkpt>
      <trkpt lat="49.98131" lon="5.26857">
        <ele>371</ele>
        <time>2015-03-28T15:04:30Z</time>
      </trkpt>
      <trkpt lat="49.9813" lon="5.26854">
        <ele>371</ele>
        <time>2015-03-28T15:04:36Z</time>
      </trkpt>
      <trkpt lat="49.98129" lon="5.26853">
        <ele>371</ele>
        <time>2015-03-28T15:04:41Z</time>
      </trkpt>
      <trkpt lat="49.9813" lon="5.26853">
        <ele>371</ele>
        <time>2015-03-28T15:04:46Z</time>
      </trkpt>
      <trkpt lat="49.9813" lon="5.26855">
        <ele>371</ele>
        <time>2015-03-28T15:04:52Z</time>
      </trkpt>
      <trkpt lat="49.98128" lon="5.26855">
        <ele>371</ele>
        <time>2015-03-28T15:04:58Z</time>
      </trkpt>
      <trkpt lat="49.98127" lon="5.2685">
        <ele>371</ele>
        <time>2015-03-28T15:05:03Z</time>
      </trkpt>
      <trkpt lat="49.98125" lon="5.26844">
        <ele>371</ele>
        <time>2015-03-28T15:05:09Z</time>
      </trkpt>
      <trkpt lat="49.98124" lon="5.26842">
        <ele>371</ele>
        <time>2015-03-28T15:05:15Z</time>
      </trkpt>
      <trkpt lat="49.98123" lon="5.26843">
        <ele>371</ele>
        <time>2015-03-28T15:05:21Z</time>
      </trkpt>
      <trkpt lat="49.98123" lon="5.26842">
        <ele>371</ele>
        <time>2015-03-28T15:05:27Z</time>
      </trkpt>
      <trkpt lat="49.98123" lon="5.26845">
        <ele>371</ele>
        <time>2015-03-28T15:05:33Z</time>
      </trkpt>
      <trkpt lat="49.98121" lon="5.2684">
        <ele>371</ele>
        <time>2015-03-28T15:05:39Z</time>
      </trkpt>
      <trkpt lat="49.98121" lon="5.26842">
        <ele>371</ele>
        <time>2015-03-28T15:05:44Z</time>
      </trkpt>
      <trkpt lat="49.98121" lon="5.26842">
        <ele>371</ele>
        <time>2015-03-28T15:05:50Z</time>
      </trkpt>
      <trkpt lat="49.98122" lon="5.26843">
        <ele>371</ele>
        <time>2015-03-28T15:05:56Z</time>
      </trkpt>
      <trkpt lat="49.98124" lon="5.26842">
        <ele>371</ele>
        <time>2015-03-28T15:06:01Z</time>
      </trkpt>
      <trkpt lat="49.98124" lon="5.26841">
        <ele>371</ele>
        <time>2015-03-28T15:06:08Z</time>
      </trkpt>
      <trkpt lat="49.98123" lon="5.26842">
        <ele>371</ele>
        <time>2015-03-28T15:06:14Z</time>
      </trkpt>
      <trkpt lat="49.98124" lon="5.26846">
        <ele>371</ele>
        <time>2015-03-28T15:06:20Z</time>
      </trkpt>
      <trkpt lat="49.98123" lon="5.26846">
        <ele>371</ele>
        <time>2015-03-28T15:06:26Z</time>
      </trkpt>
      <trkpt lat="49.98122" lon="5.26845">
        <ele>372</ele>
        <time>2015-03-28T15:06:32Z</time>
      </trkpt>
      <trkpt lat="49.98121" lon="5.2684">
        <ele>372</ele>
        <time>2015-03-28T15:06:37Z</time>
      </trkpt>
      <trkpt lat="49.9812" lon="5.26836">
        <ele>371</ele>
        <time>2015-03-28T15:06:43Z</time>
      </trkpt>
      <trkpt lat="49.98119" lon="5.26833">
        <ele>372</ele>
        <time>2015-03-28T15:06:49Z</time>
      </trkpt>
      <trkpt lat="49.98119" lon="5.26831">
        <ele>371</ele>
        <time>2015-03-28T15:06:54Z</time>
      </trkpt>
      <trkpt lat="49.9812" lon="5.26832">
        <ele>371</ele>
        <time>2015-03-28T15:06:59Z</time>
      </trkpt>
      <trkpt lat="49.98122" lon="5.26837">
        <ele>372</ele>
        <time>2015-03-28T15:07:05Z</time>
      </trkpt>
      <trkpt lat="49.98125" lon="5.26843">
        <ele>371</ele>
        <time>2015-03-28T15:07:10Z</time>
      </trkpt>
      <trkpt lat="49.98125" lon="5.26847">
        <ele>371</ele>
        <time>2015-03-28T15:07:16Z</time>
      </trkpt>
      <trkpt lat="49.98126" lon="5.26851">
        <ele>372</ele>
        <time>2015-03-28T15:07:21Z</time>
      </trkpt>
      <trkpt lat="49.98126" lon="5.26851">
        <ele>372</ele>
        <time>2015-03-28T15:07:27Z</time>
      </trkpt>
      <trkpt lat="49.98126" lon="5.26847">
        <ele>372</ele>
        <time>2015-03-28T15:07:32Z</time>
      </trkpt>
      <trkpt lat="49.98125" lon="5.26844">
        <ele>372</ele>
        <time>2015-03-28T15:07:38Z</time>
      </trkpt>
      <trkpt lat="49.98123" lon="5.26833">
        <ele>372</ele>
        <time>2015-03-28T15:07:43Z</time>
      </trkpt>
      <trkpt lat="49.98119" lon="5.26832">
        <ele>371</ele>
        <time>2015-03-28T15:07:49Z</time>
      </trkpt>
      <trkpt lat="49.98118" lon="5.26829">
        <ele>372</ele>
        <time>2015-03-28T15:07:55Z</time>
      </trkpt>
      <trkpt lat="49.98116" lon="5.26822">
        <ele>372</ele>
        <time>2015-03-28T15:08:01Z</time>
      </trkpt>
      <trkpt lat="49.98117" lon="5.26822">
        <ele>371</ele>
        <time>2015-03-28T15:08:06Z</time>
      </trkpt>
      <trkpt lat="49.98122" lon="5.26832">
        <ele>372</ele>
        <time>2015-03-28T15:08:12Z</time>
      </trkpt>
      <trkpt lat="49.98125" lon="5.26839">
        <ele>371</ele>
        <time>2015-03-28T15:08:18Z</time>
      </trkpt>
      <trkpt lat="49.98126" lon="5.26841">
        <ele>371</ele>
        <time>2015-03-28T15:08:23Z</time>
      </trkpt>
      <trkpt lat="49.98125" lon="5.26849">
        <ele>372</ele>
        <time>2015-03-28T15:08:29Z</time>
      </trkpt>
      <trkpt lat="49.98124" lon="5.26849">
        <ele>371</ele>
        <time>2015-03-28T15:08:34Z</time>
      </trkpt>
      <trkpt lat="49.98125" lon="5.26849">
        <ele>371</ele>
        <time>2015-03-28T15:08:40Z</time>
      </trkpt>
      <trkpt lat="49.98125" lon="5.26849">
        <ele>372</ele>
        <time>2015-03-28T15:08:46Z</time>
      </trkpt>
      <trkpt lat="49.98125" lon="5.26849">
        <ele>371</ele>
        <time>2015-03-28T15:08:52Z</time>
      </trkpt>
      <trkpt lat="49.98123" lon="5.26852">
        <ele>371</ele>
        <time>2015-03-28T15:08:57Z</time>
      </trkpt>
      <trkpt lat="49.98123" lon="5.26855">
        <ele>371</ele>
        <time>2015-03-28T15:09:03Z</time>
      </trkpt>
      <trkpt lat="49.98125" lon="5.26858">
        <ele>371</ele>
        <time>2015-03-28T15:09:09Z</time>
      </trkpt>
      <trkpt lat="49.98125" lon="5.26858">
        <ele>371</ele>
        <time>2015-03-28T15:09:14Z</time>
      </trkpt>
      <trkpt lat="49.98124" lon="5.26857">
        <ele>372</ele>
        <time>2015-03-28T15:09:20Z</time>
      </trkpt>
      <trkpt lat="49.98123" lon="5.26853">
        <ele>372</ele>
        <time>2015-03-28T15:09:26Z</time>
      </trkpt>
      <trkpt lat="49.98123" lon="5.2685">
        <ele>371</ele>
        <time>2015-03-28T15:09:31Z</time>
      </trkpt>
      <trkpt lat="49.98124" lon="5.26846">
        <ele>371</ele>
        <time>2015-03-28T15:09:36Z</time>
      </trkpt>
      <trkpt lat="49.98125" lon="5.26845">
        <ele>371</ele>
        <time>2015-03-28T15:09:43Z</time>
      </trkpt>
      <trkpt lat="49.98125" lon="5.26844">
        <ele>371</ele>
        <time>2015-03-28T15:09:48Z</time>
      </trkpt>
      <trkpt lat="49.98128" lon="5.26843">
        <ele>371</ele>
        <time>2015-03-28T15:09:54Z</time>
      </trkpt>
      <trkpt lat="49.98128" lon="5.26841">
        <ele>371</ele>
        <time>2015-03-28T15:10:00Z</time>
      </trkpt>
      <trkpt lat="49.98129" lon="5.2684">
        <ele>371</ele>
        <time>2015-03-28T15:10:05Z</time>
      </trkpt>
      <trkpt lat="49.98129" lon="5.26839">
        <ele>371</ele>
        <time>2015-03-28T15:10:10Z</time>
      </trkpt>
      <trkpt lat="49.98132" lon="5.26845">
        <ele>371</ele>
        <time>2015-03-28T15:10:16Z</time>
      </trkpt>
      <trkpt lat="49.98132" lon="5.26847">
        <ele>371</ele>
        <time>2015-03-28T15:10:21Z</time>
      </trkpt>
      <trkpt lat="49.98129" lon="5.26844">
        <ele>371</ele>
        <time>2015-03-28T15:10:26Z</time>
      </trkpt>
      <trkpt lat="49.98129" lon="5.26845">
        <ele>371</ele>
        <time>2015-03-28T15:10:32Z</time>
      </trkpt>
      <trkpt lat="49.98129" lon="5.26844">
        <ele>371</ele>
        <time>2015-03-28T15:10:38Z</time>
      </trkpt>
      <trkpt lat="49.9813" lon="5.26842">
        <ele>371</ele>
        <time>2015-03-28T15:10:44Z</time>
      </trkpt>
      <trkpt lat="49.98129" lon="5.26845">
        <ele>371</ele>
        <time>2015-03-28T15:10:49Z</time>
      </trkpt>
      <trkpt lat="49.98131" lon="5.26848">
        <ele>371</ele>
        <time>2015-03-28T15:10:55Z</time>
      </trkpt>
      <trkpt lat="49.98132" lon="5.26852">
        <ele>371</ele>
        <time>2015-03-28T15:11:00Z</time>
      </trkpt>
      <trkpt lat="49.9813" lon="5.2685">
        <ele>372</ele>
        <time>2015-03-28T15:11:05Z</time>
      </trkpt>
      <trkpt lat="49.98125" lon="5.26847">
        <ele>371</ele>
        <time>2015-03-28T15:11:11Z</time>
      </trkpt>
      <trkpt lat="49.98124" lon="5.26849">
        <ele>371</ele>
        <time>2015-03-28T15:11:16Z</time>
      </trkpt>
      <trkpt lat="49.98125" lon="5.26853">
        <ele>371</ele>
        <time>2015-03-28T15:11:21Z</time>
      </trkpt>
      <trkpt lat="49.98126" lon="5.26855">
        <ele>371</ele>
        <time>2015-03-28T15:11:26Z</time>
      </trkpt>
      <trkpt lat="49.98125" lon="5.26853">
        <ele>371</ele>
        <time>2015-03-28T15:11:32Z</time>
      </trkpt>
      <trkpt lat="49.98125" lon="5.26855">
        <ele>371</ele>
        <time>2015-03-28T15:11:37Z</time>
      </trkpt>
      <trkpt lat="49.98129" lon="5.2686">
        <ele>372</ele>
        <time>2015-03-28T15:11:43Z</time>
      </trkpt>
      <trkpt lat="49.98142" lon="5.2686">
        <ele>372</ele>
        <time>2015-03-28T15:11:57Z</time>
      </trkpt>
      <trkpt lat="49.98151" lon="5.26871">
        <ele>372</ele>
        <time>2015-03-28T15:12:02Z</time>
      </trkpt>
      <trkpt lat="49.98156" lon="5.26888">
        <ele>372</ele>
        <time>2015-03-28T15:12:07Z</time>
      </trkpt>
      <trkpt lat="49.98153" lon="5.26894">
        <ele>371</ele>
        <time>2015-03-28T15:12:13Z</time>
      </trkpt>
      <trkpt lat="49.98151" lon="5.2689">
        <ele>372</ele>
        <time>2015-03-28T15:12:19Z</time>
      </trkpt>
      <trkpt lat="49.98147" lon="5.26885">
        <ele>372</ele>
        <time>2015-03-28T15:12:24Z</time>
      </trkpt>
      <trkpt lat="49.98141" lon="5.26877">
        <ele>372</ele>
        <time>2015-03-28T15:12:30Z</time>
      </trkpt>
      <trkpt lat="49.98137" lon="5.26871">
        <ele>372</ele>
        <time>2015-03-28T15:12:35Z</time>
      </trkpt>
      <trkpt lat="49.98133" lon="5.26867">
        <ele>372</ele>
        <time>2015-03-28T15:12:40Z</time>
      </trkpt>
      <trkpt lat="49.98133" lon="5.26865">
        <ele>372</ele>
        <time>2015-03-28T15:12:45Z</time>
      </trkpt>
      <trkpt lat="49.98129" lon="5.26858">
        <ele>372</ele>
        <time>2015-03-28T15:12:50Z</time>
      </trkpt>
      <trkpt lat="49.98123" lon="5.26847">
        <ele>372</ele>
        <time>2015-03-28T15:12:56Z</time>
      </trkpt>
      <trkpt lat="49.9812" lon="5.26842">
        <ele>372</ele>
        <time>2015-03-28T15:13:01Z</time>
      </trkpt>
      <trkpt lat="49.98119" lon="5.26841">
        <ele>372</ele>
        <time>2015-03-28T15:13:07Z</time>
      </trkpt>
      <trkpt lat="49.98118" lon="5.26845">
        <ele>372</ele>
        <time>2015-03-28T15:13:12Z</time>
      </trkpt>
      <trkpt lat="49.98117" lon="5.26849">
        <ele>372</ele>
        <time>2015-03-28T15:13:18Z</time>
      </trkpt>
      <trkpt lat="49.98116" lon="5.26853">
        <ele>372</ele>
        <time>2015-03-28T15:13:23Z</time>
      </trkpt>
      <trkpt lat="49.98117" lon="5.26855">
        <ele>372</ele>
        <time>2015-03-28T15:13:29Z</time>
      </trkpt>
      <trkpt lat="49.98111" lon="5.2685">
        <ele>372</ele>
        <time>2015-03-28T15:13:34Z</time>
      </trkpt>
      <trkpt lat="49.98109" lon="5.26845">
        <ele>372</ele>
        <time>2015-03-28T15:13:40Z</time>
      </trkpt>
      <trkpt lat="49.98114" lon="5.26842">
        <ele>372</ele>
        <time>2015-03-28T15:13:45Z</time>
      </trkpt>
      <trkpt lat="49.98119" lon="5.26843">
        <ele>372</ele>
        <time>2015-03-28T15:13:50Z</time>
      </trkpt>
      <trkpt lat="49.98126" lon="5.2686">
        <ele>372</ele>
        <time>2015-03-28T15:13:56Z</time>
      </trkpt>
      <trkpt lat="49.98132" lon="5.26892">
        <ele>372</ele>
        <time>2015-03-28T15:14:02Z</time>
      </trkpt>
      <trkpt lat="49.98139" lon="5.2692">
        <ele>372</ele>
        <time>2015-03-28T15:14:25Z</time>
      </trkpt>
      <trkpt lat="49.98136" lon="5.26906">
        <ele>372</ele>
        <time>2015-03-28T15:14:30Z</time>
      </trkpt>
      <trkpt lat="49.98134" lon="5.26895">
        <ele>372</ele>
        <time>2015-03-28T15:14:36Z</time>
      </trkpt>
      <trkpt lat="49.98131" lon="5.26889">
        <ele>372</ele>
        <time>2015-03-28T15:14:41Z</time>
      </trkpt>
      <trkpt lat="49.98126" lon="5.26886">
        <ele>372</ele>
        <time>2015-03-28T15:14:46Z</time>
      </trkpt>
      <trkpt lat="49.98126" lon="5.26884">
        <ele>372</ele>
        <time>2015-03-28T15:14:52Z</time>
      </trkpt>
      <trkpt lat="49.98127" lon="5.26876">
        <ele>372</ele>
        <time>2015-03-28T15:14:57Z</time>
      </trkpt>
      <trkpt lat="49.98125" lon="5.26873">
        <ele>372</ele>
        <time>2015-03-28T15:15:02Z</time>
      </trkpt>
      <trkpt lat="49.98128" lon="5.2687">
        <ele>373</ele>
        <time>2015-03-28T15:15:08Z</time>
      </trkpt>
      <trkpt lat="49.98127" lon="5.26866">
        <ele>373</ele>
        <time>2015-03-28T15:15:14Z</time>
      </trkpt>
      <trkpt lat="49.98124" lon="5.26863">
        <ele>372</ele>
        <time>2015-03-28T15:15:20Z</time>
      </trkpt>
      <trkpt lat="49.98124" lon="5.26861">
        <ele>372</ele>
        <time>2015-03-28T15:15:25Z</time>
      </trkpt>
      <trkpt lat="49.98125" lon="5.26857">
        <ele>373</ele>
        <time>2015-03-28T15:15:31Z</time>
      </trkpt>
      <trkpt lat="49.98124" lon="5.26854">
        <ele>373</ele>
        <time>2015-03-28T15:15:36Z</time>
      </trkpt>
      <trkpt lat="49.98126" lon="5.26852">
        <ele>372</ele>
        <time>2015-03-28T15:15:42Z</time>
      </trkpt>
      <trkpt lat="49.9813" lon="5.26851">
        <ele>372</ele>
        <time>2015-03-28T15:15:47Z</time>
      </trkpt>
      <trkpt lat="49.9813" lon="5.26849">
        <ele>373</ele>
        <time>2015-03-28T15:15:52Z</time>
      </trkpt>
      <trkpt lat="49.98132" lon="5.2685">
        <ele>373</ele>
        <time>2015-03-28T15:15:57Z</time>
      </trkpt>
      <trkpt lat="49.98132" lon="5.26845">
        <ele>373</ele>
        <time>2015-03-28T15:16:03Z</time>
      </trkpt>
      <trkpt lat="49.98133" lon="5.26846">
        <ele>372</ele>
        <time>2015-03-28T15:16:09Z</time>
      </trkpt>
      <trkpt lat="49.98132" lon="5.26849">
        <ele>373</ele>
        <time>2015-03-28T15:16:14Z</time>
      </trkpt>
      <trkpt lat="49.98132" lon="5.26847">
        <ele>372</ele>
        <time>2015-03-28T15:16:20Z</time>
      </trkpt>
      <trkpt lat="49.9813" lon="5.26851">
        <ele>373</ele>
        <time>2015-03-28T15:16:25Z</time>
      </trkpt>
      <trkpt lat="49.9813" lon="5.26849">
        <ele>372</ele>
        <time>2015-03-28T15:16:31Z</time>
      </trkpt>
      <trkpt lat="49.9813" lon="5.26849">
        <ele>372</ele>
        <time>2015-03-28T15:16:37Z</time>
      </trkpt>
      <trkpt lat="49.98132" lon="5.26853">
        <ele>373</ele>
        <time>2015-03-28T15:16:42Z</time>
      </trkpt>
      <trkpt lat="49.98131" lon="5.26854">
        <ele>372</ele>
        <time>2015-03-28T15:16:48Z</time>
      </trkpt>
      <trkpt lat="49.98132" lon="5.26853">
        <ele>372</ele>
        <time>2015-03-28T15:16:53Z</time>
      </trkpt>
      <trkpt lat="49.98132" lon="5.26855">
        <ele>372</ele>
        <time>2015-03-28T15:16:58Z</time>
      </trkpt>
      <trkpt lat="49.98133" lon="5.26855">
        <ele>372</ele>
        <time>2015-03-28T15:17:04Z</time>
      </trkpt>
      <trkpt lat="49.98134" lon="5.26852">
        <ele>372</ele>
        <time>2015-03-28T15:17:09Z</time>
      </trkpt>
      <trkpt lat="49.98133" lon="5.26856">
        <ele>373</ele>
        <time>2015-03-28T15:17:15Z</time>
      </trkpt>
      <trkpt lat="49.98135" lon="5.26857">
        <ele>373</ele>
        <time>2015-03-28T15:17:22Z</time>
      </trkpt>
      <trkpt lat="49.98134" lon="5.26855">
        <ele>373</ele>
        <time>2015-03-28T15:17:27Z</time>
      </trkpt>
      <trkpt lat="49.98134" lon="5.26852">
        <ele>373</ele>
        <time>2015-03-28T15:17:33Z</time>
      </trkpt>
      <trkpt lat="49.98136" lon="5.26848">
        <ele>373</ele>
        <time>2015-03-28T15:17:38Z</time>
      </trkpt>
      <trkpt lat="49.98134" lon="5.26853">
        <ele>373</ele>
        <time>2015-03-28T15:17:43Z</time>
      </trkpt>
      <trkpt lat="49.98134" lon="5.26861">
        <ele>372</ele>
        <time>2015-03-28T15:17:49Z</time>
      </trkpt>
      <trkpt lat="49.98133" lon="5.26862">
        <ele>373</ele>
        <time>2015-03-28T15:17:55Z</time>
      </trkpt>
      <trkpt lat="49.98133" lon="5.2686">
        <ele>373</ele>
        <time>2015-03-28T15:18:00Z</time>
      </trkpt>
      <trkpt lat="49.98134" lon="5.26851">
        <ele>373</ele>
        <time>2015-03-28T15:18:06Z</time>
      </trkpt>
      <trkpt lat="49.98135" lon="5.26846">
        <ele>373</ele>
        <time>2015-03-28T15:18:11Z</time>
      </trkpt>
      <trkpt lat="49.98136" lon="5.2684">
        <ele>373</ele>
        <time>2015-03-28T15:18:16Z</time>
      </trkpt>
      <trkpt lat="49.98137" lon="5.26833">
        <ele>373</ele>
        <time>2015-03-28T15:18:22Z</time>
      </trkpt>
      <trkpt lat="49.98133" lon="5.26839">
        <ele>373</ele>
        <time>2015-03-28T15:18:27Z</time>
      </trkpt>
      <trkpt lat="49.98132" lon="5.26843">
        <ele>373</ele>
        <time>2015-03-28T15:18:32Z</time>
      </trkpt>
      <trkpt lat="49.98129" lon="5.26842">
        <ele>373</ele>
        <time>2015-03-28T15:18:37Z</time>
      </trkpt>
      <trkpt lat="49.98127" lon="5.26844">
        <ele>373</ele>
        <time>2015-03-28T15:18:43Z</time>
      </trkpt>
      <trkpt lat="49.98131" lon="5.26849">
        <ele>373</ele>
        <time>2015-03-28T15:18:49Z</time>
      </trkpt>
      <trkpt lat="49.98137" lon="5.26849">
        <ele>373</ele>
        <time>2015-03-28T15:18:55Z</time>
      </trkpt>
      <trkpt lat="49.98133" lon="5.26846">
        <ele>373</ele>
        <time>2015-03-28T15:19:00Z</time>
      </trkpt>
      <trkpt lat="49.9813" lon="5.26847">
        <ele>373</ele>
        <time>2015-03-28T15:19:05Z</time>
      </trkpt>
      <trkpt lat="49.98127" lon="5.2685">
        <ele>373</ele>
        <time>2015-03-28T15:19:11Z</time>
      </trkpt>
      <trkpt lat="49.98126" lon="5.26849">
        <ele>373</ele>
        <time>2015-03-28T15:19:16Z</time>
      </trkpt>
      <trkpt lat="49.98128" lon="5.26844">
        <ele>373</ele>
        <time>2015-03-28T15:19:22Z</time>
      </trkpt>
      <trkpt lat="49.98127" lon="5.26838">
        <ele>373</ele>
        <time>2015-03-28T15:19:27Z</time>
      </trkpt>
      <trkpt lat="49.98124" lon="5.26832">
        <ele>373</ele>
        <time>2015-03-28T15:19:32Z</time>
      </trkpt>
      <trkpt lat="49.98124" lon="5.26832">
        <ele>373</ele>
        <time>2015-03-28T15:19:38Z</time>
      </trkpt>
      <trkpt lat="49.98124" lon="5.26838">
        <ele>373</ele>
        <time>2015-03-28T15:19:43Z</time>
      </trkpt>
      <trkpt lat="49.98128" lon="5.26842">
        <ele>373</ele>
        <time>2015-03-28T15:19:48Z</time>
      </trkpt>
      <trkpt lat="49.98129" lon="5.26844">
        <ele>373</ele>
        <time>2015-03-28T15:19:53Z</time>
      </trkpt>
      <trkpt lat="49.98129" lon="5.26846">
        <ele>373</ele>
        <time>2015-03-28T15:19:59Z</time>
      </trkpt>
      <trkpt lat="49.9813" lon="5.2685">
        <ele>373</ele>
        <time>2015-03-28T15:20:05Z</time>
      </trkpt>
      <trkpt lat="49.9813" lon="5.26853">
        <ele>373</ele>
        <time>2015-03-28T15:20:10Z</time>
      </trkpt>
      <trkpt lat="49.98133" lon="5.26853">
        <ele>373</ele>
        <time>2015-03-28T15:20:15Z</time>
      </trkpt>
      <trkpt lat="49.98132" lon="5.2685">
        <ele>373</ele>
        <time>2015-03-28T15:20:21Z</time>
      </trkpt>
      <trkpt lat="49.9813" lon="5.26845">
        <ele>373</ele>
        <time>2015-03-28T15:20:26Z</time>
      </trkpt>
      <trkpt lat="49.98125" lon="5.26846">
        <ele>373</ele>
        <time>2015-03-28T15:20:32Z</time>
      </trkpt>
      <trkpt lat="49.9813" lon="5.26854">
        <ele>373</ele>
        <time>2015-03-28T15:20:38Z</time>
      </trkpt>
      <trkpt lat="49.98133" lon="5.26859">
        <ele>373</ele>
        <time>2015-03-28T15:20:43Z</time>
      </trkpt>
      <trkpt lat="49.98134" lon="5.26858">
        <ele>373</ele>
        <time>2015-03-28T15:20:49Z</time>
      </trkpt>
      <trkpt lat="49.98133" lon="5.26857">
        <ele>373</ele>
        <time>2015-03-28T15:20:54Z</time>
      </trkpt>
      <trkpt lat="49.98134" lon="5.26857">
        <ele>373</ele>
        <time>2015-03-28T15:20:59Z</time>
      </trkpt>
      <trkpt lat="49.98136" lon="5.26857">
        <ele>373</ele>
        <time>2015-03-28T15:21:05Z</time>
      </trkpt>
      <trkpt lat="49.98137" lon="5.26856">
        <ele>373</ele>
        <time>2015-03-28T15:21:11Z</time>
      </trkpt>
      <trkpt lat="49.98135" lon="5.26852">
        <ele>373</ele>
        <time>2015-03-28T15:21:17Z</time>
      </trkpt>
      <trkpt lat="49.98135" lon="5.26849">
        <ele>373</ele>
        <time>2015-03-28T15:21:23Z</time>
      </trkpt>
      <trkpt lat="49.98126" lon="5.26946">
        <ele>373</ele>
        <time>2015-03-28T15:21:56Z</time>
      </trkpt>
      <trkpt lat="49.98096" lon="5.26831">
        <ele>373</ele>
        <time>2015-03-28T15:22:01Z</time>
      </trkpt>
      <trkpt lat="49.98147" lon="5.26868">
        <ele>373</ele>
        <time>2015-03-28T15:22:09Z</time>
      </trkpt>
      <trkpt lat="49.98156" lon="5.26882">
        <ele>373</ele>
        <time>2015-03-28T15:22:38Z</time>
      </trkpt>
      <trkpt lat="49.98153" lon="5.26878">
        <ele>373</ele>
        <time>2015-03-28T15:22:43Z</time>
      </trkpt>
      <trkpt lat="49.9815" lon="5.26874">
        <ele>374</ele>
        <time>2015-03-28T15:22:48Z</time>
      </trkpt>
      <trkpt lat="49.98147" lon="5.26874">
        <ele>373</ele>
        <time>2015-03-28T15:22:54Z</time>
      </trkpt>
      <trkpt lat="49.98139" lon="5.26865">
        <ele>373</ele>
        <time>2015-03-28T15:22:59Z</time>
      </trkpt>
      <trkpt lat="49.98138" lon="5.26867">
        <ele>373</ele>
        <time>2015-03-28T15:23:04Z</time>
      </trkpt>
      <trkpt lat="49.98139" lon="5.26869">
        <ele>373</ele>
        <time>2015-03-28T15:23:10Z</time>
      </trkpt>
      <trkpt lat="49.98138" lon="5.26869">
        <ele>373</ele>
        <time>2015-03-28T15:23:16Z</time>
      </trkpt>
      <trkpt lat="49.98133" lon="5.26862">
        <ele>373</ele>
        <time>2015-03-28T15:23:21Z</time>
      </trkpt>
      <trkpt lat="49.98128" lon="5.26854">
        <ele>373</ele>
        <time>2015-03-28T15:23:26Z</time>
      </trkpt>
      <trkpt lat="49.98125" lon="5.26848">
        <ele>373</ele>
        <time>2015-03-28T15:23:32Z</time>
      </trkpt>
      <trkpt lat="49.98123" lon="5.26844">
        <ele>373</ele>
        <time>2015-03-28T15:23:37Z</time>
      </trkpt>
      <trkpt lat="49.98125" lon="5.26845">
        <ele>374</ele>
        <time>2015-03-28T15:23:42Z</time>
      </trkpt>
      <trkpt lat="49.98124" lon="5.26844">
        <ele>373</ele>
        <time>2015-03-28T15:23:47Z</time>
      </trkpt>
      <trkpt lat="49.98124" lon="5.26841">
        <ele>373</ele>
        <time>2015-03-28T15:23:53Z</time>
      </trkpt>
      <trkpt lat="49.98124" lon="5.26842">
        <ele>373</ele>
        <time>2015-03-28T15:23:59Z</time>
      </trkpt>
      <trkpt lat="49.98125" lon="5.26844">
        <ele>374</ele>
        <time>2015-03-28T15:24:05Z</time>
      </trkpt>
      <trkpt lat="49.98128" lon="5.26844">
        <ele>374</ele>
        <time>2015-03-28T15:24:10Z</time>
      </trkpt>
      <trkpt lat="49.98132" lon="5.26848">
        <ele>374</ele>
        <time>2015-03-28T15:24:16Z</time>
      </trkpt>
      <trkpt lat="49.98132" lon="5.26849">
        <ele>374</ele>
        <time>2015-03-28T15:24:21Z</time>
      </trkpt>
      <trkpt lat="49.98134" lon="5.2685">
        <ele>374</ele>
        <time>2015-03-28T15:24:26Z</time>
      </trkpt>
      <trkpt lat="49.98135" lon="5.26851">
        <ele>373</ele>
        <time>2015-03-28T15:24:32Z</time>
      </trkpt>
      <trkpt lat="49.98135" lon="5.26851">
        <ele>374</ele>
        <time>2015-03-28T15:24:37Z</time>
      </trkpt>
      <trkpt lat="49.98134" lon="5.26852">
        <ele>374</ele>
        <time>2015-03-28T15:24:42Z</time>
      </trkpt>
      <trkpt lat="49.98135" lon="5.26856">
        <ele>374</ele>
        <time>2015-03-28T15:24:48Z</time>
      </trkpt>
      <trkpt lat="49.98135" lon="5.26863">
        <ele>374</ele>
        <time>2015-03-28T15:25:07Z</time>
      </trkpt>
      <trkpt lat="49.98123" lon="5.26837">
        <ele>374</ele>
        <time>2015-03-28T15:26:19Z</time>
      </trkpt>
      <trkpt lat="49.98131" lon="5.26854">
        <ele>374</ele>
        <time>2015-03-28T15:26:24Z</time>
      </trkpt>
      <trkpt lat="49.98132" lon="5.26853">
        <ele>374</ele>
        <time>2015-03-28T15:26:29Z</time>
      </trkpt>
      <trkpt lat="49.98128" lon="5.26845">
        <ele>374</ele>
        <time>2015-03-28T15:26:34Z</time>
      </trkpt>
      <trkpt lat="49.98131" lon="5.26854">
        <ele>373</ele>
        <time>2015-03-28T15:27:56Z</time>
      </trkpt>
      <trkpt lat="49.9813" lon="5.26854">
        <ele>373</ele>
        <time>2015-03-28T15:28:01Z</time>
      </trkpt>
      <trkpt lat="49.98128" lon="5.26851">
        <ele>373</ele>
        <time>2015-03-28T15:28:07Z</time>
      </trkpt>
      <trkpt lat="49.9813" lon="5.26855">
        <ele>374</ele>
        <time>2015-03-28T15:28:13Z</time>
      </trkpt>
      <trkpt lat="49.98136" lon="5.26861">
        <ele>374</ele>
        <time>2015-03-28T15:28:19Z</time>
      </trkpt>
      <trkpt lat="49.9814" lon="5.26866">
        <ele>374</ele>
        <time>2015-03-28T15:28:25Z</time>
      </trkpt>
      <trkpt lat="49.98145" lon="5.26877">
        <ele>374</ele>
        <time>2015-03-28T15:28:31Z</time>
      </trkpt>
      <trkpt lat="49.98149" lon="5.26871">
        <ele>374</ele>
        <time>2015-03-28T15:28:37Z</time>
      </trkpt>
      <trkpt lat="49.98148" lon="5.26871">
        <ele>374</ele>
        <time>2015-03-28T15:28:42Z</time>
      </trkpt>
      <trkpt lat="49.98148" lon="5.26866">
        <ele>374</ele>
        <time>2015-03-28T15:28:48Z</time>
      </trkpt>
      <trkpt lat="49.98144" lon="5.2686">
        <ele>374</ele>
        <time>2015-03-28T15:28:54Z</time>
      </trkpt>
      <trkpt lat="49.98139" lon="5.26854">
        <ele>374</ele>
        <time>2015-03-28T15:29:00Z</time>
      </trkpt>
      <trkpt lat="49.98136" lon="5.26854">
        <ele>374</ele>
        <time>2015-03-28T15:29:07Z</time>
      </trkpt>
      <trkpt lat="49.98136" lon="5.26854">
        <ele>374</ele>
        <time>2015-03-28T15:29:12Z</time>
      </trkpt>
      <trkpt lat="49.98136" lon="5.26853">
        <ele>374</ele>
        <time>2015-03-28T15:29:17Z</time>
      </trkpt>
      <trkpt lat="49.98137" lon="5.26854">
        <ele>374</ele>
        <time>2015-03-28T15:29:23Z</time>
      </trkpt>
      <trkpt lat="49.98136" lon="5.26853">
        <ele>374</ele>
        <time>2015-03-28T15:29:28Z</time>
      </trkpt>
      <trkpt lat="49.98134" lon="5.26853">
        <ele>374</ele>
        <time>2015-03-28T15:29:34Z</time>
      </trkpt>
      <trkpt lat="49.98132" lon="5.26853">
        <ele>374</ele>
        <time>2015-03-28T15:29:40Z</time>
      </trkpt>
      <trkpt lat="49.98132" lon="5.26854">
        <ele>375</ele>
        <time>2015-03-28T15:29:45Z</time>
      </trkpt>
      <trkpt lat="49.98132" lon="5.26853">
        <ele>374</ele>
        <time>2015-03-28T15:29:50Z</time>
      </trkpt>
      <trkpt lat="49.9813" lon="5.26852">
        <ele>374</ele>
        <time>2015-03-28T15:29:55Z</time>
      </trkpt>
      <trkpt lat="49.9813" lon="5.26848">
        <ele>374</ele>
        <time>2015-03-28T15:30:01Z</time>
      </trkpt>
      <trkpt lat="49.98126" lon="5.26846">
        <ele>374</ele>
        <time>2015-03-28T15:30:06Z</time>
      </trkpt>
      <trkpt lat="49.98126" lon="5.26847">
        <ele>375</ele>
        <time>2015-03-28T15:30:12Z</time>
      </trkpt>
      <trkpt lat="49.98127" lon="5.26848">
        <ele>375</ele>
        <time>2015-03-28T15:30:17Z</time>
      </trkpt>
      <trkpt lat="49.98127" lon="5.26852">
        <ele>375</ele>
        <time>2015-03-28T15:30:22Z</time>
      </trkpt>
      <trkpt lat="49.98126" lon="5.2685">
        <ele>375</ele>
        <time>2015-03-28T15:30:28Z</time>
      </trkpt>
      <trkpt lat="49.98124" lon="5.26851">
        <ele>375</ele>
        <time>2015-03-28T15:30:34Z</time>
      </trkpt>
      <trkpt lat="49.98124" lon="5.26853">
        <ele>375</ele>
        <time>2015-03-28T15:30:39Z</time>
      </trkpt>
      <trkpt lat="49.98124" lon="5.26853">
        <ele>375</ele>
        <time>2015-03-28T15:30:45Z</time>
      </trkpt>
      <trkpt lat="49.98126" lon="5.26855">
        <ele>375</ele>
        <time>2015-03-28T15:30:51Z</time>
      </trkpt>
      <trkpt lat="49.98126" lon="5.26854">
        <ele>375</ele>
        <time>2015-03-28T15:30:57Z</time>
      </trkpt>
      <trkpt lat="49.98126" lon="5.26852">
        <ele>375</ele>
        <time>2015-03-28T15:31:02Z</time>
      </trkpt>
      <trkpt lat="49.98126" lon="5.2685">
        <ele>375</ele>
        <time>2015-03-28T15:31:08Z</time>
      </trkpt>
      <trkpt lat="49.98127" lon="5.26851">
        <ele>375</ele>
        <time>2015-03-28T15:31:13Z</time>
      </trkpt>
      <trkpt lat="49.98129" lon="5.26855">
        <ele>375</ele>
        <time>2015-03-28T15:31:19Z</time>
      </trkpt>
      <trkpt lat="49.98132" lon="5.26859">
        <ele>374</ele>
        <time>2015-03-28T15:31:24Z</time>
      </trkpt>
      <trkpt lat="49.98133" lon="5.2686">
        <ele>374</ele>
        <time>2015-03-28T15:31:29Z</time>
      </trkpt>
      <trkpt lat="49.98133" lon="5.26858">
        <ele>375</ele>
        <time>2015-03-28T15:31:35Z</time>
      </trkpt>
      <trkpt lat="49.98132" lon="5.26856">
        <ele>375</ele>
        <time>2015-03-28T15:31:40Z</time>
      </trkpt>
      <trkpt lat="49.98133" lon="5.26855">
        <ele>375</ele>
        <time>2015-03-28T15:31:46Z</time>
      </trkpt>
      <trkpt lat="49.98135" lon="5.26853">
        <ele>374</ele>
        <time>2015-03-28T15:31:52Z</time>
      </trkpt>
      <trkpt lat="49.98134" lon="5.26853">
        <ele>375</ele>
        <time>2015-03-28T15:31:57Z</time>
      </trkpt>
      <trkpt lat="49.98134" lon="5.26855">
        <ele>375</ele>
        <time>2015-03-28T15:32:03Z</time>
      </trkpt>
      <trkpt lat="49.98136" lon="5.26856">
        <ele>375</ele>
        <time>2015-03-28T15:32:08Z</time>
      </trkpt>
      <trkpt lat="49.98137" lon="5.26856">
        <ele>375</ele>
        <time>2015-03-28T15:32:14Z</time>
      </trkpt>
      <trkpt lat="49.98137" lon="5.26856">
        <ele>375</ele>
        <time>2015-03-28T15:32:20Z</time>
      </trkpt>
      <trkpt lat="49.98134" lon="5.26854">
        <ele>375</ele>
        <time>2015-03-28T15:32:26Z</time>
      </trkpt>
      <trkpt lat="49.98132" lon="5.26851">
        <ele>375</ele>
        <time>2015-03-28T15:32:32Z</time>
      </trkpt>
      <trkpt lat="49.98132" lon="5.26854">
        <ele>375</ele>
        <time>2015-03-28T15:32:38Z</time>
      </trkpt>
      <trkpt lat="49.98129" lon="5.26857">
        <ele>374</ele>
        <time>2015-03-28T15:32:44Z</time>
      </trkpt>
      <trkpt lat="49.98129" lon="5.26855">
        <ele>374</ele>
        <time>2015-03-28T15:32:49Z</time>
      </trkpt>
      <trkpt lat="49.98128" lon="5.26856">
        <ele>374</ele>
        <time>2015-03-28T15:32:55Z</time>
      </trkpt>
      <trkpt lat="49.9813" lon="5.26858">
        <ele>374</ele>
        <time>2015-03-28T15:33:01Z</time>
      </trkpt>
      <trkpt lat="49.9813" lon="5.26858">
        <ele>374</ele>
        <time>2015-03-28T15:33:06Z</time>
      </trkpt>
      <trkpt lat="49.98129" lon="5.26855">
        <ele>374</ele>
        <time>2015-03-28T15:33:12Z</time>
      </trkpt>
      <trkpt lat="49.98128" lon="5.26853">
        <ele>374</ele>
        <time>2015-03-28T15:33:17Z</time>
      </trkpt>
      <trkpt lat="49.98127" lon="5.26854">
        <ele>374</ele>
        <time>2015-03-28T15:33:23Z</time>
      </trkpt>
      <trkpt lat="49.98124" lon="5.26855">
        <ele>375</ele>
        <time>2015-03-28T15:33:29Z</time>
      </trkpt>
      <trkpt lat="49.98123" lon="5.26857">
        <ele>375</ele>
        <time>2015-03-28T15:33:34Z</time>
      </trkpt>
      <trkpt lat="49.98123" lon="5.26853">
        <ele>374</ele>
        <time>2015-03-28T15:33:40Z</time>
      </trkpt>
      <trkpt lat="49.9812" lon="5.26853">
        <ele>374</ele>
        <time>2015-03-28T15:33:46Z</time>
      </trkpt>
      <trkpt lat="49.9812" lon="5.26853">
        <ele>374</ele>
        <time>2015-03-28T15:33:51Z</time>
      </trkpt>
      <trkpt lat="49.98123" lon="5.26854">
        <ele>374</ele>
        <time>2015-03-28T15:33:57Z</time>
      </trkpt>
      <trkpt lat="49.98124" lon="5.2687">
        <ele>374</ele>
        <time>2015-03-28T15:34:25Z</time>
      </trkpt>
      <trkpt lat="49.98132" lon="5.26851">
        <ele>374</ele>
        <time>2015-03-28T15:34:40Z</time>
      </trkpt>
      <trkpt lat="49.98135" lon="5.26851">
        <ele>374</ele>
        <time>2015-03-28T15:34:46Z</time>
      </trkpt>
      <trkpt lat="49.98138" lon="5.26852">
        <ele>374</ele>
        <time>2015-03-28T15:34:51Z</time>
      </trkpt>
      <trkpt lat="49.98141" lon="5.26851">
        <ele>374</ele>
        <time>2015-03-28T15:34:56Z</time>
      </trkpt>
      <trkpt lat="49.98141" lon="5.26844">
        <ele>374</ele>
        <time>2015-03-28T15:35:02Z</time>
      </trkpt>
      <trkpt lat="49.98137" lon="5.26839">
        <ele>374</ele>
        <time>2015-03-28T15:35:08Z</time>
      </trkpt>
      <trkpt lat="49.9813" lon="5.26836">
        <ele>374</ele>
        <time>2015-03-28T15:35:14Z</time>
      </trkpt>
      <trkpt lat="49.9813" lon="5.26837">
        <ele>374</ele>
        <time>2015-03-28T15:35:19Z</time>
      </trkpt>
      <trkpt lat="49.98135" lon="5.26844">
        <ele>374</ele>
        <time>2015-03-28T15:35:25Z</time>
      </trkpt>
      <trkpt lat="49.98138" lon="5.26851">
        <ele>374</ele>
        <time>2015-03-28T15:35:30Z</time>
      </trkpt>
      <trkpt lat="49.98138" lon="5.2685">
        <ele>374</ele>
        <time>2015-03-28T15:35:36Z</time>
      </trkpt>
      <trkpt lat="49.98136" lon="5.26847">
        <ele>374</ele>
        <time>2015-03-28T15:35:42Z</time>
      </trkpt>
      <trkpt lat="49.9813" lon="5.2684">
        <ele>374</ele>
        <time>2015-03-28T15:35:47Z</time>
      </trkpt>
      <trkpt lat="49.98127" lon="5.26835">
        <ele>374</ele>
        <time>2015-03-28T15:35:53Z</time>
      </trkpt>
      <trkpt lat="49.9812" lon="5.26822">
        <ele>374</ele>
        <time>2015-03-28T15:35:59Z</time>
      </trkpt>
      <trkpt lat="49.98116" lon="5.26816">
        <ele>374</ele>
        <time>2015-03-28T15:36:04Z</time>
      </trkpt>
      <trkpt lat="49.98103" lon="5.26801">
        <ele>375</ele>
        <time>2015-03-28T15:36:35Z</time>
      </trkpt>
      <trkpt lat="49.98101" lon="5.26795">
        <ele>375</ele>
        <time>2015-03-28T15:36:40Z</time>
      </trkpt>
      <trkpt lat="49.98092" lon="5.26782">
        <ele>375</ele>
        <time>2015-03-28T15:36:45Z</time>
      </trkpt>
      <trkpt lat="49.98088" lon="5.26774">
        <ele>375</ele>
        <time>2015-03-28T15:36:51Z</time>
      </trkpt>
      <trkpt lat="49.98092" lon="5.26777">
        <ele>374</ele>
        <time>2015-03-28T15:36:57Z</time>
      </trkpt>
      <trkpt lat="49.98095" lon="5.26783">
        <ele>375</ele>
        <time>2015-03-28T15:37:03Z</time>
      </trkpt>
      <trkpt lat="49.98097" lon="5.26792">
        <ele>375</ele>
        <time>2015-03-28T15:37:09Z</time>
      </trkpt>
      <trkpt lat="49.98099" lon="5.26802">
        <ele>375</ele>
        <time>2015-03-28T15:37:15Z</time>
      </trkpt>
      <trkpt lat="49.98106" lon="5.26811">
        <ele>375</ele>
        <time>2015-03-28T15:37:21Z</time>
      </trkpt>
      <trkpt lat="49.9811" lon="5.26814">
        <ele>375</ele>
        <time>2015-03-28T15:37:26Z</time>
      </trkpt>
      <trkpt lat="49.98112" lon="5.26815">
        <ele>375</ele>
        <time>2015-03-28T15:37:32Z</time>
      </trkpt>
      <trkpt lat="49.98112" lon="5.26818">
        <ele>375</ele>
        <time>2015-03-28T15:37:38Z</time>
      </trkpt>
      <trkpt lat="49.98114" lon="5.26824">
        <ele>375</ele>
        <time>2015-03-28T15:37:43Z</time>
      </trkpt>
      <trkpt lat="49.98118" lon="5.26828">
        <ele>375</ele>
        <time>2015-03-28T15:37:48Z</time>
      </trkpt>
      <trkpt lat="49.9813" lon="5.26855">
        <ele>375</ele>
        <time>2015-03-28T15:38:14Z</time>
      </trkpt>
      <trkpt lat="49.98129" lon="5.26849">
        <ele>376</ele>
        <time>2015-03-28T15:38:19Z</time>
      </trkpt>
      <trkpt lat="49.98124" lon="5.26842">
        <ele>375</ele>
        <time>2015-03-28T15:38:25Z</time>
      </trkpt>
      <trkpt lat="49.98122" lon="5.26841">
        <ele>376</ele>
        <time>2015-03-28T15:38:31Z</time>
      </trkpt>
      <trkpt lat="49.98122" lon="5.26843">
        <ele>376</ele>
        <time>2015-03-28T15:38:36Z</time>
      </trkpt>
      <trkpt lat="49.98122" lon="5.26845">
        <ele>376</ele>
        <time>2015-03-28T15:38:42Z</time>
      </trkpt>
      <trkpt lat="49.98124" lon="5.26846">
        <ele>376</ele>
        <time>2015-03-28T15:38:47Z</time>
      </trkpt>
      <trkpt lat="49.98124" lon="5.26847">
        <ele>375</ele>
        <time>2015-03-28T15:38:52Z</time>
      </trkpt>
      <trkpt lat="49.98124" lon="5.26851">
        <ele>375</ele>
        <time>2015-03-28T15:38:57Z</time>
      </trkpt>
      <trkpt lat="49.98127" lon="5.26857">
        <ele>375</ele>
        <time>2015-03-28T15:39:03Z</time>
      </trkpt>
      <trkpt lat="49.9813" lon="5.26861">
        <ele>375</ele>
        <time>2015-03-28T15:39:14Z</time>
      </trkpt>
      <trkpt lat="49.98129" lon="5.26857">
        <ele>376</ele>
        <time>2015-03-28T15:39:19Z</time>
      </trkpt>
      <trkpt lat="49.98129" lon="5.26856">
        <ele>375</ele>
        <time>2015-03-28T15:39:24Z</time>
      </trkpt>
      <trkpt lat="49.98128" lon="5.26858">
        <ele>376</ele>
        <time>2015-03-28T15:39:30Z</time>
      </trkpt>
      <trkpt lat="49.9813" lon="5.26858">
        <ele>376</ele>
        <time>2015-03-28T15:39:36Z</time>
      </trkpt>
      <trkpt lat="49.98129" lon="5.26859">
        <ele>376</ele>
        <time>2015-03-28T15:39:41Z</time>
      </trkpt>
      <trkpt lat="49.98132" lon="5.26855">
        <ele>376</ele>
        <time>2015-03-28T15:39:47Z</time>
      </trkpt>
      <trkpt lat="49.98133" lon="5.26852">
        <ele>376</ele>
        <time>2015-03-28T15:39:52Z</time>
      </trkpt>
      <trkpt lat="49.98129" lon="5.26841">
        <ele>376</ele>
        <time>2015-03-28T15:39:58Z</time>
      </trkpt>
      <trkpt lat="49.98127" lon="5.26833">
        <ele>376</ele>
        <time>2015-03-28T15:40:04Z</time>
      </trkpt>
      <trkpt lat="49.98128" lon="5.26835">
        <ele>376</ele>
        <time>2015-03-28T15:40:09Z</time>
      </trkpt>
      <trkpt lat="49.98131" lon="5.2684">
        <ele>376</ele>
        <time>2015-03-28T15:40:15Z</time>
      </trkpt>
      <trkpt lat="49.98128" lon="5.2685">
        <ele>376</ele>
        <time>2015-03-28T15:40:21Z</time>
      </trkpt>
      <trkpt lat="49.98127" lon="5.26857">
        <ele>376</ele>
        <time>2015-03-28T15:40:26Z</time>
      </trkpt>
      <trkpt lat="49.98126" lon="5.26859">
        <ele>375</ele>
        <time>2015-03-28T15:40:32Z</time>
      </trkpt>
      <trkpt lat="49.98127" lon="5.26858">
        <ele>375</ele>
        <time>2015-03-28T15:40:37Z</time>
      </trkpt>
      <trkpt lat="49.98127" lon="5.26855">
        <ele>376</ele>
        <time>2015-03-28T15:40:43Z</time>
      </trkpt>
      <trkpt lat="49.98127" lon="5.26855">
        <ele>376</ele>
        <time>2015-03-28T15:40:48Z</time>
      </trkpt>
      <trkpt lat="49.98127" lon="5.26858">
        <ele>376</ele>
        <time>2015-03-28T15:40:53Z</time>
      </trkpt>
      <trkpt lat="49.98129" lon="5.26859">
        <ele>376</ele>
        <time>2015-03-28T15:40:58Z</time>
      </trkpt>
      <trkpt lat="49.9813" lon="5.26858">
        <ele>376</ele>
        <time>2015-03-28T15:41:04Z</time>
      </trkpt>
      <trkpt lat="49.98131" lon="5.26859">
        <ele>376</ele>
        <time>2015-03-28T15:41:10Z</time>
      </trkpt>
      <trkpt lat="49.98132" lon="5.26861">
        <ele>376</ele>
        <time>2015-03-28T15:41:16Z</time>
      </trkpt>
      <trkpt lat="49.98133" lon="5.26865">
        <ele>376</ele>
        <time>2015-03-28T15:41:21Z</time>
      </trkpt>
      <trkpt lat="49.98135" lon="5.26869">
        <ele>376</ele>
        <time>2015-03-28T15:41:27Z</time>
      </trkpt>
      <trkpt lat="49.98132" lon="5.26872">
        <ele>376</ele>
        <time>2015-03-28T15:41:33Z</time>
      </trkpt>
      <trkpt lat="49.98131" lon="5.26869">
        <ele>376</ele>
        <time>2015-03-28T15:41:38Z</time>
      </trkpt>
      <trkpt lat="49.98132" lon="5.26873">
        <ele>376</ele>
        <time>2015-03-28T15:41:43Z</time>
      </trkpt>
      <trkpt lat="49.98133" lon="5.26875">
        <ele>375</ele>
        <time>2015-03-28T15:41:48Z</time>
      </trkpt>
      <trkpt lat="49.9813" lon="5.26872">
        <ele>376</ele>
        <time>2015-03-28T15:41:53Z</time>
      </trkpt>
      <trkpt lat="49.98124" lon="5.26859">
        <ele>375</ele>
        <time>2015-03-28T15:41:59Z</time>
      </trkpt>
      <trkpt lat="49.98119" lon="5.26849">
        <ele>376</ele>
        <time>2015-03-28T15:42:05Z</time>
      </trkpt>
      <trkpt lat="49.98122" lon="5.2685">
        <ele>376</ele>
        <time>2015-03-28T15:42:10Z</time>
      </trkpt>
      <trkpt lat="49.9813" lon="5.2685">
        <ele>375</ele>
        <time>2015-03-28T15:42:16Z</time>
      </trkpt>
      <trkpt lat="49.98136" lon="5.26859">
        <ele>376</ele>
        <time>2015-03-28T15:42:21Z</time>
      </trkpt>
      <trkpt lat="49.98143" lon="5.26859">
        <ele>375</ele>
        <time>2015-03-28T15:42:27Z</time>
      </trkpt>
      <trkpt lat="49.98149" lon="5.2685">
        <ele>375</ele>
        <time>2015-03-28T15:42:32Z</time>
      </trkpt>
      <trkpt lat="49.98151" lon="5.26843">
        <ele>375</ele>
        <time>2015-03-28T15:42:38Z</time>
      </trkpt>
      <trkpt lat="49.98151" lon="5.26844">
        <ele>375</ele>
        <time>2015-03-28T15:42:43Z</time>
      </trkpt>
      <trkpt lat="49.98119" lon="5.26812">
        <ele>375</ele>
        <time>2015-03-28T15:43:34Z</time>
      </trkpt>
      <trkpt lat="49.9811" lon="5.26799">
        <ele>375</ele>
        <time>2015-03-28T15:43:39Z</time>
      </trkpt>
      <trkpt lat="49.98096" lon="5.26768">
        <ele>375</ele>
        <time>2015-03-28T15:43:45Z</time>
      </trkpt>
      <trkpt lat="49.98135" lon="5.26844">
        <ele>375</ele>
        <time>2015-03-28T15:44:34Z</time>
      </trkpt>
      <trkpt lat="49.9813" lon="5.26831">
        <ele>375</ele>
        <time>2015-03-28T15:44:40Z</time>
      </trkpt>
      <trkpt lat="49.98131" lon="5.26828">
        <ele>375</ele>
        <time>2015-03-28T15:44:46Z</time>
      </trkpt>
      <trkpt lat="49.98134" lon="5.26829">
        <ele>375</ele>
        <time>2015-03-28T15:44:52Z</time>
      </trkpt>
      <trkpt lat="49.98138" lon="5.26833">
        <ele>375</ele>
        <time>2015-03-28T15:44:57Z</time>
      </trkpt>
      <trkpt lat="49.98143" lon="5.26839">
        <ele>375</ele>
        <time>2015-03-28T15:45:03Z</time>
      </trkpt>
      <trkpt lat="49.98144" lon="5.26844">
        <ele>375</ele>
        <time>2015-03-28T15:45:08Z</time>
      </trkpt>
      <trkpt lat="49.98142" lon="5.26841">
        <ele>374</ele>
        <time>2015-03-28T15:45:14Z</time>
      </trkpt>
      <trkpt lat="49.98143" lon="5.26842">
        <ele>374</ele>
        <time>2015-03-28T15:45:20Z</time>
      </trkpt>
      <trkpt lat="49.98139" lon="5.26843">
        <ele>374</ele>
        <time>2015-03-28T15:45:25Z</time>
      </trkpt>
      <trkpt lat="49.98137" lon="5.26845">
        <ele>375</ele>
        <time>2015-03-28T15:45:30Z</time>
      </trkpt>
      <trkpt lat="49.98136" lon="5.26849">
        <ele>375</ele>
        <time>2015-03-28T15:45:35Z</time>
      </trkpt>
      <trkpt lat="49.98133" lon="5.26853">
        <ele>374</ele>
        <time>2015-03-28T15:45:41Z</time>
      </trkpt>
      <trkpt lat="49.98132" lon="5.26852">
        <ele>374</ele>
        <time>2015-03-28T15:45:47Z</time>
      </trkpt>
      <trkpt lat="49.98132" lon="5.26849">
        <ele>375</ele>
        <time>2015-03-28T15:45:53Z</time>
      </trkpt>
      <trkpt lat="49.98133" lon="5.2685">
        <ele>375</ele>
        <time>2015-03-28T15:45:58Z</time>
      </trkpt>
      <trkpt lat="49.98131" lon="5.26851">
        <ele>375</ele>
        <time>2015-03-28T15:46:03Z</time>
      </trkpt>
      <trkpt lat="49.98131" lon="5.26851">
        <ele>375</ele>
        <time>2015-03-28T15:46:09Z</time>
      </trkpt>
      <trkpt lat="49.98129" lon="5.26853">
        <ele>374</ele>
        <time>2015-03-28T15:46:14Z</time>
      </trkpt>
      <trkpt lat="49.98127" lon="5.26855">
        <ele>374</ele>
        <time>2015-03-28T15:46:19Z</time>
      </trkpt>
      <trkpt lat="49.98128" lon="5.26854">
        <ele>375</ele>
        <time>2015-03-28T15:46:25Z</time>
      </trkpt>
      <trkpt lat="49.98129" lon="5.26853">
        <ele>375</ele>
        <time>2015-03-28T15:46:31Z</time>
      </trkpt>
      <trkpt lat="49.98128" lon="5.26854">
        <ele>375</ele>
        <time>2015-03-28T15:46:37Z</time>
      </trkpt>
      <trkpt lat="49.98129" lon="5.2686">
        <ele>375</ele>
        <time>2015-03-28T15:46:43Z</time>
      </trkpt>
      <trkpt lat="49.98128" lon="5.26862">
        <ele>374</ele>
        <time>2015-03-28T15:46:48Z</time>
      </trkpt>
      <trkpt lat="49.98129" lon="5.2686">
        <ele>375</ele>
        <time>2015-03-28T15:46:53Z</time>
      </trkpt>
      <trkpt lat="49.98132" lon="5.2686">
        <ele>375</ele>
        <time>2015-03-28T15:46:59Z</time>
      </trkpt>
      <trkpt lat="49.98133" lon="5.26861">
        <ele>375</ele>
        <time>2015-03-28T15:47:05Z</time>
      </trkpt>
      <trkpt lat="49.9813" lon="5.26859">
        <ele>375</ele>
        <time>2015-03-28T15:47:11Z</time>
      </trkpt>
      <trkpt lat="49.98127" lon="5.26855">
        <ele>375</ele>
        <time>2015-03-28T15:47:17Z</time>
      </trkpt>
      <trkpt lat="49.98129" lon="5.26856">
        <ele>375</ele>
        <time>2015-03-28T15:47:23Z</time>
      </trkpt>
      <trkpt lat="49.98131" lon="5.26856">
        <ele>375</ele>
        <time>2015-03-28T15:47:28Z</time>
      </trkpt>
      <trkpt lat="49.98127" lon="5.26845">
        <ele>375</ele>
        <time>2015-03-28T15:47:33Z</time>
      </trkpt>
      <trkpt lat="49.98124" lon="5.26837">
        <ele>375</ele>
        <time>2015-03-28T15:47:38Z</time>
      </trkpt>
      <trkpt lat="49.98121" lon="5.26834">
        <ele>375</ele>
        <time>2015-03-28T15:47:44Z</time>
      </trkpt>
      <trkpt lat="49.98122" lon="5.26836">
        <ele>375</ele>
        <time>2015-03-28T15:47:50Z</time>
      </trkpt>
      <trkpt lat="49.98123" lon="5.2684">
        <ele>374</ele>
        <time>2015-03-28T15:47:56Z</time>
      </trkpt>
      <trkpt lat="49.98124" lon="5.26841">
        <ele>375</ele>
        <time>2015-03-28T15:48:02Z</time>
      </trkpt>
      <trkpt lat="49.98126" lon="5.26844">
        <ele>375</ele>
        <time>2015-03-28T15:48:08Z</time>
      </trkpt>
      <trkpt lat="49.98131" lon="5.26852">
        <ele>375</ele>
        <time>2015-03-28T15:48:14Z</time>
      </trkpt>
      <trkpt lat="49.98132" lon="5.26854">
        <ele>375</ele>
        <time>2015-03-28T15:48:19Z</time>
      </trkpt>
      <trkpt lat="49.98132" lon="5.26856">
        <ele>375</ele>
        <time>2015-03-28T15:48:24Z</time>
      </trkpt>
      <trkpt lat="49.98129" lon="5.26849">
        <ele>375</ele>
        <time>2015-03-28T15:48:30Z</time>
      </trkpt>
      <trkpt lat="49.98125" lon="5.26845">
        <ele>374</ele>
        <time>2015-03-28T15:48:35Z</time>
      </trkpt>
      <trkpt lat="49.9812" lon="5.26836">
        <ele>375</ele>
        <time>2015-03-28T15:48:41Z</time>
      </trkpt>
      <trkpt lat="49.9812" lon="5.26837">
        <ele>375</ele>
        <time>2015-03-28T15:48:47Z</time>
      </trkpt>
      <trkpt lat="49.98118" lon="5.26834">
        <ele>374</ele>
        <time>2015-03-28T15:48:53Z</time>
      </trkpt>
      <trkpt lat="49.98121" lon="5.26838">
        <ele>375</ele>
        <time>2015-03-28T15:48:58Z</time>
      </trkpt>
      <trkpt lat="49.98127" lon="5.2685">
        <ele>375</ele>
        <time>2015-03-28T15:49:04Z</time>
      </trkpt>
      <trkpt lat="49.98132" lon="5.26857">
        <ele>375</ele>
        <time>2015-03-28T15:49:10Z</time>
      </trkpt>
      <trkpt lat="49.98138" lon="5.26867">
        <ele>375</ele>
        <time>2015-03-28T15:49:15Z</time>
      </trkpt>
      <trkpt lat="49.98137" lon="5.26865">
        <ele>375</ele>
        <time>2015-03-28T15:49:21Z</time>
      </trkpt>
      <trkpt lat="49.98136" lon="5.26861">
        <ele>375</ele>
        <time>2015-03-28T15:49:26Z</time>
      </trkpt>
      <trkpt lat="49.98134" lon="5.26855">
        <ele>375</ele>
        <time>2015-03-28T15:49:31Z</time>
      </trkpt>
      <trkpt lat="49.98132" lon="5.26849">
        <ele>375</ele>
        <time>2015-03-28T15:49:37Z</time>
      </trkpt>
      <trkpt lat="49.9813" lon="5.26844">
        <ele>375</ele>
        <time>2015-03-28T15:49:42Z</time>
      </trkpt>
      <trkpt lat="49.98127" lon="5.26835">
        <ele>375</ele>
        <time>2015-03-28T15:49:48Z</time>
      </trkpt>
      <trkpt lat="49.98124" lon="5.26832">
        <ele>375</ele>
        <time>2015-03-28T15:49:54Z</time>
      </trkpt>
      <trkpt lat="49.98125" lon="5.26838">
        <ele>375</ele>
        <time>2015-03-28T15:50:00Z</time>
      </trkpt>
      <trkpt lat="49.98128" lon="5.26834">
        <ele>374</ele>
        <time>2015-03-28T15:50:06Z</time>
      </trkpt>
      <trkpt lat="49.98127" lon="5.26837">
        <ele>375</ele>
        <time>2015-03-28T15:50:11Z</time>
      </trkpt>
      <trkpt lat="49.98131" lon="5.2684">
        <ele>374</ele>
        <time>2015-03-28T15:50:16Z</time>
      </trkpt>
      <trkpt lat="49.98134" lon="5.26843">
        <ele>374</ele>
        <time>2015-03-28T15:50:21Z</time>
      </trkpt>
      <trkpt lat="49.98135" lon="5.26844">
        <ele>374</ele>
        <time>2015-03-28T15:50:27Z</time>
      </trkpt>
      <trkpt lat="49.98135" lon="5.26844">
        <ele>374</ele>
        <time>2015-03-28T15:50:32Z</time>
      </trkpt>
      <trkpt lat="49.98134" lon="5.26841">
        <ele>374</ele>
        <time>2015-03-28T15:50:37Z</time>
      </trkpt>
      <trkpt lat="49.98135" lon="5.26842">
        <ele>374</ele>
        <time>2015-03-28T15:50:43Z</time>
      </trkpt>
      <trkpt lat="49.98135" lon="5.26843">
        <ele>374</ele>
        <time>2015-03-28T15:50:48Z</time>
      </trkpt>
      <trkpt lat="49.98135" lon="5.26838">
        <ele>375</ele>
        <time>2015-03-28T15:50:54Z</time>
      </trkpt>
      <trkpt lat="49.98134" lon="5.26831">
        <ele>375</ele>
        <time>2015-03-28T15:51:00Z</time>
      </trkpt>
      <trkpt lat="49.98133" lon="5.26837">
        <ele>375</ele>
        <time>2015-03-28T15:51:06Z</time>
      </trkpt>
      <trkpt lat="49.98132" lon="5.26836">
        <ele>375</ele>
        <time>2015-03-28T15:51:12Z</time>
      </trkpt>
      <trkpt lat="49.98132" lon="5.26836">
        <ele>375</ele>
        <time>2015-03-28T15:51:17Z</time>
      </trkpt>
      <trkpt lat="49.98133" lon="5.26837">
        <ele>375</ele>
        <time>2015-03-28T15:51:23Z</time>
      </trkpt>
      <trkpt lat="49.98133" lon="5.26835">
        <ele>375</ele>
        <time>2015-03-28T15:51:28Z</time>
      </trkpt>
      <trkpt lat="49.98132" lon="5.26836">
        <ele>375</ele>
        <time>2015-03-28T15:51:34Z</time>
      </trkpt>
      <trkpt lat="49.98132" lon="5.26835">
        <ele>374</ele>
        <time>2015-03-28T15:51:41Z</time>
      </trkpt>
      <trkpt lat="49.98132" lon="5.26836">
        <ele>374</ele>
        <time>2015-03-28T15:51:46Z</time>
      </trkpt>
      <trkpt lat="49.98132" lon="5.26841">
        <ele>374</ele>
        <time>2015-03-28T15:51:51Z</time>
      </trkpt>
      <trkpt lat="49.9813" lon="5.26848">
        <ele>375</ele>
        <time>2015-03-28T15:51:56Z</time>
      </trkpt>
      <trkpt lat="49.98129" lon="5.26854">
        <ele>375</ele>
        <time>2015-03-28T15:52:02Z</time>
      </trkpt>
      <trkpt lat="49.98129" lon="5.26854">
        <ele>375</ele>
        <time>2015-03-28T15:52:08Z</time>
      </trkpt>
      <trkpt lat="49.98127" lon="5.26857">
        <ele>375</ele>
        <time>2015-03-28T15:52:13Z</time>
      </trkpt>
      <trkpt lat="49.98125" lon="5.26858">
        <ele>375</ele>
        <time>2015-03-28T15:52:18Z</time>
      </trkpt>
      <trkpt lat="49.98126" lon="5.26854">
        <ele>374</ele>
        <time>2015-03-28T15:52:23Z</time>
      </trkpt>
      <trkpt lat="49.98128" lon="5.26855">
        <ele>374</ele>
        <time>2015-03-28T15:52:28Z</time>
      </trkpt>
      <trkpt lat="49.98128" lon="5.26855">
        <ele>374</ele>
        <time>2015-03-28T15:52:34Z</time>
      </trkpt>
      <trkpt lat="49.98125" lon="5.26856">
        <ele>374</ele>
        <time>2015-03-28T15:52:39Z</time>
      </trkpt>
      <trkpt lat="49.98124" lon="5.2686">
        <ele>374</ele>
        <time>2015-03-28T15:52:44Z</time>
      </trkpt>
      <trkpt lat="49.98124" lon="5.26861">
        <ele>375</ele>
        <time>2015-03-28T15:52:49Z</time>
      </trkpt>
      <trkpt lat="49.98125" lon="5.26866">
        <ele>374</ele>
        <time>2015-03-28T15:52:55Z</time>
      </trkpt>
      <trkpt lat="49.98126" lon="5.26867">
        <ele>374</ele>
        <time>2015-03-28T15:53:00Z</time>
      </trkpt>
      <trkpt lat="49.98124" lon="5.26862">
        <ele>375</ele>
        <time>2015-03-28T15:53:06Z</time>
      </trkpt>
      <trkpt lat="49.98124" lon="5.2686">
        <ele>375</ele>
        <time>2015-03-28T15:53:12Z</time>
      </trkpt>
      <trkpt lat="49.98124" lon="5.26857">
        <ele>375</ele>
        <time>2015-03-28T15:53:17Z</time>
      </trkpt>
      <trkpt lat="49.98126" lon="5.26855">
        <ele>375</ele>
        <time>2015-03-28T15:53:22Z</time>
      </trkpt>
      <trkpt lat="49.98129" lon="5.26859">
        <ele>375</ele>
        <time>2015-03-28T15:53:28Z</time>
      </trkpt>
      <trkpt lat="49.98128" lon="5.26856">
        <ele>375</ele>
        <time>2015-03-28T15:53:33Z</time>
      </trkpt>
      <trkpt lat="49.98129" lon="5.26855">
        <ele>374</ele>
        <time>2015-03-28T15:53:38Z</time>
      </trkpt>
      <trkpt lat="49.98133" lon="5.26858">
        <ele>374</ele>
        <time>2015-03-28T15:53:44Z</time>
      </trkpt>
      <trkpt lat="49.98137" lon="5.26866">
        <ele>375</ele>
        <time>2015-03-28T15:53:49Z</time>
      </trkpt>
      <trkpt lat="49.9814" lon="5.26878">
        <ele>375</ele>
        <time>2015-03-28T15:53:55Z</time>
      </trkpt>
      <trkpt lat="49.98142" lon="5.26882">
        <ele>375</ele>
        <time>2015-03-28T15:54:01Z</time>
      </trkpt>
      <trkpt lat="49.98141" lon="5.26881">
        <ele>374</ele>
        <time>2015-03-28T15:54:07Z</time>
      </trkpt>
      <trkpt lat="49.9814" lon="5.26877">
        <ele>375</ele>
        <time>2015-03-28T15:54:12Z</time>
      </trkpt>
      <trkpt lat="49.9814" lon="5.26873">
        <ele>375</ele>
        <time>2015-03-28T15:54:18Z</time>
      </trkpt>
      <trkpt lat="49.98138" lon="5.26869">
        <ele>375</ele>
        <time>2015-03-28T15:54:23Z</time>
      </trkpt>
      <trkpt lat="49.98134" lon="5.26857">
        <ele>375</ele>
        <time>2015-03-28T15:54:29Z</time>
      </trkpt>
      <trkpt lat="49.98127" lon="5.26847">
        <ele>375</ele>
        <time>2015-03-28T15:54:35Z</time>
      </trkpt>
      <trkpt lat="49.9813" lon="5.26844">
        <ele>374</ele>
        <time>2015-03-28T15:57:42Z</time>
      </trkpt>
      <trkpt lat="49.98129" lon="5.26835">
        <ele>374</ele>
        <time>2015-03-28T15:57:47Z</time>
      </trkpt>
      <trkpt lat="49.98138" lon="5.26863">
        <ele>374</ele>
        <time>2015-03-28T15:58:03Z</time>
      </trkpt>
      <trkpt lat="49.98138" lon="5.26858">
        <ele>374</ele>
        <time>2015-03-28T15:58:08Z</time>
      </trkpt>
      <trkpt lat="49.98136" lon="5.26853">
        <ele>374</ele>
        <time>2015-03-28T15:58:14Z</time>
      </trkpt>
      <trkpt lat="49.98137" lon="5.26864">
        <ele>374</ele>
        <time>2015-03-28T15:58:36Z</time>
      </trkpt>
      <trkpt lat="49.98137" lon="5.26868">
        <ele>374</ele>
        <time>2015-03-28T15:58:42Z</time>
      </trkpt>
      <trkpt lat="49.9814" lon="5.26873">
        <ele>374</ele>
        <time>2015-03-28T15:58:48Z</time>
      </trkpt>
      <trkpt lat="49.9815" lon="5.26894">
        <ele>374</ele>
        <time>2015-03-28T15:58:53Z</time>
      </trkpt>
      <trkpt lat="49.98162" lon="5.26925">
        <ele>373</ele>
        <time>2015-03-28T15:58:58Z</time>
      </trkpt>
      <trkpt lat="49.98159" lon="5.26934">
        <ele>374</ele>
        <time>2015-03-28T15:59:12Z</time>
      </trkpt>
      <trkpt lat="49.98156" lon="5.26923">
        <ele>374</ele>
        <time>2015-03-28T15:59:17Z</time>
      </trkpt>
      <trkpt lat="49.9814" lon="5.26892">
        <ele>374</ele>
        <time>2015-03-28T15:59:30Z</time>
      </trkpt>
      <trkpt lat="49.98136" lon="5.26875">
        <ele>373</ele>
        <time>2015-03-28T15:59:35Z</time>
      </trkpt>
      <trkpt lat="49.98133" lon="5.26862">
        <ele>374</ele>
        <time>2015-03-28T15:59:41Z</time>
      </trkpt>
      <trkpt lat="49.98126" lon="5.26846">
        <ele>373</ele>
        <time>2015-03-28T15:59:47Z</time>
      </trkpt>
      <trkpt lat="49.98123" lon="5.26833">
        <ele>374</ele>
        <time>2015-03-28T15:59:53Z</time>
      </trkpt>
      <trkpt lat="49.98125" lon="5.26833">
        <ele>374</ele>
        <time>2015-03-28T15:59:58Z</time>
      </trkpt>
      <trkpt lat="49.98123" lon="5.26831">
        <ele>374</ele>
        <time>2015-03-28T16:00:04Z</time>
      </trkpt>
      <trkpt lat="49.9812" lon="5.26826">
        <ele>373</ele>
        <time>2015-03-28T16:00:10Z</time>
      </trkpt>
      <trkpt lat="49.98126" lon="5.26831">
        <ele>374</ele>
        <time>2015-03-28T16:00:16Z</time>
      </trkpt>
      <trkpt lat="49.98129" lon="5.26838">
        <ele>374</ele>
        <time>2015-03-28T16:00:22Z</time>
      </trkpt>
      <trkpt lat="49.98129" lon="5.26839">
        <ele>374</ele>
        <time>2015-03-28T16:00:28Z</time>
      </trkpt>
      <trkpt lat="49.9813" lon="5.26843">
        <ele>374</ele>
        <time>2015-03-28T16:00:33Z</time>
      </trkpt>
      <trkpt lat="49.98136" lon="5.26856">
        <ele>374</ele>
        <time>2015-03-28T16:00:38Z</time>
      </trkpt>
      <trkpt lat="49.98137" lon="5.26872">
        <ele>374</ele>
        <time>2015-03-28T16:00:44Z</time>
      </trkpt>
      <trkpt lat="49.98135" lon="5.26875">
        <ele>374</ele>
        <time>2015-03-28T16:00:50Z</time>
      </trkpt>
      <trkpt lat="49.98133" lon="5.26862">
        <ele>374</ele>
        <time>2015-03-28T16:00:55Z</time>
      </trkpt>
      <trkpt lat="49.98132" lon="5.26854">
        <ele>374</ele>
        <time>2015-03-28T16:01:00Z</time>
      </trkpt>
      <trkpt lat="49.98129" lon="5.26842">
        <ele>374</ele>
        <time>2015-03-28T16:01:06Z</time>
      </trkpt>
      <trkpt lat="49.98129" lon="5.26841">
        <ele>374</ele>
        <time>2015-03-28T16:01:12Z</time>
      </trkpt>
      <trkpt lat="49.9813" lon="5.26847">
        <ele>373</ele>
        <time>2015-03-28T16:01:17Z</time>
      </trkpt>
      <trkpt lat="49.98127" lon="5.26844">
        <ele>374</ele>
        <time>2015-03-28T16:01:23Z</time>
      </trkpt>
      <trkpt lat="49.98125" lon="5.26831">
        <ele>374</ele>
        <time>2015-03-28T16:01:29Z</time>
      </trkpt>
      <trkpt lat="49.98128" lon="5.26828">
        <ele>373</ele>
        <time>2015-03-28T16:01:34Z</time>
      </trkpt>
      <trkpt lat="49.98133" lon="5.26832">
        <ele>373</ele>
        <time>2015-03-28T16:01:39Z</time>
      </trkpt>
      <trkpt lat="49.98135" lon="5.26836">
        <ele>374</ele>
        <time>2015-03-28T16:01:44Z</time>
      </trkpt>
      <trkpt lat="49.98137" lon="5.26832">
        <ele>373</ele>
        <time>2015-03-28T16:01:50Z</time>
      </trkpt>
      <trkpt lat="49.98138" lon="5.26836">
        <ele>373</ele>
        <time>2015-03-28T16:01:55Z</time>
      </trkpt>
      <trkpt lat="49.98137" lon="5.26839">
        <ele>373</ele>
        <time>2015-03-28T16:02:01Z</time>
      </trkpt>
      <trkpt lat="49.98136" lon="5.26841">
        <ele>373</ele>
        <time>2015-03-28T16:02:06Z</time>
      </trkpt>
      <trkpt lat="49.98135" lon="5.26839">
        <ele>373</ele>
        <time>2015-03-28T16:02:12Z</time>
      </trkpt>
      <trkpt lat="49.98136" lon="5.2684">
        <ele>373</ele>
        <time>2015-03-28T16:02:17Z</time>
      </trkpt>
      <trkpt lat="49.98138" lon="5.26838">
        <ele>374</ele>
        <time>2015-03-28T16:02:22Z</time>
      </trkpt>
      <trkpt lat="49.98138" lon="5.26832">
        <ele>374</ele>
        <time>2015-03-28T16:02:27Z</time>
      </trkpt>
      <trkpt lat="49.98132" lon="5.2684">
        <ele>374</ele>
        <time>2015-03-28T16:02:34Z</time>
      </trkpt>
      <trkpt lat="49.98129" lon="5.26824">
        <ele>373</ele>
        <time>2015-03-28T16:02:46Z</time>
      </trkpt>
      <trkpt lat="49.98135" lon="5.26838">
        <ele>373</ele>
        <time>2015-03-28T16:03:09Z</time>
      </trkpt>
      <trkpt lat="49.98135" lon="5.2684">
        <ele>373</ele>
        <time>2015-03-28T16:03:14Z</time>
      </trkpt>
      <trkpt lat="49.98137" lon="5.2684">
        <ele>373</ele>
        <time>2015-03-28T16:03:19Z</time>
      </trkpt>
      <trkpt lat="49.98137" lon="5.26833">
        <ele>373</ele>
        <time>2015-03-28T16:03:25Z</time>
      </trkpt>
      <trkpt lat="49.98135" lon="5.2683">
        <ele>373</ele>
        <time>2015-03-28T16:03:31Z</time>
      </trkpt>
      <trkpt lat="49.98136" lon="5.26833">
        <ele>374</ele>
        <time>2015-03-28T16:03:36Z</time>
      </trkpt>
      <trkpt lat="49.98136" lon="5.26835">
        <ele>374</ele>
        <time>2015-03-28T16:03:42Z</time>
      </trkpt>
      <trkpt lat="49.98133" lon="5.26839">
        <ele>373</ele>
        <time>2015-03-28T16:03:48Z</time>
      </trkpt>
      <trkpt lat="49.98131" lon="5.26842">
        <ele>373</ele>
        <time>2015-03-28T16:03:54Z</time>
      </trkpt>
      <trkpt lat="49.9813" lon="5.26843">
        <ele>373</ele>
        <time>2015-03-28T16:03:59Z</time>
      </trkpt>
      <trkpt lat="49.98132" lon="5.26843">
        <ele>374</ele>
        <time>2015-03-28T16:04:05Z</time>
      </trkpt>
      <trkpt lat="49.98137" lon="5.26847">
        <ele>373</ele>
        <time>2015-03-28T16:04:11Z</time>
      </trkpt>
      <trkpt lat="49.98139" lon="5.26851">
        <ele>373</ele>
        <time>2015-03-28T16:04:16Z</time>
      </trkpt>
      <trkpt lat="49.98139" lon="5.26847">
        <ele>374</ele>
        <time>2015-03-28T16:04:22Z</time>
      </trkpt>
      <trkpt lat="49.98137" lon="5.26845">
        <ele>374</ele>
        <time>2015-03-28T16:04:27Z</time>
      </trkpt>
      <trkpt lat="49.98129" lon="5.26852">
        <ele>374</ele>
        <time>2015-03-28T16:04:32Z</time>
      </trkpt>
      <trkpt lat="49.9812" lon="5.26855">
        <ele>373</ele>
        <time>2015-03-28T16:04:38Z</time>
      </trkpt>
      <trkpt lat="49.98121" lon="5.26853">
        <ele>374</ele>
        <time>2015-03-28T16:04:43Z</time>
      </trkpt>
      <trkpt lat="49.98122" lon="5.26855">
        <ele>374</ele>
        <time>2015-03-28T16:04:48Z</time>
      </trkpt>
      <trkpt lat="49.98123" lon="5.26853">
        <ele>374</ele>
        <time>2015-03-28T16:04:53Z</time>
      </trkpt>
      <trkpt lat="49.98124" lon="5.26855">
        <ele>374</ele>
        <time>2015-03-28T16:04:59Z</time>
      </trkpt>
      <trkpt lat="49.98123" lon="5.26846">
        <ele>374</ele>
        <time>2015-03-28T16:06:16Z</time>
      </trkpt>
      <trkpt lat="49.98123" lon="5.26834">
        <ele>374</ele>
        <time>2015-03-28T16:06:21Z</time>
      </trkpt>
      <trkpt lat="49.98128" lon="5.26852">
        <ele>374</ele>
        <time>2015-03-28T16:06:27Z</time>
      </trkpt>
      <trkpt lat="49.98134" lon="5.26877">
        <ele>374</ele>
        <time>2015-03-28T16:06:33Z</time>
      </trkpt>
      <trkpt lat="49.98138" lon="5.26882">
        <ele>374</ele>
        <time>2015-03-28T16:06:38Z</time>
      </trkpt>
      <trkpt lat="49.98137" lon="5.26862">
        <ele>374</ele>
        <time>2015-03-28T16:06:44Z</time>
      </trkpt>
      <trkpt lat="49.98137" lon="5.26858">
        <ele>374</ele>
        <time>2015-03-28T16:06:49Z</time>
      </trkpt>
      <trkpt lat="49.98138" lon="5.2686">
        <ele>374</ele>
        <time>2015-03-28T16:06:55Z</time>
      </trkpt>
      <trkpt lat="49.98142" lon="5.26866">
        <ele>374</ele>
        <time>2015-03-28T16:07:01Z</time>
      </trkpt>
      <trkpt lat="49.98147" lon="5.26886">
        <ele>375</ele>
        <time>2015-03-28T16:07:06Z</time>
      </trkpt>
      <trkpt lat="49.98151" lon="5.26903">
        <ele>374</ele>
        <time>2015-03-28T16:07:11Z</time>
      </trkpt>
      <trkpt lat="49.98155" lon="5.2692">
        <ele>375</ele>
        <time>2015-03-28T16:07:17Z</time>
      </trkpt>
      <trkpt lat="49.98118" lon="5.26811">
        <ele>376</ele>
        <time>2015-03-28T16:09:49Z</time>
      </trkpt>
      <trkpt lat="49.98135" lon="5.26829">
        <ele>376</ele>
        <time>2015-03-28T16:09:54Z</time>
      </trkpt>
      <trkpt lat="49.98132" lon="5.2682">
        <ele>376</ele>
        <time>2015-03-28T16:10:00Z</time>
      </trkpt>
      <trkpt lat="49.98129" lon="5.26812">
        <ele>376</ele>
        <time>2015-03-28T16:10:05Z</time>
      </trkpt>
      <trkpt lat="49.98126" lon="5.26807">
        <ele>376</ele>
        <time>2015-03-28T16:10:11Z</time>
      </trkpt>
      <trkpt lat="49.98109" lon="5.26869">
        <ele>376</ele>
        <time>2015-03-28T16:11:21Z</time>
      </trkpt>
      <trkpt lat="49.98113" lon="5.26841">
        <ele>376</ele>
        <time>2015-03-28T16:11:26Z</time>
      </trkpt>
      <trkpt lat="49.98109" lon="5.26849">
        <ele>377</ele>
        <time>2015-03-28T16:11:32Z</time>
      </trkpt>
      <trkpt lat="49.98103" lon="5.26869">
        <ele>376</ele>
        <time>2015-03-28T16:11:37Z</time>
      </trkpt>
      <trkpt lat="49.98104" lon="5.26879">
        <ele>376</ele>
        <time>2015-03-28T16:11:43Z</time>
      </trkpt>
      <trkpt lat="49.98115" lon="5.26866">
        <ele>377</ele>
        <time>2015-03-28T16:11:48Z</time>
      </trkpt>
      <trkpt lat="49.98125" lon="5.26848">
        <ele>377</ele>
        <time>2015-03-28T16:11:54Z</time>
      </trkpt>
      <trkpt lat="49.9813" lon="5.26837">
        <ele>377</ele>
        <time>2015-03-28T16:12:00Z</time>
      </trkpt>
      <trkpt lat="49.98132" lon="5.26831">
        <ele>377</ele>
        <time>2015-03-28T16:12:06Z</time>
      </trkpt>
      <trkpt lat="49.98136" lon="5.26829">
        <ele>378</ele>
        <time>2015-03-28T16:12:11Z</time>
      </trkpt>
      <trkpt lat="49.98135" lon="5.26833">
        <ele>377</ele>
        <time>2015-03-28T16:12:17Z</time>
      </trkpt>
      <trkpt lat="49.98133" lon="5.26836">
        <ele>377</ele>
        <time>2015-03-28T16:12:23Z</time>
      </trkpt>
      <trkpt lat="49.98131" lon="5.26838">
        <ele>378</ele>
        <time>2015-03-28T16:12:29Z</time>
      </trkpt>
      <trkpt lat="49.9813" lon="5.2684">
        <ele>378</ele>
        <time>2015-03-28T16:12:34Z</time>
      </trkpt>
      <trkpt lat="49.98127" lon="5.26843">
        <ele>378</ele>
        <time>2015-03-28T16:12:40Z</time>
      </trkpt>
      <trkpt lat="49.98126" lon="5.26847">
        <ele>378</ele>
        <time>2015-03-28T16:12:45Z</time>
      </trkpt>
      <trkpt lat="49.98126" lon="5.2685">
        <ele>378</ele>
        <time>2015-03-28T16:12:50Z</time>
      </trkpt>
      <trkpt lat="49.98125" lon="5.26851">
        <ele>378</ele>
        <time>2015-03-28T16:12:55Z</time>
      </trkpt>
      <trkpt lat="49.98125" lon="5.26854">
        <ele>378</ele>
        <time>2015-03-28T16:13:01Z</time>
      </trkpt>
      <trkpt lat="49.98125" lon="5.26854">
        <ele>378</ele>
        <time>2015-03-28T16:13:06Z</time>
      </trkpt>
      <trkpt lat="49.98126" lon="5.26855">
        <ele>378</ele>
        <time>2015-03-28T16:13:11Z</time>
      </trkpt>
      <trkpt lat="49.98129" lon="5.26852">
        <ele>378</ele>
        <time>2015-03-28T16:13:19Z</time>
      </trkpt>
      <trkpt lat="49.9813" lon="5.26851">
        <ele>378</ele>
        <time>2015-03-28T16:13:24Z</time>
      </trkpt>
      <trkpt lat="49.9813" lon="5.26849">
        <ele>378</ele>
        <time>2015-03-28T16:13:29Z</time>
      </trkpt>
      <trkpt lat="49.98132" lon="5.26848">
        <ele>378</ele>
        <time>2015-03-28T16:13:34Z</time>
      </trkpt>
      <trkpt lat="49.98132" lon="5.26844">
        <ele>378</ele>
        <time>2015-03-28T16:13:40Z</time>
      </trkpt>
      <trkpt lat="49.98133" lon="5.26847">
        <ele>378</ele>
        <time>2015-03-28T16:13:46Z</time>
      </trkpt>
      <trkpt lat="49.98134" lon="5.26844">
        <ele>378</ele>
        <time>2015-03-28T16:13:51Z</time>
      </trkpt>
      <trkpt lat="49.98134" lon="5.26845">
        <ele>378</ele>
        <time>2015-03-28T16:13:56Z</time>
      </trkpt>
      <trkpt lat="49.98134" lon="5.26844">
        <ele>378</ele>
        <time>2015-03-28T16:14:01Z</time>
      </trkpt>
      <trkpt lat="49.98134" lon="5.26843">
        <ele>378</ele>
        <time>2015-03-28T16:14:06Z</time>
      </trkpt>
      <trkpt lat="49.98134" lon="5.26839">
        <ele>377</ele>
        <time>2015-03-28T16:14:12Z</time>
      </trkpt>
      <trkpt lat="49.98133" lon="5.26838">
        <ele>378</ele>
        <time>2015-03-28T16:14:17Z</time>
      </trkpt>
      <trkpt lat="49.98134" lon="5.26834">
        <ele>378</ele>
        <time>2015-03-28T16:14:22Z</time>
      </trkpt>
      <trkpt lat="49.98133" lon="5.26831">
        <ele>378</ele>
        <time>2015-03-28T16:14:27Z</time>
      </trkpt>
      <trkpt lat="49.98132" lon="5.26831">
        <ele>378</ele>
        <time>2015-03-28T16:14:32Z</time>
      </trkpt>
      <trkpt lat="49.98131" lon="5.26831">
        <ele>378</ele>
        <time>2015-03-28T16:14:37Z</time>
      </trkpt>
      <trkpt lat="49.98131" lon="5.26826">
        <ele>378</ele>
        <time>2015-03-28T16:14:42Z</time>
      </trkpt>
      <trkpt lat="49.9813" lon="5.26826">
        <ele>377</ele>
        <time>2015-03-28T16:14:49Z</time>
      </trkpt>
      <trkpt lat="49.98131" lon="5.26826">
        <ele>377</ele>
        <time>2015-03-28T16:14:54Z</time>
      </trkpt>
      <trkpt lat="49.9813" lon="5.26827">
        <ele>377</ele>
        <time>2015-03-28T16:15:01Z</time>
      </trkpt>
      <trkpt lat="49.98131" lon="5.26833">
        <ele>377</ele>
        <time>2015-03-28T16:15:07Z</time>
      </trkpt>
      <trkpt lat="49.98133" lon="5.26833">
        <ele>377</ele>
        <time>2015-03-28T16:15:13Z</time>
      </trkpt>
      <trkpt lat="49.98134" lon="5.26837">
        <ele>378</ele>
        <time>2015-03-28T16:15:18Z</time>
      </trkpt>
      <trkpt lat="49.98135" lon="5.26843">
        <ele>377</ele>
        <time>2015-03-28T16:15:24Z</time>
      </trkpt>
      <trkpt lat="49.98135" lon="5.26842">
        <ele>377</ele>
        <time>2015-03-28T16:15:29Z</time>
      </trkpt>
      <trkpt lat="49.98135" lon="5.26842">
        <ele>378</ele>
        <time>2015-03-28T16:15:34Z</time>
      </trkpt>
      <trkpt lat="49.98135" lon="5.26845">
        <ele>378</ele>
        <time>2015-03-28T16:15:40Z</time>
      </trkpt>
      <trkpt lat="49.98135" lon="5.26848">
        <ele>378</ele>
        <time>2015-03-28T16:15:45Z</time>
      </trkpt>
      <trkpt lat="49.98135" lon="5.26854">
        <ele>378</ele>
        <time>2015-03-28T16:15:50Z</time>
      </trkpt>
      <trkpt lat="49.98134" lon="5.26856">
        <ele>378</ele>
        <time>2015-03-28T16:15:55Z</time>
      </trkpt>
      <trkpt lat="49.98133" lon="5.2685">
        <ele>378</ele>
        <time>2015-03-28T16:16:01Z</time>
      </trkpt>
      <trkpt lat="49.98133" lon="5.26841">
        <ele>378</ele>
        <time>2015-03-28T16:16:07Z</time>
      </trkpt>
      <trkpt lat="49.98133" lon="5.26835">
        <ele>378</ele>
        <time>2015-03-28T16:16:12Z</time>
      </trkpt>
      <trkpt lat="49.98134" lon="5.26832">
        <ele>378</ele>
        <time>2015-03-28T16:16:17Z</time>
      </trkpt>
      <trkpt lat="49.98136" lon="5.26827">
        <ele>378</ele>
        <time>2015-03-28T16:16:23Z</time>
      </trkpt>
      <trkpt lat="49.98137" lon="5.26828">
        <ele>378</ele>
        <time>2015-03-28T16:16:29Z</time>
      </trkpt>
      <trkpt lat="49.98139" lon="5.26832">
        <ele>378</ele>
        <time>2015-03-28T16:16:34Z</time>
      </trkpt>
      <trkpt lat="49.9814" lon="5.26837">
        <ele>378</ele>
        <time>2015-03-28T16:16:40Z</time>
      </trkpt>
      <trkpt lat="49.98159" lon="5.26842">
        <ele>378</ele>
        <time>2015-03-28T16:17:52Z</time>
      </trkpt>
      <trkpt lat="49.98158" lon="5.26837">
        <ele>378</ele>
        <time>2015-03-28T16:17:57Z</time>
      </trkpt>
      <trkpt lat="49.98159" lon="5.26849">
        <ele>378</ele>
        <time>2015-03-28T16:18:03Z</time>
      </trkpt>
      <trkpt lat="49.98152" lon="5.26854">
        <ele>378</ele>
        <time>2015-03-28T16:18:09Z</time>
      </trkpt>
      <trkpt lat="49.98156" lon="5.26859">
        <ele>378</ele>
        <time>2015-03-28T16:18:15Z</time>
      </trkpt>
      <trkpt lat="49.98157" lon="5.26854">
        <ele>378</ele>
        <time>2015-03-28T16:18:20Z</time>
      </trkpt>
      <trkpt lat="49.98155" lon="5.26845">
        <ele>378</ele>
        <time>2015-03-28T16:18:25Z</time>
      </trkpt>
      <trkpt lat="49.98155" lon="5.26852">
        <ele>378</ele>
        <time>2015-03-28T16:18:30Z</time>
      </trkpt>
      <trkpt lat="49.98158" lon="5.26862">
        <ele>378</ele>
        <time>2015-03-28T16:18:35Z</time>
      </trkpt>
      <trkpt lat="49.98162" lon="5.26881">
        <ele>378</ele>
        <time>2015-03-28T16:18:41Z</time>
      </trkpt>
      <trkpt lat="49.98129" lon="5.26748">
        <ele>378</ele>
        <time>2015-03-28T16:19:15Z</time>
      </trkpt>
      <trkpt lat="49.98133" lon="5.26779">
        <ele>378</ele>
        <time>2015-03-28T16:19:20Z</time>
      </trkpt>
      <trkpt lat="49.98137" lon="5.26799">
        <ele>378</ele>
        <time>2015-03-28T16:19:25Z</time>
      </trkpt>
      <trkpt lat="49.98138" lon="5.26813">
        <ele>378</ele>
        <time>2015-03-28T16:19:31Z</time>
      </trkpt>
      <trkpt lat="49.98136" lon="5.26815">
        <ele>378</ele>
        <time>2015-03-28T16:19:36Z</time>
      </trkpt>
      <trkpt lat="49.98135" lon="5.2682">
        <ele>378</ele>
        <time>2015-03-28T16:19:41Z</time>
      </trkpt>
      <trkpt lat="49.98135" lon="5.26827">
        <ele>378</ele>
        <time>2015-03-28T16:19:47Z</time>
      </trkpt>
      <trkpt lat="49.98134" lon="5.26831">
        <ele>378</ele>
        <time>2015-03-28T16:19:53Z</time>
      </trkpt>
      <trkpt lat="49.98136" lon="5.26839">
        <ele>378</ele>
        <time>2015-03-28T16:19:58Z</time>
      </trkpt>
      <trkpt lat="49.98143" lon="5.26853">
        <ele>378</ele>
        <time>2015-03-28T16:20:36Z</time>
      </trkpt>
      <trkpt lat="49.98146" lon="5.26856">
        <ele>378</ele>
        <time>2015-03-28T16:20:41Z</time>
      </trkpt>
      <trkpt lat="49.98146" lon="5.26865">
        <ele>379</ele>
        <time>2015-03-28T16:20:47Z</time>
      </trkpt>
      <trkpt lat="49.98151" lon="5.2687">
        <ele>378</ele>
        <time>2015-03-28T16:20:52Z</time>
      </trkpt>
      <trkpt lat="49.98158" lon="5.2687">
        <ele>378</ele>
        <time>2015-03-28T16:20:58Z</time>
      </trkpt>
      <trkpt lat="49.98165" lon="5.26867">
        <ele>378</ele>
        <time>2015-03-28T16:21:04Z</time>
      </trkpt>
      <trkpt lat="49.98168" lon="5.26864">
        <ele>378</ele>
        <time>2015-03-28T16:21:09Z</time>
      </trkpt>
      <trkpt lat="49.98173" lon="5.2685">
        <ele>378</ele>
        <time>2015-03-28T16:21:15Z</time>
      </trkpt>
      <trkpt lat="49.98171" lon="5.26843">
        <ele>378</ele>
        <time>2015-03-28T16:21:20Z</time>
      </trkpt>
      <trkpt lat="49.98169" lon="5.26847">
        <ele>378</ele>
        <time>2015-03-28T16:21:25Z</time>
      </trkpt>
      <trkpt lat="49.98167" lon="5.26857">
        <ele>378</ele>
        <time>2015-03-28T16:21:31Z</time>
      </trkpt>
      <trkpt lat="49.98164" lon="5.26856">
        <ele>378</ele>
        <time>2015-03-28T16:21:36Z</time>
      </trkpt>
      <trkpt lat="49.98161" lon="5.2685">
        <ele>378</ele>
        <time>2015-03-28T16:21:42Z</time>
      </trkpt>
      <trkpt lat="49.9816" lon="5.26846">
        <ele>378</ele>
        <time>2015-03-28T16:21:47Z</time>
      </trkpt>
      <trkpt lat="49.9816" lon="5.2685">
        <ele>379</ele>
        <time>2015-03-28T16:21:52Z</time>
      </trkpt>
      <trkpt lat="49.98153" lon="5.26879">
        <ele>378</ele>
        <time>2015-03-28T16:22:58Z</time>
      </trkpt>
      <trkpt lat="49.98148" lon="5.2687">
        <ele>378</ele>
        <time>2015-03-28T16:23:21Z</time>
      </trkpt>
      <trkpt lat="49.98146" lon="5.26863">
        <ele>378</ele>
        <time>2015-03-28T16:23:27Z</time>
      </trkpt>
      <trkpt lat="49.98149" lon="5.26868">
        <ele>378</ele>
        <time>2015-03-28T16:23:32Z</time>
      </trkpt>
      <trkpt lat="49.98153" lon="5.26887">
        <ele>378</ele>
        <time>2015-03-28T16:23:38Z</time>
      </trkpt>
      <trkpt lat="49.98135" lon="5.26846">
        <ele>378</ele>
        <time>2015-03-28T16:27:54Z</time>
      </trkpt>
      <trkpt lat="49.98155" lon="5.26893">
        <ele>378</ele>
        <time>2015-03-28T16:28:00Z</time>
      </trkpt>
      <trkpt lat="49.98159" lon="5.26913">
        <ele>378</ele>
        <time>2015-03-28T16:28:06Z</time>
      </trkpt>
      <trkpt lat="49.98173" lon="5.26945">
        <ele>378</ele>
        <time>2015-03-28T16:28:12Z</time>
      </trkpt>
      <trkpt lat="49.98175" lon="5.26943">
        <ele>378</ele>
        <time>2015-03-28T16:28:17Z</time>
      </trkpt>
      <trkpt lat="49.98169" lon="5.26841">
        <ele>378</ele>
        <time>2015-03-28T16:29:41Z</time>
      </trkpt>
      <trkpt lat="49.98162" lon="5.26844">
        <ele>379</ele>
        <time>2015-03-28T16:29:53Z</time>
      </trkpt>
      <trkpt lat="49.98152" lon="5.26861">
        <ele>379</ele>
        <time>2015-03-28T16:29:58Z</time>
      </trkpt>
      <trkpt lat="49.98149" lon="5.2687">
        <ele>379</ele>
        <time>2015-03-28T16:30:03Z</time>
      </trkpt>
      <trkpt lat="49.98148" lon="5.26881">
        <ele>379</ele>
        <time>2015-03-28T16:30:08Z</time>
      </trkpt>
      <trkpt lat="49.98175" lon="5.26917">
        <ele>379</ele>
        <time>2015-03-28T16:30:39Z</time>
      </trkpt>
      <trkpt lat="49.9817" lon="5.26902">
        <ele>379</ele>
        <time>2015-03-28T16:30:44Z</time>
      </trkpt>
      <trkpt lat="49.98161" lon="5.26878">
        <ele>379</ele>
        <time>2015-03-28T16:30:50Z</time>
      </trkpt>
      <trkpt lat="49.98154" lon="5.26881">
        <ele>379</ele>
        <time>2015-03-28T16:30:56Z</time>
      </trkpt>
      <trkpt lat="49.98148" lon="5.26876">
        <ele>379</ele>
        <time>2015-03-28T16:31:15Z</time>
      </trkpt>
      <trkpt lat="49.98153" lon="5.26883">
        <ele>379</ele>
        <time>2015-03-28T16:31:21Z</time>
      </trkpt>
      <trkpt lat="49.9815" lon="5.26872">
        <ele>379</ele>
        <time>2015-03-28T16:31:26Z</time>
      </trkpt>
      <trkpt lat="49.98143" lon="5.26854">
        <ele>379</ele>
        <time>2015-03-28T16:31:32Z</time>
      </trkpt>
      <trkpt lat="49.98137" lon="5.26845">
        <ele>379</ele>
        <time>2015-03-28T16:31:38Z</time>
      </trkpt>
      <trkpt lat="49.98133" lon="5.26845">
        <ele>379</ele>
        <time>2015-03-28T16:31:43Z</time>
      </trkpt>
      <trkpt lat="49.98144" lon="5.26876">
        <ele>379</ele>
        <time>2015-03-28T16:31:57Z</time>
      </trkpt>
      <trkpt lat="49.98147" lon="5.26895">
        <ele>379</ele>
        <time>2015-03-28T16:32:03Z</time>
      </trkpt>
      <trkpt lat="49.98151" lon="5.26909">
        <ele>379</ele>
        <time>2015-03-28T16:32:09Z</time>
      </trkpt>
      <trkpt lat="49.98149" lon="5.26903">
        <ele>380</ele>
        <time>2015-03-28T16:32:14Z</time>
      </trkpt>
      <trkpt lat="49.98169" lon="5.26941">
        <ele>380</ele>
        <time>2015-03-28T16:32:35Z</time>
      </trkpt>
      <trkpt lat="49.98158" lon="5.26925">
        <ele>380</ele>
        <time>2015-03-28T16:32:41Z</time>
      </trkpt>
      <trkpt lat="49.98153" lon="5.26896">
        <ele>379</ele>
        <time>2015-03-28T16:32:47Z</time>
      </trkpt>
      <trkpt lat="49.98151" lon="5.26872">
        <ele>379</ele>
        <time>2015-03-28T16:32:53Z</time>
      </trkpt>
      <trkpt lat="49.98153" lon="5.26881">
        <ele>379</ele>
        <time>2015-03-28T16:33:02Z</time>
      </trkpt>
      <trkpt lat="49.98153" lon="5.26882">
        <ele>379</ele>
        <time>2015-03-28T16:33:08Z</time>
      </trkpt>
      <trkpt lat="49.98146" lon="5.26874">
        <ele>379</ele>
        <time>2015-03-28T16:33:14Z</time>
      </trkpt>
      <trkpt lat="49.9814" lon="5.26864">
        <ele>379</ele>
        <time>2015-03-28T16:33:20Z</time>
      </trkpt>
      <trkpt lat="49.98145" lon="5.26849">
        <ele>379</ele>
        <time>2015-03-28T16:33:26Z</time>
      </trkpt>
      <trkpt lat="49.98146" lon="5.26826">
        <ele>379</ele>
        <time>2015-03-28T16:33:32Z</time>
      </trkpt>
      <trkpt lat="49.98145" lon="5.26794">
        <ele>379</ele>
        <time>2015-03-28T16:33:38Z</time>
      </trkpt>
      <trkpt lat="49.98158" lon="5.26786">
        <ele>379</ele>
        <time>2015-03-28T16:33:44Z</time>
      </trkpt>
      <trkpt lat="49.98161" lon="5.26786">
        <ele>379</ele>
        <time>2015-03-28T16:33:50Z</time>
      </trkpt>
      <trkpt lat="49.98163" lon="5.26793">
        <ele>379</ele>
        <time>2015-03-28T16:33:55Z</time>
      </trkpt>
      <trkpt lat="49.98164" lon="5.26801">
        <ele>379</ele>
        <time>2015-03-28T16:34:00Z</time>
      </trkpt>
      <trkpt lat="49.98164" lon="5.26818">
        <ele>379</ele>
        <time>2015-03-28T16:34:06Z</time>
      </trkpt>
      <trkpt lat="49.98159" lon="5.26821">
        <ele>379</ele>
        <time>2015-03-28T16:34:11Z</time>
      </trkpt>
      <trkpt lat="49.98157" lon="5.26825">
        <ele>379</ele>
        <time>2015-03-28T16:34:17Z</time>
      </trkpt>
      <trkpt lat="49.98156" lon="5.2683">
        <ele>379</ele>
        <time>2015-03-28T16:34:23Z</time>
      </trkpt>
      <trkpt lat="49.98157" lon="5.26835">
        <ele>379</ele>
        <time>2015-03-28T16:34:29Z</time>
      </trkpt>
      <trkpt lat="49.98156" lon="5.26827">
        <ele>379</ele>
        <time>2015-03-28T16:34:34Z</time>
      </trkpt>
      <trkpt lat="49.98149" lon="5.26815">
        <ele>379</ele>
        <time>2015-03-28T16:34:39Z</time>
      </trkpt>
      <trkpt lat="49.98153" lon="5.26842">
        <ele>379</ele>
        <time>2015-03-28T16:34:53Z</time>
      </trkpt>
      <trkpt lat="49.98154" lon="5.26845">
        <ele>379</ele>
        <time>2015-03-28T16:36:35Z</time>
      </trkpt>
    </trkseg>
  </trk>
</gpx>